Pastebin launched a little side project called VERYVIRAL.com, check it out ;-) Want more features on Pastebin? Sign Up, it's FREE!
Guest

crashsystems

By: a guest on Nov 22nd, 2008  |  syntax: None  |  size: 324.08 KB  |  views: 292  |  expires: Never
download  |  raw  |  embed  |  report abuse  |  print
Text below is selected. Please press Ctrl+C to copy to your clipboard. (⌘+C on Mac)
  1. -31.2,M,0.0,0000*4C
  2. $GPGSA,A,3,25,19,23,28,06,27,13,11,08,03,,,1.4,0.8,1.2*32
  3. $GPRMC,142922.830,A,2831.4703,N,08041.0068,W,0.09,136.52,211108,,*1E
  4. $GPGGA,142922.830,2831.4703,N,08041.0068,W,1,10,0.8,8.5,M,-31.2,M,0.0,0000*47
  5. $GPGSA,A,3,25,19,23,28,06,27,13,11,08,03,,,1.4,0.8,1.2*32
  6. $GPRMC,142923.830,A,2831.4702,N,08041.0066,W,0.03,213.66,211108,,*19
  7. $GPGGA,142923.830,2831.4702,N,08041.0066,W,1,09,0.8,7.8,M,-31.2,M,0.0,0000*43
  8. $GPGSA,A,3,25,23,28,06,27,13,11,08,03,,,,1.5,0.8,1.2*3B
  9. $GPRMC,142924.829,A,2831.4703,N,08041.0066,W,0.17,316.30,211108,,*15
  10. $GPGGA,142924.829,2831.4703,N,08041.0066,W,1,10,0.8,7.4,M,-31.2,M,0.0,0000*49
  11. $GPGSA,A,3,25,19,23,28,06,07,27,11,08,03,,,1.4,0.8,1.1*34
  12. $GPRMC,142926.829,A,2831.4703,N,08041.0066,W,0.09,74.98,211108,,*2D
  13. $GPGGA,142926.829,2831.4703,N,08041.0066,W,1,08,0.8,7.9,M,-31.2,M,0.0,0000*4F
  14. $GPGSA,A,3,25,19,23,28,06,27,08,03,,,,,1.5,0.8,1.2*31
  15. $GPRMC,142927.829,A,2831.4705,N,08041.0067,W,0.07,130.66,211108,,*15
  16. $GPGGA,142927.829,2831.4705,N,08041.0067,W,1,07,1.0,7.9,M,-31.2,M,0.0,0000*4F
  17. $GPGSA,A,3,25,19,23,28,06,27,13,,,,,,1.6,1.0,1.2*32
  18. $GPRMC,142928.829,A,2831.4706,N,08041.0067,W,0.15,122.50,211108,,*1C
  19. $GPGGA,142928.829,2831.4706,N,08041.0067,W,1,09,1.0,8.0,M,-31.2,M,0.0,0000*4B
  20. $GPGSA,A,3,25,19,23,28,06,07,27,13,03,,,,1.5,1.0,1.1*36
  21. $GPRMC,142929.829,A,2831.4707,N,08041.0068,W,0.06,127.26,211108,,*15
  22. $GPGGA,142929.829,2831.4707,N,08041.0068,W,1,08,0.8,8.1,M,-31.2,M,0.0,0000*4D
  23. $GPGSA,A,3,25,19,23,28,06,27,08,03,,,,,1.5,0.8,1.2*31
  24. 31.2,M,0.0,0000*44
  25. $GPGSA,A,3,25,19,23,28,06,27,13,11,08,03,,,1.4,0.8,1.2*32
  26. $GPRMC,142932.829,A,2831.4712,N,08041.0076,W,0.04,154.57,211108,,*14
  27. $GPGGA,142932.829,2831.4712,N,08041.0076,W,1,11,0.8,8.8,M,-31.2,M,0.0,0000*4D
  28. $GPGSA,A,3,25,19,23,28,06,07,27,13,11,08,03,,1.3,0.8,1.0*30
  29. 31.2,M,0.0,0000*4A
  30. $GPGSA,A,3,25,19,23,28,06,07,27,13,11,08,03,,1.3,0.8,1.0*30
  31. $GPRMC,142934.829,A,2831.4715,N,08041.0082,W,0.04,64.88,211108,,*2E
  32. $GPGGA,142934.829,2831.4715,N,08041.0082,W,1,11,0.8,9.3,M,-31.2,M,0.0,0000*4D
  33. $GPGSA,A,3,25,19,23,28,06,07,27,13,11,08,03,,1.3,0.8,1.0*30
  34. $GPRMC,142936.829,A,2831.4713,N,08041.0087,W,0.08,123.51,211108,,*15
  35. $GPGGA,142936.829,2831.4713,N,08041.0087,W,1,09,0.8,10.0,M,-31.2,M,0.0,0000*7E
  36. $GPGSA,A,3,25,19,23,28,06,07,11,08,03,,,,1.4,0.8,1.1*31
  37. $GPRMC,142937.829,A,2831.4712,N,08041.0089,W,0.09,98.45,211108,,*2E
  38. $GPGGA,142937.829,2831.4712,N,08041.0089,W,1,09,0.8,10.4,M,-31.2,M,0.0,0000*74
  39. $GPGSA,A,3,25,19,23,28,06,07,11,08,03,,,,1.4,0.8,1.1*31
  40. $GPRMC,142938.829,A,2831.4712,N,08041.0091,W,0.10,68.92,211108,,*25
  41. $GPGGA,142938.829,2831.4712,N,08041.0091,W,1,10,0.8,10.9,M,-31.2,M,0.0,0000*77
  42. $GPGSA,A,3,25,19,23,28,06,07,27,11,08,03,,,1.4,0.8,1.1*34
  43. $GPRMC,142939.829,A,2831.4712,N,08041.0094,W,0.06,117.28,211108,,*1E
  44. $GPGGA,142939.829,2831.4712,N,08041.0094,W,1,10,0.8,11.1,M,-31.2,M,0.0,0000*7A
  45. $GPGSA,A,3,19,23,28,06,07,27,13,11,08,03,,,1.4,0.8,1.2*32
  46. $GPRMC,142941.828,A,2831.4714,N,08041.0099,W,0.07,68.02,211108,,*2B
  47. $GPGGA,142941.828,2831.4714,N,08041.0099,W,1,09,1.0,10.5,M,-31.2,M,0.0,0000*7B
  48. $GPGSA,A,3,25,19,28,06,07,27,11,08,03,,,,1.8,1.0,1.3*32
  49. $GPRMC,142942.828,A,2831.4715,N,08041.0101,W,0.05,87.75,211108,,*2A
  50. $GPGGA,142942.828,2831.4715,N,08041.0101,W,1,10,0.8,9.8,M,-31.2,M,0.0,0000*4D
  51. $GPGSA,A,3,25,19,23,28,06,07,27,11,08,03,,,1.4,0.8,1.1*34
  52. $GPRMC,142943.828,A,2831.4717,N,08041.0102,W,0.11,81.07,211108,,*2C
  53. $GPGGA,142943.828,2831.4717,N,08041.0102,W,1,10,0.8,9.1,M,-31.2,M,0.0,0000*44
  54. $GPGSA,A,3,25,19,23,28,06,07,27,11,08,03,,,1.4,0.8,1.1*34
  55. $GPRMC,142944.828,A,2831.4718,N,08041.0102,W,0.04,102.70,211108,,*1A
  56. $GPGGA,142944.828,2831.4718,N,08041.0102,W,1,11,0.8,8.6,M,-31.2,M,0.0,0000*4B
  57. $GPGSA,A,3,25,19,23,28,06,07,27,13,11,08,03,,1.3,0.8,1.0*30
  58. -31.2,M,0.0,0000*42
  59. $GPGSA,A,3,25,19,23,28,06,07,27,13,11,08,03,,1.3,0.8,1.0*30
  60. $GPRMC,142947.828,A,2831.4721,N,08041.0101,W,0.10,104.80,211108,,*1C
  61. $GPGGA,142947.828,2831.4721,N,08041.0101,W,1,11,0.8,7.4,M,-31.2,M,0.0,0000*4C
  62. $GPGSA,A,3,25,19,23,28,06,07,27,13,11,08,03,,1.3,0.8,1.0*30
  63. $GPRMC,142948.828,A,2831.4721,N,08041.0099,W,0.11,83.83,211108,,*2F
  64. $GPGGA,142948.828,2831.4721,N,08041.0099,W,1,10,0.8,7.1,M,-31.2,M,0.0,0000*47
  65. $GPGSA,A,3,25,19,23,28,06,07,27,11,08,03,,,1.4,0.8,1.1*34
  66. $GPRMC,142949.828,A,2831.4722,N,08041.0098,W,0.18,102.38,211108,,*1D
  67. $GPGGA,142949.828,2831.4722,N,08041.0098,W,1,10,0.8,7.0,M,-31.2,M,0.0,0000*45
  68. $GPGSA,A,3,25,19,23,28,06,07,27,11,08,03,,,1.4,0.8,1.1*34
  69. -31.2,M,0.0,0000*44
  70. $GPGSA,A,3,23,28,06,07,27,13,08,03,,,,,1.6,0.8,1.3*39
  71. $GPRMC,142952.828,A,2831.4723,N,08041.0095,W,0.10,119.02,211108,,*10
  72. $GPGGA,142952.828,2831.4723,N,08041.0095,W,1,08,0.8,8.3,M,-31.2,M,0.0,0000*46
  73. $GPGSA,A,3,23,28,06,27,13,11,08,03,,,,,1.8,0.8,1.5*36
  74. -31.2,M,0.0,0000*44
  75. $GPGSA,A,3,19,23,28,06,27,11,08,03,,,,,1.6,0.8,1.4*33
  76. $GPRMC,142954.828,A,2831.4725,N,08041.0095,W,0.06,45.42,211108,,*2B
  77. $GPGGA,142954.828,2831.4725,N,08041.0095,W,1,08,1.6,8.9,M,-31.2,M,0.0,0000*43
  78. $GPGSA,A,3,25,19,23,06,27,13,11,03,,,,,2.1,1.6,1.4*3F
  79. $GPRMC,142956.828,A,2831.4725,N,08041.0095,W,0.12,61.72,211108,,*29
  80. $GPGGA,142956.828,2831.4725,N,08041.0095,W,1,11,0.8,9.1,M,-31.2,M,0.0,0000*4F
  81. $GPGSA,A,3,25,19,23,28,06,07,27,13,11,08,03,,1.3,0.8,1.0*30
  82. $GPRMC,142957.827,A,2831.4726,N,08041.0094,W,0.21,68.51,211108,,*2D
  83. $GPGGA,142957.827,2831.4726,N,08041.0094,W,1,09,0.8,9.9,M,-31.2,M,0.0,0000*42
  84. $GPGSA,A,3,19,23,28,06,07,27,13,11,03,,,,1.5,0.8,1.2*3B
  85. $GPRMC,142958.827,A,2831.4725,N,08041.0093,W,0.10,88.41,211108,,*2B
  86. $GPGGA,142958.827,2831.4725,N,08041.0093,W,1,10,0.8,10.4,M,-31.2,M,0.0,0000*74
  87. $GPGSA,A,3,25,19,23,28,06,07,27,13,11,03,,,1.4,0.8,1.0*3F
  88. $GPRMC,142959.827,A,2831.4724,N,08041.0094,W,0.25,259.44,211108,,*11
  89. $GPGGA,142959.827,2831.4724,N,08041.0094,W,1,10,0.8,10.8,M,-31.2,M,0.0,0000*7F
  90. $GPGSA,A,3,25,19,23,28,06,07,27,13,11,03,,,1.4,0.8,1.0*3F
  91. $GPRMC,143001.827,A,2831.4721,N,08041.0094,W,0.06,129.76,211108,,*15
  92. $GPGGA,143001.827,2831.4721,N,08041.0094,W,1,08,1.0,11.3,M,-31.2,M,0.0,0000*75
  93. $GPGSA,A,3,25,19,23,28,27,13,11,03,,,,,1.7,1.0,1.4*30
  94. $GPRMC,143002.827,A,2831.4719,N,08041.0094,W,0.12,100.86,211108,,*1C
  95. $GPGGA,143002.827,2831.4719,N,08041.0094,W,1,09,0.8,10.7,M,-31.2,M,0.0,0000*70
  96. $GPGSA,A,3,25,19,23,28,07,27,13,11,03,,,,1.6,0.8,1.2*39
  97. $GPRMC,143003.827,A,2831.4716,N,08041.0094,W,0.04,113.64,211108,,*1B
  98. $GPGGA,143003.827,2831.4716,N,08041.0094,W,1,09,0.8,10.6,M,-31.2,M,0.0,0000*7F
  99. $GPGSA,A,3,19,23,28,06,07,27,13,11,03,,,,1.5,0.8,1.2*3B
  100. $GPRMC,143004.827,A,2831.4714,N,08041.0095,W,0.02,104.68,211108,,*13
  101. $GPGGA,143004.827,2831.4714,N,08041.0095,W,1,10,0.8,10.5,M,-31.2,M,0.0,0000*70
  102. $GPGSA,A,3,25,19,23,28,06,07,27,13,11,03,,,1.4,0.8,1.0*3F
  103. ,-31.2,M,0.0,0000*75
  104. $GPGSA,A,3,25,19,23,28,06,07,27,13,11,03,,,1.4,0.8,1.0*3F
  105. $GPRMC,143007.827,A,2831.4709,N,08041.0098,W,0.03,38.36,211108,,*25
  106. $GPGGA,143007.827,2831.4709,N,08041.0098,W,1,10,0.8,10.4,M,-31.2,M,0.0,0000*73
  107. $GPGSA,A,3,25,19,23,28,06,07,27,13,11,03,,,1.4,0.8,1.0*3F
  108. $GPRMC,143008.827,A,2831.4710,N,08041.0099,W,0.07,38.37,211108,,*26
  109. $GPGGA,143008.827,2831.4710,N,08041.0099,W,1,11,0.8,10.5,M,-31.2,M,0.0,0000*75
  110. $GPGSA,A,3,25,19,23,28,06,07,27,13,11,08,03,,1.3,0.8,1.0*30
  111. $GPRMC,143009.827,A,2831.4711,N,08041.0101,W,0.06,94.62,211108,,*21
  112. $GPGGA,143009.827,2831.4711,N,08041.0101,W,1,11,0.8,10.6,M,-31.2,M,0.0,0000*76
  113. $GPGSA,A,3,25,19,23,28,06,07,27,13,11,08,03,,1.3,0.8,1.0*30
  114. $GPRMC,143011.827,A,2831.4711,N,08041.0102,W,0.05,92.99,211108,,*2A
  115. $GPGGA,143011.827,2831.4711,N,08041.0102,W,1,11,0.8,9.8,M,-31.2,M,0.0,0000*4A
  116. $GPGSA,A,3,25,19,23,28,06,07,27,13,11,08,03,,1.3,0.8,1.0*30
  117. $GPRMC,143012.827,A,2831.4710,N,08041.0102,W,0.18,77.89,211108,,*2E
  118. $GPGGA,143012.827,2831.4710,N,08041.0102,W,1,09,0.8,9.5,M,-31.2,M,0.0,0000*4C
  119. $GPGSA,A,3,25,19,23,28,06,07,27,11,03,,,,1.4,0.8,1.1*3C
  120. $GPRMC,143013.827,A,2831.4709,N,08041.0101,W,0.06,67.04,211108,,*2F
  121. $GPGGA,143013.827,2831.4709,N,08041.0101,W,1,11,0.8,8.9,M,-31.2,M,0.0,0000*42
  122. $GPGSA,A,3,25,19,23,28,06,07,27,13,11,08,03,,1.3,0.8,1.0*30
  123. $GPRMC,143014.826,A,2831.4709,N,08041.0100,W,0.08,115.12,211108,,*15
  124. $GPGGA,143014.826,2831.4709,N,08041.0100,W,1,11,0.8,8.8,M,-31.2,M,0.0,0000*44
  125. $GPGSA,A,3,25,19,23,28,06,07,27,13,11,08,03,,1.3,0.8,1.0*30
  126. $GPRMC,143016.826,A,2831.4710,N,08041.0098,W,0.05,52.93,211108,,*29
  127. $GPGGA,143016.826,2831.4710,N,08041.0098,W,1,10,0.8,8.8,M,-31.2,M,0.0,0000*4F
  128. $GPGSA,A,3,25,19,23,28,06,07,27,13,11,03,,,1.4,0.8,1.0*3F
  129. $GPRMC,143017.826,A,2831.4711,N,08041.0096,W,0.07,124.60,211108,,*19
  130. $GPGGA,143017.826,2831.4711,N,08041.0096,W,1,08,0.8,8.5,M,-31.2,M,0.0,0000*45
  131. $GPGSA,A,3,19,23,28,06,27,13,11,03,,,,,1.7,0.8,1.4*38
  132. $GPRMC,143018.826,A,2831.4711,N,08041.0093,W,0.04,96.95,211108,,*22
  133. $GPGGA,143018.826,2831.4711,N,08041.0093,W,1,07,1.0,8.4,M,-31.2,M,0.0,0000*48
  134. $GPGSA,A,3,19,28,06,27,13,11,03,,,,,,1.9,1.0,1.5*3F
  135. $GPRMC,143019.826,A,2831.4711,N,08041.0091,W,0.08,113.63,211108,,*18
  136. $GPGGA,143019.826,2831.4711,N,08041.0091,W,1,08,1.0,8.5,M,-31.2,M,0.0,0000*45
  137. $GPGSA,A,3,19,28,06,07,27,13,08,03,,,,,1.7,1.0,1.3*38
  138. $GPRMC,143021.826,A,2831.4713,N,08041.0088,W,0.09,93.39,211108,,*2E
  139. $GPGGA,143021.826,2831.4713,N,08041.0088,W,1,07,1.0,9.4,M,-31.2,M,0.0,0000*4B
  140. $GPGSA,A,3,25,19,28,27,13,11,03,,,,,,2.0,1.0,1.6*37
  141. $GPRMC,143022.826,A,2831.4716,N,08041.0088,W,0.09,131.50,211108,,*1E
  142. $GPGGA,143022.826,2831.4716,N,08041.0088,W,1,09,0.8,9.9,M,-31.2,M,0.0,0000*47
  143. $GPGSA,A,3,25,19,23,28,27,13,11,08,03,,,,1.6,0.8,1.4*30
  144. $GPRMC,143023.826,A,2831.4719,N,08041.0089,W,0.10,354.98,211108,,*1C
  145. $GPGGA,143023.826,2831.4719,N,08041.0089,W,1,09,0.8,10.1,M,-31.2,M,0.0,0000*78
  146. $GPGSA,A,3,25,19,23,28,27,13,11,08,03,,,,1.6,0.8,1.4*30
  147. ,-31.2,M,0.0,0000*7C
  148. $GPGSA,A,3,19,23,28,27,13,11,08,03,,,,,1.9,0.8,1.6*3A
  149. $GPRMC,143026.826,A,2831.4723,N,08041.0091,W,0.08,170.90,211108,,*1C
  150. $GPGGA,143026.826,2831.4723,N,08041.0091,W,1,10,0.8,10.4,M,-31.2,M,0.0,0000*70
  151. $GPGSA,A,3,25,19,23,28,06,07,27,13,11,03,,,1.4,0.8,1.0*3F
  152. $GPRMC,143027.826,A,2831.4722,N,08041.0090,W,0.16,117.98,211108,,*1B
  153. $GPGGA,143027.826,2831.4722,N,08041.0090,W,1,08,1.0,10.8,M,-31.2,M,0.0,0000*7D
  154. $GPGSA,A,3,25,19,28,27,13,11,08,03,,,,,1.9,1.0,1.6*35
  155. $GPRMC,143028.826,A,2831.4722,N,08041.0089,W,0.51,68.56,211108,,*24
  156. $GPGGA,143028.826,2831.4722,N,08041.0089,W,1,10,0.8,11.5,M,-31.2,M,0.0,0000*76
  157. $GPGSA,A,3,25,19,23,28,07,27,13,11,08,03,,,1.5,0.8,1.2*32
  158. $GPRMC,143029.826,A,2831.4721,N,08041.0087,W,0.16,116.02,211108,,*12
  159. $GPGGA,143029.826,2831.4721,N,08041.0087,W,1,09,0.8,12.9,M,-31.2,M,0.0,0000*7D
  160. $GPGSA,A,3,25,19,23,28,07,27,13,08,03,,,,1.6,0.8,1.2*31
  161. $GPRMC,143031.825,A,2831.4718,N,08041.0085,W,0.18,121.63,211108,,*1D
  162. $GPGGA,143031.825,2831.4718,N,08041.0085,W,1,09,0.8,15.7,M,-31.2,M,0.0,0000*76
  163. $GPGSA,A,3,25,19,23,28,07,27,13,08,03,,,,1.6,0.8,1.2*31
  164. $GPRMC,143032.825,A,2831.4719,N,08041.0085,W,0.09,112.49,211108,,*17
  165. $GPGGA,143032.825,2831.4719,N,08041.0085,W,1,09,0.8,16.5,M,-31.2,M,0.0,0000*75
  166. $GPGSA,A,3,19,23,28,07,27,13,11,08,03,,,,1.7,0.8,1.4*31
  167. $GPRMC,143033.825,A,2831.4719,N,08041.0086,W,0.06,116.10,211108,,*12
  168. $GPGGA,143033.825,2831.4719,N,08041.0086,W,1,10,0.8,17.1,M,-31.2,M,0.0,0000*7A
  169. $GPGSA,A,3,25,19,23,28,07,27,13,11,08,03,,,1.5,0.8,1.2*32
  170. $GPRMC,143034.825,A,2831.4720,N,08041.0088,W,0.04,89.96,211108,,*2A
  171. $GPGGA,143034.825,2831.4720,N,08041.0088,W,1,09,0.8,17.5,M,-31.2,M,0.0,0000*75
  172. $GPGSA,A,3,19,23,28,07,27,13,11,08,03,,,,1.7,0.8,1.4*31
  173. $GPRMC,143036.825,A,2831.4720,N,08041.0094,W,0.18,115.13,211108,,*11
  174. $GPGGA,143036.825,2831.4720,N,08041.0094,W,1,10,0.8,17.0,M,-31.2,M,0.0,0000*77
  175. $GPGSA,A,3,25,19,23,28,07,27,13,11,08,03,,,1.5,0.8,1.2*32
  176. $GPRMC,143037.825,A,2831.4720,N,08041.0096,W,0.09,82.17,211108,,*29
  177. $GPGGA,143037.825,2831.4720,N,08041.0096,W,1,10,0.8,15.4,M,-31.2,M,0.0,0000*72
  178. $GPGSA,A,3,25,19,23,28,07,27,13,11,08,03,,,1.5,0.8,1.2*32
  179. $GPRMC,143038.825,A,2831.4719,N,08041.0099,W,0.13,100.74,211108,,*16
  180. $GPGGA,143038.825,2831.4719,N,08041.0099,W,1,10,0.8,13.3,M,-31.2,M,0.0,0000*79
  181. $GPGSA,A,3,25,19,23,28,07,27,13,11,08,03,,,1.5,0.8,1.2*32
  182. $GPRMC,143039.825,A,2831.4719,N,08041.0101,W,0.08,123.59,211108,,*13
  183. $GPGGA,143039.825,2831.4719,N,08041.0101,W,1,10,0.8,11.1,M,-31.2,M,0.0,0000*78
  184. $GPGSA,A,3,25,19,23,28,07,27,13,11,08,03,,,1.5,0.8,1.2*32
  185. $GPRMC,143041.825,A,2831.4718,N,08041.0105,W,0.09,114.77,211108,,*10
  186. $GPGGA,143041.825,2831.4718,N,08041.0105,W,1,10,0.8,7.0,M,-31.2,M,0.0,0000*44
  187. $GPGSA,A,3,25,19,23,28,07,27,13,11,08,03,,,1.5,0.8,1.2*32
  188. $GPRMC,143042.825,A,2831.4718,N,08041.0107,W,0.14,99.18,211108,,*20
  189. $GPGGA,143042.825,2831.4718,N,08041.0107,W,1,10,0.8,5.3,M,-31.2,M,0.0,0000*44
  190. $GPGSA,A,3,25,19,23,28,07,27,13,11,08,03,,,1.5,0.8,1.2*32
  191. $GPRMC,143043.825,A,2831.4718,N,08041.0108,W,0.15,96.64,211108,,*2B
  192. $GPGGA,143043.825,2831.4718,N,08041.0108,W,1,10,0.8,4.0,M,-31.2,M,0.0,0000*48
  193. $GPGSA,A,3,25,19,23,28,07,27,13,11,08,03,,,1.5,0.8,1.2*32
  194. 31.2,M,0.0,0000*40
  195. $GPGSA,A,3,25,19,23,28,07,27,11,08,03,,,,1.6,0.8,1.2*33
  196. $GPRMC,143046.825,A,2831.4713,N,08041.0104,W,0.13,49.63,211108,,*2A
  197. $GPGGA,143046.825,2831.4713,N,08041.0104,W,1,10,0.8,2.5,M,-31.2,M,0.0,0000*49
  198. $GPGSA,A,3,25,19,23,28,07,27,13,11,08,03,,,1.5,0.8,1.2*32
  199. $GPRMC,143048.824,A,2831.4711,N,08041.0100,W,0.12,109.61,211108,,*15
  200. $GPGGA,143048.824,2831.4711,N,08041.0100,W,1,09,0.8,2.9,M,-31.2,M,0.0,0000*44
  201. $GPGSA,A,3,25,19,23,28,07,27,13,08,03,,,,1.6,0.8,1.2*31
  202. $GPRMC,143049.824,A,2831.4710,N,08041.0098,W,0.08,77.63,211108,,*24
  203. $GPGGA,143049.824,2831.4710,N,08041.0098,W,1,10,0.8,3.1,M,-31.2,M,0.0,0000*45
  204. $GPGSA,A,3,25,19,23,28,07,27,13,11,08,03,,,1.5,0.8,1.2*32
  205. $GPRMC,143051.824,A,2831.4714,N,08041.0096,W,0.17,123.21,211108,,*1F
  206. $GPGGA,143051.824,2831.4714,N,08041.0096,W,1,10,0.8,3.0,M,-31.2,M,0.0,0000*47
  207. $GPGSA,A,3,25,19,23,28,07,27,13,11,08,03,,,1.5,0.8,1.2*32
  208. $GPRMC,143052.824,A,2831.4714,N,08041.0095,W,0.08,125.82,211108,,*1E
  209. $GPGGA,143052.824,2831.4714,N,08041.0095,W,1,09,0.8,3.2,M,-31.2,M,0.0,0000*4D
  210. $GPGSA,A,3,25,19,23,28,07,27,13,11,03,,,,1.6,0.8,1.2*39
  211. $GPRMC,143053.824,A,2831.4715,N,08041.0094,W,0.13,121.99,211108,,*1B
  212. $GPGGA,143053.824,2831.4715,N,08041.0094,W,1,09,0.8,3.0,M,-31.2,M,0.0,0000*4E
  213. $GPGSA,A,3,25,23,28,07,27,13,11,08,03,,,,1.6,0.8,1.2*39
  214. -31.2,M,0.0,0000*41
  215. $GPGSA,A,3,25,23,28,07,27,13,03,,,,,,1.7,1.0,1.2*39
  216. -31.2,M,0.0,0000*47
  217. $GPGSA,A,3,25,19,23,28,07,27,13,08,03,,,,1.6,0.8,1.2*31
  218. $GPRMC,143057.824,A,2831.4714,N,08041.0089,W,0.06,108.76,211108,,*1C
  219. $GPGGA,143057.824,2831.4714,N,08041.0089,W,1,10,0.8,3.4,M,-31.2,M,0.0,0000*4B
  220. $GPGSA,A,3,25,19,23,28,07,27,13,11,08,03,,,1.5,0.8,1.2*32
  221. $GPRMC,143058.824,A,2831.4715,N,08041.0088,W,0.05,99.93,211108,,*22
  222. $GPGGA,143058.824,2831.4715,N,08041.0088,W,1,10,0.8,4.0,M,-31.2,M,0.0,0000*47
  223. $GPGSA,A,3,25,19,23,28,07,27,13,11,08,03,,,1.5,0.8,1.2*32
  224. -31.2,M,0.0,0000*4E
  225. $GPGSA,A,3,25,19,23,28,07,27,13,11,08,03,,,1.5,0.8,1.2*32
  226. $GPRMC,143101.824,A,2831.4715,N,08041.0087,W,0.13,103.45,211108,,*1E
  227. $GPGGA,143101.824,2831.4715,N,08041.0087,W,1,09,0.8,4.9,M,-31.2,M,0.0,0000*44
  228. $GPGSA,A,3,19,23,28,07,27,13,11,08,03,,,,1.7,0.8,1.4*31
  229. $GPRMC,143102.824,A,2831.4714,N,08041.0088,W,0.07,24.98,211108,,*22
  230. $GPGGA,143102.824,2831.4714,N,08041.0088,W,1,10,0.8,4.8,M,-31.2,M,0.0,0000*40
  231. $GPGSA,A,3,25,19,23,28,07,27,13,11,08,03,,,1.5,0.8,1.2*32
  232. $GPRMC,143103.823,A,2831.4714,N,08041.0089,W,0.15,226.68,211108,,*19
  233. $GPGGA,143103.823,2831.4714,N,08041.0089,W,1,09,0.8,4.7,M,-31.2,M,0.0,0000*40
  234. $GPGSA,A,3,25,19,23,28,07,27,13,11,03,,,,1.6,0.8,1.2*39
  235. $GPRMC,143106.823,A,2831.4716,N,08041.0091,W,0.08,139.61,211108,,*1F
  236. $GPGGA,143106.823,2831.4716,N,08041.0091,W,1,07,0.8,4.4,M,-31.2,M,0.0,0000*43
  237. $GPGSA,A,3,23,28,27,13,11,08,03,,,,,,2.0,0.8,1.7*39
  238. -31.2,M,0.0,0000*48
  239. $GPGSA,A,3,19,23,28,27,13,11,08,03,,,,,1.9,0.8,1.6*3A
  240. $GPRMC,143108.823,A,2831.4716,N,08041.0092,W,0.18,133.31,211108,,*1C
  241. $GPGGA,143108.823,2831.4716,N,08041.0092,W,1,07,1.0,4.1,M,-31.2,M,0.0,0000*42
  242. $GPGSA,A,3,19,23,28,07,13,11,03,,,,,,1.8,1.0,1.5*3B
  243. $GPRMC,143109.823,A,2831.4716,N,08041.0092,W,0.10,70.19,211108,,*29
  244. $GPGGA,143109.823,2831.4716,N,08041.0092,W,1,10,0.8,4.2,M,-31.2,M,0.0,0000*4F
  245. $GPGSA,A,3,25,19,23,28,07,27,13,11,08,03,,,1.5,0.8,1.2*32
  246. $GPRMC,143112.823,A,2831.4717,N,08041.0092,W,0.13,228.07,211108,,*11
  247. $GPGGA,143112.823,2831.4717,N,08041.0092,W,1,06,1.8,4.4,M,-31.2,M,0.0,0000*44
  248. $GPGSA,A,3,25,19,28,13,11,08,,,,,,,4.2,1.8,3.7*36
  249. $GPRMC,143113.823,A,2831.4722,N,08041.0091,W,0.05,115.57,211108,,*1A
  250. $GPGGA,143113.823,2831.4722,N,08041.0091,W,1,08,0.8,3.4,M,-31.2,M,0.0,0000*48
  251. $GPGSA,A,3,25,19,23,28,13,11,08,03,,,,,1.8,0.8,1.5*3A
  252. $GPRMC,143114.823,A,2831.4725,N,08041.0090,W,0.04,115.48,211108,,*14
  253. $GPGGA,143114.823,2831.4725,N,08041.0090,W,1,09,0.8,2.7,M,-31.2,M,0.0,0000*4A
  254. $GPGSA,A,3,25,19,23,28,27,13,11,08,03,,,,1.6,0.8,1.4*30
  255. $GPRMC,143116.823,A,2831.4733,N,08041.0085,W,0.09,118.48,211108,,*15
  256. $GPGGA,143116.823,2831.4733,N,08041.0085,W,1,10,0.8,1.7,M,-31.2,M,0.0,0000*40
  257. $GPGSA,A,3,25,19,23,28,17,27,13,11,08,03,,,1.5,0.8,1.3*32
  258. $GPRMC,143117.823,A,2831.4736,N,08041.0083,W,0.17,138.04,211108,,*12
  259. $GPGGA,143117.823,2831.4736,N,08041.0083,W,1,09,0.8,2.2,M,-31.2,M,0.0,0000*4C
  260. $GPGSA,A,3,25,19,28,17,27,13,11,08,03,,,,1.6,0.8,1.3*30
  261. -31.2,M,0.0,0000*4D
  262. $GPGSA,A,3,25,19,28,17,27,13,11,08,03,,,,1.6,0.8,1.3*30
  263. $GPRMC,143119.822,A,2831.4740,N,08041.0078,W,0.09,137.56,211108,,*1F
  264. $GPGGA,143119.822,2831.4740,N,08041.0078,W,1,10,0.8,3.6,M,-31.2,M,0.0,0000*4B
  265. $GPGSA,A,3,25,19,23,28,17,27,13,11,08,03,,,1.5,0.8,1.3*32
  266. $GPRMC,143121.822,A,2831.4738,N,08041.0074,W,0.05,102.76,211108,,*1F
  267. $GPGGA,143121.822,2831.4738,N,08041.0074,W,1,10,0.8,4.2,M,-31.2,M,0.0,0000*40
  268. $GPGSA,A,3,25,19,23,28,17,27,13,11,08,03,,,1.5,0.8,1.3*32
  269. $GPRMC,143123.822,A,2831.4733,N,08041.0073,W,0.06,88.64,211108,,*22
  270. $GPGGA,143123.822,2831.4733,N,08041.0073,W,1,10,0.8,3.9,M,-31.2,M,0.0,0000*42
  271. $GPGSA,A,3,25,19,23,28,17,27,13,11,08,03,,,1.5,0.8,1.3*32
  272. $GPRMC,143124.822,A,2831.4731,N,08041.0074,W,0.07,69.30,211108,,*2F
  273. $GPGGA,143124.822,2831.4731,N,08041.0074,W,1,10,0.8,3.4,M,-31.2,M,0.0,0000*4D
  274. $GPGSA,A,3,25,19,23,28,17,27,13,11,08,03,,,1.5,0.8,1.3*32
  275. -31.2,M,0.0,0000*49
  276. $GPGSA,A,3,25,19,23,28,07,17,27,13,11,08,03,,1.4,0.8,1.1*36
  277. $GPRMC,143127.822,A,2831.4730,N,08041.0073,W,0.04,92.91,211108,,*26
  278. $GPGGA,143127.822,2831.4730,N,08041.0073,W,1,11,0.8,2.0,M,-31.2,M,0.0,0000*4C
  279. $GPGSA,A,3,25,19,23,28,07,17,27,13,11,08,03,,1.4,0.8,1.1*36
  280. 31.2,M,0.0,0000*41
  281. $GPGSA,A,3,25,19,23,28,17,27,13,11,08,03,,,1.5,0.8,1.3*32
  282. $GPRMC,143129.822,A,2831.4733,N,08041.0070,W,0.02,144.36,211108,,*19
  283. $GPGGA,143129.822,2831.4733,N,08041.0070,W,1,10,0.8,2.8,M,-31.2,M,0.0,0000*4B
  284. $GPGSA,A,3,25,19,23,28,17,27,13,11,08,03,,,1.5,0.8,1.3*32
  285. $GPRMC,143131.822,A,2831.4734,N,08041.0071,W,0.01,32.22,211108,,*20
  286. $GPGGA,143131.822,2831.4734,N,08041.0071,W,1,10,0.8,3.9,M,-31.2,M,0.0,0000*44
  287. $GPGSA,A,3,25,19,23,28,17,27,13,11,08,03,,,1.5,0.8,1.3*32
  288. $GPRMC,143132.822,A,2831.4733,N,08041.0073,W,0.04,72.07,211108,,*20
  289. $GPGGA,143132.822,2831.4733,N,08041.0073,W,1,10,0.8,5.4,M,-31.2,M,0.0,0000*49
  290. $GPGSA,A,3,25,19,23,28,17,27,13,11,08,03,,,1.5,0.8,1.3*32
  291. $GPRMC,143133.822,A,2831.4731,N,08041.0076,W,0.09,140.75,211108,,*1E
  292. $GPGGA,143133.822,2831.4731,N,08041.0076,W,1,10,0.8,6.9,M,-31.2,M,0.0,0000*41
  293. $GPGSA,A,3,25,19,23,28,17,27,13,11,08,03,,,1.5,0.8,1.3*32
  294. $GPRMC,143134.822,A,2831.4731,N,08041.0078,W,0.07,129.73,211108,,*10
  295. $GPGGA,143134.822,2831.4731,N,08041.0078,W,1,08,1.4,8.2,M,-31.2,M,0.0,0000*49
  296. $GPGSA,A,3,19,23,28,17,27,13,11,08,,,,,2.8,1.4,2.4*31
  297. $GPRMC,143136.821,A,2831.4731,N,08041.0083,W,0.06,129.94,211108,,*1D
  298. $GPGGA,143136.821,2831.4731,N,08041.0083,W,1,09,1.4,9.3,M,-31.2,M,0.0,0000*4D
  299. $GPGSA,A,3,25,19,28,07,17,27,13,11,08,,,,2.6,1.4,2.1*3B
  300. $GPRMC,143137.821,A,2831.4732,N,08041.0083,W,0.09,109.38,211108,,*14
  301. $GPGGA,143137.821,2831.4732,N,08041.0083,W,1,11,0.8,8.4,M,-31.2,M,0.0,0000*4D
  302. $GPGSA,A,3,25,19,23,28,07,17,27,13,11,08,03,,1.4,0.8,1.1*36
  303. $GPRMC,143138.821,A,2831.4732,N,08041.0082,W,0.10,89.34,211108,,*27
  304. $GPGGA,143138.821,2831.4732,N,08041.0082,W,1,11,0.8,7.4,M,-31.2,M,0.0,0000*4C
  305. $GPGSA,A,3,25,19,23,28,07,17,27,13,11,08,03,,1.4,0.8,1.1*36
  306. $GPRMC,143139.821,A,2831.4731,N,08041.0081,W,0.04,54.36,211108,,*21
  307. $GPGGA,143139.821,2831.4731,N,08041.0081,W,1,11,0.8,6.8,M,-31.2,M,0.0,0000*40
  308. $GPGSA,A,3,25,19,23,28,07,17,27,13,11,08,03,,1.4,0.8,1.1*36
  309. $GPRMC,143141.821,A,2831.4733,N,08041.0078,W,0.06,107.57,211108,,*18
  310. $GPGGA,143141.821,2831.4733,N,08041.0078,W,1,11,0.8,7.0,M,-31.2,M,0.0,0000*42
  311. $GPGSA,A,3,25,19,23,28,07,17,27,13,11,08,03,,1.4,0.8,1.1*36
  312. $GPRMC,143142.821,A,2831.4735,N,08041.0075,W,0.04,86.05,211108,,*2D
  313. $GPGGA,143142.821,2831.4735,N,08041.0075,W,1,11,0.8,8.1,M,-31.2,M,0.0,0000*44
  314. $GPGSA,A,3,25,19,23,28,07,17,27,13,11,08,03,,1.4,0.8,1.1*36
  315. $GPRMC,143143.821,A,2831.4739,N,08041.0072,W,0.11,123.75,211108,,*1A
  316. $GPGGA,143143.821,2831.4739,N,08041.0072,W,1,10,0.8,9.7,M,-31.2,M,0.0,0000*48
  317. $GPGSA,A,3,25,19,23,28,07,27,13,11,08,03,,,1.5,0.8,1.2*32
  318. $GPRMC,143144.821,A,2831.4741,N,08041.0070,W,0.07,135.99,211108,,*12
  319. $GPGGA,143144.821,2831.4741,N,08041.0070,W,1,10,0.8,11.9,M,-31.2,M,0.0,0000*75
  320. $GPGSA,A,3,25,19,23,28,07,27,13,11,08,03,,,1.5,0.8,1.2*32
  321. $GPRMC,143146.821,A,2831.4744,N,08041.0064,W,0.19,92.55,211108,,*23
  322. $GPGGA,143146.821,2831.4744,N,08041.0064,W,1,10,0.8,15.2,M,-31.2,M,0.0,0000*78
  323. $GPGSA,A,3,25,19,23,28,07,27,13,11,08,03,,,1.5,0.8,1.2*32
  324. $GPRMC,143147.821,A,2831.4746,N,08041.0060,W,0.10,24.68,211108,,*2E
  325. $GPGGA,143147.821,2831.4746,N,08041.0060,W,1,10,0.8,15.4,M,-31.2,M,0.0,0000*79
  326. $GPGSA,A,3,25,19,23,28,07,27,13,11,08,03,,,1.5,0.8,1.2*32
  327. $GPRMC,143151.821,A,2831.4755,N,08041.0055,W,1.15,2.78,211108,,*1C
  328. $GPGGA,143151.821,2831.4755,N,08041.0055,W,1,09,0.8,10.9,M,-31.2,M,0.0,0000*7A
  329. $GPGSA,A,3,25,23,28,07,17,27,11,08,03,,,,1.5,0.8,1.1*3D
  330. ,-31.2,M,0.0,0000*7B
  331. $GPGSA,A,3,25,19,23,28,07,17,27,11,08,03,,,1.5,0.8,1.1*35
  332. $GPRMC,143153.820,A,2831.4758,N,08041.0055,W,1.28,0.82,211108,,*1B
  333. $GPGGA,143153.820,2831.4758,N,08041.0055,W,1,11,0.8,9.1,M,-31.2,M,0.0,0000*4D
  334. $GPGSA,A,3,25,19,23,28,07,17,27,13,11,08,03,,1.4,0.8,1.1*36
  335. $GPRMC,143154.820,A,2831.4758,N,08041.0056,W,1.19,7.01,211108,,*11
  336. $GPGGA,143154.820,2831.4758,N,08041.0056,W,1,09,1.0,8.5,M,-31.2,M,0.0,0000*4C
  337. $GPGSA,A,3,25,19,23,07,27,13,11,08,03,,,,1.8,1.0,1.4*3A
  338. -31.2,M,0.0,0000*41
  339. $GPGSA,A,3,25,19,23,28,07,27,13,11,08,03,,,1.5,0.8,1.2*32
  340. $GPRMC,143157.820,A,2831.4764,N,08041.0064,W,1.21,9.39,211108,,*12
  341. $GPGGA,143157.820,2831.4764,N,08041.0064,W,1,10,0.8,7.7,M,-31.2,M,0.0,0000*4D
  342. $GPGSA,A,3,25,19,23,28,07,27,13,11,08,03,,,1.5,0.8,1.2*32
  343. 1.2,M,0.0,0000*42
  344. $GPGSA,A,3,25,19,23,28,07,27,13,11,08,03,,,1.5,0.8,1.2*32
  345. $GPRMC,143159.820,A,2831.4767,N,08041.0070,W,1.10,0.85,211108,,*16
  346. $GPGGA,143159.820,2831.4767,N,08041.0070,W,1,09,0.8,7.5,M,-31.2,M,0.0,0000*4F
  347. $GPGSA,A,3,25,19,23,28,27,13,11,08,03,,,,1.6,0.8,1.3*37
  348. $GPRMC,143201.820,A,2831.4772,N,08041.0077,W,0.75,353.33,211108,,*11
  349. $GPGGA,143201.820,2831.4772,N,08041.0077,W,1,09,1.0,7.3,M,-31.2,M,0.0,0000*4D
  350. $GPGSA,A,3,25,19,23,07,27,13,11,08,03,,,,1.8,1.0,1.4*3A
  351. $GPRMC,143202.820,A,2831.4773,N,08041.0080,W,0.35,16.70,211108,,*2A
  352. $GPGGA,143202.820,2831.4773,N,08041.0080,W,1,08,1.2,7.3,M,-31.2,M,0.0,0000*44
  353. $GPGSA,A,3,25,19,23,07,27,11,08,03,,,,,1.9,1.2,1.4*3B
  354. $GPRMC,143203.820,A,2831.4774,N,08041.0082,W,0.19,333.87,211108,,*1C
  355. $GPGGA,143203.820,2831.4774,N,08041.0082,W,1,10,0.8,6.8,M,-31.2,M,0.0,0000*48
  356. $GPGSA,A,3,25,19,23,28,07,27,13,11,08,03,,,1.5,0.8,1.2*32
  357. $GPRMC,143204.820,A,2831.4774,N,08041.0084,W,0.11,352.33,211108,,*1D
  358. $GPGGA,143204.820,2831.4774,N,08041.0084,W,1,10,0.8,6.4,M,-31.2,M,0.0,0000*45
  359. $GPGSA,A,3,25,19,23,28,07,27,13,11,08,03,,,1.5,0.8,1.2*32
  360. $GPRMC,143206.820,A,2831.4773,N,08041.0084,W,0.17,153.39,211108,,*17
  361. $GPGGA,143206.820,2831.4773,N,08041.0084,W,1,09,1.0,5.8,M,-31.2,M,0.0,0000*4E
  362. $GPGSA,A,3,25,19,28,07,27,13,11,08,03,,,,1.7,1.0,1.4*3E
  363. $GPRMC,143207.820,A,2831.4771,N,08041.0083,W,0.19,13.55,211108,,*22
  364. $GPGGA,143207.820,2831.4771,N,08041.0083,W,1,09,0.8,5.8,M,-31.2,M,0.0,0000*43
  365. $GPGSA,A,3,25,23,28,07,27,13,11,08,03,,,,1.6,0.8,1.2*39
  366. 31.2,M,0.0,0000*4D
  367. $GPGSA,A,3,25,23,28,07,27,13,11,08,03,,,,1.6,0.8,1.2*39
  368. -31.2,M,0.0,0000*4A
  369. $GPGSA,A,3,25,19,23,28,07,27,13,11,08,03,,,1.5,0.8,1.2*32
  370. $GPRMC,143212.819,A,2831.4771,N,08041.0082,W,0.05,153.03,211108,,*16
  371. $GPGGA,143212.819,2831.4771,N,08041.0082,W,1,10,0.8,7.5,M,-31.2,M,0.0,0000*4B
  372. $GPGSA,A,3,25,19,23,28,07,27,13,11,08,03,,,1.5,0.8,1.2*32
  373. $GPRMC,143213.819,A,2831.4771,N,08041.0083,W,0.06,87.95,211108,,*22
  374. $GPGGA,143213.819,2831.4771,N,08041.0083,W,1,10,0.8,7.6,M,-31.2,M,0.0,0000*48
  375. $GPGSA,A,3,25,19,23,28,07,27,13,11,08,03,,,1.5,0.8,1.2*32
  376. $GPRMC,143214.819,A,2831.4772,N,08041.0083,W,0.12,100.23,211108,,*10
  377. $GPGGA,143214.819,2831.4772,N,08041.0083,W,1,10,0.8,7.4,M,-31.2,M,0.0,0000*4E
  378. $GPGSA,A,3,25,19,23,28,07,27,13,11,08,03,,,1.5,0.8,1.2*32
  379. $GPRMC,143216.819,A,2831.4772,N,08041.0085,W,0.03,125.42,211108,,*14
  380. $GPGGA,143216.819,2831.4772,N,08041.0085,W,1,09,0.8,6.6,M,-31.2,M,0.0,0000*41
  381. $GPGSA,A,3,25,23,28,07,27,13,11,08,03,,,,1.6,0.8,1.2*39
  382. $GPRMC,143217.819,A,2831.4772,N,08041.0085,W,0.11,104.50,211108,,*16
  383. $GPGGA,143217.819,2831.4772,N,08041.0085,W,1,09,1.0,6.5,M,-31.2,M,0.0,0000*4A
  384. $GPGSA,A,3,25,19,23,07,27,13,11,08,03,,,,1.8,1.0,1.3*3D
  385. $GPRMC,143218.819,A,2831.4772,N,08041.0084,W,0.23,98.65,211108,,*2B
  386. $GPGGA,143218.819,2831.4772,N,08041.0084,W,1,08,0.8,6.5,M,-31.2,M,0.0,0000*4C
  387. $GPGSA,A,3,19,23,28,07,27,11,08,03,,,,,1.7,0.8,1.3*34
  388. $GPRMC,143219.819,A,2831.4771,N,08041.0082,W,0.05,103.78,211108,,*14
  389. $GPGGA,143219.819,2831.4771,N,08041.0082,W,1,08,0.8,6.7,M,-31.2,M,0.0,0000*4A
  390. $GPGSA,A,3,19,23,28,07,27,11,08,03,,,,,1.7,0.8,1.3*34
  391. $GPRMC,143221.819,A,2831.4769,N,08041.0077,W,0.06,73.57,211108,,*24
  392. $GPGGA,143221.819,2831.4769,N,08041.0077,W,1,08,1.0,7.6,M,-31.2,M,0.0,0000*4B
  393. $GPGSA,A,3,19,28,07,27,13,11,08,03,,,,,1.8,1.0,1.5*37
  394. $GPRMC,143222.819,A,2831.4768,N,08041.0075,W,0.10,63.05,211108,,*25
  395. $GPGGA,143222.819,2831.4768,N,08041.0075,W,1,09,0.8,8.3,M,-31.2,M,0.0,0000*49
  396. $GPGSA,A,3,19,28,07,17,27,13,11,08,03,,,,1.6,0.8,1.3*30
  397. $GPRMC,143223.819,A,2831.4768,N,08041.0072,W,0.10,107.12,211108,,*16
  398. $GPGGA,143223.819,2831.4768,N,08041.0072,W,1,11,0.8,8.5,M,-31.2,M,0.0,0000*40
  399. $GPGSA,A,3,25,19,23,28,07,17,27,13,11,08,03,,1.4,0.8,1.1*36
  400. -31.2,M,0.0,0000*4B
  401. $GPGSA,A,3,25,19,23,28,07,27,13,11,08,03,,,1.5,0.8,1.2*32
  402. $GPRMC,143226.818,A,2831.4765,N,08041.0066,W,0.03,122.14,211108,,*19
  403. $GPGGA,143226.818,2831.4765,N,08041.0066,W,1,08,1.0,8.0,M,-31.2,M,0.0,0000*48
  404. $GPGSA,A,3,19,23,28,07,27,13,11,03,,,,,1.7,1.0,1.3*37
  405. $GPRMC,143227.818,A,2831.4765,N,08041.0066,W,0.05,156.84,211108,,*14
  406. $GPGGA,143227.818,2831.4765,N,08041.0066,W,1,08,1.0,7.6,M,-31.2,M,0.0,0000*40
  407. $GPGSA,A,3,25,23,28,07,27,13,11,03,,,,,1.6,1.0,1.2*38
  408. $GPRMC,143228.818,A,2831.4765,N,08041.0065,W,0.14,102.68,211108,,*1B
  409. $GPGGA,143228.818,2831.4765,N,08041.0065,W,1,09,0.8,7.3,M,-31.2,M,0.0,0000*41
  410. $GPGSA,A,3,25,19,23,28,07,27,13,11,03,,,,1.6,0.8,1.2*39
  411. $GPRMC,143229.818,A,2831.4764,N,08041.0065,W,0.11,113.86,211108,,*1E
  412. $GPGGA,143229.818,2831.4764,N,08041.0065,W,1,09,0.8,6.9,M,-31.2,M,0.0,0000*4A
  413. $GPGSA,A,3,25,19,23,28,07,27,13,11,03,,,,1.6,0.8,1.2*39
  414. $GPRMC,143231.818,A,2831.4764,N,08041.0065,W,0.07,109.60,211108,,*13
  415. $GPGGA,143231.818,2831.4764,N,08041.0065,W,1,09,0.8,5.3,M,-31.2,M,0.0,0000*4A
  416. $GPGSA,A,3,25,19,23,28,07,27,13,11,03,,,,1.6,0.8,1.2*39
  417. $GPRMC,143232.818,A,2831.4765,N,08041.0066,W,0.08,19.66,211108,,*2B
  418. $GPGGA,143232.818,2831.4765,N,08041.0066,W,1,09,0.8,4.3,M,-31.2,M,0.0,0000*4A
  419. $GPGSA,A,3,25,19,23,28,07,27,13,11,03,,,,1.6,0.8,1.2*39
  420. $GPRMC,143233.818,A,2831.4765,N,08041.0066,W,0.04,101.79,211108,,*10
  421. $GPGGA,143233.818,2831.4765,N,08041.0066,W,1,09,0.8,3.1,M,-31.2,M,0.0,0000*4E
  422. $GPGSA,A,3,25,19,23,28,07,27,13,11,03,,,,1.6,0.8,1.2*39
  423. $GPRMC,143234.818,A,2831.4766,N,08041.0066,W,0.05,86.82,211108,,*2F
  424. $GPGGA,143234.818,2831.4766,N,08041.0066,W,1,09,0.8,2.1,M,-31.2,M,0.0,0000*4B
  425. $GPGSA,A,3,25,19,23,28,07,27,13,11,03,,,,1.6,0.8,1.2*39
  426. $GPRMC,143236.818,A,2831.4765,N,08041.0067,W,0.10,136.04,211108,,*1F
  427. $GPGGA,143236.818,2831.4765,N,08041.0067,W,1,10,0.8,2.3,M,-31.2,M,0.0,0000*41
  428. $GPGSA,A,3,25,19,23,28,07,17,27,13,11,03,,,1.5,0.8,1.1*3F
  429. $GPRMC,143237.818,A,2831.4764,N,08041.0068,W,0.14,118.73,211108,,*18
  430. $GPGGA,143237.818,2831.4764,N,08041.0068,W,1,09,1.0,2.9,M,-31.2,M,0.0,0000*45
  431. $GPGSA,A,3,25,19,23,28,07,17,27,13,03,,,,1.5,1.0,1.1*36
  432. -31.2,M,0.0,0000*43
  433. $GPGSA,A,3,25,19,23,28,07,17,27,13,11,03,,,1.5,0.8,1.1*3F
  434. $GPRMC,143239.818,A,2831.4762,N,08041.0068,W,0.07,121.79,211108,,*12
  435. $GPGGA,143239.818,2831.4762,N,08041.0068,W,1,10,0.8,4.9,M,-31.2,M,0.0,0000*4A
  436. $GPGSA,A,3,25,19,23,28,07,17,27,13,11,03,,,1.5,0.8,1.1*3F
  437. $GPRMC,143241.817,A,2831.4760,N,08041.0069,W,0.06,334.69,211108,,*17
  438. $GPGGA,143241.817,2831.4760,N,08041.0069,W,1,07,1.6,7.0,M,-31.2,M,0.0,0000*4A
  439. $GPGSA,A,3,25,19,07,27,13,11,03,,,,,,2.5,1.6,1.8*37
  440. $GPRMC,143242.817,A,2831.4759,N,08041.0069,W,0.02,125.86,211108,,*19
  441. $GPGGA,143242.817,2831.4759,N,08041.0069,W,1,09,1.0,7.8,M,-31.2,M,0.0,0000*43
  442. $GPGSA,A,3,25,23,07,17,27,13,11,08,03,,,,1.6,1.0,1.2*3C
  443. $GPRMC,143243.817,A,2831.4759,N,08041.0070,W,0.20,107.74,211108,,*1D
  444. $GPGGA,143243.817,2831.4759,N,08041.0070,W,1,10,0.8,8.2,M,-31.2,M,0.0,0000*4E
  445. $GPGSA,A,3,25,19,28,07,17,27,13,11,08,03,,,1.5,0.8,1.2*35
  446. $GPRMC,143244.817,A,2831.4759,N,08041.0071,W,0.01,162.46,211108,,*1A
  447. $GPGGA,143244.817,2831.4759,N,08041.0071,W,1,10,0.8,8.7,M,-31.2,M,0.0,0000*4D
  448. $GPGSA,A,3,25,19,23,28,07,17,27,13,11,03,,,1.5,0.8,1.1*3F
  449. $GPRMC,143247.817,A,2831.4761,N,08041.0079,W,0.08,121.66,211108,,*16
  450. $GPGGA,143247.817,2831.4761,N,08041.0079,W,1,11,0.8,7.9,M,-31.2,M,0.0,0000*4D
  451. $GPGSA,A,3,25,19,23,28,07,17,27,13,11,08,03,,1.4,0.8,1.1*36
  452. $GPRMC,143248.817,A,2831.4760,N,08041.0082,W,0.08,117.13,211108,,*1B
  453. $GPGGA,143248.817,2831.4760,N,08041.0082,W,1,11,0.8,6.8,M,-31.2,M,0.0,0000*47
  454. $GPGSA,A,3,25,19,23,28,07,17,27,13,11,08,03,,1.4,0.8,1.1*36
  455. $GPRMC,143249.817,A,2831.4759,N,08041.0085,W,0.07,95.85,211108,,*2C
  456. $GPGGA,143249.817,2831.4759,N,08041.0085,W,1,10,0.8,5.5,M,-31.2,M,0.0,0000*44
  457. $GPGSA,A,3,25,19,23,28,07,17,27,13,11,03,,,1.5,0.8,1.1*3F
  458. $GPRMC,143251.817,A,2831.4761,N,08041.0092,W,0.08,81.66,211108,,*2F
  459. $GPGGA,143251.817,2831.4761,N,08041.0092,W,1,11,0.8,3.2,M,-31.2,M,0.0,0000*40
  460. $GPGSA,A,3,25,19,23,28,07,17,27,13,11,08,03,,1.4,0.8,1.1*36
  461. $GPRMC,143252.817,A,2831.4764,N,08041.0096,W,0.08,84.42,211108,,*2E
  462. $GPGGA,143252.817,2831.4764,N,08041.0096,W,1,11,0.8,2.7,M,-31.2,M,0.0,0000*46
  463. $GPGSA,A,3,25,19,23,28,07,17,27,13,11,08,03,,1.4,0.8,1.1*36
  464. $GPRMC,143253.817,A,2831.4768,N,08041.0101,W,0.06,104.40,211108,,*19
  465. $GPGGA,143253.817,2831.4768,N,08041.0101,W,1,11,0.8,2.6,M,-31.2,M,0.0,0000*45
  466. $GPGSA,A,3,25,19,23,28,07,17,27,13,11,08,03,,1.4,0.8,1.1*36
  467. $GPRMC,143254.817,A,2831.4771,N,08041.0106,W,0.09,82.30,211108,,*26
  468. $GPGGA,143254.817,2831.4771,N,08041.0106,W,1,11,0.8,2.6,M,-31.2,M,0.0,0000*4D
  469. $GPGSA,A,3,25,19,23,28,07,17,27,13,11,08,03,,1.4,0.8,1.1*36
  470. $GPRMC,143256.817,A,2831.4775,N,08041.0113,W,0.11,107.59,211108,,*1E
  471. $GPGGA,143256.817,2831.4775,N,08041.0113,W,1,11,0.8,2.9,M,-31.2,M,0.0,0000*40
  472. $GPGSA,A,3,25,19,23,28,07,17,27,13,11,08,03,,1.4,0.8,1.1*36
  473. $GPRMC,143257.817,A,2831.4776,N,08041.0116,W,0.09,125.12,211108,,*1F
  474. $GPGGA,143257.817,2831.4776,N,08041.0116,W,1,10,1.0,2.8,M,-31.2,M,0.0,0000*4E
  475. $GPGSA,A,3,25,19,23,07,17,27,13,11,08,03,,,1.6,1.0,1.2*34
  476. $GPRMC,143258.816,A,2831.4777,N,08041.0118,W,0.10,122.61,211108,,*15
  477. $GPGGA,143258.816,2831.4777,N,08041.0118,W,1,10,1.0,2.3,M,-31.2,M,0.0,0000*44
  478. $GPGSA,A,3,25,19,23,07,17,27,13,11,08,03,,,1.6,1.0,1.2*34
  479. $GPRMC,143259.816,A,2831.4776,N,08041.0119,W,0.09,122.76,211108,,*1A
  480. $GPGGA,143259.816,2831.4776,N,08041.0119,W,1,10,1.0,1.8,M,-31.2,M,0.0,0000*4D
  481. $GPGSA,A,3,25,19,23,07,17,27,13,11,08,03,,,1.6,1.0,1.2*34
  482. $GPRMC,143301.816,A,2831.4775,N,08041.0121,W,0.07,114.03,211108,,*17
  483. $GPGGA,143301.816,2831.4775,N,08041.0121,W,1,10,0.8,0.4,M,-31.2,M,0.0,0000*4D
  484. $GPGSA,A,3,25,19,28,07,17,27,13,11,08,03,,,1.5,0.8,1.2*35
  485. $GPRMC,143302.816,A,2831.4773,N,08041.0121,W,0.07,133.16,211108,,*13
  486. $GPGGA,143302.816,2831.4773,N,08041.0121,W,1,08,1.0,-0.3,M,-31.2,M,0.0,0000*62
  487. $GPGSA,A,3,25,19,28,17,27,13,11,03,,,,,1.7,1.0,1.3*30
  488. $GPRMC,143303.816,A,2831.4769,N,08041.0120,W,0.20,125.13,211108,,*1F
  489. $GPGGA,143303.816,2831.4769,N,08041.0120,W,1,10,0.8,-0.7,M,-31.2,M,0.0,0000*6D
  490. $GPGSA,A,3,25,19,28,07,17,27,13,11,08,03,,,1.5,0.8,1.2*35
  491. $GPRMC,143304.816,A,2831.4765,N,08041.0119,W,0.07,134.62,211108,,*1D
  492. $GPGGA,143304.816,2831.4765,N,08041.0119,W,1,10,0.8,-0.3,M,-31.2,M,0.0,0000*68
  493. $GPGSA,A,3,25,19,28,07,17,27,13,11,08,03,,,1.5,0.8,1.2*35
  494. $GPRMC,143306.816,A,2831.4760,N,08041.0116,W,0.15,111.44,211108,,*15
  495. $GPGGA,143306.816,2831.4760,N,08041.0116,W,1,08,1.0,1.0,M,-31.2,M,0.0,0000*4F
  496. $GPGSA,A,3,25,19,17,27,13,11,08,03,,,,,1.7,1.0,1.4*35
  497. $GPRMC,143307.816,A,2831.4758,N,08041.0114,W,0.19,123.61,211108,,*17
  498. $GPGGA,143307.816,2831.4758,N,08041.0114,W,1,10,0.8,1.7,M,-31.2,M,0.0,0000*40
  499. $GPGSA,A,3,25,19,28,07,17,27,13,11,08,03,,,1.5,0.8,1.2*35
  500. $GPRMC,143308.816,A,2831.4757,N,08041.0111,W,0.05,97.70,211108,,*21
  501. $GPGGA,143308.816,2831.4757,N,08041.0111,W,1,09,1.0,2.5,M,-31.2,M,0.0,0000*45
  502. $GPGSA,A,3,25,19,28,07,27,13,11,08,03,,,,1.7,1.0,1.4*3E
  503. $GPRMC,143309.816,A,2831.4756,N,08041.0109,W,0.11,84.24,211108,,*2E
  504. $GPGGA,143309.816,2831.4756,N,08041.0109,W,1,07,1.2,3.3,M,-31.2,M,0.0,0000*47
  505. $GPGSA,A,3,25,28,07,27,11,08,03,,,,,,2.1,1.2,1.6*31
  506. $GPRMC,143311.816,A,2831.4755,N,08041.0105,W,0.31,42.85,211108,,*2B
  507. $GPGGA,143311.816,2831.4755,N,08041.0105,W,1,06,3.2,4.7,M,-31.2,M,0.0,0000*41
  508. $GPGSA,A,3,19,28,07,27,08,03,,,,,,,3.9,3.2,2.0*30
  509. -31.2,M,0.0,0000*4F
  510. $GPGSA,A,3,25,19,28,07,17,27,08,03,,,,,1.7,1.2,1.2*3E
  511. $GPRMC,143313.816,A,2831.4756,N,08041.0099,W,0.14,98.56,211108,,*20
  512. $GPGGA,143313.816,2831.4756,N,08041.0099,W,1,10,0.8,5.9,M,-31.2,M,0.0,0000*45
  513. $GPGSA,A,3,19,23,28,07,17,27,13,11,08,03,,,1.5,0.8,1.2*33
  514. $GPRMC,143314.816,A,2831.4758,N,08041.0097,W,0.10,94.33,211108,,*2C
  515. $GPGGA,143314.816,2831.4758,N,08041.0097,W,1,11,0.8,5.8,M,-31.2,M,0.0,0000*42
  516. $GPGSA,A,3,25,19,23,28,07,17,27,13,11,08,03,,1.4,0.8,1.1*36
  517. $GPRMC,143316.815,A,2831.4761,N,08041.0094,W,0.06,80.83,211108,,*2D
  518. $GPGGA,143316.815,2831.4761,N,08041.0094,W,1,08,0.8,4.4,M,-31.2,M,0.0,0000*4F
  519. $GPGSA,A,3,19,23,28,07,27,11,08,03,,,,,1.7,0.8,1.3*34
  520. $GPRMC,143317.815,A,2831.4761,N,08041.0091,W,0.13,103.36,211108,,*19
  521. $GPGGA,143317.815,2831.4761,N,08041.0091,W,1,07,1.2,3.3,M,-31.2,M,0.0,0000*4F
  522. $GPGSA,A,3,19,28,07,27,11,08,03,,,,,,2.1,1.2,1.6*3E
  523. $GPRMC,143318.815,A,2831.4761,N,08041.0088,W,0.15,120.75,211108,,*1E
  524. $GPGGA,143318.815,2831.4761,N,08041.0088,W,1,06,3.2,2.1,M,-31.2,M,0.0,0000*48
  525. $GPGSA,A,3,19,28,07,27,08,03,,,,,,,3.9,3.2,2.0*30
  526. $GPRMC,143319.815,A,2831.4762,N,08041.0085,W,0.16,136.38,211108,,*1C
  527. $GPGGA,143319.815,2831.4762,N,08041.0085,W,1,07,1.0,0.7,M,-31.2,M,0.0,0000*42
  528. $GPGSA,A,3,19,28,07,27,13,08,03,,,,,,1.9,1.0,1.5*36
  529. $GPRMC,143321.815,A,2831.4762,N,08041.0082,W,0.38,155.52,211108,,*15
  530. $GPGGA,143321.815,2831.4762,N,08041.0082,W,1,07,1.0,-0.6,M,-31.2,M,0.0,0000*62
  531. $GPGSA,A,3,19,28,17,27,11,08,03,,,,,,1.8,1.0,1.5*34
  532. $GPRMC,143322.815,A,2831.4759,N,08041.0081,W,0.20,100.40,211108,,*17
  533. $GPGGA,143322.815,2831.4759,N,08041.0081,W,1,08,1.0,-0.9,M,-31.2,M,0.0,0000*6A
  534. $GPGSA,A,3,19,28,07,17,27,11,08,03,,,,,1.7,1.0,1.3*3A
  535. $GPRMC,143323.815,A,2831.4757,N,08041.0080,W,0.40,193.13,211108,,*13
  536. $GPGGA,143323.815,2831.4757,N,08041.0080,W,1,05,4.2,-1.0,M,-31.2,M,0.0,0000*66
  537. $GPGSA,A,3,19,28,27,08,03,,,,,,,,4.7,4.2,2.0*39
  538. $GPRMC,143324.815,A,2831.4754,N,08041.0078,W,0.79,38.55,211108,,*28
  539. $GPGGA,143324.815,2831.4754,N,08041.0078,W,1,06,1.4,-0.9,M,-31.2,M,0.0,0000*6D
  540. $GPGSA,A,3,19,28,27,13,11,08,,,,,,,3.6,1.4,3.3*3F
  541. -31.2,M,0.0,0000*43
  542. $GPGSA,A,3,25,19,28,07,17,27,13,11,08,03,,,1.5,0.8,1.2*35
  543. $GPRMC,143327.815,A,2831.4747,N,08041.0070,W,0.17,125.88,211108,,*14
  544. $GPGGA,143327.815,2831.4747,N,08041.0070,W,1,09,1.0,1.2,M,-31.2,M,0.0,0000*48
  545. $GPGSA,A,3,25,19,28,07,27,13,11,08,03,,,,1.7,1.0,1.4*3E
  546. -31.2,M,0.0,0000*49
  547. $GPGSA,A,3,25,19,28,07,27,13,11,08,03,,,,1.7,1.0,1.4*3E
  548. $GPRMC,143329.815,A,2831.4744,N,08041.0067,W,0.10,151.94,211108,,*16
  549. $GPGGA,143329.815,2831.4744,N,08041.0067,W,1,09,1.0,2.3,M,-31.2,M,0.0,0000*41
  550. $GPGSA,A,3,25,19,28,07,27,13,11,08,03,,,,1.7,1.0,1.4*3E
  551. $GPRMC,143331.814,A,2831.4744,N,08041.0065,W,0.28,278.53,211108,,*14
  552. $GPGGA,143331.814,2831.4744,N,08041.0065,W,1,08,1.0,4.0,M,-31.2,M,0.0,0000*4F
  553. $GPGSA,A,3,25,19,28,07,27,13,08,03,,,,,1.8,1.0,1.4*31
  554. $GPRMC,143332.814,A,2831.4749,N,08041.0068,W,1.06,351.62,211108,,*12
  555. $GPGGA,143332.814,2831.4749,N,08041.0068,W,1,09,1.4,4.8,M,-31.2,M,0.0,0000*41
  556. $GPGSA,A,3,25,19,28,07,17,27,13,11,08,,,,2.5,1.4,2.1*38
  557. $GPRMC,143333.814,A,2831.4754,N,08041.0070,W,0.25,89.23,211108,,*25
  558. $GPGGA,143333.814,2831.4754,N,08041.0070,W,1,09,1.4,5.6,M,-31.2,M,0.0,0000*4A
  559. $GPGSA,A,3,25,19,28,07,17,27,13,11,08,,,,2.5,1.4,2.1*38
  560. $GPRMC,143334.814,A,2831.4756,N,08041.0071,W,0.15,117.70,211108,,*12
  561. $GPGGA,143334.814,2831.4756,N,08041.0071,W,1,07,1.6,6.3,M,-31.2,M,0.0,0000*44
  562. $GPGSA,A,3,19,28,07,17,27,13,08,,,,,,2.8,1.6,2.2*33
  563. $GPRMC,143336.814,A,2831.4758,N,08041.0072,W,0.24,201.35,211108,,*1A
  564. $GPGGA,143336.814,2831.4758,N,08041.0072,W,1,02,0.0,6.6,M,-31.2,M,0.0,0000*4C
  565. $GPGSA,A,2,17,03,,,,,,,,,,,0.0,0.0,0.0*36
  566. $GPRMC,143337.814,A,2831.4760,N,08041.0073,W,0.13,122.00,211108,,*11
  567. $GPGGA,143337.814,2831.4760,N,08041.0073,W,1,07,1.6,6.6,M,-31.2,M,0.0,0000*45
  568. $GPGSA,A,3,25,19,28,07,27,13,08,,,,,,3.0,1.6,2.4*3D
  569. $GPRMC,143338.814,A,2831.4759,N,08041.0072,W,0.08,129.39,211108,,*1E
  570. $GPGGA,143338.814,2831.4759,N,08041.0072,W,1,07,1.6,6.9,M,-31.2,M,0.0,0000*4E
  571. $GPGSA,A,3,25,19,28,07,27,13,08,,,,,,3.0,1.6,2.4*3D
  572. -31.2,M,0.0,0000*43
  573. $GPGSA,A,3,25,19,28,07,27,13,08,03,,,,,1.8,1.0,1.4*31
  574. -31.2,M,0.0,0000*4B
  575. $GPGSA,A,3,25,19,28,07,27,13,11,08,03,,,,1.7,1.0,1.4*3E
  576. $GPRMC,143342.814,A,2831.4772,N,08041.0075,W,0.03,317.70,211108,,*14
  577. $GPGGA,143342.814,2831.4772,N,08041.0075,W,1,09,1.0,6.8,M,-31.2,M,0.0,0000*44
  578. $GPGSA,A,3,25,19,28,07,27,13,11,08,03,,,,1.7,1.0,1.4*3E
  579. $GPRMC,143343.814,A,2831.4774,N,08041.0077,W,0.06,81.34,211108,,*28
  580. $GPGGA,143343.814,2831.4774,N,08041.0077,W,1,09,1.0,6.3,M,-31.2,M,0.0,0000*4A
  581. $GPGSA,A,3,25,19,28,07,27,13,11,08,03,,,,1.7,1.0,1.4*3E
  582. $GPRMC,143344.814,A,2831.4774,N,08041.0078,W,0.10,110.09,211108,,*10
  583. $GPGGA,143344.814,2831.4774,N,08041.0078,W,1,09,1.0,5.3,M,-31.2,M,0.0,0000*41
  584. $GPGSA,A,3,25,19,28,07,27,13,11,08,03,,,,1.7,1.0,1.4*3E
  585. $GPRMC,143346.814,A,2831.4771,N,08041.0079,W,0.11,243.12,211108,,*18
  586. $GPGGA,143346.814,2831.4771,N,08041.0079,W,1,09,1.0,4.2,M,-31.2,M,0.0,0000*47
  587. $GPGSA,A,3,25,19,28,07,27,13,11,08,03,,,,1.7,1.0,1.4*3E
  588. $GPRMC,143347.814,A,2831.4770,N,08041.0081,W,0.09,113.85,211108,,*1E
  589. $GPGGA,143347.814,2831.4770,N,08041.0081,W,1,09,1.0,3.9,M,-31.2,M,0.0,0000*4C
  590. $GPGSA,A,3,25,19,28,07,27,13,11,08,03,,,,1.7,1.0,1.4*3E
  591. $GPRMC,143348.813,A,2831.4768,N,08041.0081,W,0.18,90.31,211108,,*2A
  592. $GPGGA,143348.813,2831.4768,N,08041.0081,W,1,09,1.0,3.8,M,-31.2,M,0.0,0000*4C
  593. $GPGSA,A,3,25,19,28,07,27,13,11,08,03,,,,1.7,1.0,1.4*3E
  594. $GPRMC,143349.813,A,2831.4767,N,08041.0082,W,0.29,197.85,211108,,*1C
  595. $GPGGA,143349.813,2831.4767,N,08041.0082,W,1,10,0.8,4.3,M,-31.2,M,0.0,0000*4C
  596. $GPGSA,A,3,25,19,28,07,17,27,13,11,08,03,,,1.5,0.8,1.2*35
  597. $GPRMC,143351.813,A,2831.4767,N,08041.0082,W,0.03,179.77,211108,,*10
  598. $GPGGA,143351.813,2831.4767,N,08041.0082,W,1,08,1.4,5.7,M,-31.2,M,0.0,0000*44
  599. $GPGSA,A,3,25,19,28,07,27,13,11,08,,,,,2.7,1.4,2.3*3E
  600. $GPRMC,143352.813,A,2831.4769,N,08041.0081,W,0.18,179.95,211108,,*18
  601. $GPGGA,143352.813,2831.4769,N,08041.0081,W,1,09,1.0,6.8,M,-31.2,M,0.0,0000*43
  602. $GPGSA,A,3,25,19,28,07,27,13,11,08,03,,,,1.7,1.0,1.4*3E
  603. $GPRMC,143353.813,A,2831.4771,N,08041.0080,W,0.07,134.71,211108,,*1C
  604. $GPGGA,143353.813,2831.4771,N,08041.0080,W,1,08,1.4,7.6,M,-31.2,M,0.0,0000*40
  605. $GPGSA,A,3,25,19,28,07,27,13,11,08,,,,,2.7,1.4,2.3*3E
  606. $GPRMC,143354.813,A,2831.4773,N,08041.0078,W,0.10,112.38,211108,,*11
  607. $GPGGA,143354.813,2831.4773,N,08041.0078,W,1,09,1.0,8.2,M,-31.2,M,0.0,0000*4C
  608. $GPGSA,A,3,25,19,28,07,27,13,11,08,03,,,,1.7,1.0,1.4*3E
  609. $GPRMC,143356.813,A,2831.4771,N,08041.0075,W,0.07,122.70,211108,,*15
  610. $GPGGA,143356.813,2831.4771,N,08041.0075,W,1,10,0.8,8.0,M,-31.2,M,0.0,0000*42
  611. $GPGSA,A,3,25,19,23,28,07,27,13,11,08,03,,,1.5,0.8,1.2*32
  612. $GPRMC,143357.813,A,2831.4770,N,08041.0074,W,0.09,116.01,211108,,*1B
  613. $GPGGA,143357.813,2831.4770,N,08041.0074,W,1,10,0.8,7.6,M,-31.2,M,0.0,0000*4A
  614. $GPGSA,A,3,25,19,23,28,07,27,13,11,08,03,,,1.5,0.8,1.2*32
  615. $GPRMC,143358.813,A,2831.4768,N,08041.0073,W,0.08,125.08,211108,,*12
  616. $GPGGA,143358.813,2831.4768,N,08041.0073,W,1,10,0.8,6.6,M,-31.2,M,0.0,0000*4A
  617. $GPGSA,A,3,25,19,23,28,07,27,13,11,08,03,,,1.5,0.8,1.2*32
  618. $GPRMC,143359.813,A,2831.4768,N,08041.0074,W,0.12,121.45,211108,,*12
  619. $GPGGA,143359.813,2831.4768,N,08041.0074,W,1,10,0.8,5.4,M,-31.2,M,0.0,0000*4D
  620. $GPGSA,A,3,25,19,23,28,07,27,13,11,08,03,,,1.5,0.8,1.2*32
  621. $GPRMC,143401.813,A,2831.4767,N,08041.0075,W,0.17,143.10,211108,,*17
  622. $GPGGA,143401.813,2831.4767,N,08041.0075,W,1,08,1.2,4.1,M,-31.2,M,0.0,0000*4F
  623. $GPGSA,A,3,25,19,28,07,27,11,08,03,,,,,2.0,1.2,1.6*38
  624. $GPRMC,143402.813,A,2831.4766,N,08041.0075,W,0.16,147.97,211108,,*1F
  625. $GPGGA,143402.813,2831.4766,N,08041.0075,W,1,08,1.0,3.8,M,-31.2,M,0.0,0000*41
  626. $GPGSA,A,3,25,19,28,07,27,13,08,03,,,,,1.8,1.0,1.4*31
  627. $GPRMC,143403.813,A,2831.4766,N,08041.0075,W,0.20,5.87,211108,,*1D
  628. $GPGGA,143403.813,2831.4766,N,08041.0075,W,1,09,1.0,3.6,M,-31.2,M,0.0,0000*4F
  629. $GPGSA,A,3,25,19,28,07,27,13,11,08,03,,,,1.7,1.0,1.4*3E
  630. $GPRMC,143404.812,A,2831.4766,N,08041.0075,W,0.12,95.02,211108,,*2E
  631. $GPGGA,143404.812,2831.4766,N,08041.0075,W,1,08,1.0,3.6,M,-31.2,M,0.0,0000*48
  632. $GPGSA,A,3,25,19,28,07,27,13,08,03,,,,,1.8,1.0,1.4*31
  633. $GPRMC,143406.812,A,2831.4765,N,08041.0076,W,0.12,113.43,211108,,*16
  634. $GPGGA,143406.812,2831.4765,N,08041.0076,W,1,07,2.0,3.8,M,-31.2,M,0.0,0000*48
  635. $GPGSA,A,3,25,19,28,07,27,08,03,,,,,,2.8,2.0,1.9*3E
  636. $GPRMC,143407.812,A,2831.4767,N,08041.0076,W,0.11,90.63,211108,,*2E
  637. $GPGGA,143407.812,2831.4767,N,08041.0076,W,1,08,1.0,4.8,M,-31.2,M,0.0,0000*40
  638. $GPGSA,A,3,25,19,28,07,27,13,08,03,,,,,1.8,1.0,1.4*31
  639. $GPRMC,143408.812,A,2831.4770,N,08041.0076,W,0.09,132.94,211108,,*1F
  640. $GPGGA,143408.812,2831.4770,N,08041.0076,W,1,08,1.0,5.6,M,-31.2,M,0.0,0000*46
  641. $GPGSA,A,3,25,19,28,07,27,13,08,03,,,,,1.8,1.0,1.4*31
  642. $GPRMC,143409.812,A,2831.4771,N,08041.0077,W,0.10,162.74,211108,,*1D
  643. $GPGGA,143409.812,2831.4771,N,08041.0077,W,1,07,2.0,6.1,M,-31.2,M,0.0,0000*4F
  644. $GPGSA,A,3,25,19,28,07,27,08,03,,,,,,2.8,2.0,1.9*3E
  645. $GPRMC,143411.812,A,2831.4771,N,08041.0079,W,0.12,64.16,211108,,*2B
  646. $GPGGA,143411.812,2831.4771,N,08041.0079,W,1,08,1.2,6.2,M,-31.2,M,0.0,0000*45
  647. $GPGSA,A,3,25,19,28,07,27,11,08,03,,,,,2.0,1.2,1.6*38
  648. $GPRMC,143412.812,A,2831.4771,N,08041.0079,W,0.09,84.73,211108,,*2F
  649. $GPGGA,143412.812,2831.4771,N,08041.0079,W,1,11,0.8,6.4,M,-31.2,M,0.0,0000*43
  650. $GPGSA,A,3,25,19,23,28,07,17,27,13,11,08,03,,1.4,0.8,1.1*36
  651. $GPRMC,143413.812,A,2831.4770,N,08041.0079,W,0.11,84.97,211108,,*2C
  652. $GPGGA,143413.812,2831.4770,N,08041.0079,W,1,09,1.0,6.7,M,-31.2,M,0.0,0000*40
  653. $GPGSA,A,3,25,19,07,17,27,13,11,08,03,,,,1.6,1.0,1.2*35
  654. $GPRMC,143414.812,A,2831.4769,N,08041.0078,W,0.09,85.03,211108,,*27
  655. $GPGGA,143414.812,2831.4769,N,08041.0078,W,1,09,1.0,6.9,M,-31.2,M,0.0,0000*40
  656. $GPGSA,A,3,25,19,07,17,27,13,11,08,03,,,,1.6,1.0,1.2*35
  657. $GPRMC,143416.812,A,2831.4765,N,08041.0077,W,0.17,112.76,211108,,*14
  658. $GPGGA,143416.812,2831.4765,N,08041.0077,W,1,09,1.0,6.8,M,-31.2,M,0.0,0000*40
  659. $GPGSA,A,3,25,19,07,17,27,13,11,08,03,,,,1.6,1.0,1.2*35
  660. $GPRMC,143417.812,A,2831.4762,N,08041.0076,W,0.14,109.06,211108,,*1D
  661. $GPGGA,143417.812,2831.4762,N,08041.0076,W,1,09,1.0,6.3,M,-31.2,M,0.0,0000*4C
  662. $GPGSA,A,3,25,19,07,17,27,13,11,08,03,,,,1.6,1.0,1.2*35
  663. $GPRMC,143418.812,A,2831.4760,N,08041.0076,W,0.13,116.58,211108,,*12
  664. $GPGGA,143418.812,2831.4760,N,08041.0076,W,1,09,1.0,5.9,M,-31.2,M,0.0,0000*48
  665. $GPGSA,A,3,25,19,07,17,27,13,11,08,03,,,,1.6,1.0,1.2*35
  666. $GPRMC,143421.811,A,2831.4755,N,08041.0073,W,0.17,84.75,211108,,*29
  667. $GPGGA,143421.811,2831.4755,N,08041.0073,W,1,11,0.8,5.7,M,-31.2,M,0.0,0000*4C
  668. $GPGSA,A,3,25,19,23,28,07,17,27,13,11,08,03,,1.4,0.8,1.1*36
  669. $GPRMC,143422.811,A,2831.4755,N,08041.0072,W,0.11,88.58,211108,,*2E
  670. $GPGGA,143422.811,2831.4755,N,08041.0072,W,1,10,0.8,5.5,M,-31.2,M,0.0,0000*4D
  671. $GPGSA,A,3,25,19,28,07,17,27,13,11,08,03,,,1.5,0.8,1.2*35
  672. $GPRMC,143423.811,A,2831.4754,N,08041.0071,W,0.07,106.37,211108,,*14
  673. $GPGGA,143423.811,2831.4754,N,08041.0071,W,1,11,0.8,5.2,M,-31.2,M,0.0,0000*48
  674. $GPGSA,A,3,25,19,23,28,07,17,27,13,11,08,03,,1.4,0.8,1.1*36
  675. $GPRMC,143424.811,A,2831.4755,N,08041.0071,W,0.12,115.33,211108,,*10
  676. $GPGGA,143424.811,2831.4755,N,08041.0071,W,1,11,0.8,5.0,M,-31.2,M,0.0,0000*4C
  677. $GPGSA,A,3,25,19,23,28,07,17,27,13,11,08,03,,1.4,0.8,1.1*36
  678. $GPRMC,143426.811,A,2831.4755,N,08041.0073,W,0.13,137.96,211108,,*1E
  679. $GPGGA,143426.811,2831.4755,N,08041.0073,W,1,10,0.8,4.4,M,-31.2,M,0.0,0000*48
  680. $GPGSA,A,3,25,19,23,28,07,27,13,11,08,03,,,1.5,0.8,1.2*32
  681. $GPRMC,143427.811,A,2831.4755,N,08041.0075,W,0.08,138.76,211108,,*12
  682. $GPGGA,143427.811,2831.4755,N,08041.0075,W,1,09,1.0,4.6,M,-31.2,M,0.0,0000*4C
  683. $GPGSA,A,3,25,19,28,07,27,13,11,08,03,,,,1.7,1.0,1.4*3E
  684. $GPRMC,143428.811,A,2831.4756,N,08041.0077,W,0.07,125.24,211108,,*18
  685. $GPGGA,143428.811,2831.4756,N,08041.0077,W,1,09,1.0,4.9,M,-31.2,M,0.0,0000*4D
  686. $GPGSA,A,3,25,19,28,07,27,13,11,08,03,,,,1.7,1.0,1.4*3E
  687. $GPRMC,143429.811,A,2831.4757,N,08041.0079,W,0.08,86.06,211108,,*21
  688. $GPGGA,143429.811,2831.4757,N,08041.0079,W,1,09,1.0,5.4,M,-31.2,M,0.0,0000*4F
  689. $GPGSA,A,3,25,19,28,07,27,13,11,08,03,,,,1.7,1.0,1.4*3E
  690. $GPRMC,143431.811,A,2831.4761,N,08041.0084,W,0.05,63.60,211108,,*29
  691. $GPGGA,143431.811,2831.4761,N,08041.0084,W,1,08,1.2,6.1,M,-31.2,M,0.0,0000*44
  692. $GPGSA,A,3,25,19,28,07,27,11,08,03,,,,,2.0,1.2,1.6*38
  693. $GPRMC,143432.811,A,2831.4763,N,08041.0086,W,0.08,77.71,211108,,*22
  694. $GPGGA,143432.811,2831.4763,N9,28,07,27,11,08,03,,,,,2.0,1.2,1.6*38
  695. $GPRMC,143433.811,A,2831.4765,N,08041.0088,W,0.13,58.89,211108,,*2B
  696. $GPGGA,143433.811,2831.4765,N,08041.0088,W,1,08,1.2,6.6,M,-31.2,M,0.0,0000*49
  697. $GPGSA,A,3,25,19,28,07,27,11,08,03,,,,,2.0,1.2,1.6*38
  698. $GPRMC,143434.811,A,2831.4768,N,08041.0089,W,0.12,60.69,211108,,*24
  699. $GPGGA,143434.811,2831.4768,N,08041.0089,W,1,08,1.2,6.9,M,-31.2,M,0.0,0000*4D
  700. $GPGSA,A,3,25,19,28,07,27,11,08,03,,,,,2.0,1.2,1.6*38
  701. $GPRMC,143436.811,A,2831.4773,N,08041.0091,W,0.12,63.69,211108,,*26
  702. $GPGGA,143436.811,2831.4773,N,08041.0091,W,1,06,1.8,7.1,M,-31.2,M,0.0,0000*41
  703. $GPGSA,A,3,25,19,07,27,11,08,,,,,,,3.7,1.8,3.2*3B
  704. $GPRMC,143437.810,A,2831.4775,N,08041.0091,W,0.14,74.03,211108,,*2C
  705. $GPGGA,143437.810,2831.4775,N,08041.0091,W,1,06,1.8,7.4,M,-31.2,M,0.0,0000*42
  706. $GPGSA,A,3,25,19,07,27,11,08,,,,,,,3.7,1.8,3.2*3B
  707. $GPRMC,143438.810,A,2831.4777,N,08041.0091,W,0.30,79.02,211108,,*2B
  708. $GPGGA,143438.810,2831.4777,N,08041.0091,W,1,07,1.6,7.7,M,-31.2,M,0.0,0000*43
  709. $GPGSA,A,3,25,19,28,07,27,11,08,,,,,,2.9,1.6,2.4*37
  710. $GPRMC,143439.810,A,2831.4779,N,08041.0090,W,0.11,61.07,211108,,*2A
  711. $GPGGA,143439.810,2831.4779,N,08041.0090,W,1,07,1.6,7.7,M,-31.2,M,0.0,0000*4D
  712. $GPGSA,A,3,25,19,28,07,27,11,08,,,,,,2.9,1.6,2.4*37
  713. -31.2,M,0.0,0000*49
  714. $GPGSA,A,3,25,19,28,07,27,13,11,08,,,,,2.7,1.4,2.3*3E
  715. $GPRMC,143442.810,A,2831.4776,N,08041.0093,W,0.10,244.80,211108,,*11
  716. $GPGGA,143442.810,2831.4776,N,08041.0093,W,1,09,1.0,7.4,M,-31.2,M,0.0,0000*46
  717. $GPGSA,A,3,25,19,28,07,27,13,11,08,03,,,,1.7,1.0,1.4*3E
  718. $GPRMC,143443.810,A,2831.4775,N,08041.0093,W,0.12,68.50,211108,,*20
  719. $GPGGA,143443.810,2831.4775,N,08041.0093,W,1,09,1.0,7.9,M,-31.2,M,0.0,0000*49
  720. $GPGSA,A,3,25,19,28,07,27,13,11,08,03,,,,1.7,1.0,1.4*3E
  721. $GPRMC,143444.810,A,2831.4773,N,08041.0091,W,0.15,66.57,1,W,1,08,1.2,8.1,M,-31.2,M,0.0,0000*4E
  722. $GPGSA,A,3,25,19,28,07,27,11,08,03,,,,,2.0,1.2,1.6*38
  723. $GPRMC,143446.810,A,2831.4772,N,08041.0087,W,0.15,77.47,211108,,*28
  724. $GPGGA,143446.810,2831.4772,N,08041.0087,W,1,07,1.6,7.9,M,-31.2,M,0.0,0000*46
  725. $GPGSA,A,3,25,19,07,27,11,08,03,,,,,,3.0,1.6,2.4*36
  726. $GPRMC,143447.810,A,2831.4772,N,08041.0085,W,0.12,73.10,211108,,*2A
  727. $GPGGA,143447.810,2831.4772,N,08041.0085,W,1,09,1.0,7.2,M,-31.2,M,0.0,0000*46
  728. $GPGSA,A,3,25,19,28,07,27,13,11,08,03,,,,1.7,1.0,1.4*3E
  729. $GPRMC,143448.810,A,2831.4772,N,08041.0083,W,0.07,73.42,211108,,*20
  730. $GPGGA,143448.810,2831.4772,N,08041.0083,W,1,09,1.0,7.0,M,-31.2,M,0.0,0000*4D
  731. $GPGSA,A,3,25,19,28,07,27,13,11,08,03,,,,1.7,1.0,1.4*3E
  732. $GPRMC,143449.810,A,2831.4772,N,08041.0081,W,0.08,79.02,211108,,*22
  733. $GPGGA,143449.810,2831.4772,N,08041.0081,W,1,07,1.2,6.7,M,-31.2,M,0.0,0000*44
  734. $GPGSA,A,3,25,28,07,27,11,08,03,,,,,,2.1,1.2,1.6*31
  735. 31.2,M,0.0,0000*42
  736. $GPGSA,A,3,25,19,28,07,27,11,08,03,,,,,2.0,1.2,1.6*38
  737. $GPRMC,143452.810,A,2831.4774,N,08041.0077,W,0.14,69.80,211108,,*21
  738. $GPGGA,143452.810,2831.4774,N,08041.0077,W,1,08,1.2,4.5,M,-31.2,M,0.0,0000*4E
  739. $GPGSA,A,3,25,19,28,07,27,11,08,03,,,,,2.0,1.2,1.6*38
  740. $GPRMC,143453.810,A,2831.4775,N,08041.0077,W,0.10,62.29,211108,,*2D
  741. $GPGGA,143453.810,2831.4775,N,08041.0077,W,1,07,1.6,3.8,M,-31.2,M,0.0,0000*4F
  742. $GPGSA,A,3,25,19,07,27,11,08,03,,,,,,3.0,1.6,2.4*36
  743. $GPRMC,143454.809,A,2831.4775,N,08041.0078,W,0.13,64.85,211108,,*2E
  744. $GPGGA,143454.809,2831.4775,N,08041.0078,W,1,06,1.8,2.9,M,-31.2,M,0.0,0000*40
  745. $GPGSA,A,3,25,19,07,27,11,08,,,,,,,3.7,1.8,3.2*3B
  746. 31.2,M,0.0,0000*49
  747. $GPGSA,A,3,25,19,07,27,13,11,08,03,,,,,2.0,1.2,1.6*30
  748. $GPRMC,143457.809,A,2831.4775,N,08041.0081,W,0.05,83.72,211108,,*2D
  749. $GPGGA,143457.809,2831.4775,N,08041.0081,W,1,08,1.2,2.1,M,-31.2,M,0.0,0000*49
  750. $GPGSA,A,3,25,19,07,27,13,11,08,03,,,,,2.0,1.2,1.6*30
  751. $GPRMC,143458.809,A,2831.4776,N,08041.0082,W,0.08,95.33,211108,,*2D
  752. $GPGGA,143458.809,2831.4776,N,08041.0082,W,1,08,1.2,1.9,M,-31.2,M,0.0,0000*4D
  753. $GPGSA,A,3,25,19,07,27,13,11,08,03,,,,,2.0,1.2,1.6*30
  754. -31.2,M,0.0,0000*46
  755. $GPGSA,A,3,25,19,07,27,13,11,08,03,,,,,2.0,1.2,1.6*30
  756. $GPRMC,143501.809,A,2831.4778,N,08041.0085,W,0.17,168.32,211108,,*15
  757. $GPGGA,143501.809,2831.4778,N,08041.0085,W,1,09,1.0,-0.3,M,-31.2,M,0.0,0000*6C
  758. $GPGSA,A,3,25,19,23,07,27,13,11,08,03,,,,1.8,1.0,1.3*3D
  759. $GPRMC,143502.809,A,2831.4778,N,08041.0085,W,0.07,119.61,211108,,*17
  760. $GPGGA,143502.809,2831.4778,N,08041.0085,W,1,08,1.2,-1.2,M,-31.2,M,0.0,0000*6C
  761. $GPGSA,A,3,25,19,07,27,13,11,08,03,,,,,2.0,1.2,1.6*30
  762. ,-31.2,M,0.0,0000*6E
  763. $GPGSA,A,3,25,19,07,27,13,11,08,03,,,,,2.0,1.2,1.6*30
  764. $GPRMC,143504.809,A,2831.4778,N,08041.0086,W,0.08,108.24,211108,,*1C
  765. $GPGGA,143504.809,2831.4778,N,08041.0086,W,1,08,1.2,-2.4,M,-31.2,M,0.0,0000*6C
  766. $GPGSA,A,3,25,19,07,27,13,11,08,03,,,,,2.0,1.2,1.6*30
  767. $GPRMC,143506.809,A,2831.4776,N,08041.0086,W,0.04,93.42,211108,,*2F
  768. $GPGGA,143506.809,2831.4776,N,08041.0086,W,1,07,1.2,-2.3,M,-31.2,M,0.0,0000*68
  769. $GPGSA,A,3,19,07,27,13,11,08,03,,,,,,2.2,1.2,1.8*3B
  770. $GPRMC,143507.809,A,2831.4774,N,08041.0086,W,0.09,107.14,211108,,*1E
  771. $GPGGA,143507.809,2831.4774,N,08041.0086,W,1,08,1.2,-1.7,M,-31.2,M,0.0,0000*63
  772. $GPGSA,A,3,25,19,07,27,13,11,08,03,,,,,2.0,1.2,1.6*30
  773. $GPRMC,143508.809,A,2831.4772,N,08041.0086,W,0.09,88.84,211108,,*28
  774. $GPGGA,143508.809,2831.4772,N,08041.0086,W,1,08,1.2,-1.1,M,-31.2,M,0.0,0000*6C
  775. $GPGSA,A,3,25,19,07,27,13,11,08,03,,,,,2.0,1.2,1.6*30
  776. $GPRMC,143509.809,A,2831.4770,N,08041.0087,W,0.13,73.74,211108,,*2A
  777. $GPGGA,143509.809,2831.4770,N,08041.0087,W,1,07,1.6,-0.4,M,-31.2,M,0.0,0000*61
  778. $GPGSA,A,3,25,19,07,27,11,08,03,,,,,,3.0,1.6,2.4*36
  779. $GPRMC,143511.808,A,2831.4767,N,08041.0087,W,0.15,70.50,211108,,*27
  780. $GPGGA,143511.808,2831.4767,N,08041.0087,W,1,06,1.6,1.1,M,-31.2,M,0.0,0000*47
  781. $GPGSA,A,3,19,07,27,11,08,03,,,,,,,3.1,1.6,2.6*32
  782. $GPRMC,143512.808,A,2831.4766,N,08041.0087,W,0.10,78.99,211108,,*2D
  783. $GPGGA,143512.808,2831.4766,N,08041.0087,W,1,07,1.6,2.0,M,-31.2,M,0.0,0000*46
  784. $GPGSA,A,3,25,19,07,27,11,08,03,,,,,,3.0,1.6,2.4*36
  785. $GPRMC,143513.808,A,2831.4765,N,08041.0088,W,0.14,60.81,211108,,*24
  786. $GPGGA,143513.808,2831.4765,N,08041.0088,W,1,07,1.6,3.1,M,-31.2,M,0.0,0000*4B
  787. $GPGSA,A,3,25,19,07,27,11,08,03,,,,,,3.0,1.6,2.4*36
  788. $GPRMC,143514.808,A,2831.4764,N,08041.0089,W,0.09,71.88,211108,,*26
  789. $GPGGA,143514.808,2831.4764,N,08041.0089,W,1,08,1.2,4.3,M,-31.2,M,0.0,0000*42
  790. $GPGSA,A,3,25,19,23,07,27,11,08,03,,,,,1.8,1.2,1.3*3D
  791. $GPRMC,143516.808,A,2831.4763,N,08041.0089,W,0.14,73.73,211108,,*29
  792. $GPGGA,143516.808,2831.4763,N,08041.0089,W,1,08,1.2,6.9,M,-31.2,M,0.0,0000*4F
  793. $GPGSA,A,3,25,19,28,07,27,11,08,03,,,,,2.0,1.2,1.6*38
  794. $GPRMC,143517.808,A,2831.4762,N,08041.0090,W,0.14,84.82,211108,,*27
  795. $GPGGA,143517.808,2831.4762,N,08041.0090,W,1,07,1.6,7.9,M,-31.2,M,0.0,0000*4D
  796. $GPGSA,A,3,25,19,07,27,11,08,03,,,,,,3.0,1.6,2.4*36
  797. $GPRMC,143518.808,A,2831.4761,N,08041.0091,W,0.11,75.95,211108,,*27
  798. $GPGGA,143518.808,2831.4761,N,08041.0091,W,1,07,1.6,8.3,M,-31.2,M,0.0,0000*45
  799. $GPGSA,A,3,25,19,07,27,11,08,03,,,,,,3.0,1.6,2.4*36
  800. $GPRMC,143519.808,A,2831.4759,N,08041.0092,W,0.07,99.77,211108,,*27
  801. $GPGGA,143519.808,2831.4759,N,08041.0092,W,1,09,1.0,7.8,M,-31.2,M,0.0,0000*40
  802. $GPGSA,A,3,25,19,23,07,27,13,11,08,03,,,,1.8,1.0,1.3*3D
  803. $GPRMC,143521.808,A,2831.4758,N,08041.0092,W,0.10,90.85,211108,,*2F
  804. $GPGGA,143521.808,2831.4758,N,08041.0092,W,1,09,1.0,6.3,M,-31.2,M,0.0,0000*40
  805. $GPGSA,A,3,25,19,23,07,27,13,11,08,03,,,,1.8,1.0,1.3*3D
  806. $GPRMC,143522.808,A,2831.4758,N,08041.0093,W,0.23,292.06,211108,,*16
  807. $GPGGA,143522.808,2831.4758,N,08041.0093,W,1,09,0.8,5.0,M,-31.2,M,0.0,0000*4B
  808. $GPGSA,A,3,25,19,23,28,07,27,11,08,03,,,,1.5,0.8,1.2*30
  809. $GPRMC,143523.808,A,2831.4758,N,08041.0094,W,0.11,101.78,211108,,*11
  810. $GPGGA,143523.808,2831.4758,N,08041.0094,W,1,07,1.2,3.8,M,-31.2,M,0.0,0000*46
  811. $GPGSA,A,3,19,28,07,27,11,08,03,,,,,,2.1,1.2,1.6*3E
  812. $GPRMC,143524.808,A,2831.4759,N,08041.0094,W,0.08,68.79,211108,,*20
  813. $GPGGA,143524.808,2831.4759,N,08041.0094,W,1,08,1.2,3.2,M,-31.2,M,0.0,0000*45
  814. $GPGSA,A,3,19,23,07,27,13,11,08,03,,,,,1.9,1.2,1.5*3F
  815. $GPRMC,143526.808,A,2831.4762,N,08041.0095,W,0.11,92.50,211108,,*2D
  816. $GPGGA,143526.808,2831.4762,N,08041.0095,W,1,08,1.0,3.1,M,-31.2,M,0.0,0000*4F
  817. $GPGSA,A,3,19,07,17,27,13,11,08,03,,,,,1.7,1.0,1.3*32
  818. $GPRMC,143527.807,A,2831.4764,N,08041.0095,W,0.13,278.92,211108,,*1F
  819. $GPGGA,143527.807,2831.4764,N,08041.0095,W,1,08,1.0,3.2,M,-31.2,M,0.0,0000*44
  820. $GPGSA,A,3,19,07,17,27,13,11,08,03,,,,,1.7,1.0,1.3*32
  821. -31.2,M,0.0,0000*4B
  822. $GPGSA,A,3,25,19,07,17,27,13,11,08,,,,,2.6,1.4,2.1*31
  823. $GPRMC,143529.807,A,2831.4766,N,08041.0097,W,0.09,95.31,211108,,*22
  824. $GPGGA,143529.807,2831.4766,N,08041.0097,W,1,08,1.4,1.7,M,-31.2,M,0.0,0000*49
  825. $GPGSA,A,3,25,19,07,17,27,13,11,08,,,,,2.6,1.4,2.1*31
  826. $GPRMC,143531.807,A,2831.4767,N,08041.0101,W,0.03,114.48,211108,,*18
  827. $GPGGA,143531.807,2831.4767,N,08041.0101,W,1,08,1.4,0.5,M,-31.2,M,0.0,0000*4C
  828. $GPGSA,A,3,25,19,07,17,27,13,11,08,,,,,2.6,1.4,2.1*31
  829. $GPRMC,143532.807,A,2831.4767,N,08041.0101,W,0.31,126.26,211108,,*13
  830. $GPGGA,143532.807,2831.4767,N,08041.0101,W,1,07,1.4,0.2,M,-31.2,M,0.0,0000*47
  831. $GPGSA,A,3,19,07,17,27,13,11,08,,,,,,2.7,1.4,2.3*35
  832. $GPRMC,143533.807,A,2831.4766,N,08041.0102,W,0.21,171.78,211108,,*18
  833. $GPGGA,143533.807,2831.4766,N,08041.0102,W,1,06,1.8,-0.0,M,-31.2,M,0.0,0000*66
  834. $GPGSA,A,3,19,07,17,27,13,08,,,,,,,2.9,1.8,2.3*37
  835. $GPRMC,143534.807,A,2831.4765,N,08041.0102,W,0.14,125.75,211108,,*16
  836. $GPGGA,143534.807,2831.4765,N,08041.0102,W,1,07,1.4,-0.3,M,-31.2,M,0.0,0000*6C
  837. $GPGSA,A,3,19,07,17,27,13,08,03,,,,,,2.0,1.4,1.4*35
  838. $GPRMC,143536.807,A,2831.4764,N,08041.0102,W,0.14,125.75,211108,,*15
  839. $GPGGA,143536.807,2831.4764,N,08041.0102,W,1,00,1.4,-0.6,M,-31.2,M,0.0,0000*6D
  840. $GPGSA,A,3,,,,,,,,,,,,,2.0,1.4,1.4*30
  841. $GPRMC,143537.807,A,2831.4763,N,08041.0102,W,0.14,125.75,211108,,*13
  842. $GPGGA,143537.807,2831.4763,N,08041.0102,W,1,00,1.4,-0.7,M,-31.2,M,0.0,0000*6A
  843. $GPGSA,A,3,,,,,,,,,,,,,2.0,1.4,1.4*30
  844. $GPRMC,143538.807,A,2831.4762,N,08041.0104,W,0.91,219.92,211108,,*13
  845. $GPGGA,143538.807,2831.4762,N,08041.0104,W,1,03,27.2,-0.9,M,-31.2,M,0.0,0000*5D
  846. $GPGSA,A,2,17,27,08,,,,,,,,,,33.9,27.2,20.0*04
  847. $GPRMC,143539.807,A,2831.4759,N,08041.0106,W,0.91,219.92,211108,,*18
  848. $GPGGA,143539.807,2831.4759,N,08041.0106,W,1,00,27.2,-0.9,M,-31.2,M,0.0,0000*55
  849. $GPGSA,A,2,,,,,,,,,,,,,33.9,27.2,20.0*0F
  850. M,-31.2,M,0.0,0000*58
  851. $GPGSA,A,2,,,,,,,,,,,,,33.9,27.2,20.0*0F
  852. $GPRMC,143542.807,A,2831.4753,N,08041.0113,W,0.91,219.92,211108,,*1A
  853. $GPGGA,143542.807,2831.4753,N,08041.0113,W,1,00,27.2,-1.0,M,-31.2,M,0.0,0000*5F
  854. $GPGSA,A,2,,,,,,,,,,,,,33.9,27.2,20.0*0F
  855. M,-31.2,M,0.0,0000*5B
  856. $GPGSA,A,2,,,,,,,,,,,,,33.9,27.2,20.0*0F
  857. $GPRMC,143544.806,A,2831.4749,N,08041.0117,W,0.91,219.92,211108,,*12
  858. $GPGGA,143544.806,2831.4749,N,08041.0117,W,1,00,27.2,-0.9,M,-31.2,M,0.0,0000*5F
  859. $GPGSA,A,2,,,,,,,,,,,,,33.9,27.2,20.0*0F
  860. $GPRMC,143546.806,A,2831.4745,N,08041.0121,W,0.91,219.92,211108,,*19
  861. $GPGGA,143546.806,2831.4745,N,08041.0121,W,1,00,27.2,-0.9,M,-31.2,M,0.0,0000*54
  862. $GPGSA,A,2,,,,,,,,,,,,,33.9,27.2,20.0*0F
  863. $GPRMC,143547.806,A,2831.4743,N,08041.0123,W,0.91,219.92,211108,,*1C
  864. $GPGGA,143547.806,2831.4743,N,08041.0123,W,1,00,27.2,-0.8,M,-31.2,M,0.0,0000*50
  865. $GPGSA,A,2,,,,,,,,,,,,,33.9,27.2,20.0*0F
  866. $GPRMC,143548.806,A,2831.4741,N,08041.0124,W,0.91,219.92,211108,,*16
  867. $GPGGA,143548.806,2831.4741,N,08041.0124,W,1,00,27.2,-0.8,M,-31.2,M,0.0,0000*5A
  868. $GPGSA,A,2,,,,,,,,,,,,,33.9,27.2,20.0*0F
  869. $GPRMC,143549.806,A,2831.4739,N,08041.0126,W,0.91,219.92,211108,,*1A
  870. $GPGGA,143549.806,2831.4739,N,08041.0126,W,1,00,27.2,-0.7,M,-31.2,M,0.0,0000*59
  871. $GPGSA,A,2,,,,,,,,,,,,,33.9,27.2,20.0*0F
  872. $GPRMC,143551.806,A,2831.4735,N,08041.0130,W,0.91,219.92,211108,,*18
  873. $GPGGA,143551.806,2831.4735,N,08041.0130,W,1,00,27.2,-0.7,M,-31.2,M,0.0,0000*5B
  874. $GPGSA,A,2,,,,,,,,,,,,,33.9,27.2,20.0*0F
  875. $GPRMC,143552.806,A,2831.4737,N,08041.0136,W,1.55,234.35,211108,,*14
  876. $GPGGA,143552.806,2831.4737,N,08041.0136,W,1,02,0.0,-0.6,M,-31.2,M,0.0,0000*68
  877. $GPGSA,A,2,17,08,,,,,,,,,,,0.0,0.0,0.0*3D
  878. $GPRMC,143553.806,A,2831.4744,N,08041.0131,W,0.88,59.83,211108,,*23
  879. $GPGGA,143553.806,2831.4744,N,08041.0131,W,1,02,0.0,-1.1,M,-31.2,M,0.0,0000*6C
  880. $GPGSA,A,2,25,19,,,,,,,,,,,0.0,0.0,0.0*3C
  881. $GPRMC,143554.806,A,2831.4749,N,08041.0107,W,4.72,86.76,211108,,*25
  882. $GPGGA,143554.806,2831.4749,N,08041.0107,W,1,03,50.0,-1.4,M,-31.2,M,0.0,0000*52
  883. $GPGSA,A,2,19,17,03,,,,,,,,,,50.0,50.0,20.0*0C
  884. $GPRMC,143556.806,A,2831.4752,N,08041.0059,W,4.09,98.14,211108,,*20
  885. $GPGGA,143556.806,2831.4752,N,08041.0059,W,1,01,0.0,-2.0,M,-31.2,M,0.0,0000*60
  886. $GPGSA,A,2,19,,,,,,,,,,,,0.0,0.0,0.0*3B
  887. $GPRMC,143557.806,A,2831.4753,N,08041.0039,W,4.09,98.14,211108,,*26
  888. $GPGGA,143557.806,2831.4753,N,08041.0039,W,1,01,0.0,-2.1,M,-31.2,M,0.0,0000*67
  889. $GPGSA,A,2,19,,,,,,,,,,,,0.0,0.0,0.0*3B
  890. $GPRMC,143558.806,A,2831.4775,N,08041.0049,W,0.06,79.61,211108,,*2C
  891. $GPGGA,143558.806,2831.4775,N,08041.0049,W,1,08,0.8,-1.5,M,-31.2,M,0.0,0000*6D
  892. $GPGSA,A,3,19,23,28,17,27,11,08,03,,,,,1.7,0.8,1.4*32
  893. $GPRMC,143559.805,A,2831.4776,N,08041.0047,W,0.12,47.47,211108,,*2F
  894. $GPGGA,143559.805,2831.4776,N,08041.0047,W,1,07,1.0,-1.4,M,-31.2,M,0.0,0000*65
  895. $GPGSA,A,3,19,23,28,07,11,08,03,,,,,,1.8,1.0,1.4*30
  896. $GPRMC,143601.805,A,2831.4774,N,08041.0043,W,1.01,67.65,211108,,*26
  897. $GPGGA,143601.805,2831.4774,N,08041.0043,W,1,09,1.0,-2.2,M,-31.2,M,0.0,0000*66
  898. $GPGSA,A,3,25,19,28,07,17,27,11,08,03,,,,1.6,1.0,1.2*3D
  899. ,-31.2,M,0.0,0000*6A
  900. $GPGSA,A,3,19,23,28,27,13,11,08,03,,,,,1.8,0.8,1.5*38
  901. $GPRMC,143603.805,A,2831.4772,N,08041.0047,W,0.10,82.77,211108,,*2F
  902. $GPGGA,143603.805,2831.4772,N,08041.0047,W,1,08,1.2,-2.0,M,-31.2,M,0.0,0000*67
  903. $GPGSA,A,3,19,23,07,27,13,11,08,03,,,,,1.9,1.2,1.5*3F
  904. $GPRMC,143604.805,A,2831.4772,N,08041.0053,W,0.23,270.74,211108,,*11
  905. $GPGGA,143604.805,2831.4772,N,08041.0053,W,1,06,1.2,-1.9,M,-31.2,M,0.0,0000*61
  906. $GPGSA,A,3,07,27,13,11,08,03,,,,,,,2.3,1.2,1.8*32
  907. $GPRMC,143606.805,A,2831.4774,N,08041.0064,W,0.17,235.37,211108,,*10
  908. $GPGGA,143606.805,2831.4774,N,08041.0064,W,1,04,3.0,-2.5,M,-31.2,M,0.0,0000*6C
  909. $GPGSA,A,3,27,13,11,08,,,,,,,,,6.1,3.0,5.2*3E
  910. -31.2,M,0.0,0000*6F
  911. $GPGSA,A,3,25,19,07,17,27,11,08,,,,,,2.6,1.4,2.1*33
  912. $GPRMC,143608.805,A,2831.4777,N,08041.0068,W,0.05,114.63,211108,,*13
  913. $GPGGA,143608.805,2831.4777,N,08041.0068,W,1,05,1.4,-1.9,M,-31.2,M,0.0,0000*65
  914. $GPGSA,A,3,19,17,27,11,03,,,,,,,,2.2,1.4,1.6*38
  915. $GPRMC,143609.805,A,2831.4777,N,08041.0069,W,0.12,128.75,211108,,*1D
  916. $GPGGA,143609.805,2831.4777,N,08041.0069,W,1,07,1.0,-1.6,M,-31.2,M,0.0,0000*6C
  917. $GPGSA,A,3,19,17,27,13,11,08,03,,,,,,1.9,1.0,1.5*3D
  918. $GPRMC,143611.805,A,2831.4776,N,08041.0069,W,0.12,128.75,211108,,*15
  919. $GPGGA,143611.805,2831.4776,N,08041.0069,W,1,00,1.0,-1.2,M,-31.2,M,0.0,0000*67
  920. $GPGSA,A,3,,,,,,,,,,,,,1.9,1.0,1.5*3F
  921. $GPRMC,143612.805,A,2831.4770,N,08041.0070,W,1.10,169.73,211108,,*18
  922. $GPGGA,143612.805,2831.4770,N,08041.0070,W,1,07,1.4,-0.7,M,-31.2,M,0.0,0000*6D
  923. $GPGSA,A,3,19,07,17,27,13,08,03,,,,,,2.0,1.4,1.4*35
  924. ,-31.2,M,0.0,0000*6A
  925. $GPGSA,A,3,19,07,17,27,13,08,03,,,,,,2.0,1.4,1.4*35
  926. ,-31.2,M,0.0,0000*64
  927. $GPGSA,A,3,19,07,17,27,13,08,03,,,,,,2.0,1.4,1.4*35
  928. $GPRMC,143616.804,A,2831.4770,N,08041.0069,W,0.17,129.37,211108,,*17
  929. $GPGGA,143616.804,2831.4770,N,08041.0069,W,1,07,1.4,-0.7,M,-31.2,M,0.0,0000*60
  930. $GPGSA,A,3,19,07,17,27,13,08,03,,,,,,2.0,1.4,1.4*35
  931. ,-31.2,M,0.0,0000*6D
  932. $GPGSA,A,3,19,17,27,13,08,03,,,,,,,2.3,1.4,1.8*3D
  933. -31.2,M,0.0,0000*46
  934. $GPGSA,A,3,19,17,27,13,08,03,,,,,,,2.3,1.4,1.8*3D
  935. $GPRMC,143619.804,A,2831.4769,N,08041.0070,W,0.11,129.59,211108,,*16
  936. $GPGGA,143619.804,2831.4769,N,08041.0070,W,1,06,1.4,0.9,M,-31.2,M,0.0,0000*4D
  937. $GPGSA,A,3,19,17,27,13,08,03,,,,,,,2.3,1.4,1.8*3D
  938. -31.2,M,0.0,0000*4B
  939. $GPGSA,A,3,17,27,08,03,,,,,,,,,3.3,2.2,2.3*3B
  940. $GPRMC,143624.804,A,2831.4768,N,08041.0073,W,0.25,130.13,211108,,*1B
  941. $GPGGA,143624.804,2831.4768,N,08041.0073,W,1,06,1.0,1.4,M,-31.2,M,0.0,0000*49
  942. $GPGSA,A,3,23,28,17,27,08,03,,,,,,,2.1,1.0,1.8*3A
  943. $GPRMC,143626.804,A,2831.4769,N,08041.0074,W,0.11,110.83,211108,,*13
  944. $GPGGA,143626.804,2831.4769,N,08041.0074,W,1,08,1.0,1.1,M,-31.2,M,0.0,0000*46
  945. $GPGSA,A,3,19,23,28,17,27,13,08,03,,,,,1.9,1.0,1.6*35
  946. $GPRMC,143627.804,A,2831.4770,N,08041.0075,W,0.12,125.34,211108,,*12
  947. $GPGGA,143627.804,2831.4770,N,08041.0075,W,1,08,1.0,1.5,M,-31.2,M,0.0,0000*4A
  948. $GPGSA,A,3,19,23,28,17,27,13,08,03,,,,,1.9,1.0,1.6*35
  949. $GPRMC,143628.804,A,2831.4771,N,08041.0076,W,0.19,141.33,211108,,*11
  950. $GPGGA,143628.804,2831.4771,N,08041.0076,W,1,08,1.0,2.3,M,-31.2,M,0.0,0000*42
  951. $GPGSA,A,3,19,23,28,17,27,13,08,03,,,,,1.9,1.0,1.6*35
  952. $GPRMC,143629.804,A,2831.4771,N,08041.0077,W,0.15,221.30,211108,,*1B
  953. $GPGGA,143629.804,2831.4771,N,08041.0077,W,1,07,1.2,3.2,M,-31.2,M,0.0,0000*4F
  954. $GPGSA,A,3,25,19,28,17,27,08,03,,,,,,1.8,1.2,1.3*37
  955. $GPRMC,143631.804,A,2831.4769,N,08041.0076,W,1.02,126.22,211108,,*1A
  956. $GPGGA,143631.804,2831.4769,N,08041.0076,W,1,07,1.0,5.2,M,-31.2,M,0.0,0000*4A
  957. $GPGSA,A,3,19,28,17,27,13,08,03,,,,,,2.0,1.0,1.6*3E
  958. $GPRMC,143632.803,A,2831.4767,N,08041.0075,W,0.11,66.61,211108,,*22
  959. $GPGGA,143632.803,2831.4767,N,08041.0075,W,1,07,1.0,5.7,M,-31.2,M,0.0,0000*46
  960. $GPGSA,A,3,19,28,17,27,13,08,03,,,,,,2.0,1.0,1.6*3E
  961. $GPRMC,143633.803,A,2831.4767,N,08041.0075,W,0.11,226.00,211108,,*12
  962. $GPGGA,143633.803,2831.4767,N,08041.0075,W,1,07,1.0,6.2,M,-31.2,M,0.0,0000*41
  963. $GPGSA,A,3,19,28,17,27,13,08,03,,,,,,2.0,1.0,1.6*3E
  964. $GPRMC,143634.803,A,2831.4766,N,08041.0075,W,0.12,116.79,211108,,*19
  965. $GPGGA,143634.803,2831.4766,N,08041.0075,W,1,06,1.6,6.5,M,-31.2,M,0.0,0000*47
  966. $GPGSA,A,3,19,28,17,27,13,08,,,,,,,3.2,1.6,2.7*3A
  967. $GPRMC,143636.803,A,2831.4763,N,08041.0073,W,0.03,264.64,211108,,*12
  968. $GPGGA,143636.803,2831.4763,N,08041.0073,W,1,08,0.8,7.7,M,-31.2,M,0.0,0000*44
  969. $GPGSA,A,3,23,28,17,27,13,11,08,03,,,,,1.7,0.8,1.4*38
  970. $GPRMC,143637.803,A,2831.4761,N,08041.0072,W,0.03,71.20,211108,,*26
  971. $GPGGA,143637.803,2831.4761,N,08041.0072,W,1,08,0.8,8.3,M,-31.2,M,0.0,0000*4D
  972. $GPGSA,A,3,23,28,17,27,13,11,08,03,,,,,1.7,0.8,1.4*38
  973. $GPRMC,143638.803,A,2831.4759,N,08041.0071,W,0.06,111.61,211108,,*16
  974. $GPGGA,143638.803,2831.4759,N,08041.0071,W,1,08,0.8,8.6,M,-31.2,M,0.0,0000*4F
  975. $GPGSA,A,3,23,28,17,27,13,11,08,03,,,,,1.7,0.8,1.4*38
  976. -31.2,M,0.0,0000*49
  977. $GPGSA,A,3,25,23,28,17,27,11,08,03,,,,,1.5,0.8,1.2*39
  978. $GPRMC,143641.803,A,2831.4758,N,08041.0068,W,0.18,122.69,211108,,*16
  979. $GPGGA,143641.803,2831.4758,N,08041.0068,W,1,08,1.0,10.7,M,-31.2,M,0.0,0000*79
  980. $GPGSA,A,3,19,28,07,17,27,13,08,03,,,,,1.7,1.0,1.3*38
  981. $GPRMC,143642.803,A,2831.4757,N,08041.0068,W,0.21,334.56,211108,,*19
  982. $GPGGA,143642.803,2831.4757,N,08041.0068,W,1,09,0.8,12.1,M,-31.2,M,0.0,0000*79
  983. $GPGSA,A,3,19,28,07,17,27,13,11,08,03,,,,1.6,0.8,1.3*30
  984. $GPRMC,143643.803,A,2831.4755,N,08041.0069,W,0.15,199.29,211108,,*11
  985. $GPGGA,143643.803,2831.4755,N,08041.0069,W,1,08,1.0,13.4,M,-31.2,M,0.0,0000*77
  986. $GPGSA,A,3,19,28,07,17,27,13,11,03,,,,,1.7,1.0,1.3*30
  987. $GPRMC,143644.803,A,2831.4754,N,08041.0070,W,0.13,136.79,211108,,*19
  988. $GPGGA,143644.803,2831.4754,N,08041.0070,W,1,06,3.4,14.4,M,-31.2,M,0.0,0000*76
  989. $GPGSA,A,3,28,07,17,27,11,08,,,,,,,5.5,3.4,4.3*34
  990. $GPRMC,143646.803,A,2831.4752,N,08041.0069,W,0.09,109.95,211108,,*10
  991. $GPGGA,143646.803,2831.4752,N,08041.0069,W,1,10,0.8,15.6,M,-31.2,M,0.0,0000*71
  992. $GPGSA,A,3,25,19,23,28,07,17,27,11,08,03,,,1.4,0.8,1.1*34
  993. $GPRMC,143647.803,A,2831.4752,N,08041.0068,W,0.11,96.41,211108,,*27
  994. $GPGGA,143647.803,2831.4752,N,08041.0068,W,1,08,1.0,14.6,M,-31.2,M,0.0,0000*70
  995. $GPGSA,A,3,25,19,28,07,17,11,08,03,,,,,1.7,1.0,1.3*38
  996. $GPRMC,143648.803,A,2831.4754,N,08041.0066,W,0.07,78.17,211108,,*24
  997. $GPGGA,143648.803,2831.4754,N,08041.0066,W,1,08,1.0,13.1,M,-31.2,M,0.0,0000*77
  998. $GPGSA,A,3,25,19,28,07,17,13,11,03,,,,,1.7,1.0,1.3*32
  999. $GPRMC,143649.802,A,2831.4756,N,08041.0065,W,0.07,94.16,211108,,*26
  1000. $GPGGA,143649.802,2831.4756,N,08041.0065,W,1,09,1.0,11.7,M,-31.2,M,0.0,0000*73
  1001. $GPGSA,A,3,25,19,28,07,17,27,13,11,03,,,,1.6,1.0,1.2*37
  1002. $GPRMC,143651.802,A,2831.4761,N,08041.0062,W,0.04,116.88,211108,,*13
  1003. $GPGGA,143651.802,2831.4761,N,08041.0062,W,1,07,1.0,9.2,M,-31.2,M,0.0,0000*4B
  1004. $GPGSA,A,3,25,19,28,17,11,08,03,,,,,,1.9,1.0,1.5*37
  1005. $GPRMC,143652.802,A,2831.4762,N,08041.0061,W,0.18,96.74,211108,,*27
  1006. $GPGGA,143652.802,2831.4762,N,08041.0061,W,1,04,5.2,8.0,M,-31.2,M,0.0,0000*4E
  1007. $GPGSA,A,3,28,17,27,11,,,,,,,,,8.5,5.2,6.7*30
  1008. 31.2,M,0.0,0000*4A
  1009. $GPGSA,A,3,19,28,07,17,27,08,,,,,,,2.8,1.8,2.2*3F
  1010. $GPRMC,143654.802,A,2831.4765,N,08041.0060,W,0.24,115.06,211108,,*17
  1011. $GPGGA,143654.802,2831.4765,N,08041.0060,W,1,06,1.8,5.4,M,-31.2,M,0.0,0000*4B
  1012. $GPGSA,A,3,19,28,07,17,27,08,,,,,,,2.8,1.8,2.2*3F
  1013. $GPRMC,143656.802,A,2831.4766,N,08041.0060,W,0.09,179.41,211108,,*10
  1014. $GPGGA,143656.802,2831.4766,N,08041.0060,W,1,07,1.6,4.6,M,-31.2,M,0.0,0000*46
  1015. $GPGSA,A,3,25,19,28,07,17,27,08,,,,,,2.7,1.6,2.1*3A
  1016. $GPRMC,143657.802,A,2831.4766,N,08041.0060,W,0.12,106.10,211108,,*17
  1017. $GPGGA,143657.802,2831.4766,N,08041.0060,W,1,07,1.6,4.0,M,-31.2,M,0.0,0000*41
  1018. $GPGSA,A,3,25,19,28,07,17,27,08,,,,,,2.7,1.6,2.1*3A
  1019. $GPRMC,143658.802,A,2831.4767,N,08041.0061,W,0.13,105.94,211108,,*16
  1020. $GPGGA,143658.802,2831.4767,N,08041.0061,W,1,06,1.8,3.3,M,-31.2,M,0.0,0000*45
  1021. $GPGSA,A,3,25,19,28,07,17,27,,,,,,,2.7,1.8,2.1*3C
  1022. $GPRMC,143659.802,A,2831.4768,N,08041.0061,W,0.03,267.86,211108,,*1D
  1023. $GPGGA,143659.802,2831.4768,N,08041.0061,W,1,07,1.6,2.8,M,-31.2,M,0.0,0000*4E
  1024. $GPGSA,A,3,25,19,28,07,17,27,13,,,,,,2.6,1.6,2.1*31
  1025. $GPRMC,143701.802,A,2831.4775,N,08041.0065,W,0.08,65.29,211108,,*27
  1026. $GPGGA,143701.802,2831.4775,N,08041.0065,W,1,06,1.8,2.1,M,-31.2,M,0.0,0000*4C
  1027. $GPGSA,A,3,25,19,28,07,17,27,,,,,,,2.7,1.8,2.1*3C
  1028. $GPRMC,143702.802,A,2831.4776,N,08041.0066,W,0.06,83.64,211108,,*2B
  1029. $GPGGA,143702.802,2831.4776,N,08041.0066,W,1,04,2.0,2.0,M,-31.2,M,0.0,0000*47
  1030. $GPGSA,A,3,19,28,17,27,,,,,,,,,3.6,2.0,2.9*3F
  1031. $GPRMC,143703.802,A,2831.4776,N,08041.0067,W,0.14,114.48,211108,,*19
  1032. $GPGGA,143703.802,2831.4776,N,08041.0067,W,1,08,1.2,2.2,M,-31.2,M,0.0,0000*48
  1033. $GPGSA,A,3,25,19,28,07,17,27,08,03,,,,,1.7,1.2,1.2*3E
  1034. $GPRMC,143704.802,A,2831.4775,N,08041.0068,W,0.11,32.40,211108,,*2A
  1035. $GPGGA,143704.802,2831.4775,N,08041.0068,W,1,09,1.0,2.8,M,-31.2,M,0.0,0000*4A
  1036. $GPGSA,A,3,25,19,07,17,27,13,11,08,03,,,,1.6,1.0,1.2*35
  1037. $GPRMC,143706.801,A,2831.4773,N,08041.0071,W,0.03,119.01,211108,,*1B
  1038. $GPGGA,143706.801,2831.4773,N,08041.0071,W,1,07,0.8,3.1,M,-31.2,M,0.0,0000*4A
  1039. $GPGSA,A,3,19,28,17,13,11,08,03,,,,,,2.1,0.8,1.9*3C
  1040. $GPRMC,143707.801,A,2831.4771,N,08041.0073,W,0.05,139.21,211108,,*1C
  1041. $GPGGA,143707.801,2831.4771,N,08041.0073,W,1,03,50.0,2.9,M,-31.2,M,0.0,0000*7B
  1042. $GPGSA,A,2,19,17,03,,,,,,,,,,50.0,50.0,20.0*0C
  1043. $GPRMC,143708.801,A,2831.4768,N,08041.0081,W,0.37,327.45,211108,,*18
  1044. $GPGGA,143708.801,2831.4768,N,08041.0081,W,1,09,0.8,2.4,M,-31.2,M,0.0,0000*4B
  1045. $GPGSA,A,3,25,19,28,07,17,13,11,08,03,,,,1.6,0.8,1.3*32
  1046. $GPRMC,143709.801,A,2831.4770,N,08041.0081,W,0.14,66.63,211108,,*23
  1047. $GPGGA,143709.801,2831.4770,N,08041.0081,W,1,09,0.8,4.9,M,-31.2,M,0.0,0000*48
  1048. $GPGSA,A,3,25,28,07,17,27,13,11,08,03,,,,1.5,0.8,1.2*3D
  1049. $GPRMC,143711.801,A,2831.4771,N,08041.0082,W,0.06,134.11,211108,,*18
  1050. $GPGGA,143711.801,2831.4771,N,08041.0082,W,1,08,1.0,8.7,M,-31.2,M,0.0,0000*49
  1051. $GPGSA,A,3,25,28,07,27,13,11,08,03,,,,,1.7,1.0,1.4*36
  1052. $GPRMC,143712.801,A,2831.4772,N,08041.0082,W,0.06,126.38,211108,,*10
  1053. $GPGGA,143712.801,2831.4772,N,08041.0082,W,1,08,1.0,8.9,M,-31.2,M,0.0,0000*47
  1054. $GPGSA,A,3,25,28,07,27,13,11,08,03,,,,,1.7,1.0,1.4*36
  1055. $GPRMC,143713.801,A,2831.4774,N,08041.0083,W,0.02,130.39,211108,,*14
  1056. $GPGGA,143713.801,2831.4774,N,08041.0083,W,1,08,1.0,8.8,M,-31.2,M,0.0,0000*40
  1057. $GPGSA,A,3,25,28,07,27,13,11,08,03,,,,,1.7,1.0,1.4*36
  1058. $GPRMC,143714.801,A,2831.4775,N,08041.0085,W,0.07,108.85,211108,,*1D
  1059. $GPGGA,143714.801,2831.4775,N,08041.0085,W,1,08,1.0,8.3,M,-31.2,M,0.0,0000*4B
  1060. $GPGSA,A,3,25,28,07,27,13,11,08,03,,,,,1.7,1.0,1.4*36
  1061. $GPRMC,143716.801,A,2831.4778,N,08041.0089,W,0.04,97.75,211108,,*25
  1062. $GPGGA,143716.801,2831.4778,N,08041.0089,W,1,09,0.8,7.5,M,-31.2,M,0.0,0000*49
  1063. $GPGSA,A,3,25,23,28,07,27,13,11,08,03,,,,1.5,0.8,1.2*3A
  1064. $GPRMC,143717.801,A,2831.4779,N,08041.0091,W,0.09,116.43,211108,,*1C
  1065. $GPGGA,143717.801,2831.4779,N,08041.0091,W,1,09,0.8,6.3,M,-31.2,M,0.0,0000*47
  1066. $GPGSA,A,3,25,23,28,07,27,13,11,08,03,,,,1.5,0.8,1.2*3A
  1067. $GPRMC,143718.801,A,2831.4779,N,08041.0093,W,0.12,239.28,211108,,*18
  1068. $GPGGA,143718.801,2831.4779,N,08041.0093,W,1,09,0.8,4.4,M,-31.2,M,0.0,0000*4F
  1069. $GPGSA,A,3,25,23,28,07,17,13,11,08,03,,,,1.5,0.8,1.2*39
  1070. -31.2,M,0.0,0000*4F
  1071. $GPGSA,A,3,25,23,28,17,27,13,11,08,03,,,,1.5,0.8,1.2*3B
  1072. 31.2,M,0.0,0000*43
  1073. $GPGSA,A,3,25,19,23,28,07,17,27,13,11,03,,,1.4,0.8,1.1*3E
  1074. -31.2,M,0.0,0000*45
  1075. $GPGSA,A,3,25,19,28,07,17,27,13,11,08,03,,,1.5,0.8,1.2*35
  1076. $GPRMC,143723.800,A,2831.4779,N,08041.0096,W,0.11,122.73,211108,,*10
  1077. $GPGGA,143723.800,2831.4779,N,08041.0096,W,1,10,0.8,0.4,M,-31.2,M,0.0,0000*4F
  1078. $GPGSA,A,3,25,19,28,07,17,27,13,11,08,03,,,1.5,0.8,1.2*35
  1079. $GPRMC,143724.800,A,2831.4778,N,08041.0094,W,0.15,122.25,211108,,*13
  1080. $GPGGA,143724.800,2831.4778,N,08041.0094,W,1,09,1.0,-0.3,M,-31.2,M,0.0,0000*60
  1081. $GPGSA,A,3,25,19,28,07,27,13,11,08,03,,,,1.7,1.0,1.4*3E
  1082. $GPRMC,143726.800,A,2831.4776,N,08041.0085,W,0.18,94.17,211108,,*2F
  1083. $GPGGA,143726.800,2831.4776,N,08041.0085,W,1,09,1.0,-2.2,M,-31.2,M,0.0,0000*6F
  1084. $GPGSA,A,3,25,19,28,07,17,27,11,08,03,,,,1.6,1.0,1.2*3D
  1085. -31.2,M,0.0,0000*6A
  1086. $GPGSA,A,3,25,19,23,28,07,17,27,08,,,,,2.3,1.4,1.8*37
  1087. $GPRMC,143728.800,A,2831.4775,N,08041.0074,W,0.26,99.14,211108,,*2F
  1088. $GPGGA,143728.800,2831.4775,N,08041.0074,W,1,08,1.4,-5.8,M,-31.2,M,0.0,0000*64
  1089. $GPGSA,A,3,25,19,28,07,17,27,11,08,,,,,2.5,1.4,2.0*3B
  1090. -31.2,M,0.0,0000*64
  1091. $GPGSA,A,3,25,19,23,28,07,17,27,11,08,03,,,1.4,0.8,1.1*34
  1092. $GPRMC,143731.800,A,2831.4773,N,08041.0063,W,0.15,146.84,211108,,*1D
  1093. $GPGGA,143731.800,2831.4773,N,08041.0063,W,1,09,0.8,-7.4,M,-31.2,M,0.0,0000*6E
  1094. $GPGSA,A,3,25,23,28,07,17,27,11,08,03,,,,1.5,0.8,1.1*3D
  1095. $GPRMC,143732.800,A,2831.4772,N,08041.0061,W,0.15,149.20,211108,,*1C
  1096. $GPGGA,143732.800,2831.4772,N,08041.0061,W,1,09,0.8,-6.6,M,-31.2,M,0.0,0000*6D
  1097. $GPGSA,A,3,25,23,28,07,17,27,11,08,03,,,,1.5,0.8,1.1*3D
  1098. $GPRMC,143733.800,A,2831.4771,N,08041.0060,W,0.11,90.05,211108,,*29
  1099. $GPGGA,143733.800,2831.4771,N,08041.0060,W,1,10,0.8,-5.7,M,-31.2,M,0.0,0000*64
  1100. $GPGSA,A,3,25,19,23,28,17,27,13,11,08,03,,,1.5,0.8,1.2*33
  1101. ,-31.2,M,0.0,0000*65
  1102. $GPGSA,A,3,25,19,23,28,17,27,13,08,03,,,,1.6,0.8,1.3*31
  1103. $GPRMC,143736.800,A,2831.4767,N,08041.0059,W,0.07,110.29,211108,,*11
  1104. $GPGGA,143736.800,2831.4767,N,08041.0059,W,1,11,0.8,-3.8,M,-31.2,M,0.0,0000*64
  1105. $GPGSA,A,3,25,19,23,28,07,17,27,13,11,08,03,,1.4,0.8,1.1*36
  1106. $GPRMC,143737.800,A,2831.4765,N,08041.0059,W,0.20,97.41,211108,,*27
  1107. $GPGGA,143737.800,2831.4765,N,08041.0059,W,1,11,0.8,-2.5,M,-31.2,M,0.0,0000*6B
  1108. $GPGSA,A,3,25,19,23,28,07,17,27,13,11,08,03,,1.4,0.8,1.1*36
  1109. $GPRMC,143738.799,A,2831.4763,N,08041.0059,W,0.12,272.27,211108,,*19
  1110. $GPGGA,143738.799,2831.4763,N,08041.0059,W,1,11,0.8,-1.0,M,-31.2,M,0.0,0000*6B
  1111. $GPGSA,A,3,25,19,23,28,07,17,27,13,11,08,03,,1.4,0.8,1.1*36
  1112. $GPRMC,143739.799,A,2831.4761,N,08041.0060,W,0.17,128.28,211108,,*16
  1113. $GPGGA,143739.799,2831.4761,N,08041.0060,W,1,09,1.0,0.5,M,-31.2,M,0.0,0000*4B
  1114. $GPGSA,A,3,19,23,07,17,27,13,11,08,03,,,,1.6,1.0,1.3*32
  1115. $GPRMC,143741.799,A,2831.4758,N,08041.0060,W,0.02,52.24,211108,,*27
  1116. $GPGGA,143741.799,2831.4758,N,08041.0060,W,1,09,1.2,2.9,M,-31.2,M,0.0,0000*42
  1117. $GPGSA,A,3,25,19,23,07,17,27,13,11,03,,,,1.7,1.2,1.1*3C
  1118. $GPRMC,143742.799,A,2831.4756,N,08041.0059,W,0.09,101.63,211108,,*1F
  1119. $GPGGA,143742.799,2831.4756,N,08041.0059,W,1,11,0.8,4.0,M,-31.2,M,0.0,0000*48
  1120. $GPGSA,A,3,25,19,23,28,07,17,27,13,11,08,03,,1.4,0.8,1.1*36
  1121. $GPRMC,143743.799,A,2831.4756,N,08041.0059,W,0.10,106.55,211108,,*14
  1122. $GPGGA,143743.799,2831.4756,N,08041.0059,W,1,10,0.8,4.7,M,-31.2,M,0.0,0000*4F
  1123. $GPGSA,A,3,25,19,28,07,17,27,13,11,08,03,,,1.5,0.8,1.2*35
  1124. $GPRMC,143744.799,A,2831.4757,N,08041.0059,W,0.08,101.49,211108,,*11
  1125. $GPGGA,143744.799,2831.4757,N,08041.0059,W,1,10,0.8,5.0,M,-31.2,M,0.0,0000*4F
  1126. $GPGSA,A,3,25,19,28,07,17,27,13,11,08,03,,,1.5,0.8,1.2*35
  1127. $GPRMC,143746.799,A,2831.4760,N,08041.0061,W,0.04,134.34,211108,,*1C
  1128. $GPGGA,143746.799,2831.4760,N,08041.0061,W,1,09,0.8,5.8,M,-31.2,M,0.0,0000*42
  1129. $GPGSA,A,3,25,19,28,17,27,13,11,08,03,,,,1.6,0.8,1.3*30
  1130. $GPRMC,143747.799,A,2831.4761,N,08041.0062,W,0.10,88.53,211108,,*2D
  1131. $GPGGA,143747.799,2831.4761,N,08041.0062,W,1,10,0.8,6.3,M,-31.2,M,0.0,0000*41
  1132. $GPGSA,A,3,25,19,28,07,17,27,13,11,08,03,,,1.5,0.8,1.2*35
  1133. -31.2,M,0.0,0000*49
  1134. $GPGSA,A,3,25,19,28,07,17,27,13,11,08,03,,,1.5,0.8,1.2*35
  1135. $GPRMC,143749.799,A,2831.4764,N,08041.0066,W,0.33,123.15,211108,,*11
  1136. $GPGGA,143749.799,2831.4764,N,08041.0066,W,1,07,0.8,7.0,M,-31.2,M,0.0,0000*4A
  1137. $GPGSA,A,3,19,28,17,13,11,08,03,,,,,,2.1,0.8,1.9*3C
  1138. $GPRMC,143751.799,A,2831.4767,N,08041.0068,W,0.17,123.23,211108,,*16
  1139. $GPGGA,143751.799,2831.4767,N,08041.0068,W,1,06,1.4,6.4,M,-31.2,M,0.0,0000*47
  1140. $GPGSA,A,3,19,17,27,13,08,03,,,,,,,2.3,1.4,1.8*3D
  1141. $GPRMC,143752.799,A,2831.4767,N,08041.0068,W,0.26,127.75,211108,,*10
  1142. $GPGGA,143752.799,2831.4767,N,08041.0068,W,1,06,1.4,6.2,M,-31.2,M,0.0,0000*42
  1143. $GPGSA,A,3,19,17,27,13,08,03,,,,,,,2.3,1.4,1.8*3D
  1144. $GPRMC,143753.799,A,2831.4766,N,08041.0069,W,0.13,137.95,211108,,*18
  1145. $GPGGA,143753.799,2831.4766,N,08041.0069,W,1,08,1.0,6.0,M,-31.2,M,0.0,0000*4B
  1146. $GPGSA,A,3,19,28,07,17,27,13,08,03,,,,,1.7,1.0,1.3*38
  1147. $GPRMC,143754.799,A,2831.4766,N,08041.0070,W,0.35,112.47,211108,,*1B
  1148. $GPGGA,143754.799,2831.4766,N,08041.0070,W,1,10,0.8,5.8,M,-31.2,M,0.0,0000*4F
  1149. $GPGSA,A,3,25,19,28,07,17,27,13,11,08,03,,,1.5,0.8,1.2*35
  1150. $GPRMC,143756.798,A,2831.4765,N,08041.0074,W,0.12,89.05,211108,,*2F
  1151. $GPGGA,143756.798,2831.4765,N,08041.0074,W,1,10,0.8,5.3,M,-31.2,M,0.0,0000*40
  1152. $GPGSA,A,3,25,19,23,28,07,17,13,11,08,03,,,1.5,0.8,1.2*31
  1153. $GPRMC,143757.798,A,2831.4764,N,08041.0076,W,0.24,115.38,211108,,*12
  1154. $GPGGA,143757.798,2831.4764,N,08041.0076,W,1,09,0.8,5.1,M,-31.2,M,0.0,0000*48
  1155. $GPGSA,A,3,25,19,28,07,17,13,11,08,03,,,,1.6,0.8,1.3*32
  1156. $GPRMC,143758.798,A,2831.4764,N,08041.0078,W,0.28,137.28,211108,,*1E
  1157. $GPGGA,143758.798,2831.4764,N,08041.0078,W,1,08,1.0,5.2,M,-31.2,M,0.0,0000*42
  1158. $GPGSA,A,3,25,19,23,07,17,13,08,03,,,,,1.7,1.0,1.2*30
  1159. $GPRMC,143759.798,A,2831.4765,N,08041.0081,W,0.10,118.53,211108,,*12
  1160. $GPGGA,143759.798,2831.4765,N,08041.0081,W,1,11,0.8,5.1,M,-31.2,M,0.0,0000*46
  1161. $GPGSA,A,3,25,19,23,28,07,17,27,13,11,08,03,,1.4,0.8,1.1*36
  1162. $GPRMC,143801.798,A,2831.4768,N,08041.0085,W,0.04,85.21,211108,,*2C
  1163. $GPGGA,143801.798,2831.4768,N,08041.0085,W,1,10,0.8,5.2,M,-31.2,M,0.0,0000*4F
  1164. $GPGSA,A,3,25,23,28,07,17,27,13,11,08,03,,,1.4,0.8,1.1*3E
  1165. $GPRMC,143802.798,A,2831.4770,N,08041.0087,W,0.06,114.63,211108,,*19
  1166. $GPGGA,143802.798,2831.4770,N,08041.0087,W,1,10,0.8,5.4,M,-31.2,M,0.0,0000*41
  1167. $GPGSA,A,3,25,23,28,07,17,27,13,11,08,03,,,1.4,0.8,1.1*3E
  1168. $GPRMC,143803.798,A,2831.4770,N,08041.0087,W,0.08,166.54,211108,,*17
  1169. $GPGGA,143803.798,2831.4770,N,08041.0087,W,1,10,0.8,5.6,M,-31.2,M,0.0,0000*42
  1170. $GPGSA,A,3,25,23,28,07,17,27,13,11,08,03,,,1.4,0.8,1.1*3E
  1171. $GPRMC,143804.798,A,2831.4771,N,08041.0087,W,0.63,108.81,211108,,*1C
  1172. $GPGGA,143804.798,2831.4771,N,08041.0087,W,1,11,0.8,5.5,M,-31.2,M,0.0,0000*46
  1173. $GPGSA,A,3,25,19,23,28,07,17,27,13,11,08,03,,1.4,0.8,1.1*36
  1174. $GPRMC,143806.798,A,2831.4771,N,08041.0087,W,0.19,343.34,211108,,*10
  1175. $GPGGA,143806.798,2831.4771,N,08041.0087,W,1,10,0.8,4.9,M,-31.2,M,0.0,0000*48
  1176. $GPGSA,A,3,25,23,28,07,17,27,13,11,08,03,,,1.4,0.8,1.1*3E
  1177. $GPRMC,143807.798,A,2831.4773,N,08041.0086,W,0.64,24.20,211108,,*2F
  1178. $GPGGA,143807.798,2831.4773,N,08041.0086,W,1,08,0.8,4.4,M,-31.2,M,0.0,0000*4E
  1179. $GPGSA,A,3,25,19,28,17,13,11,08,03,,,,,1.8,0.8,1.5*3D
  1180. $GPRMC,143808.798,A,2831.4774,N,08041.0085,W,0.27,160.49,211108,,*1D
  1181. $GPGGA,143808.798,2831.4774,N,08041.0085,W,1,10,1.0,3.5,M,-31.2,M,0.0,0000*43
  1182. $GPGSA,A,3,25,19,23,07,17,27,13,11,08,03,,,1.5,1.0,1.1*34
  1183. $GPRMC,143809.798,A,2831.4773,N,08041.0084,W,0.08,118.51,211108,,*11
  1184. $GPGGA,143809.798,2831.4773,N,08041.0084,W,1,09,1.0,2.9,M,-31.2,M,0.0,0000*41
  1185. $GPGSA,A,3,25,23,07,17,27,13,11,08,03,,,,1.5,1.0,1.1*3C
  1186. -31.2,M,0.0,0000*49
  1187. $GPGSA,A,3,23,07,17,27,13,11,08,03,,,,,1.7,1.0,1.3*3B
  1188. $GPRMC,143812.797,A,2831.4766,N,08041.0081,W,0.18,129.49,211108,,*1F
  1189. $GPGGA,143812.797,2831.4766,N,08041.0081,W,1,09,0.8,2.1,M,-31.2,M,0.0,0000*44
  1190. $GPGSA,A,3,23,28,07,17,27,13,11,08,03,,,,1.5,0.8,1.2*3B
  1191. $GPRMC,143813.797,A,2831.4764,N,08041.0081,W,0.08,105.67,211108,,*1F
  1192. $GPGGA,143813.797,2831.4764,N,08041.0081,W,1,08,1.4,2.5,M,-31.2,M,0.0,0000*4F
  1193. $GPGSA,A,3,19,28,07,17,27,13,11,08,,,,,2.6,1.4,2.2*3F
  1194. $GPRMC,143814.797,A,2831.4763,N,08041.0080,W,0.37,85.13,211108,,*28
  1195. $GPGGA,143814.797,2831.4763,N,08041.0080,W,1,09,0.8,3.7,M,-31.2,M,0.0,0000*41
  1196. $GPGSA,A,3,23,28,07,17,27,13,11,08,03,,,,1.5,0.8,1.2*3B
  1197. $GPRMC,143816.797,A,2831.4761,N,08041.0078,W,0.19,219.51,211108,,*12
  1198. $GPGGA,143816.797,2831.4761,N,08041.0078,W,1,07,1.2,6.5,M,-31.2,M,0.0,0000*44
  1199. $GPGSA,A,3,23,07,17,27,13,08,03,,,,,,1.9,1.2,1.4*30
  1200. $GPRMC,143817.797,A,2831.4760,N,08041.0078,W,0.15,189.83,211108,,*1B
  1201. $GPGGA,143817.797,2831.4760,N,08041.0078,W,1,06,2.2,7.8,M,-31.2,M,0.0,0000*4A
  1202. $GPGSA,A,3,23,07,17,13,11,08,,,,,,,3.7,2.2,2.9*37
  1203. $GPRMC,143818.797,A,2831.4758,N,08041.0079,W,0.14,247.09,211108,,*1C
  1204. $GPGGA,143818.797,2831.4758,N,08041.0079,W,1,07,2.2,8.8,M,-31.2,M,0.0,0000*41
  1205. $GPGSA,A,3,23,28,07,17,13,11,08,,,,,,3.7,2.2,2.8*3C
  1206. $GPRMC,143819.797,A,2831.4757,N,08041.0080,W,0.25,215.47,211108,,*1B
  1207. $GPGGA,143819.797,2831.4757,N,08041.0080,W,1,07,2.2,9.5,M,-31.2,M,0.0,0000*45
  1208. $GPGSA,A,3,23,28,07,17,13,11,08,,,,,,3.7,2.2,2.8*3C
  1209. $GPRMC,143821.797,A,2831.4756,N,08041.0083,W,0.36,226.93,211108,,*19
  1210. $GPGGA,143821.797,2831.4756,N,08041.0083,W,1,05,2.4,10.1,M,-31.2,M,0.0,0000*74
  1211. $GPGSA,A,3,23,17,13,11,08,,,,,,,,4.4,2.4,3.6*3C
  1212. $GPRMC,143822.797,A,2831.4757,N,08041.0083,W,0.31,74.84,211108,,*2F
  1213. $GPGGA,143822.797,2831.4757,N,08041.0083,W,1,08,0.8,10.8,M,-31.2,M,0.0,0000*7C
  1214. $GPGSA,A,3,23,28,07,27,13,11,08,03,,,,,1.6,0.8,1.3*3F
  1215. $GPRMC,143823.797,A,2831.4758,N,08041.0083,W,0.00,8.88,211108,,*14
  1216. $GPGGA,143823.797,2831.4758,N,08041.0083,W,1,08,1.0,11.4,M,-31.2,M,0.0,0000*76
  1217. $GPGSA,A,3,25,23,07,17,27,11,08,03,,,,,1.6,1.0,1.1*3D
  1218. $GPRMC,143824.797,A,2831.4760,N,08041.0082,W,0.09,110.38,211108,,*13
  1219. $GPGGA,143824.797,2831.4760,N,08041.0082,W,1,09,0.8,11.8,M,-31.2,M,0.0,0000*7F
  1220. $GPGSA,A,3,25,23,28,07,17,27,11,08,03,,,,1.4,0.8,1.1*3C
  1221. $GPRMC,143826.797,A,2831.4763,N,08041.0080,W,0.30,297.09,211108,,*14
  1222. $GPGGA,143826.797,2831.4763,N,08041.0080,W,1,08,0.8,12.0,M,-31.2,M,0.0,0000*76
  1223. $GPGSA,A,3,23,28,07,17,27,11,08,03,,,,,1.5,0.8,1.2*39
  1224. $GPRMC,143827.797,A,2831.4764,N,08041.0080,W,0.23,82.46,211108,,*2D
  1225. $GPGGA,143827.797,2831.4764,N,08041.0080,W,1,09,0.8,11.7,M,-31.2,M,0.0,0000*75
  1226. $GPGSA,A,3,23,28,07,17,27,13,11,08,03,,,,1.5,0.8,1.2*3B
  1227. $GPRMC,143828.796,A,2831.4765,N,08041.0079,W,0.09,173.43,211108,,*16
  1228. $GPGGA,143828.796,2831.4765,N,08041.0079,W,1,09,0.8,10.7,M,-31.2,M,0.0,0000*7D
  1229. $GPGSA,A,3,23,28,07,17,27,13,11,08,03,,,,1.5,0.8,1.2*3B
  1230. $GPRMC,143829.796,A,2831.4765,N,08041.0078,W,0.37,99.80,211108,,*21
  1231. $GPGGA,143829.796,2831.4765,N,08041.0078,W,1,09,0.8,9.7,M,-31.2,M,0.0,0000*45
  1232. $GPGSA,A,3,23,28,07,17,27,13,11,08,03,,,,1.5,0.8,1.2*3B
  1233. $GPRMC,143831.796,A,2831.4768,N,08041.0077,W,0.07,94.70,211108,,*2B
  1234. $GPGGA,143831.796,2831.4768,N,08041.0077,W,1,09,0.8,7.3,M,-31.2,M,0.0,0000*44
  1235. $GPGSA,A,3,19,28,07,17,27,13,11,08,03,,,,1.6,0.8,1.3*30
  1236. $GPRMC,143832.796,A,2831.4770,N,08041.0077,W,0.13,79.27,211108,,*25
  1237. $GPGGA,143832.796,2831.4770,N,08041.0077,W,1,10,0.8,6.9,M,-31.2,M,0.0,0000*4D
  1238. $GPGSA,A,3,19,23,28,07,17,27,13,11,08,03,,,1.5,0.8,1.2*33
  1239. $GPRMC,143833.796,A,2831.4773,N,08041.0076,W,0.04,41.10,211108,,*2F
  1240. $GPGGA,143833.796,2831.4773,N,08041.0076,W,1,08,0.8,6.5,M,-31.2,M,0.0,0000*4B
  1241. $GPGSA,A,3,19,28,17,27,13,11,08,03,,,,,1.8,0.8,1.5*3F
  1242. $GPRMC,143834.796,A,2831.4775,N,08041.0076,W,0.48,68.39,211108,,*26
  1243. $GPGGA,143834.796,2831.4775,N,08041.0076,W,1,08,0.8,5.8,M,-31.2,M,0.0,0000*44
  1244. $GPGSA,A,3,23,28,17,27,13,11,08,03,,,,,1.7,0.8,1.4*38
  1245. $GPRMC,143836.796,A,2831.4778,N,08041.0075,W,0.14,263.67,211108,,*11
  1246. $GPGGA,143836.796,2831.4778,N,08041.0075,W,1,11,0.8,3.5,M,-31.2,M,0.0,0000*4B
  1247. $GPGSA,A,3,25,19,23,28,07,17,27,13,11,08,03,,1.4,0.8,1.1*36
  1248. $GPRMC,143837.796,A,2831.4778,N,08041.0075,W,0.36,98.73,211108,,*23
  1249. $GPGGA,143837.796,2831.4778,N,08041.0075,W,1,09,1.0,2.4,M,-31.2,M,0.0,0000*4A
  1250. $GPGSA,A,3,25,23,07,17,27,13,11,08,03,,,,1.5,1.0,1.1*3C
  1251. $GPRMC,143838.796,A,2831.4778,N,08041.0075,W,0.08,129.29,211108,,*15
  1252. $GPGGA,143838.796,2831.4778,N,08041.0075,W,1,09,0.8,1.8,M,-31.2,M,0.0,0000*43
  1253. $GPGSA,A,3,25,28,07,17,27,13,11,08,03,,,,1.5,0.8,1.2*3D
  1254. $GPRMC,143839.796,A,2831.4778,N,08041.0075,W,0.08,107.84,211108,,*1F
  1255. $GPGGA,143839.796,2831.4778,N,08041.0075,W,1,09,0.8,1.6,M,-31.2,M,0.0,0000*4C
  1256. $GPGSA,A,3,25,28,07,17,27,13,11,08,03,,,,1.5,0.8,1.2*3D
  1257. $GPRMC,143841.796,A,2831.4778,N,08041.0076,W,0.01,173.57,211108,,*17
  1258. $GPGGA,143841.796,2831.4778,N,08041.0076,W,1,07,3.6,1.7,M,-31.2,M,0.0,0000*42
  1259. $GPGSA,A,3,25,28,07,17,27,13,11,,,,,,5.8,3.6,4.5*30
  1260. $GPRMC,143842.796,A,2831.4778,N,08041.0076,W,0.12,194.19,211108,,*15
  1261. $GPGGA,143842.796,2831.4778,N,08041.0076,W,1,07,3.6,1.7,M,-31.2,M,0.0,0000*41
  1262. $GPGSA,A,3,25,28,07,17,27,13,11,,,,,,5.8,3.6,4.5*30
  1263. $GPRMC,143843.796,A,2831.4778,N,08041.0076,W,0.05,112.12,211108,,*17
  1264. $GPGGA,143843.796,2831.4778,N,08041.0076,W,1,07,3.6,1.6,M,-31.2,M,0.0,0000*41
  1265. $GPGSA,A,3,25,28,07,17,27,13,11,,,,,,5.8,3.6,4.5*30
  1266. 31.2,M,0.0,0000*46
  1267. $GPGSA,A,3,28,07,17,27,13,11,08,03,,,,,1.6,0.8,1.3*38
  1268. $GPRMC,143846.795,A,2831.4774,N,08041.0079,W,0.18,131.90,211108,,*15
  1269. $GPGGA,143846.795,2831.4774,N,08041.0079,W,1,08,0.8,2.5,M,-31.2,M,0.0,0000*46
  1270. $GPGSA,A,3,23,28,07,17,13,11,08,03,,,,,1.6,0.8,1.3*3C
  1271. $GPRMC,143847.795,A,2831.4773,N,08041.0080,W,0.20,120.54,211108,,*16
  1272. $GPGGA,143847.795,2831.4773,N,08041.0080,W,1,08,0.8,2.4,M,-31.2,M,0.0,0000*47
  1273. $GPGSA,A,3,23,28,07,17,27,13,11,03,,,,,1.6,0.8,1.2*30
  1274. $GPRMC,143848.795,A,2831.4773,N,08041.0081,W,0.02,40.17,211108,,*28
  1275. $GPGGA,143848.795,2831.4773,N,08041.0081,W,1,07,1.2,2.3,M,-31.2,M,0.0,0000*4A
  1276. $GPGSA,A,3,23,07,17,27,13,11,03,,,,,,1.8,1.2,1.3*3E
  1277. $GPRMC,143849.795,A,2831.4773,N,08041.0083,W,0.06,104.57,211108,,*1A
  1278. $GPGGA,143849.795,2831.4773,N,08041.0083,W,1,07,1.0,2.0,M,-31.2,M,0.0,0000*48
  1279. $GPGSA,A,3,07,17,27,13,11,08,03,,,,,,1.8,1.0,1.3*35
  1280. $GPRMC,143851.795,A,2831.4774,N,08041.0086,W,0.04,124.40,211108,,*17
  1281. $GPGGA,143851.795,2831.4774,N,08041.0086,W,1,06,1.2,1.6,M,-31.2,M,0.0,0000*45
  1282. $GPGSA,A,3,23,07,17,27,08,03,,,,,,,2.0,1.2,1.4*38
  1283. $GPRMC,143852.795,A,2831.4774,N,08041.0087,W,0.10,119.73,211108,,*1E
  1284. $GPGGA,143852.795,2831.4774,N,08041.0087,W,1,05,1.2,1.3,M,-31.2,M,0.0,0000*41
  1285. $GPGSA,A,3,23,07,17,08,03,,,,,,,,2.1,1.2,1.6*3E
  1286. $GPRMC,143853.795,A,2831.4774,N,08041.0088,W,0.10,118.90,211108,,*1C
  1287. $GPGGA,143853.795,2831.4774,N,08041.0088,W,1,07,1.0,1.3,M,-31.2,M,0.0,0000*4F
  1288. $GPGSA,A,3,23,07,17,13,11,08,03,,,,,,1.8,1.0,1.4*36
  1289. $GPRMC,143854.795,A,2831.4775,N,08041.0088,W,0.22,107.26,211108,,*18
  1290. $GPGGA,143854.795,2831.4775,N,08041.0088,W,1,08,1.0,1.6,M,-31.2,M,0.0,0000*43
  1291. $GPGSA,A,3,25,23,07,17,13,11,08,03,,,,,1.6,1.0,1.2*39
  1292. $GPRMC,143856.795,A,2831.4775,N,08041.0089,W,0.11,123.60,211108,,*1F
  1293. $GPGGA,143856.795,2831.4775,N,08041.0089,W,1,06,1.0,1.2,M,-31.2,M,0.0,0000*4A
  1294. $GPGSA,A,3,23,07,17,11,08,03,,,,,,,1.8,1.0,1.4*34
  1295. $GPRMC,143857.795,A,2831.4773,N,08041.0090,W,0.09,97.64,211108,,*23
  1296. $GPGGA,143857.795,2831.4773,N,08041.0090,W,1,06,1.0,0.8,M,-31.2,M,0.0,0000*4E
  1297. $GPGSA,A,3,23,07,17,11,08,03,,,,,,,1.8,1.0,1.4*34
  1298. $GPRMC,143858.795,A,2831.4771,N,08041.0089,W,0.04,130.98,211108,,*14
  1299. $GPGGA,143858.795,2831.4771,N,08041.0089,W,1,08,0.8,1.5,M,-31.2,M,0.0,0000*40
  1300. $GPGSA,A,3,23,28,07,17,27,11,08,03,,,,,1.5,0.8,1.2*39
  1301. $GPRMC,143859.795,A,2831.4769,N,08041.0088,W,0.26,124.22,211108,,*19
  1302. $GPGGA,143859.795,2831.4769,N,08041.0088,W,1,08,0.8,2.2,M,-31.2,M,0.0,0000*4D
  1303. $GPGSA,A,3,23,28,07,17,27,11,08,03,,,,,1.5,0.8,1.2*39
  1304. $GPRMC,143901.794,A,2831.4765,N,08041.0086,W,0.16,71.65,211108,,*27
  1305. $GPGGA,143901.794,2831.4765,N,08041.0086,W,1,05,2.8,2.6,M,-31.2,M,0.0,0000*49
  1306. $GPGSA,A,3,23,07,17,11,08,,,,,,,,4.6,2.8,3.5*34
  1307. $GPRMC,143902.794,A,2831.4763,N,08041.0085,W,0.20,305.86,211108,,*19
  1308. $GPGGA,143902.794,2831.4763,N,08041.0085,W,1,07,1.0,2.5,M,-31.2,M,0.0,0000*45
  1309. $GPGSA,A,3,23,28,07,17,27,08,03,,,,,,1.7,1.0,1.3*33
  1310. $GPRMC,143903.794,A,2831.4763,N,08041.0085,W,0.26,329.24,211108,,*18
  1311. $GPGGA,143903.794,2831.4763,N,08041.0085,W,1,08,1.0,2.9,M,-31.2,M,0.0,0000*47
  1312. $GPGSA,A,3,23,28,07,17,27,13,08,03,,,,,1.6,1.0,1.3*30
  1313. $GPRMC,143904.794,A,2831.4763,N,08041.0085,W,0.12,115.65,211108,,*10
  1314. $GPGGA,143904.794,2831.4763,N,08041.0085,W,1,08,1.0,3.5,M,-31.2,M,0.0,0000*4D
  1315. $GPGSA,A,3,23,28,07,17,27,13,08,03,,,,,1.6,1.0,1.3*30
  1316. $GPRMC,143906.794,A,2831.4762,N,08041.0085,W,0.05,115.91,211108,,*1E
  1317. $GPGGA,143906.794,2831.4762,N,08041.0085,W,1,08,1.0,4.5,M,-31.2,M,0.0,0000*49
  1318. $GPGSA,A,3,23,07,17,27,13,11,08,03,,,,,1.7,1.0,1.2*3A
  1319. $GPRMC,143907.794,A,2831.4761,N,08041.0084,W,0.10,89.25,211108,,*22
  1320. $GPGGA,143907.794,2831.4761,N,08041.0084,W,1,08,1.0,5.3,M,-31.2,M,0.0,0000*4D
  1321. $GPGSA,A,3,23,07,17,27,13,11,08,03,,,,,1.7,1.0,1.2*3A
  1322. $GPRMC,143908.794,A,2831.4761,N,08041.0083,W,0.08,103.46,211108,,*15
  1323. $GPGGA,143908.794,2831.4761,N,08041.0083,W,1,08,1.0,6.4,M,-31.2,M,0.0,0000*41
  1324. $GPGSA,A,3,23,07,17,27,13,11,08,03,,,,,1.7,1.0,1.2*3A
  1325. $GPRMC,143909.794,A,2831.4761,N,08041.0082,W,0.13,120.33,211108,,*1C
  1326. $GPGGA,143909.794,2831.4761,N,08041.0082,W,1,10,0.8,7.1,M,-31.2,M,0.0,0000*45
  1327. $GPGSA,A,3,25,23,28,07,17,27,13,11,08,03,,,1.4,0.8,1.1*3E
  1328. $GPRMC,143911.794,A,2831.4761,N,08041.0080,W,0.09,81.52,211108,,*21
  1329. $GPGGA,143911.794,2831.4761,N,08041.0080,W,1,10,0.8,7.5,M,-31.2,M,0.0,0000*4A
  1330. $GPGSA,A,3,25,23,28,07,17,27,13,11,08,03,,,1.4,0.8,1.1*3E
  1331. $GPRMC,143912.794,A,2831.4761,N,08041.0079,W,0.12,102.39,211108,,*19
  1332. $GPGGA,143912.794,2831.4761,N,08041.0079,W,1,08,0.8,7.1,M,-31.2,M,0.0,0000*42
  1333. $GPGSA,A,3,28,07,17,27,13,11,08,03,,,,,1.6,0.8,1.3*38
  1334. $GPRMC,143913.794,A,2831.4761,N,08041.0078,W,0.09,112.94,211108,,*15
  1335. $GPGGA,143913.794,2831.4761,N,08041.0078,W,1,07,1.0,6.3,M,-31.2,M,0.0,0000*47
  1336. $GPGSA,A,3,23,17,27,13,11,08,03,,,,,,1.8,1.0,1.5*35
  1337. $GPRMC,143914.794,A,2831.4762,N,08041.0078,W,0.03,64.35,211108,,*20
  1338. $GPGGA,143914.794,2831.4762,N,08041.0078,W,1,05,1.0,5.7,M,-31.2,M,0.0,0000*46
  1339. $GPGSA,A,3,23,17,11,08,03,,,,,,,,2.2,1.0,1.9*37
  1340. $GPRMC,143916.794,A,2831.4765,N,08041.0078,W,0.05,83.82,211108,,*26
  1341. $GPGGA,143916.794,2831.4765,N,08041.0078,W,1,05,3.4,4.7,M,-31.2,M,0.0,0000*44
  1342. $GPGSA,A,3,23,28,17,11,08,,,,,,,,6.0,3.4,5.0*33
  1343. $GPRMC,143917.794,A,2831.4767,N,08041.0079,W,0.06,109.86,211108,,*10
  1344. $GPGGA,143917.794,2831.4767,N,08041.0079,W,1,05,3.4,4.1,M,-31.2,M,0.0,0000*40
  1345. $GPGSA,A,3,23,28,17,11,08,,,,,,,,6.0,3.4,5.0*33
  1346. $GPRMC,143918.793,A,2831.4771,N,08041.0080,W,0.47,91.09,211108,,*2B
  1347. $GPGGA,143918.793,2831.4771,N,08041.0080,W,1,09,0.8,3.3,M,-31.2,M,0.0,0000*4F
  1348. $GPGSA,A,3,23,28,07,17,27,13,11,08,03,,,,1.5,0.8,1.2*3B
  1349. $GPRMC,143919.793,A,2831.4772,N,08041.0079,W,0.29,94.08,211108,,*23
  1350. $GPGGA,143919.793,2831.4772,N,08041.0079,W,1,08,1.0,3.0,M,-31.2,M,0.0,0000*40
  1351. $GPGSA,A,3,25,28,07,17,27,13,08,03,,,,,1.6,1.0,1.2*37
  1352. $GPRMC,143921.793,A,2831.4775,N,08041.0081,W,0.03,172.88,211108,,*11
  1353. $GPGGA,143921.793,2831.4775,N,08041.0081,W,1,10,1.2,2.9,M,-31.2,M,0.0,0000*48
  1354. $GPGSA,A,3,25,19,23,28,07,17,27,13,11,08,,,2.1,1.2,1.7*3E
  1355. $GPRMC,143922.793,A,2831.4776,N,08041.0082,W,0.21,126.85,211108,,*1E
  1356. $GPGGA,143922.793,2831.4776,N,08041.0082,W,1,07,0.8,2.7,M,-31.2,M,0.0,0000*48
  1357. $GPGSA,A,3,19,28,17,13,11,08,03,,,,,,2.1,0.8,1.9*3C
  1358. -31.2,M,0.0,0000*4B
  1359. $GPGSA,A,3,19,23,07,17,27,13,11,08,,,,,2.4,1.2,1.9*38
  1360. $GPRMC,143924.793,A,2831.4775,N,08041.0086,W,0.03,218.30,211108,,*1F
  1361. $GPGGA,143924.793,2831.4775,N,08041.0086,W,1,07,2.2,2.6,M,-31.2,M,0.0,0000*40
  1362. $GPGSA,A,3,23,07,17,27,13,11,08,,,,,,3.6,2.2,2.7*3D
  1363. $GPRMC,143926.793,A,2831.4775,N,08041.0086,W,0.54,82.31,211108,,*2F
  1364. $GPGGA,143926.793,2831.4775,N,08041.0086,W,1,09,2.2,2.4,M,-31.2,M,0.0,0000*4E
  1365. $GPGSA,A,3,25,23,28,07,17,27,13,11,08,,,,3.4,2.2,2.5*30
  1366. $GPRMC,143927.793,A,2831.4775,N,08041.0084,W,0.39,93.25,211108,,*22
  1367. $GPGGA,143927.793,2831.4775,N,08041.0084,W,1,08,1.0,2.4,M,-31.2,M,0.0,0000*4D
  1368. $GPGSA,A,3,25,23,17,27,13,11,08,03,,,,,1.6,1.0,1.2*3B
  1369. $GPRMC,143928.793,A,2831.4775,N,08041.0084,W,0.13,122.54,211108,,*18
  1370. $GPGGA,143928.793,2831.4775,N,08041.0084,W,1,06,1.0,2.2,M,-31.2,M,0.0,0000*4A
  1371. $GPGSA,A,3,23,17,13,11,08,03,,,,,,,2.1,1.0,1.8*37
  1372. $GPRMC,143929.793,A,2831.4774,N,08041.0085,W,0.05,90.73,211108,,*23
  1373. $GPGGA,143929.793,2831.4774,N,08041.0085,W,1,06,1.0,2.1,M,-31.2,M,0.0,0000*48
  1374. $GPGSA,A,3,23,17,13,11,08,03,,,,,,,2.1,1.0,1.8*37
  1375. $GPRMC,143931.793,A,2831.4772,N,08041.0085,W,0.07,115.11,211108,,*16
  1376. $GPGGA,143931.793,2831.4772,N,08041.0085,W,1,09,1.0,2.1,M,-31.2,M,0.0,0000*48
  1377. $GPGSA,A,3,25,23,07,17,27,13,11,08,03,,,,1.5,1.0,1.1*3C
  1378. $GPRMC,143932.793,A,2831.4770,N,08041.0085,W,0.06,119.44,211108,,*1A
  1379. $GPGGA,143932.793,2831.4770,N,08041.0085,W,1,09,1.0,2.4,M,-31.2,M,0.0,0000*4C
  1380. $GPGSA,A,3,25,23,07,17,27,13,11,08,03,,,,1.5,1.0,1.1*3C
  1381. $GPRMC,143933.793,A,2831.4767,N,08041.0085,W,0.11,120.62,211108,,*15
  1382. $GPGGA,143933.793,2831.4767,N,08041.0085,W,1,09,1.0,2.7,M,-31.2,M,0.0,0000*48
  1383. $GPGSA,A,3,25,23,07,17,27,13,11,08,03,,,,1.5,1.0,1.1*3C
  1384. $GPRMC,143934.792,A,2831.4763,N,08041.0085,W,0.11,109.68,211108,,*16
  1385. $GPGGA,143934.792,2831.4763,N,08041.0085,W,1,09,1.0,2.6,M,-31.2,M,0.0,0000*4B
  1386. $GPGSA,A,3,25,23,07,17,27,13,11,08,03,,,,1.5,1.0,1.1*3C
  1387. $GPRMC,143936.792,A,2831.4758,N,08041.0084,W,0.10,117.61,211108,,*1A
  1388. $GPGGA,143936.792,2831.4758,N,08041.0084,W,1,08,1.0,2.9,M,-31.2,M,0.0,0000*4E
  1389. $GPGSA,A,3,25,23,17,27,13,11,08,03,,,,,1.6,1.0,1.2*3B
  1390. $GPRMC,143937.792,A,2831.4757,N,08041.0084,W,0.09,123.81,211108,,*15
  1391. $GPGGA,143937.792,2831.4757,N,08041.0084,W,1,09,1.0,3.3,M,-31.2,M,0.0,0000*4A
  1392. $GPGSA,A,3,25,23,07,17,27,13,11,08,03,,,,1.5,1.0,1.1*3C
  1393. $GPRMC,143938.792,A,2831.4756,N,08041.0083,W,0.08,102.22,211108,,*17
  1394. $GPGGA,143938.792,2831.4756,N,08041.0083,W,1,09,1.0,3.7,M,-31.2,M,0.0,0000*47
  1395. $GPGSA,A,3,25,23,07,17,27,13,11,08,03,,,,1.5,1.0,1.1*3C
  1396. $GPRMC,143939.792,A,2831.4756,N,08041.0081,W,0.13,100.74,211108,,*1F
  1397. $GPGGA,143939.792,2831.4756,N,08041.0081,W,1,09,1.0,4.0,M,-31.2,M,0.0,0000*44
  1398. $GPGSA,A,3,25,23,07,17,27,13,11,08,03,,,,1.5,1.0,1.1*3C
  1399. $GPRMC,143941.792,A,2831.4755,N,08041.0077,W,0.19,262.95,211108,,*18
  1400. $GPGGA,143941.792,2831.4755,N,08041.0077,W,1,08,1.0,3.9,M,-31.2,M,0.0,0000*4E
  1401. $GPGSA,A,3,25,07,17,27,13,11,08,03,,,,,1.7,1.0,1.2*3C
  1402. $GPRMC,143942.792,A,2831.4754,N,08041.0077,W,0.35,216.25,211108,,*1C
  1403. $GPGGA,143942.792,2831.4754,N,08041.0077,W,1,07,2.2,3.5,M,-31.2,M,0.0,0000*4E
  1404. $GPGSA,A,3,23,28,07,17,13,11,08,,,,,,3.6,2.2,2.8*3D
  1405. $GPRMC,143943.792,A,2831.4753,N,08041.0076,W,0.12,206.56,211108,,*1B
  1406. $GPGGA,143943.792,2831.4753,N,08041.0076,W,1,06,3.4,3.4,M,-31.2,M,0.0,0000*4E
  1407. $GPGSA,A,3,28,07,17,13,11,08,,,,,,,6.0,3.4,4.9*3F
  1408. $GPRMC,143944.792,A,2831.4752,N,08041.0076,W,0.19,226.21,211108,,*14
  1409. $GPGGA,143944.792,2831.4752,N,08041.0076,W,1,06,3.4,3.6,M,-31.2,M,0.0,0000*4A
  1410. $GPGSA,A,3,28,07,17,13,11,08,,,,,,,6.0,3.4,4.9*3F
  1411. $GPRMC,143946.792,A,2831.4751,N,08041.0073,W,0.29,98.44,211108,,*27
  1412. $GPGGA,143946.792,2831.4751,N,08041.0073,W,1,09,0.8,3.3,M,-31.2,M,0.0,0000*4B
  1413. $GPGSA,A,3,25,19,23,28,17,27,13,08,03,,,,1.6,0.8,1.2*30
  1414. $GPRMC,143947.792,A,2831.4752,N,08041.0072,W,0.20,75.70,211108,,*29
  1415. $GPGGA,143947.792,2831.4752,N,08041.0072,W,1,10,0.8,3.9,M,-31.2,M,0.0,0000*4A
  1416. $GPGSA,A,3,25,19,23,28,07,27,13,11,08,03,,,1.5,0.8,1.1*31
  1417. $GPRMC,143948.792,A,2831.4753,N,08041.0072,W,0.26,88.17,211108,,*22
  1418. $GPGGA,143948.792,2831.4753,N,08041.0072,W,1,10,0.8,4.3,M,-31.2,M,0.0,0000*49
  1419. $GPGSA,A,3,25,19,28,07,17,27,13,11,08,03,,,1.5,0.8,1.2*35
  1420. $GPRMC,143949.792,A,2831.4754,N,08041.0072,W,0.05,193.32,211108,,*19
  1421. $GPGGA,143949.792,2831.4754,N,08041.0072,W,1,10,1.0,4.6,M,-31.2,M,0.0,0000*43
  1422. $GPGSA,A,3,25,19,23,07,17,27,13,11,08,03,,,1.5,1.0,1.1*34
  1423. $GPRMC,143951.791,A,2831.4755,N,08041.0072,W,0.14,205.23,211108,,*1E
  1424. $GPGGA,143951.791,2831.4755,N,08041.0072,W,1,08,1.2,5.3,M,-31.2,M,0.0,0000*47
  1425. $GPGSA,A,3,25,19,07,27,13,11,08,03,,,,,2.0,1.2,1.5*33
  1426. $GPRMC,143952.791,A,2831.4757,N,08041.0071,W,0.29,60.52,211108,,*25
  1427. $GPGGA,143952.791,2831.4757,N,08041.0071,W,1,09,0.8,5.6,M,-31.2,M,0.0,0000*4A
  1428. $GPGSA,A,3,25,28,07,17,27,13,11,08,03,,,,1.5,0.8,1.2*3D
  1429. $GPRMC,143953.791,A,2831.4759,N,08041.0071,W,0.20,67.90,211108,,*2A
  1430. $GPGGA,143953.791,2831.4759,N,08041.0071,W,1,09,0.8,5.4,M,-31.2,M,0.0,0000*47
  1431. $GPGSA,A,3,19,23,28,07,17,27,11,08,03,,,,1.5,0.8,1.2*31
  1432. $GPRMC,143954.791,A,2831.4760,N,08041.0072,W,0.13,72.03,211108,,*2A
  1433. $GPGGA,143954.791,2831.4760,N,08041.0072,W,1,09,0.8,5.5,M,-31.2,M,0.0,0000*48
  1434. $GPGSA,A,3,25,19,23,28,07,27,11,08,03,,,,1.5,0.8,1.1*33
  1435. $GPRMC,143956.791,A,2831.4760,N,08041.0074,W,0.09,157.13,211108,,*12
  1436. $GPGGA,143956.791,2831.4760,N,08041.0074,W,1,11,0.8,5.4,M,-31.2,M,0.0,0000*44
  1437. $GPGSA,A,3,25,19,23,28,07,17,27,13,11,08,03,,1.4,0.8,1.1*36
  1438. $GPRMC,143957.791,A,2831.4759,N,08041.0076,W,0.09,103.26,211108,,*1C
  1439. $GPGGA,143957.791,2831.4759,N,08041.0076,W,1,11,0.8,5.2,M,-31.2,M,0.0,0000*4B
  1440. $GPGSA,A,3,25,19,23,28,07,17,27,13,11,08,03,,1.4,0.8,1.1*36
  1441. $GPRMC,143958.791,A,2831.4756,N,08041.0077,W,0.22,126.94,211108,,*1A
  1442. $GPGGA,143958.791,2831.4756,N,08041.0077,W,1,11,0.8,5.1,M,-31.2,M,0.0,0000*49
  1443. $GPGSA,A,3,25,19,23,28,07,17,27,13,11,08,03,,1.4,0.8,1.1*36
  1444. $GPRMC,143959.791,A,2831.4754,N,08041.0077,W,0.06,61.81,211108,,*29
  1445. $GPGGA,143959.791,2831.4754,N,08041.0077,W,1,11,0.8,5.3,M,-31.2,M,0.0,0000*48
  1446. $GPGSA,A,3,25,19,23,28,07,17,27,13,11,08,03,,1.4,0.8,1.1*36
  1447. $GPRMC,144001.791,A,2831.4751,N,08041.0076,W,0.02,95.50,211108,,*2D
  1448. $GPGGA,144001.791,2831.4751,N,08041.0076,W,1,10,0.8,6.2,M,-31.2,M,0.0,0000*4C
  1449. $GPGSA,A,3,19,23,28,07,17,27,13,11,08,03,,,1.5,0.8,1.2*33
  1450. $GPRMC,144002.791,A,2831.4752,N,08041.0075,W,0.08,127.13,211108,,*1B
  1451. $GPGGA,144002.791,2831.4752,N,08041.0075,W,1,09,0.8,6.7,M,-31.2,M,0.0,0000*42
  1452. $GPGSA,A,3,25,19,23,28,07,27,13,08,03,,,,1.5,0.8,1.2*32
  1453. $GPRMC,144003.791,A,2831.4754,N,08041.0074,W,0.06,63.51,211108,,*24
  1454. $GPGGA,144003.791,2831.4754,N,08041.0074,W,1,10,0.8,7.3,M,-31.2,M,0.0,0000*49
  1455. $GPGSA,A,3,25,19,23,28,07,27,13,11,08,03,,,1.5,0.8,1.1*31
  1456. -31.2,M,0.0,0000*46
  1457. $GPGSA,A,3,25,19,23,28,07,27,13,11,08,03,,,1.5,0.8,1.1*31
  1458. $GPRMC,144006.791,A,2831.4757,N,08041.0074,W,0.07,86.52,211108,,*2B
  1459. $GPGGA,144006.791,2831.4757,N,08041.0074,W,1,09,1.2,8.1,M,-31.2,M,0.0,0000*41
  1460. $GPGSA,A,3,25,19,23,28,07,27,13,11,08,,,,2.1,1.2,1.7*38
  1461. $GPRMC,144007.790,A,2831.4756,N,08041.0075,W,0.11,106.74,211108,,*11
  1462. $GPGGA,144007.790,2831.4756,N,08041.0075,W,1,11,0.8,7.6,M,-31.2,M,0.0,0000*4B
  1463. $GPGSA,A,3,25,19,23,28,07,17,27,13,11,08,03,,1.4,0.8,1.1*36
  1464. $GPRMC,144008.790,A,2831.4755,N,08041.0076,W,0.08,113.97,211108,,*1F
  1465. $GPGGA,144008.790,2831.4755,N,08041.0076,W,1,10,0.8,6.7,M,-31.2,M,0.0,0000*45
  1466. $GPGSA,A,3,25,19,23,28,17,27,13,11,08,03,,,1.5,0.8,1.2*33
  1467. $GPRMC,144009.790,A,2831.4753,N,08041.0078,W,0.10,235.82,211108,,*1C
  1468. $GPGGA,144009.790,2831.4753,N,08041.0078,W,1,09,1.2,6.3,M,-31.2,M,0.0,0000*4B
  1469. $GPGSA,A,3,25,19,23,28,07,27,13,11,08,,,,2.1,1.2,1.7*38
  1470. $GPRMC,144011.790,A,2831.4749,N,08041.0079,W,0.34,48.14,211108,,*2E
  1471. $GPGGA,144011.790,2831.4749,N,08041.0079,W,1,10,0.8,8.0,M,-31.2,M,0.0,0000*46
  1472. $GPGSA,A,3,25,19,23,28,07,17,13,11,08,03,,,1.5,0.8,1.2*31
  1473. $GPRMC,144012.790,A,2831.4747,N,08041.0081,W,0.05,69.72,211108,,*25
  1474. $GPGGA,144012.790,2831.4747,N,08041.0081,W,1,10,1.2,9.8,M,-31.2,M,0.0,0000*4E
  1475. $GPGSA,A,3,25,19,23,28,07,17,27,13,11,08,,,2.1,1.2,1.6*3F
  1476. $GPRMC,144013.790,A,2831.4745,N,08041.0085,W,0.04,118.11,211108,,*11
  1477. $GPGGA,144013.790,2831.4745,N,08041.0085,W,1,10,1.2,12.0,M,-31.2,M,0.0,0000*7B
  1478. $GPGSA,A,3,25,19,23,28,07,17,27,13,11,08,,,2.1,1.2,1.6*3F
  1479. $GPRMC,144014.790,A,2831.4746,N,08041.0087,W,0.20,52.71,211108,,*28
  1480. $GPGGA,144014.790,2831.4746,N,08041.0087,W,1,07,1.0,13.7,M,-31.2,M,0.0,0000*7F
  1481. $GPGSA,A,3,25,28,07,13,11,08,03,,,,,,1.8,1.0,1.5*3D
  1482. $GPRMC,144016.790,A,2831.4747,N,08041.0092,W,0.25,224.51,211108,,*1B
  1483. $GPGGA,144016.790,2831.4747,N,08041.0092,W,1,04,5.4,15.9,M,-31.2,M,0.0,0000*73
  1484. $GPGSA,A,3,28,07,11,08,,,,,,,,,8.0,5.4,5.7*3C
  1485. $GPRMC,144017.790,A,2831.4750,N,08041.0094,W,0.35,41.21,211108,,*2D
  1486. $GPGGA,144017.790,2831.4750,N,08041.0094,W,1,08,1.4,16.8,M,-31.2,M,0.0,0000*78
  1487. $GPGSA,A,3,25,19,28,07,17,27,11,08,,,,,2.5,1.4,2.0*3B
  1488. $GPRMC,144018.790,A,2831.4752,N,08041.0093,W,0.25,185.96,211108,,*13
  1489. $GPGGA,144018.790,2831.4752,N,08041.0093,W,1,08,1.0,15.8,M,-31.2,M,0.0,0000*75
  1490. $GPGSA,A,3,25,28,07,17,27,11,08,03,,,,,1.6,1.0,1.2*35
  1491. $GPRMC,144019.790,A,2831.4755,N,08041.0091,W,0.15,206.19,211108,,*1B
  1492. $GPGGA,144019.790,2831.4755,N,08041.0091,W,1,10,0.8,15.0,M,-31.2,M,0.0,0000*79
  1493. $GPGSA,A,3,25,19,28,07,17,27,13,11,08,03,,,1.5,0.8,1.2*35
  1494. $GPRMC,144021.790,A,2831.4761,N,08041.0086,W,0.25,176.71,211108,,*18
  1495. $GPGGA,144021.790,2831.4761,N,08041.0086,W,1,09,0.8,14.7,M,-31.2,M,0.0,0000*7D
  1496. $GPGSA,A,3,25,19,28,17,27,13,11,08,03,,,,1.6,0.8,1.3*30
  1497. $GPRMC,144022.790,A,2831.4763,N,08041.0083,W,0.18,47.57,211108,,*25
  1498. $GPGGA,144022.790,2831.4763,N,08041.0083,W,1,09,0.8,14.2,M,-31.2,M,0.0,0000*7C
  1499. $GPGSA,A,3,25,19,23,28,17,27,11,08,03,,,,1.5,0.8,1.2*31
  1500. $GPRMC,144023.790,A,2831.4764,N,08041.0080,W,0.31,154.28,211108,,*10
  1501. $GPGGA,144023.790,2831.4764,N,08041.0080,W,1,09,1.0,13.7,M,-31.2,M,0.0,0000*72
  1502. $GPGSA,A,3,25,19,28,07,17,27,13,08,03,,,,1.6,1.0,1.2*3F
  1503. $GPRMC,144024.789,A,2831.4764,N,08041.0077,W,0.29,111.55,211108,,*15
  1504. $GPGGA,144024.789,2831.4764,N,08041.0077,W,1,06,1.8,13.4,M,-31.2,M,0.0,0000*71
  1505. $GPGSA,A,3,25,19,07,17,13,08,,,,,,,2.9,1.8,2.3*35
  1506. $GPRMC,144026.789,A,2831.4763,N,08041.0070,W,0.83,140.83,211108,,*18
  1507. $GPGGA,144026.789,2831.4763,N,08041.0070,W,1,09,0.8,11.4,M,-31.2,M,0.0,0000*7F
  1508. $GPGSA,A,3,19,23,28,07,17,27,13,08,03,,,,1.6,0.8,1.3*31
  1509. $GPRMC,144027.789,A,2831.4763,N,08041.0069,W,0.10,168.87,211108,,*15
  1510. $GPGGA,144027.789,2831.4763,N,08041.0069,W,1,09,0.8,10.6,M,-31.2,M,0.0,0000*75
  1511. $GPGSA,A,3,25,19,23,28,07,17,27,08,03,,,,1.5,0.8,1.1*35
  1512. $GPRMC,144028.789,A,2831.4763,N,08041.0069,W,0.03,51.26,211108,,*28
  1513. $GPGGA,144028.789,2831.4763,N,08041.0069,W,1,10,0.8,10.6,M,-31.2,M,0.0,0000*72
  1514. $GPGSA,A,3,25,19,23,28,07,17,27,11,08,03,,,1.4,0.8,1.1*34
  1515. $GPRMC,144029.789,A,2831.4764,N,08041.0069,W,0.14,131.19,211108,,*13
  1516. $GPGGA,144029.789,2831.4764,N,08041.0069,W,1,10,0.8,10.9,M,-31.2,M,0.0,0000*7B
  1517. $GPGSA,A,3,25,19,23,28,07,17,27,11,08,03,,,1.4,0.8,1.1*34
  1518. $GPRMC,144031.789,A,2831.4766,N,08041.0070,W,0.13,87.82,211108,,*29
  1519. $GPGGA,144031.789,2831.4766,N,08041.0070,W,1,09,1.0,11.4,M,-31.2,M,0.0,0000*75
  1520. $GPGSA,A,3,25,19,28,07,17,27,11,08,03,,,,1.6,1.0,1.2*3D
  1521. $GPRMC,144032.789,A,2831.4768,N,08041.0070,W,0.16,160.14,211108,,*16
  1522. $GPGGA,144032.789,2831.4768,N,08041.0070,W,1,09,1.0,11.6,M,-31.2,M,0.0,0000*7A
  1523. $GPGSA,A,3,25,19,28,07,27,13,11,08,03,,,,1.7,1.0,1.3*39
  1524. $GPRMC,144033.789,A,2831.4768,N,08041.0071,W,0.14,169.04,211108,,*1C
  1525. $GPGGA,144033.789,2831.4768,N,08041.0071,W,1,08,0.8,11.5,M,-31.2,M,0.0,0000*71
  1526. $GPGSA,A,3,25,23,28,07,17,11,08,03,,,,,1.5,0.8,1.2*3B
  1527. $GPRMC,144034.789,A,2831.4770,N,08041.0071,W,0.02,70.09,211108,,*21
  1528. $GPGGA,144034.789,2831.4770,N,08041.0071,W,1,09,1.2,11.4,M,-31.2,M,0.0,0000*74
  1529. $GPGSA,A,3,25,19,23,28,07,27,13,11,08,,,,2.1,1.2,1.7*38
  1530. $GPRMC,144036.789,A,2831.4773,N,08041.0073,W,0.04,8.10,211108,,*13
  1531. $GPGGA,144036.789,2831.4773,N,08041.0073,W,1,11,0.8,10.7,M,-31.2,M,0.0,0000*77
  1532. $GPGSA,A,3,25,19,23,28,07,17,27,13,11,08,03,,1.4,0.8,1.1*36
  1533. $GPRMC,144037.789,A,2831.4774,N,08041.0075,W,0.18,116.72,211108,,*14
  1534. $GPGGA,144037.789,2831.4774,N,08041.0075,W,1,11,0.8,10.2,M,-31.2,M,0.0,0000*72
  1535. $GPGSA,A,3,25,19,23,28,07,17,27,13,11,08,03,,1.4,0.8,1.1*36
  1536. $GPRMC,144038.789,A,2831.4775,N,08041.0077,W,0.03,210.54,211108,,*13
  1537. $GPGGA,144038.789,2831.4775,N,08041.0077,W,1,11,0.8,10.0,M,-31.2,M,0.0,0000*7C
  1538. $GPGSA,A,3,25,19,23,28,07,17,27,13,11,08,03,,1.4,0.8,1.1*36
  1539. $GPRMC,144039.789,A,2831.4775,N,08041.0078,W,0.21,296.82,211108,,*18
  1540. $GPGGA,144039.789,2831.4775,N,08041.0078,W,1,09,0.8,9.6,M,-31.2,M,0.0,0000*45
  1541. $GPGSA,A,3,25,28,07,17,27,13,11,08,03,,,,1.5,0.8,1.2*3D
  1542. $GPRMC,144041.788,A,2831.4772,N,08041.0079,W,0.13,85.23,211108,,*2A
  1543. $GPGGA,144041.788,2831.4772,N,08041.0079,W,1,10,0.8,9.2,M,-31.2,M,0.0,0000*41
  1544. $GPGSA,A,3,25,19,28,07,17,27,13,11,08,03,,,1.5,0.8,1.2*35
  1545. $GPRMC,144042.788,A,2831.4771,N,08041.0079,W,0.16,137.51,211108,,*12
  1546. $GPGGA,144042.788,2831.4771,N,08041.0079,W,1,09,0.8,8.8,M,-31.2,M,0.0,0000*42
  1547. $GPGSA,A,3,25,19,28,17,27,13,11,08,03,,,,1.6,0.8,1.3*30
  1548. -31.2,M,0.0,0000*4D
  1549. $GPGSA,A,3,19,23,28,17,27,13,11,08,03,,,,1.6,0.8,1.4*31
  1550. $GPRMC,144044.788,A,2831.4767,N,08041.0075,W,0.15,138.43,211108,,*10
  1551. $GPGGA,144044.788,2831.4767,N,08041.0075,W,1,08,0.8,7.3,M,-31.2,M,0.0,0000*4A
  1552. $GPGSA,A,3,19,28,17,27,13,11,08,03,,,,,1.7,0.8,1.5*30
  1553. -31.2,M,0.0,0000*42
  1554. $GPGSA,A,3,25,19,28,17,27,13,11,08,03,,,,1.6,0.8,1.3*30
  1555. -31.2,M,0.0,0000*42
  1556. $GPGSA,A,3,25,19,28,07,17,27,13,11,08,03,,,1.5,0.8,1.2*35
  1557. $GPRMC,144048.788,A,2831.4756,N,08041.0057,W,0.22,124.51,211108,,*14
  1558. $GPGGA,144048.788,2831.4756,N,08041.0057,W,1,11,0.8,6.2,M,-31.2,M,0.0,0000*4C
  1559. $GPGSA,A,3,25,19,23,28,07,17,27,13,11,08,03,,1.4,0.8,1.1*36
  1560. $GPRMC,144049.788,A,2831.4753,N,08041.0052,W,0.04,352.36,211108,,*13
  1561. $GPGGA,144049.788,2831.4753,N,08041.0052,W,1,11,0.8,6.4,M,-31.2,M,0.0,0000*4B
  1562. $GPGSA,A,3,25,19,23,28,07,17,27,13,11,08,03,,1.4,0.8,1.1*36
  1563. $GPRMC,144051.788,A,2831.4749,N,08041.0043,W,0.05,357.90,211108,,*19
  1564. $GPGGA,144051.788,2831.4749,N,08041.0043,W,1,08,1.0,7.1,M,-31.2,M,0.0,0000*4C
  1565. $GPGSA,A,3,25,19,23,17,27,11,08,03,,,,,1.6,1.0,1.2*31
  1566. $GPRMC,144052.788,A,2831.4750,N,08041.0041,W,0.01,353.55,211108,,*19
  1567. $GPGGA,144052.788,2831.4750,N,08041.0041,W,1,08,1.0,7.1,M,-31.2,M,0.0,0000*45
  1568. $GPGSA,A,3,25,19,23,17,27,11,08,03,,,,,1.6,1.0,1.2*31
  1569. $GPRMC,144053.788,A,2831.4750,N,08041.0040,W,0.09,125.57,211108,,*10
  1570. $GPGGA,144053.788,2831.4750,N,08041.0040,W,1,08,1.0,6.9,M,-31.2,M,0.0,0000*4C
  1571. $GPGSA,A,3,25,19,28,27,13,11,08,03,,,,,1.8,1.0,1.5*37
  1572. $GPRMC,144054.788,A,2831.4751,N,08041.0039,W,0.06,354.77,211108,,*11
  1573. $GPGGA,144054.788,2831.4751,N,08041.0039,W,1,09,1.0,6.6,M,-31.2,M,0.0,0000*4A
  1574. $GPGSA,A,3,25,19,28,07,17,27,13,11,03,,,,1.6,1.0,1.2*37
  1575. $GPRMC,144056.788,A,2831.4756,N,08041.0040,W,0.04,90.48,211108,,*2F
  1576. $GPGGA,144056.788,2831.4756,N,08041.0040,W,1,11,0.8,5.5,M,-31.2,M,0.0,0000*41
  1577. $GPGSA,A,3,25,19,23,28,07,17,27,13,11,08,03,,1.4,0.8,1.1*36
  1578. $GPRMC,144057.788,A,2831.4760,N,08041.0041,W,0.04,104.81,211108,,*13
  1579. $GPGGA,144057.788,2831.4760,N,08041.0041,W,1,11,0.8,4.8,M,-31.2,M,0.0,0000*48
  1580. $GPGSA,A,3,25,19,23,28,07,17,27,13,11,08,03,,1.4,0.8,1.1*36
  1581. $GPRMC,144058.787,A,2831.4763,N,08041.0041,W,0.07,31.95,211108,,*21
  1582. $GPGGA,144058.787,2831.4763,N,08041.0041,W,1,10,0.8,4.2,M,-31.2,M,0.0,0000*40
  1583. $GPGSA,A,3,25,19,23,28,17,27,13,11,08,03,,,1.5,0.8,1.2*33
  1584. $GPRMC,144059.787,A,2831.4766,N,08041.0041,W,0.35,134.05,211108,,*19
  1585. $GPGGA,144059.787,2831.4766,N,08041.0041,W,1,11,0.8,3.8,M,-31.2,M,0.0,0000*48
  1586. $GPGSA,A,3,25,19,23,28,07,17,27,13,11,08,03,,1.4,0.8,1.1*36
  1587. $GPRMC,144101.787,A,2831.4771,N,08041.0040,W,0.09,143.70,211108,,*1F
  1588. $GPGGA,144101.787,2831.4771,N,08041.0040,W,1,11,0.8,2.3,M,-31.2,M,0.0,0000*49
  1589. $GPGSA,A,3,25,19,23,28,07,17,27,13,11,08,03,,1.4,0.8,1.1*36
  1590. $GPRMC,144102.787,A,2831.4774,N,08041.0039,W,0.09,118.48,211108,,*12
  1591. $GPGGA,144102.787,2831.4774,N,08041.0039,W,1,10,0.8,1.5,M,-31.2,M,0.0,0000*45
  1592. $GPGSA,A,3,25,19,28,07,17,27,13,11,08,03,,,1.5,0.8,1.2*35
  1593. $GPRMC,144103.787,A,2831.4775,N,08041.0037,W,0.09,123.31,211108,,*1A
  1594. $GPGGA,144103.787,2831.4775,N,08041.0037,W,1,09,1.0,1.0,M,-31.2,M,0.0,0000*4F
  1595. $GPGSA,A,3,25,19,28,07,27,13,11,08,03,,,,1.7,1.0,1.3*39
  1596. $GPRMC,144104.787,A,2831.4775,N,08041.0036,W,0.08,132.26,211108,,*1B
  1597. $GPGGA,144104.787,2831.4775,N,08041.0036,W,1,09,1.0,0.8,M,-31.2,M,0.0,0000*40
  1598. $GPGSA,A,3,25,19,28,07,27,13,11,08,03,,,,1.7,1.0,1.3*39
  1599. $GPRMC,144106.787,A,2831.4772,N,08041.0034,W,0.14,124.69,211108,,*1D
  1600. $GPGGA,144106.787,2831.4772,N,08041.0034,W,1,10,0.8,1.3,M,-31.2,M,0.0,0000*4C
  1601. $GPGSA,A,3,25,19,28,07,17,27,13,11,08,03,,,1.5,0.8,1.2*35
  1602. $GPRMC,144107.787,A,2831.4769,N,08041.0033,W,0.13,141.71,211108,,*1C
  1603. $GPGGA,144107.787,2831.4769,N,08041.0033,W,1,09,1.0,1.4,M,-31.2,M,0.0,0000*46
  1604. $GPGSA,A,3,25,19,07,17,27,13,11,08,03,,,,1.6,1.0,1.2*35
  1605. $GPRMC,144108.787,A,2831.4767,N,08041.0031,W,0.15,117.45,211108,,*1D
  1606. $GPGGA,144108.787,2831.4767,N,08041.0031,W,1,09,1.0,2.2,M,-31.2,M,0.0,0000*40
  1607. $GPGSA,A,3,25,19,07,17,27,13,11,08,03,,,,1.6,1.0,1.2*35
  1608. $GPRMC,144109.787,A,2831.4763,N,08041.0029,W,0.16,123.37,211108,,*10
  1609. $GPGGA,144109.787,2831.4763,N,08041.0029,W,1,08,1.0,3.0,M,-31.2,M,0.0,0000*4E
  1610. $GPGSA,A,3,25,07,17,27,13,11,08,03,,,,,1.6,1.0,1.2*3D
  1611. $GPRMC,144111.787,A,2831.4756,N,08041.0025,W,0.11,271.33,211108,,*14
  1612. $GPGGA,144111.787,2831.4756,N,08041.0025,W,1,10,0.8,3.1,M,-31.2,M,0.0,0000*4C
  1613. $GPGSA,A,3,25,19,28,07,17,27,13,11,08,03,,,1.5,0.8,1.2*35
  1614. $GPRMC,144112.787,A,2831.4754,N,08041.0025,W,0.24,164.86,211108,,*1A
  1615.  
  1616. $GPGGA,144112.787,2831.4754,N,08041.0025,W,1,07,1.0,2.8,M,-31.2,M,0.0,0000*4A
  1617. $GPGSA,A,3,25,28,17,13,11,08,03,,,,,,1.8,1.0,1.5*3C
  1618. $GPRMC,144113.787,A,2831.4754,N,08041.0027,W,0.15,238.41,211108,,*1A
  1619. $GPGGA,144113.787,2831.4754,N,08041.0027,W,1,08,0.8,3.1,M,-31.2,M,0.0,0000*47
  1620. $GPGSA,A,3,25,23,28,07,13,11,08,03,,,,,1.6,0.8,1.2*3C
  1621. $GPRMC,144114.786,A,2831.4754,N,08041.0028,W,0.22,158.20,211108,,*15
  1622. $GPGGA,144114.786,2831.4754,N,08041.0028,W,1,09,2.2,3.4,M,-31.2,M,0.0,0000*42
  1623. $GPGSA,A,3,25,23,28,07,17,27,13,11,08,,,,3.3,2.2,2.5*37
  1624. $GPRMC,144116.786,A,2831.4756,N,08041.0032,W,0.20,89.33,211108,,*23
  1625. $GPGGA,144116.786,2831.4756,N,08041.0032,W,1,10,1.2,4.2,M,-31.2,M,0.0,0000*43
  1626. $GPGSA,A,3,25,19,23,28,07,17,27,13,11,08,,,2.0,1.2,1.6*3E
  1627. $GPRMC,144117.786,A,2831.4757,N,08041.0036,W,0.12,187.69,211108,,*16
  1628. $GPGGA,144117.786,2831.4757,N,08041.0036,W,1,10,1.2,4.4,M,-31.2,M,0.0,0000*41
  1629. $GPGSA,A,3,25,19,23,28,07,17,27,13,11,08,,,2.0,1.2,1.6*3E
  1630. $GPRMC,144121.786,A,2831.4773,N,08041.0045,W,0.05,114.16,211108,,*15
  1631. $GPGGA,144121.786,2831.4773,N,08041.0045,W,1,10,0.8,1.1,M,-31.2,M,0.0,0000*4D
  1632. $GPGSA,A,3,25,19,28,07,17,27,13,11,08,03,,,1.5,0.8,1.2*35
  1633. $GPRMC,144122.786,A,2831.4777,N,08041.0046,W,0.05,161.51,211108,,*10
  1634. $GPGGA,144122.786,2831.4777,N,08041.0046,W,1,10,1.2,0.3,M,-31.2,M,0.0,0000*41
  1635. $GPGSA,A,3,25,19,23,28,07,17,27,13,11,08,,,2.0,1.2,1.6*3E
  1636. $GPRMC,144123.786,A,2831.4781,N,08041.0045,W,0.27,57.68,211108,,*25
  1637. $GPGGA,144123.786,2831.4781,N,08041.0045,W,1,11,0.8,-0.7,M,-31.2,M,0.0,0000*69
  1638. $GPGSA,A,3,25,19,23,28,07,17,27,13,11,08,03,,1.4,0.8,1.1*36
  1639. $GPRMC,144124.786,A,2831.4782,N,08041.0045,W,0.15,68.58,211108,,*2F
  1640. $GPGGA,144124.786,2831.4782,N,08041.0045,W,1,10,0.8,-1.5,M,-31.2,M,0.0,0000*6F
  1641. $GPGSA,A,3,25,19,28,07,17,27,13,11,08,03,,,1.5,0.8,1.2*35
  1642. $GPRMC,144126.786,A,2831.4781,N,08041.0048,W,0.11,314.97,211108,,*1C
  1643. $GPGGA,144126.786,2831.4781,N,08041.0048,W,1,11,0.8,-1.9,M,-31.2,M,0.0,0000*6E
  1644. $GPGSA,A,3,25,19,23,28,07,17,27,13,11,08,03,,1.4,0.8,1.1*36
  1645. $GPRMC,144127.786,A,2831.4778,N,08041.0050,W,0.03,149.51,211108,,*11
  1646. $GPGGA,144127.786,2831.4778,N,08041.0050,W,1,11,0.8,-1.0,M,-31.2,M,0.0,0000*69
  1647. $GPGSA,A,3,25,19,23,28,07,17,27,13,11,08,03,,1.4,0.8,1.1*36
  1648. $GPRMC,144128.786,A,2831.4774,N,08041.0054,W,0.42,299.98,211108,,*18
  1649. $GPGGA,144128.786,2831.4774,N,08041.0054,W,1,11,0.8,-0.1,M,-31.2,M,0.0,0000*6E
  1650. $GPGSA,A,3,25,19,23,28,07,17,27,13,11,08,03,,1.4,0.8,1.1*36
  1651. $GPRMC,144129.786,A,2831.4771,N,08041.0057,W,0.04,124.02,211108,,*1B
  1652. $GPGGA,144129.786,2831.4771,N,08041.0057,W,1,10,0.8,1.3,M,-31.2,M,0.0,0000*46
  1653. $GPGSA,A,3,25,23,28,07,17,27,13,11,08,03,,,1.4,0.8,1.1*3E
  1654. $GPRMC,144131.785,A,2831.4764,N,08041.0063,W,0.08,212.88,211108,,*1A
  1655. $GPGGA,144131.785,2831.4764,N,08041.0063,W,1,09,2.2,3.5,M,-31.2,M,0.0,0000*4B
  1656. $GPGSA,A,3,25,23,28,07,17,27,13,11,08,,,,3.3,2.2,2.5*37
  1657. -31.2,M,0.0,0000*4A
  1658. $GPGSA,A,3,25,23,28,07,17,27,13,11,08,03,,,1.4,0.8,1.1*3E
  1659. $GPRMC,144133.785,A,2831.4760,N,08041.0070,W,0.04,87.83,211108,,*27
  1660. $GPGGA,144133.785,2831.4760,N,08041.0070,W,1,11,0.8,3.7,M,-31.2,M,0.0,0000*4C
  1661. $GPGSA,A,3,25,19,23,28,07,17,27,13,11,08,03,,1.4,0.8,1.1*36
  1662. $GPRMC,144134.785,A,2831.4758,N,08041.0076,W,0.01,133.21,211108,,*1E
  1663. $GPGGA,144134.785,2831.4758,N,08041.0076,W,1,11,0.8,4.2,M,-31.2,M,0.0,0000*44
  1664. $GPGSA,A,3,25,19,23,28,07,17,27,13,11,08,03,,1.4,0.8,1.1*36
  1665. $GPRMC,144136.785,A,2831.4759,N,08041.0088,W,0.03,138.39,211108,,*1C
  1666. $GPGGA,144136.785,2831.4759,N,08041.0088,W,1,11,0.8,7.9,M,-31.2,M,0.0,0000*4E
  1667. $GPGSA,A,3,25,19,23,28,07,17,27,13,11,08,03,,1.4,0.8,1.1*36
  1668. $GPRMC,144137.785,A,2831.4760,N,08041.0093,W,0.09,116.53,211108,,*17
  1669. $GPGGA,144137.785,2831.4760,N,08041.0093,W,1,11,0.8,10.7,M,-31.2,M,0.0,0000*77
  1670. $GPGSA,A,3,25,19,23,28,07,17,27,13,11,08,03,,1.4,0.8,1.1*36
  1671. $GPRMC,144138.785,A,2831.4762,N,08041.0098,W,0.07,123.56,211108,,*1C
  1672. $GPGGA,144138.785,2831.4762,N,08041.0098,W,1,10,0.8,12.9,M,-31.2,M,0.0,0000*7C
  1673. $GPGSA,A,3,25,23,28,07,17,27,13,11,08,03,,,1.4,0.8,1.1*3E
  1674. $GPRMC,144139.785,A,2831.4765,N,08041.0103,W,0.05,189.39,211108,,*12
  1675. $GPGGA,144139.785,2831.4765,N,08041.0103,W,1,09,2.0,13.9,M,-31.2,M,0.0,0000*7A
  1676. $GPGSA,A,3,25,23,28,07,17,27,13,11,08,,,,3.3,2.0,2.5*35
  1677. $GPRMC,144141.785,A,2831.4769,N,08041.0108,W,0.11,203.86,211108,,*1A
  1678. $GPGGA,144141.785,2831.4769,N,08041.0108,W,1,09,2.0,13.5,M,-31.2,M,0.0,0000*7E
  1679. $GPGSA,A,3,25,23,28,07,17,27,13,11,08,,,,3.3,2.0,2.5*35
  1680. ,-31.2,M,0.0,0000*70
  1681. $GPGSA,A,3,25,23,28,07,17,27,13,11,08,,,,3.3,2.0,2.5*35
  1682. $GPRMC,144143.785,A,2831.4771,N,08041.0110,W,0.41,84.21,211108,,*2D
  1683. $GPGGA,144143.785,2831.4771,N,08041.0110,W,1,09,1.2,12.8,M,-31.2,M,0.0,0000*71
  1684. $GPGSA,A,3,25,19,23,07,17,27,13,11,08,,,,2.1,1.2,1.7*34
  1685. ,-31.2,M,0.0,0000*78
  1686. $GPGSA,A,3,25,19,23,28,07,17,27,13,11,08,,,2.0,1.2,1.6*3E
  1687. $GPRMC,144146.785,A,2831.4761,N,08041.0122,W,0.16,255.27,211108,,*12
  1688. $GPGGA,144146.785,2831.4761,N,08041.0122,W,1,11,0.8,16.3,M,-31.2,M,0.0,0000*79
  1689. $GPGSA,A,3,25,19,23,28,07,17,27,13,11,08,03,,1.4,0.8,1.1*36
  1690. $GPRMC,144147.785,A,2831.4756,N,08041.0126,W,0.16,148.66,211108,,*19
  1691. $GPGGA,144147.785,2831.4756,N,08041.0126,W,1,11,0.8,18.8,M,-31.2,M,0.0,0000*7D
  1692. $GPGSA,A,3,25,19,23,28,07,17,27,13,11,08,03,,1.4,0.8,1.1*36
  1693. $GPRMC,144148.784,A,2831.4751,N,08041.0129,W,0.14,135.76,211108,,*16
  1694. $GPGGA,144148.784,2831.4751,N,08041.0129,W,1,11,0.8,21.5,M,-31.2,M,0.0,0000*7C
  1695. $GPGSA,A,3,25,19,23,28,07,17,27,13,11,08,03,,1.4,0.8,1.1*36
  1696. $GPRMC,144149.784,A,2831.4747,N,08041.0131,W,0.05,9.75,211108,,*14
  1697. $GPGGA,144149.784,2831.4747,N,08041.0131,W,1,11,0.8,23.9,M,-31.2,M,0.0,0000*7D
  1698. $GPGSA,A,3,25,19,23,28,07,17,27,13,11,08,03,,1.4,0.8,1.1*36
  1699. $GPRMC,144151.784,A,2831.4740,N,08041.0132,W,0.04,104.22,211108,,*16
  1700. $GPGGA,144151.784,2831.4740,N,08041.0132,W,1,10,0.8,27.7,M,-31.2,M,0.0,0000*7B
  1701. $GPGSA,A,3,25,19,28,07,17,27,13,11,08,03,,,1.5,0.8,1.2*35
  1702. $GPRMC,144152.784,A,2831.4739,N,08041.0131,W,0.07,159.35,211108,,*15
  1703. $GPGGA,144152.784,2831.4739,N,08041.0131,W,1,11,0.8,28.8,M,-31.2,M,0.0,0000*74
  1704. $GPGSA,A,3,25,19,23,28,07,17,27,13,11,08,03,,1.4,0.8,1.1*36
  1705. $GPRMC,144153.784,A,2831.4739,N,08041.0131,W,0.12,263.43,211108,,*1B
  1706. $GPGGA,144153.784,2831.4739,N,08041.0131,W,1,10,0.8,27.9,M,-31.2,M,0.0,0000*7A
  1707. $GPGSA,A,3,25,19,23,28,07,17,13,11,08,03,,,1.4,0.8,1.1*33
  1708. $GPRMC,144154.784,A,2831.4738,N,08041.0130,W,0.06,259.75,211108,,*15
  1709. $GPGGA,144154.784,2831.4738,N,08041.0130,W,1,07,1.0,26.4,M,-31.2,M,0.0,0000*7E
  1710. $GPGSA,A,3,28,07,17,27,13,11,03,,,,,,1.7,1.0,1.3*38
  1711. $GPRMC,144156.784,A,2831.4742,N,08041.0127,W,0.25,63.86,211108,,*2A
  1712. $GPGGA,144156.784,2831.4742,N,08041.0127,W,1,10,1.2,21.2,M,-31.2,M,0.0,0000*72
  1713. $GPGSA,A,3,25,19,23,28,07,17,27,13,11,08,,,2.0,1.2,1.6*3E
  1714. $GPRMC,144157.784,A,2831.4743,N,08041.0125,W,0.26,54.79,211108,,*2F
  1715. $GPGGA,144157.784,2831.4743,N,08041.0125,W,1,09,0.8,19.5,M,-31.2,M,0.0,0000*7F
  1716. $GPGSA,A,3,25,28,07,17,27,13,11,08,03,,,,1.5,0.8,1.2*3D
  1717. $GPRMC,144158.784,A,2831.4744,N,08041.0123,W,0.06,203.50,211108,,*18
  1718. $GPGGA,144158.784,2831.4744,N,08041.0123,W,1,09,0.8,17.5,M,-31.2,M,0.0,0000*7F
  1719. $GPGSA,A,3,25,28,07,17,27,13,11,08,03,,,,1.5,0.8,1.2*3D
  1720. $GPRMC,144159.784,A,2831.4746,N,08041.0121,W,0.19,61.93,211108,,*2E
  1721. $GPGGA,144159.784,2831.4746,N,08041.0121,W,1,08,3.0,15.8,M,-31.2,M,0.0,0000*7B
  1722. $GPGSA,A,3,25,28,07,17,27,13,11,08,,,,,5.0,3.0,4.0*33
  1723. $GPRMC,144201.784,A,2831.4751,N,08041.0115,W,0.02,92.76,211108,,*2C
  1724. $GPGGA,144201.784,2831.4751,N,08041.0115,W,1,08,3.0,12.1,M,-31.2,M,0.0,0000*7A
  1725. $GPGSA,A,3,25,28,07,17,27,13,11,08,,,,,5.0,3.0,4.0*33
  1726. $GPRMC,144202.784,A,2831.4753,N,08041.0115,W,0.06,275.52,211108,,*14
  1727. $GPGGA,144202.784,2831.4753,N,08041.0115,W,1,07,3.4,11.7,M,-31.2,M,0.0,0000*75
  1728. $GPGSA,A,3,25,28,07,17,13,11,08,,,,,,5.9,3.4,4.8*33
  1729. $GPRMC,144203.784,A,2831.4754,N,08041.0115,W,0.09,50.24,211108,,*29
  1730. $GPGGA,144203.784,2831.4754,N,08041.0115,W,1,07,3.4,10.9,M,-31.2,M,0.0,0000*7C
  1731. $GPGSA,A,3,25,28,07,17,13,11,08,,,,,,5.9,3.4,4.8*33
  1732. $GPRMC,144204.784,A,2831.4755,N,08041.0115,W,0.16,158.18,211108,,*17
  1733. $GPGGA,144204.784,2831.4755,N,08041.0115,W,1,06,3.6,9.9,M,-31.2,M,0.0,0000*41
  1734. $GPGSA,A,3,25,28,07,17,11,08,,,,,,,6.2,3.6,4.9*3A
  1735. $GPRMC,144206.783,A,2831.4761,N,08041.0113,W,0.11,62.33,211108,,*25
  1736. $GPGGA,144206.783,2831.4761,N,08041.0113,W,1,08,1.0,5.9,M,-31.2,M,0.0,0000*43
  1737. $GPGSA,A,3,25,23,28,07,17,13,11,03,,,,,1.5,1.0,1.2*38
  1738. $GPRMC,144207.783,A,2831.4763,N,08041.0111,W,0.13,64.01,211108,,*21
  1739. $GPGGA,144207.783,2831.4763,N,08041.0111,W,1,09,0.8,5.0,M,-31.2,M,0.0,0000*43
  1740. $GPGSA,A,3,25,23,28,07,17,13,11,08,03,,,,1.5,0.8,1.1*3A
  1741. $GPRMC,144208.783,A,2831.4762,N,08041.0110,W,0.06,136.91,211108,,*15
  1742. $GPGGA,144208.783,2831.4762,N,08041.0110,W,1,08,2.2,4.8,M,-31.2,M,0.0,0000*4C
  1743. $GPGSA,A,3,25,23,28,07,17,13,11,08,,,,,3.4,2.2,2.6*36
  1744. -31.2,M,0.0,0000*47
  1745. $GPGSA,A,3,25,23,28,07,17,27,13,11,08,,,,3.3,2.0,2.5*35
  1746. $GPRMC,144211.783,A,2831.4755,N,08041.0109,W,0.05,107.44,211108,,*18
  1747. $GPGGA,144211.783,2831.4755,N,08041.0109,W,1,10,1.2,7.4,M,-31.2,M,0.0,0000*4D
  1748. $GPGSA,A,3,25,19,23,28,07,17,27,13,11,08,,,2.0,1.2,1.6*3E
  1749. $GPRMC,144212.783,A,2831.4753,N,08041.0108,W,0.10,175.73,211108,,*19
  1750. $GPGGA,144212.783,2831.4753,N,08041.0108,W,1,10,1.2,7.7,M,-31.2,M,0.0,0000*4A
  1751. $GPGSA,A,3,25,19,23,28,07,17,27,13,11,08,,,2.0,1.2,1.6*3E
  1752. $GPRMC,144213.783,A,2831.4751,N,08041.0106,W,0.07,117.99,211108,,*12
  1753. $GPGGA,144213.783,2831.4751,N,08041.0106,W,1,10,1.2,7.7,M,-31.2,M,0.0,0000*47
  1754. $GPGSA,A,3,25,19,23,28,07,17,27,13,11,08,,,2.0,1.2,1.6*3E
  1755. 31.2,M,0.0,0000*45
  1756. $GPGSA,A,3,25,19,23,28,07,17,27,13,11,08,03,,1.4,0.8,1.1*36
  1757. $GPRMC,144216.783,A,2831.4747,N,08041.0105,W,0.10,102.15,211108,,*15
  1758. $GPGGA,144216.783,2831.4747,N,08041.0105,W,1,10,1.2,9.2,M,-31.2,M,0.0,0000*4D
  1759. $GPGSA,A,3,25,19,23,28,07,17,27,13,11,08,,,2.0,1.2,1.6*3E
  1760. $GPRMC,144217.783,A,2831.4746,N,08041.0104,W,0.12,110.05,211108,,*14
  1761. $GPGGA,144217.783,2831.4746,N,08041.0104,W,1,10,1.2,9.2,M,-31.2,M,0.0,0000*4C
  1762. $GPGSA,A,3,25,19,23,28,07,17,27,13,11,08,,,2.0,1.2,1.6*3E
  1763. $GPRMC,144218.783,A,2831.4745,N,08041.0103,W,0.14,145.83,211108,,*17
  1764. $GPGGA,144218.783,2831.4745,N,08041.0103,W,1,09,1.2,9.1,M,-31.2,M,0.0,0000*4C
  1765. $GPGSA,A,3,25,19,28,07,17,27,13,11,08,,,,2.4,1.2,2.0*3E
  1766. -31.2,M,0.0,0000*4A
  1767. $GPGSA,A,3,25,23,28,07,17,27,13,11,08,,,,3.3,2.0,2.4*34
  1768. $GPRMC,144221.782,A,2831.4752,N,08041.0105,W,0.03,7.83,211108,,*1D
  1769. $GPGGA,144221.782,2831.4752,N,08041.0105,W,1,09,1.2,10.0,M,-31.2,M,0.0,0000*7E
  1770. $GPGSA,A,3,25,19,23,28,07,17,27,11,08,,,,2.1,1.2,1.6*3D
  1771. $GPRMC,144222.782,A,2831.4754,N,08041.0105,W,0.17,182.76,211108,,*1B
  1772. $GPGGA,144222.782,2831.4754,N,08041.0105,W,1,10,1.2,10.7,M,-31.2,M,0.0,0000*74
  1773. $GPGSA,A,3,25,19,23,28,07,17,27,13,11,08,,,2.0,1.2,1.6*3E
  1774. $GPRMC,144223.782,A,2831.4758,N,08041.0104,W,0.07,171.02,211108,,*19
  1775. $GPGGA,144223.782,2831.4758,N,08041.0104,W,1,10,1.2,11.4,M,-31.2,M,0.0,0000*7A
  1776. $GPGSA,A,3,25,19,23,28,07,17,27,13,11,08,,,2.0,1.2,1.6*3E
  1777. $GPRMC,144224.782,A,2831.4762,N,08041.0103,W,0.03,20.65,211108,,*20
  1778. $GPGGA,144224.782,2831.4762,N,08041.0103,W,1,09,2.0,12.4,M,-31.2,M,0.0,0000*79
  1779. $GPGSA,A,3,25,23,28,07,17,27,13,11,08,,,,3.3,2.0,2.4*34
  1780. $GPRMC,144226.782,A,2831.4769,N,08041.0099,W,0.13,84.03,211108,,*24
  1781. $GPGGA,144226.782,2831.4769,N,08041.0099,W,1,09,2.0,13.8,M,-31.2,M,0.0,0000*7F
  1782. $GPGSA,A,3,25,23,28,07,17,27,13,11,08,,,,3.3,2.0,2.4*34
  1783. $GPRMC,144227.782,A,2831.4771,N,08041.0097,W,0.06,103.84,211108,,*17
  1784. $GPGGA,144227.782,2831.4771,N,08041.0097,W,1,09,2.0,14.2,M,-31.2,M,0.0,0000*74
  1785. $GPGSA,A,3,25,23,28,07,17,27,13,11,08,,,,3.3,2.0,2.4*34
  1786. $GPRMC,144228.782,A,2831.4774,N,08041.0094,W,0.15,64.10,211108,,*21
  1787. $GPGGA,144228.782,2831.4774,N,08041.0094,W,1,09,2.0,14.7,M,-31.2,M,0.0,0000*78
  1788. $GPGSA,A,3,25,23,28,07,17,27,13,11,08,,,,3.3,2.0,2.4*34
  1789. ,-31.2,M,0.0,0000*79
  1790. $GPGSA,A,3,25,23,28,07,17,27,13,11,08,,,,3.3,2.0,2.4*34
  1791. $GPRMC,144231.782,A,2831.4777,N,08041.0086,W,0.08,102.63,211108,,*10
  1792. $GPGGA,144231.782,2831.4777,N,08041.0086,W,1,07,3.2,15.2,M,-31.2,M,0.0,0000*79
  1793. $GPGSA,A,3,25,23,28,07,17,27,11,,,,,,4.7,3.2,3.4*3F
  1794. $GPRMC,144232.782,A,2831.4776,N,08041.0084,W,0.09,69.58,211108,,*25
  1795. $GPGGA,144232.782,2831.4776,N,08041.0084,W,1,07,3.2,15.5,M,-31.2,M,0.0,0000*7E
  1796. $GPGSA,A,3,25,23,28,07,17,27,11,,,,,,4.7,3.2,3.4*3F
  1797. -31.2,M,0.0,0000*7C
  1798. $GPGSA,A,3,25,23,28,07,17,27,11,08,,,,,3.8,2.4,2.7*3A
  1799. -31.2,M,0.0,0000*76
  1800. $GPGSA,A,3,25,23,28,07,17,27,11,08,,,,,3.8,2.4,2.7*3A
  1801. $GPRMC,144236.782,A,2831.4773,N,08041.0084,W,0.11,23.07,211108,,*29
  1802. $GPGGA,144236.782,2831.4773,N,08041.0084,W,1,09,1.2,16.3,M,-31.2,M,0.0,0000*76
  1803. $GPGSA,A,3,25,19,28,07,17,27,13,11,08,,,,2.4,1.2,1.9*34
  1804. $GPRMC,144237.782,A,2831.4768,N,08041.0089,W,0.20,125.43,211108,,*1A
  1805. $GPGGA,144237.782,2831.4768,N,08041.0089,W,1,09,1.2,17.6,M,-31.2,M,0.0,0000*74
  1806. $GPGSA,A,3,25,19,28,07,17,27,13,11,08,,,,2.4,1.2,1.9*34
  1807. ,-31.2,M,0.0,0000*7E
  1808. $GPGSA,A,3,25,19,28,07,17,27,13,11,08,,,,2.4,1.2,1.9*34
  1809. ,-31.2,M,0.0,0000*74
  1810. $GPGSA,A,3,25,19,28,07,17,27,13,11,08,,,,2.4,1.2,1.9*34
  1811. $GPRMC,144241.781,A,2831.4744,N,08041.0112,W,0.25,245.34,211108,,*15
  1812. $GPGGA,144241.781,2831.4744,N,08041.0112,W,1,09,1.2,21.8,M,-31.2,M,0.0,0000*70
  1813. $GPGSA,A,3,25,19,28,07,17,27,13,11,08,,,,2.4,1.2,1.9*34
  1814. $GPRMC,144242.781,A,2831.4736,N,08041.0117,W,0.11,187.96,211108,,*14
  1815. $GPGGA,144242.781,2831.4736,N,08041.0117,W,1,09,1.2,23.1,M,-31.2,M,0.0,0000*78
  1816. $GPGSA,A,3,25,19,28,07,17,27,13,11,08,,,,2.4,1.2,1.9*34
  1817. ,-31.2,M,0.0,0000*78
  1818. $GPGSA,A,3,25,19,28,07,17,27,13,11,08,,,,2.4,1.2,1.9*34
  1819. $GPRMC,144244.781,A,2831.4725,N,08041.0124,W,0.25,219.57,211108,,*1E
  1820. $GPGGA,144244.781,2831.4725,N,08041.0124,W,1,09,1.2,25.6,M,-31.2,M,0.0,0000*7D
  1821. $GPGSA,A,3,25,19,28,07,17,27,13,11,08,,,,2.4,1.2,1.9*34
  1822. ,-31.2,M,0.0,0000*7B
  1823. $GPGSA,A,3,25,19,28,07,17,27,13,11,08,,,,2.4,1.2,1.9*34
  1824. ,-31.2,M,0.0,0000*70
  1825. $GPGSA,A,3,25,28,07,17,27,13,11,,,,,,5.8,3.6,4.6*33
  1826. -31.2,M,0.0,0000*77
  1827. $GPGSA,A,3,25,28,07,17,27,13,11,08,,,,,5.1,3.0,4.0*32
  1828. $GPRMC,144252.781,A,2831.4733,N,08041.0145,W,0.03,279.20,211108,,*1B
  1829. $GPGGA,144252.781,2831.4733,N,08041.0145,W,1,09,0.8,24.6,M,-31.2,M,0.0,0000*70
  1830. $GPGSA,A,3,25,28,07,17,27,13,11,08,03,,,,1.5,0.8,1.2*3D
  1831. $GPRMC,144253.781,A,2831.4734,N,08041.0146,W,0.07,52.59,211108,,*2F
  1832. $GPGGA,144253.781,2831.4734,N,08041.0146,W,1,09,0.8,23.6,M,-31.2,M,0.0,0000*72
  1833. $GPGSA,A,3,25,28,07,17,27,13,11,08,03,,,,1.5,0.8,1.2*3D
  1834. $GPRMC,144254.781,A,2831.4736,N,08041.0146,W,0.03,168.55,211108,,*1A
  1835. $GPGGA,144254.781,2831.4736,N,08041.0146,W,1,09,0.8,23.0,M,-31.2,M,0.0,0000*71
  1836. $GPGSA,A,3,25,28,07,17,27,13,11,08,03,,,,1.5,0.8,1.2*3D
  1837. $GPRMC,144256.780,A,2831.4739,N,08041.0143,W,0.06,125.13,211108,,*1D
  1838. $GPGGA,144256.780,2831.4739,N,08041.0143,W,1,09,0.8,22.4,M,-31.2,M,0.0,0000*7D
  1839. $GPGSA,A,3,25,28,07,17,27,13,11,08,03,,,,1.5,0.8,1.2*3D
  1840. $GPRMC,144257.780,A,2831.4740,N,08041.0140,W,0.08,97.48,211108,,*29
  1841. $GPGGA,144257.780,2831.4740,N,08041.0140,W,1,10,0.8,22.5,M,-31.2,M,0.0,0000*78
  1842. $GPGSA,A,3,25,19,28,07,17,27,13,11,08,03,,,1.5,0.8,1.2*35
  1843. $GPRMC,144258.780,A,2831.4742,N,08041.0136,W,0.13,100.14,211108,,*19
  1844. $GPGGA,144258.780,2831.4742,N,08041.0136,W,1,09,0.8,22.7,M,-31.2,M,0.0,0000*7E
  1845. $GPGSA,A,3,25,28,07,17,27,13,11,08,03,,,,1.5,0.8,1.2*3D
  1846. $GPRMC,144259.780,A,2831.4746,N,08041.0129,W,0.10,108.34,211108,,*1B
  1847. $GPGGA,144259.780,2831.4746,N,08041.0129,W,1,10,0.8,22.5,M,-31.2,M,0.0,0000*7F
  1848. $GPGSA,A,3,25,19,28,07,17,27,13,11,08,03,,,1.5,0.8,1.2*35
  1849. $GPRMC,144301.780,A,2831.4752,N,08041.0114,W,0.28,88.00,211108,,*29
  1850. $GPGGA,144301.780,2831.4752,N,08041.0114,W,1,11,0.8,21.2,M,-31.2,M,0.0,0000*7D
  1851. $GPGSA,A,3,25,19,23,28,07,17,27,13,11,08,03,,1.4,0.8,1.1*36
  1852. $GPRMC,144302.780,A,2831.4756,N,08041.0106,W,0.12,114.56,211108,,*13
  1853. $GPGGA,144302.780,2831.4756,N,08041.0106,W,1,10,0.8,20.1,M,-31.2,M,0.0,0000*7A
  1854. $GPGSA,A,3,25,19,28,07,17,27,13,11,08,03,,,1.5,0.8,1.2*35
  1855. $GPRMC,144303.780,A,2831.4760,N,08041.0100,W,0.09,102.84,211108,,*13
  1856. $GPGGA,144303.780,2831.4760,N,08041.0100,W,1,10,0.8,19.1,M,-31.2,M,0.0,0000*72
  1857. $GPGSA,A,3,25,19,28,07,17,27,13,11,08,03,,,1.5,0.8,1.2*35
  1858. -31.2,M,0.0,0000*7C
  1859. $GPGSA,A,3,25,19,28,07,17,27,13,11,08,03,,,1.5,0.8,1.2*35
  1860. $GPRMC,144306.780,A,2831.4769,N,08041.0090,W,0.11,100.43,211108,,*17
  1861. $GPGGA,144306.780,2831.4769,N,08041.0090,W,1,10,0.8,16.4,M,-31.2,M,0.0,0000*7C
  1862. $GPGSA,A,3,25,19,28,07,17,27,13,11,08,03,,,1.5,0.8,1.2*35
  1863. $GPRMC,144307.780,A,2831.4772,N,08041.0090,W,0.06,80.64,211108,,*26
  1864. $GPGGA,144307.780,2831.4772,N,08041.0090,W,1,10,0.8,15.0,M,-31.2,M,0.0,0000*70
  1865. $GPGSA,A,3,25,19,28,07,17,27,13,11,08,03,,,1.5,0.8,1.2*35
  1866. $GPRMC,144308.780,A,2831.4774,N,08041.0092,W,0.11,101.51,211108,,*15
  1867. $GPGGA,144308.780,2831.4774,N,08041.0092,W,1,10,0.8,13.5,M,-31.2,M,0.0,0000*78
  1868. $GPGSA,A,3,25,19,28,07,17,27,13,11,08,03,,,1.5,0.8,1.2*35
  1869. $GPRMC,144309.780,A,2831.4776,N,08041.0095,W,0.10,131.04,211108,,*13
  1870. $GPGGA,144309.780,2831.4776,N,08041.0095,W,1,10,0.8,12.2,M,-31.2,M,0.0,0000*7A
  1871. $GPGSA,A,3,25,19,28,07,17,27,13,11,08,03,,,1.5,0.8,1.2*35
  1872. $GPRMC,144311.780,A,2831.4781,N,08041.0102,W,0.16,106.81,211108,,*12
  1873. $GPGGA,144311.780,2831.4781,N,08041.0102,W,1,10,0.8,9.6,M,-31.2,M,0.0,0000*4A
  1874. $GPGSA,A,3,25,19,28,07,17,27,13,11,08,03,,,1.5,0.8,1.2*35
  1875. $GPRMC,144312.779,A,2831.4783,N,08041.0104,W,0.15,118.99,211108,,*16
  1876. $GPGGA,144312.779,2831.4783,N,08041.0104,W,1,10,0.8,8.5,M,-31.2,M,0.0,0000*49
  1877. $GPGSA,A,3,25,19,28,07,17,27,13,11,08,03,,,1.5,0.8,1.2*35
  1878. $GPRMC,144313.779,A,2831.4784,N,08041.0106,W,0.11,148.60,211108,,*15
  1879. $GPGGA,144313.779,2831.4784,N,08041.0106,W,1,10,0.8,7.4,M,-31.2,M,0.0,0000*43
  1880. $GPGSA,A,3,25,19,28,07,17,27,13,11,08,03,,,1.5,0.8,1.2*35
  1881. $GPRMC,144314.779,A,2831.4782,N,08041.0108,W,0.14,130.96,211108,,*19
  1882. $GPGGA,144314.779,2831.4782,N,08041.0108,W,1,10,0.8,6.2,M,-31.2,M,0.0,0000*4B
  1883. $GPGSA,A,3,25,19,28,07,17,27,13,11,08,03,,,1.5,0.8,1.2*35
  1884. $GPRMC,144316.779,A,2831.4778,N,08041.0114,W,0.09,141.69,211108,,*19
  1885. $GPGGA,144316.779,2831.4778,N,08041.0114,W,1,11,0.8,5.6,M,-31.2,M,0.0,0000*47
  1886. $GPGSA,A,3,25,19,23,28,07,17,27,13,11,08,03,,1.4,0.8,1.1*36
  1887. $GPRMC,144317.779,A,2831.4775,N,08041.0117,W,0.13,128.98,211108,,*1C
  1888. $GPGGA,144317.779,2831.4775,N,08041.0117,W,1,11,0.8,6.0,M,-31.2,M,0.0,0000*4D
  1889. $GPGSA,A,3,25,19,23,28,07,17,27,13,11,08,03,,1.4,0.8,1.1*36
  1890. $GPRMC,144318.779,A,2831.4772,N,08041.0118,W,0.09,101.05,211108,,*1F
  1891. $GPGGA,144318.779,2831.4772,N,08041.0118,W,1,10,0.8,7.0,M,-31.2,M,0.0,0000*4A
  1892. $GPGSA,A,3,25,19,23,28,07,17,27,13,11,03,,,1.4,0.8,1.1*3E
  1893. -31.2,M,0.0,0000*41
  1894. $GPGSA,A,3,25,19,23,28,07,17,27,13,11,08,03,,1.4,0.8,1.1*36
  1895. $GPRMC,144321.779,A,2831.4762,N,08041.0124,W,0.11,143.62,211108,,*15
  1896. $GPGGA,144321.779,2831.4762,N,08041.0124,W,1,11,0.8,10.0,M,-31.2,M,0.0,0000*79
  1897. $GPGSA,A,3,25,19,23,28,07,17,27,13,11,08,03,,1.4,0.8,1.1*36
  1898. -31.2,M,0.0,0000*4D
  1899. $GPGSA,A,3,25,19,23,28,07,17,27,13,11,08,03,,1.4,0.8,1.1*36
  1900. $GPRMC,144324.779,A,2831.4751,N,08041.0127,W,0.08,126.13,211108,,*1E
  1901. $GPGGA,144324.779,2831.4751,N,08041.0127,W,1,08,2.2,9.1,M,-31.2,M,0.0,0000*46
  1902. $GPGSA,A,3,25,23,28,07,17,13,11,08,,,,,3.4,2.2,2.6*36
  1903. $GPRMC,144326.779,A,2831.4752,N,08041.0125,W,0.14,67.48,211108,,*2A
  1904. $GPGGA,144326.779,2831.4752,N,08041.0125,W,1,09,0.8,5.5,M,-31.2,M,0.0,0000*44
  1905. $GPGSA,A,3,25,23,28,07,17,13,11,08,03,,,,1.5,0.8,1.1*3A
  1906. 31.2,M,0.0,0000*46
  1907. $GPGSA,A,3,25,19,23,28,07,17,27,13,11,08,03,,1.4,0.8,1.1*36
  1908. $GPRMC,144328.779,A,2831.4761,N,08041.0114,W,0.12,130.26,211108,,*1B
  1909. $GPGGA,144328.779,2831.4761,N,08041.0114,W,1,09,0.8,2.6,M,-31.2,M,0.0,0000*4C
  1910. $GPGSA,A,3,23,28,07,17,27,13,11,08,03,,,,1.5,0.8,1.2*3B
  1911. $GPRMC,144329.778,A,2831.4766,N,08041.0109,W,0.08,73.53,211108,,*2F
  1912. $GPGGA,144329.778,2831.4766,N,08041.0109,W,1,09,0.8,2.7,M,-31.2,M,0.0,0000*46
  1913. $GPGSA,A,3,19,23,28,07,17,27,13,11,03,,,,1.5,0.8,1.2*3B
  1914. $GPRMC,144331.778,A,2831.4776,N,08041.0099,W,0.16,70.49,211108,,*28
  1915. $GPGGA,144331.778,2831.4776,N,08041.0099,W,1,08,2.0,3.4,M,-31.2,M,0.0,0000*4F
  1916. $GPGSA,A,3,23,28,07,17,27,13,11,08,,,,,3.3,2.0,2.5*32
  1917. $GPRMC,144332.778,A,2831.4777,N,08041.0095,W,0.18,85.80,211108,,*27
  1918. $GPGGA,144332.778,2831.4777,N,08041.0095,W,1,09,0.8,3.7,M,-31.2,M,0.0,0000*49
  1919. $GPGSA,A,3,25,23,28,07,17,13,11,08,03,,,,1.5,0.8,1.1*3A
  1920. $GPRMC,144333.778,A,2831.4776,N,08041.0092,W,0.15,116.79,211108,,*10
  1921. $GPGGA,144333.778,2831.4776,N,08041.0092,W,1,09,0.8,4.4,M,-31.2,M,0.0,0000*4A
  1922. $GPGSA,A,3,25,23,28,07,17,13,11,08,03,,,,1.5,0.8,1.1*3A
  1923. $GPRMC,144334.778,A,2831.4773,N,08041.0090,W,0.10,95.70,211108,,*26
  1924. $GPGGA,144334.778,2831.4773,N,08041.0090,W,1,07,0.8,5.2,M,-31.2,M,0.0,0000*43
  1925. $GPGSA,A,3,23,28,17,13,11,08,03,,,,,,2.0,0.8,1.7*3A
  1926. $GPRMC,144336.778,A,2831.4762,N,08041.0084,W,0.11,96.88,211108,,*24
  1927. $GPGGA,144336.778,2831.4762,N,08041.0084,W,1,09,0.8,4.0,M,-31.2,M,0.0,0000*49
  1928. $GPGSA,A,3,19,23,28,17,27,13,11,08,03,,,,1.6,0.8,1.3*36
  1929. $GPRMC,144337.778,A,2831.4755,N,08041.0081,W,0.11,92.57,211108,,*22
  1930. $GPGGA,144337.778,2831.4755,N,08041.0081,W,1,09,0.8,2.9,M,-31.2,M,0.0,0000*46
  1931. $GPGSA,A,3,19,23,28,17,27,13,11,08,03,,,,1.6,0.8,1.3*36
  1932. $GPRMC,144338.778,A,2831.4747,N,08041.0077,W,0.07,150.38,211108,,*16
  1933. $GPGGA,144338.778,2831.4747,N,08041.0077,W,1,10,0.8,0.4,M,-31.2,M,0.0,0000*44
  1934. $GPGSA,A,3,19,23,28,07,17,27,13,11,08,03,,,1.5,0.8,1.1*30
  1935. $GPRMC,144339.778,A,2831.4742,N,08041.0073,W,0.05,123.11,211108,,*1B
  1936. $GPGGA,144339.778,2831.4742,N,08041.0073,W,1,09,0.8,-2.3,M,-31.2,M,0.0,0000*64
  1937. $GPGSA,A,3,23,28,07,17,27,13,11,08,03,,,,1.5,0.8,1.1*38
  1938. $GPRMC,144341.778,A,2831.4742,N,08041.0070,W,0.16,89.93,211108,,*2E
  1939. $GPGGA,144341.778,2831.4742,N,08041.0070,W,1,10,0.8,-6.5,M,-31.2,M,0.0,0000*62
  1940. $GPGSA,A,3,25,23,28,07,17,27,13,11,08,03,,,1.4,0.8,1.1*3E
  1941. $GPRMC,144342.778,A,2831.4746,N,08041.0071,W,0.06,58.04,211108,,*2B
  1942. $GPGGA,144342.778,2831.4746,N,08041.0071,W,1,09,0.8,-7.0,M,-31.2,M,0.0,0000*68
  1943. $GPGSA,A,3,25,28,07,17,27,13,11,08,03,,,,1.5,0.8,1.2*3D
  1944. $GPRMC,144343.778,A,2831.4752,N,08041.0071,W,0.07,68.22,211108,,*29
  1945. $GPGGA,144343.778,2831.4752,N,08041.0071,W,1,08,1.0,-6.7,M,-31.2,M,0.0,0000*62
  1946. $GPGSA,A,3,25,28,07,17,27,13,11,03,,,,,1.6,1.0,1.2*3F
  1947. $GPRMC,144344.778,A,2831.4758,N,08041.0072,W,0.05,120.93,211108,,*12
  1948. $GPGGA,144344.778,2831.4758,N,08041.0072,W,1,08,1.0,-5.6,M,-31.2,M,0.0,0000*6E
  1949. $GPGSA,A,3,25,28,07,17,27,13,11,03,,,,,1.6,1.0,1.2*3F
  1950. $GPRMC,144346.778,A,2831.4773,N,08041.0076,W,0.03,104.00,211108,,*17
  1951. $GPGGA,144346.778,2831.4773,N,08041.0076,W,1,11,0.8,-1.4,M,-31.2,M,0.0,0000*66
  1952. $GPGSA,A,3,25,19,23,28,07,17,27,13,11,08,03,,1.4,0.8,1.1*36
  1953. $GPRMC,144347.777,A,2831.4778,N,08041.0077,W,0.09,119.21,211108,,*16
  1954. $GPGGA,144347.777,2831.4778,N,08041.0077,W,1,10,0.8,1.8,M,-31.2,M,0.0,0000*42
  1955. $GPGSA,A,3,25,23,28,07,17,27,13,11,08,03,,,1.4,0.8,1.1*3E
  1956. $GPRMC,144348.777,A,2831.4781,N,08041.0078,W,0.02,103.62,211108,,*17
  1957. $GPGGA,144348.777,2831.4781,N,08041.0078,W,1,10,0.8,4.8,M,-31.2,M,0.0,0000*41
  1958. $GPGSA,A,3,25,23,28,07,17,27,13,11,08,03,,,1.4,0.8,1.1*3E
  1959. $GPRMC,144349.777,A,2831.4782,N,08041.0077,W,0.11,110.81,211108,,*17
  1960. $GPGGA,144349.777,2831.4782,N,08041.0077,W,1,09,0.8,7.3,M,-31.2,M,0.0,0000*4C
  1961. $GPGSA,A,3,25,23,28,07,17,27,11,08,03,,,,1.4,0.8,1.1*3C
  1962. $GPRMC,144351.777,A,2831.4780,N,08041.0078,W,0.09,116.82,211108,,*1F
  1963. $GPGGA,144351.777,2831.4780,N,08041.0078,W,1,09,0.8,10.1,M,-31.2,M,0.0,0000*7C
  1964. $GPGSA,A,3,25,23,28,07,17,27,11,08,03,,,,1.4,0.8,1.1*3C
  1965. $GPRMC,144352.777,A,2831.4780,N,08041.0078,W,0.06,50.81,211108,,*23
  1966. $GPGGA,144352.777,2831.4780,N,08041.0078,W,1,10,0.8,11.5,M,-31.2,M,0.0,0000*72
  1967. $GPGSA,A,3,25,23,28,07,17,27,13,11,08,03,,,1.4,0.8,1.1*3E
  1968. $GPRMC,144353.777,A,2831.4779,N,08041.0079,W,0.11,110.93,211108,,*15
  1969. $GPGGA,144353.777,2831.4779,N,08041.0079,W,1,09,0.8,14.1,M,-31.2,M,0.0,0000*7D
  1970. $GPGSA,A,3,25,28,07,17,27,13,11,08,03,,,,1.5,0.8,1.2*3D
  1971. $GPRMC,144354.777,A,2831.4777,N,08041.0078,W,0.12,129.70,211108,,*19
  1972. $GPGGA,144354.777,2831.4777,N,08041.0078,W,1,09,0.8,17.0,M,-31.2,M,0.0,0000*77
  1973. $GPGSA,A,3,25,28,07,17,27,13,11,08,03,,,,1.5,0.8,1.2*3D
  1974. $GPRMC,144356.777,A,2831.4770,N,08041.0077,W,0.13,112.77,211108,,*1D
  1975. $GPGGA,144356.777,2831.4770,N,08041.0077,W,1,09,0.8,20.8,M,-31.2,M,0.0,0000*71
  1976. $GPGSA,A,3,25,23,28,07,17,27,13,08,03,,,,1.5,0.8,1.1*3F
  1977. $GPRMC,144357.357.777,2831.4767,N,08041.0078,W,1,10,0.8,21.3,M,-31.2,M,0.0,0000*7B
  1978. $GPGSA,A,3,25,23,28,07,17,27,13,11,08,03,,,1.4,0.8,1.1*3E
  1979. $GPRMC,144358.777,A,2831.4765,N,08041.0079,W,0.07,211.45,211108,,*1D
  1980. $GPGGA,144358.777,2831.4765,N,08041.0079,W,1,09,0.8,21.3,M,-31.2,M,0.0,0000*7F
  1981. $GPGSA,A,3,25,23,28,17,27,13,11,08,03,,,,1.5,0.8,1.2*3B
  1982. $GPRMC,144359.777,A,2831.4764,N,08041.0080,W,0.07,137.02,211108,,*1F
  1983. $GPGGA,144359.777,2831.4764,N,08041.0080,W,1,10,0.8,21.2,M,-31.2,M,0.0,0000*70
  1984. $GPGSA,A,3,25,23,28,07,17,27,13,11,08,03,,,1.4,0.8,1.0*3F
  1985. $GPRMC,144401.777,A,2831.4761,N,08041.0084,W,0.11,102.18,211108,,*1E
  1986. $GPGGA,144401.777,2831.4761,N,08041.0084,W,1,11,0.8,21.0,M,-31.2,M,0.0,0000*78
  1987. $GPGSA,A,3,25,19,23,28,07,17,27,13,11,08,03,,1.4,0.8,1.0*37
  1988. $GPRMC,144402.777,A,2831.4759,N,08041.0087,W,0.10,115.47,211108,,*18
  1989. $GPGGA,144402.777,2831.4759,N,08041.0087,W,1,10,0.8,20.6,M,-31.2,M,0.0,0000*75
  1990. $GPGSA,A,3,25,19,23,28,17,27,13,11,08,03,,,1.4,0.8,1.2*32
  1991. $GPRMC,144403.777,A,2831.4757,N,08041.0090,W,0.06,119.55,211108,,*19
  1992. $GPGGA,144403.777,2831.4757,N,08041.0090,W,1,10,0.8,19.9,M,-31.2,M,0.0,0000*79
  1993. $GPGSA,A,3,25,19,23,28,17,27,13,11,08,03,,,1.4,0.8,1.2*32
  1994. $GPRMC,144404.776,A,2831.4755,N,08041.0093,W,0.05,143.58,211108,,*1F
  1995. $GPGGA,144404.776,2831.4755,N,08041.0093,W,1,10,0.8,18.5,M,-31.2,M,0.0,0000*73
  1996. $GPGSA,A,3,25,19,23,28,17,27,13,11,08,03,,,1.4,0.8,1.2*32
  1997. $GPRMC,144406.776,A,2831.4748,N,08041.0097,W,0.14,94.25,211108,,*24
  1998. $GPGGA,144406.776,2831.4748,N,08041.0097,W,1,10,0.8,16.2,M,-31.2,M,0.0,0000*70
  1999. $GPGSA,A,3,25,19,23,28,17,27,13,11,08,03,,,1.4,0.8,1.2*32
  2000. $GPRMC,144407.776,A,2831.4744,N,08041.0097,W,0.12,83.02,211108,,*2C
  2001. $GPGGA,144407.776,2831.4744,N,08041.0097,W,1,09,0.8,15.1,M,-31.2,M,0.0,0000*75
  2002. $GPGSA,A,3,25,23,28,17,27,13,11,08,03,,,,1.5,0.8,1.2*3B
  2003. $GPRMC,144408.776,A,2831.4740,N,08041.0097,W,0.12,109.15,211108,,*12
  2004. $GPGGA,144408.776,2831.4740,N,08041.0097,W,1,09,0.8,13.6,M,-31.2,M,0.0,0000*7F
  2005. $GPGSA,A,3,25,23,28,17,27,13,11,08,03,,,,1.5,0.8,1.2*3B
  2006. $GPRMC,144409.776,A,2831.4737,N,08041.0095,W,0.11,159.89,211108,,*12
  2007. $GPGGA,144409.776,2831.4737,N,08041.0095,W,1,10,0.8,11.8,M,-31.2,M,0.0,1.4,0.8,1.2*32
  2008. $GPRMC,144411.776,A,2831.4733,N,08041.0091,W,0.06,177.58,211108,,*1D
  2009. $GPGGA,144411.776,2831.4733,N,08041.0091,W,1,09,0.8,8.1,M,-31.2,M,0.0,0000*48
  2010. $GPGSA,A,3,25,23,28,17,27,13,11,08,03,,,,1.5,0.8,1.2*3B
  2011. $GPRMC,144412.776,A,2831.4732,N,08041.0087,W,0.07,83.63,211108,,*2B
  2012. $GPGGA,144412.776,2831.4732,N,08041.0087,W,1,10,0.8,5.8,M,-31.2,M,0.0,0000*41
  2013. $GPGSA,A,3,25,23,28,07,17,27,13,11,08,03,,,1.4,0.8,1.0*3F
  2014. $GPRMC,144413.776,A,2831.4731,N,08041.0084,W,0.09,196.79,211108,,*1A
  2015. $GPGGA,144413.776,2831.4731,N,08041.0084,W,1,09,0.8,4.3,M,-31.2,M,0.0,0000*42
  2016. $GPGSA,A,3,25,23,28,07,17,27,13,08,03,,,,1.5,0.8,1.1*3F
  2017. $GPRMC,144414.776,A,2831.4729,N,08041.0080,W,0.21,93.77,211108,,*20
  2018. $GPGGA,144414.776,2831.4729,N,08041.0080,W,1,09,0.8,3.9,M,-31.2,M,0.0,0000*45
  2019. $GPGSA,A,3,25,23,28,07,17,27,13,08,03,,,,1.5,0.8,1.1*3F
  2020. $GPRMC,144416.776,A,2831.4726,N,08041.0076,W,0.13,138.04,211108,,*11
  2021. $GPGGA,144416.776,2831.4726,N,08041.0076,W,1,10,0.8,6.0,M,-31.2,M,0.0,0000*45
  2022. $GPGSA,A,3,25,23,28,07,17,27,13,11,08,03,,,1.4,0.8,1.0*3F
  2023. $GPRMC,144417.776,A,2831.4726,N,08041.0075,W,0.08,177.76,211108,,*17
  2024. $GPGGA,144417.776,2831.4726,N,08041.0075,W,1,10,0.8,6.9,M,-31.2,M,0.0,0000*4E
  2025. $GPGSA,A,3,25,23,28,07,17,27,13,11,08,03,,,1.4,0.8,1.0*3F
  2026. $GPRMC,144418.776,A,2831.4728,N,08041.0074,W,0.06,67.81,211108,,*21
  2027. $GPGGA,144418.776,2831.4728,N,08041.0074,W,1,10,0.8,7.2,M,-31.2,M,0.0,0000*44
  2028. $GPGSA,A,3,25,23,28,07,17,27,13,11,08,03,,,1.4,0.8,1.0*3F
  2029. $GPRMC,144419.776,A,2831.4731,N,08041.0074,W,0.08,57.76,211108,,*2D
  2030. $GPGGA,144419.776,2831.4731,N,08041.0074,W,1,09,0.8,7.2,M,-31.2,M,0.0,0000*45
  2031. $GPGSA,A,3,25,23,28,07,17,27,11,08,03,,,,1.4,0.8,1.0*3D
  2032. $GPRMC,144421.775,A,2831.4740,N,08041.0071,W,0.11,104.72,211108,,*1D
  2033. $GPGGA,144421.775,2831.4740,N,08041.0071,W,1,09,0.8,8.2,M,-31.2,M,0.0,0000*41
  2034. $GPGSA,A,3,25,28,07,17,27,13,11,08,03,,,,1.5,0.8,1.2*3D
  2035. $GPRMC,144422.775,A,2831.4745,N,08041.0070,W,0.16,117.57,211108,,*18
  2036. $GPGGA,144422.775,2831.4745,N,08041.0070,W,1,10,1.2,9.6,M,-31.2,M,0.0,0000*40
  2037. $GPGSA,A,3,25,19,23,28,07,17,27,13,11,08,,,2.0,1.2,1.6*3E
  2038. $GPRMC,144423.775,A,2831.4748,N,08041.0070,W,0.16,100.70,211108,,*17
  2039. $GPGGA,144423.775,2831.4748,N,08041.0070,W,1,09,2.0,10.5,M,-31.2,M,0.0,0000*7E
  2040. $GPGSA,A,3,25,23,28,07,17,27,13,11,08,,,,3.2,2.0,2.4*35
  2041. ,-31.2,M,0.0,0000*7E
  2042. $GPGSA,A,3,25,23,28,07,17,27,13,11,08,03,,,1.4,0.8,1.0*3F
  2043. $GPRMC,144426.775,A,2831.4750,N,08041.0077,W,0.06,190.69,211108,,*1C
  2044. $GPGGA,144426.775,2831.4750,N,08041.0077,W,1,10,1.2,15.2,M,-31.2,M,0.0,0000*7E
  2045. $GPGSA,A,3,25,19,23,28,07,17,27,13,11,08,,,2.0,1.2,1.6*3E
  2046. $GPRMC,144427.775,A,2831.4748,N,08041.0083,W,0.08,178.61,211108,,*1F
  2047. $GPGGA,144427.775,2831.4748,N,08041.0083,W,1,10,1.2,17.1,M,-31.2,M,0.0,0000*7C
  2048. $GPGSA,A,3,25,19,23,28,07,17,27,13,11,08,,,2.0,1.2,1.6*3E
  2049. $GPRMC,144428.775,A,2831.4744,N,08041.0090,W,0.09,202.85,211108,,*1B
  2050. $GPGGA,144428.775,2831.4744,N,08041.0090,W,1,10,1.2,19.0,M,-31.2,M,0.0,0000*72
  2051. $GPGSA,A,3,25,19,23,28,07,17,27,13,11,08,,,2.0,1.2,1.6*3E
  2052. ,-31.2,M,0.0,0000*74
  2053. $GPGSA,A,3,25,28,17,13,11,08,,,,,,,8.5,4.6,7.1*3A
  2054. $GPRMC,144432.775,A,2831.4723,N,08041.0125,W,0.10,211.38,211108,,*12
  2055. $GPGGA,144432.775,2831.4723,N,08041.0125,W,1,08,1.2,25.9,M,-31.2,M,0.0,0000*78
  2056. $GPGSA,A,3,25,19,28,17,27,13,11,08,,,,,2.6,1.2,2.2*39
  2057. $GPRMC,144433.775,A,2831.4719,N,08041.0132,W,0.16,226.35,211108,,*13
  2058. $GPGGA,144433.775,2831.4719,N,08041.0132,W,1,08,1.2,27.6,M,-31.2,M,0.0,0000*7B
  2059. $GPGSA,A,3,25,19,28,17,27,13,11,08,,,,,2.6,1.2,2.2*39
  2060. $GPRMC,144434.775,A,2831.4717,N,08041.0137,W,0.18,222.42,211108,,*15
  2061. $GPGGA,144434.775,2831.4717,N,08041.0137,W,1,10,0.8,29.1,M,-31.2,M,0.0,0000*7C
  2062. $GPGSA,A,3,25,19,23,28,17,27,13,11,08,03,,,1.4,0.8,1.2*32
  2063. $GPRMC,144436.775,A,2831.4722,N,08041.0141,W,0.25,54.49,211108,,*26
  2064. $GPGGA,144436.775,2831.4722,N,08041.0141,W,1,10,0.8,29.3,M,-31.2,M,0.0,0000*7B
  2065. $GPGSA,A,3,25,19,23,28,17,27,13,11,08,03,,,1.4,0.8,1.2*32
  2066. -31.2,M,0.0,0000*79
  2067. $GPGSA,A,3,25,19,23,28,17,27,13,11,08,03,,,1.4,0.8,1.2*32
  2068. $GPRMC,144438.774,A,2831.4737,N,08041.0137,W,0.09,76.49,211108,,*22
  2069. $GPGGA,144438.774,2831.4737,N,08041.0137,W,1,10,0.8,24.2,M,-31.2,M,0.0,0000*7D
  2070. $GPGSA,A,3,25,19,23,28,17,27,13,11,08,03,,,1.4,0.8,1.2*32
  2071. $GPRMC,144439.774,A,2831.4746,N,08041.0131,W,0.15,85.98,211108,,*2E
  2072. $GPGGA,144439.774,2831.4746,N,08041.0131,W,1,10,0.8,20.6,M,-31.2,M,0.0,0000*7C
  2073. $GPGSA,A,3,25,19,23,28,17,27,13,11,08,03,,,1.4,0.8,1.2*32
  2074. ,-31.2,M,0.0,0000*7C
  2075. $GPGSA,A,3,25,19,23,28,17,27,13,11,08,,,,2.1,1.2,1.7*39
  2076. $GPRMC,144442.774,A,2831.4763,N,08041.0121,W,0.08,117.97,211108,,*1D
  2077. $GPGGA,144442.774,2831.4763,N,08041.0121,W,1,08,2.0,12.1,M,-31.2,M,0.0,0000*73
  2078. $GPGSA,A,3,25,23,28,17,27,13,11,08,,,,,3.3,2.0,2.5*32
  2079. $GPRMC,144443.774,A,2831.4766,N,08041.0118,W,0.14,76.43,211108,,*21
  2080. $GPGGA,144443.774,2831.4766,N,08041.0118,W,1,09,1.2,8.9,M,-31.2,M,0.0,0000*4E
  2081. $GPGSA,A,3,25,19,23,28,17,27,13,11,08,,,,2.1,1.2,1.7*39
  2082. $GPRMC,144444.774,A,2831.4766,N,08041.0118,W,0.04,124.86,211108,,*18
  2083. $GPGGA,144444.774,2831.4766,N,08041.0118,W,1,10,1.2,6.9,M,-31.2,M,0.0,0000*4F
  2084. $GPGSA,A,3,25,19,23,28,07,17,27,13,11,08,,,2.0,1.2,1.6*3E
  2085. $GPRMC,144446.774,A,2831.4764,N,08041.0120,W,0.24,79.39,211108,,*2C
  2086. $GPGGA,144446.774,2831.4764,N,08041.0120,W,1,10,1.2,5.1,M,-31.2,M,0.0,0000*4F
  2087. $GPGSA,A,3,25,19,23,28,07,17,27,13,11,08,,,2.0,1.2,1.6*3E
  2088. $GPRMC,144447.774,A,2831.4764,N,08041.0120,W,0.13,102.69,211108,,*11
  2089. $GPGGA,144447.774,2831.4764,N,08041.0120,W,1,09,1.2,4.6,M,-31.2,M,0.0,0000*40
  2090. $GPGSA,A,3,19,23,28,07,17,27,13,11,08,,,,2.1,1.2,1.7*39
  2091. -31.2,M,0.0,0000*40
  2092. $GPGSA,A,3,19,23,28,07,17,27,13,11,08,,,,2.1,1.2,1.7*39
  2093. $GPRMC,144449.774,A,2831.4766,N,08041.0118,W,0.12,66.69,211108,,*24
  2094. $GPGGA,144449.774,2831.4766,N,08041.0118,W,1,09,1.2,4.1,M,-31.2,M,0.0,0000*40
  2095. $GPGSA,A,3,19,23,28,07,17,27,13,11,08,,,,2.1,1.2,1.7*39
  2096. $GPRMC,144451.774,A,2831.4770,N,08041.0114,W,0.13,97.21,211108,,*25
  2097. $GPGGA,144451.774,2831.4770,N,08041.0114,W,1,08,1.2,4.1,M,-31.2,M,0.0,0000*43
  2098. $GPGSA,A,3,19,28,07,17,27,13,11,08,,,,,2.4,1.2,2.0*39
  2099. $GPRMC,144452.774,A,2831.4773,N,08041.0111,W,0.06,83.98,211108,,*23
  2100. $GPGGA,144452.774,2831.4773,N,08041.0111,W,1,08,1.2,4.3,M,-31.2,M,0.0,0000*44
  2101. $GPGSA,A,3,19,28,07,17,27,13,11,08,,,,,2.4,1.2,2.0*39
  2102. $GPRMC,144453.774,A,2831.4774,N,08041.0110,W,0.13,166.03,211108,,*18
  2103. $GPGGA,144453.774,2831.4774,N,08041.0110,W,1,11,0.8,5.3,M,-31.2,M,0.0,0000*41
  2104. $GPGSA,A,3,25,19,23,28,07,17,27,13,11,08,03,,1.4,0.8,1.0*37
  2105. $GPRMC,144456.773,A,2831.4773,N,08041.0114,W,0.31,215.67,211108,,*1C
  2106. $GPGGA,144456.773,2831.4773,N,08041.0114,W,1,08,0.8,8.3,M,-31.2,M,0.0,0000*45
  2107. $GPGSA,A,3,25,23,28,17,13,11,08,03,,,,,1.6,0.8,1.3*3C
  2108. $GPRMC,144457.773,A,2831.4771,N,08041.0115,W,0.17,144.71,211108,,*1A
  2109. $GPGGA,144457.773,2831.4771,N,08041.0115,W,1,07,2.2,8.6,M,-31.2,M,0.0,0000*45
  2110. $GPGSA,A,3,25,23,28,17,13,11,08,,,,,,3.5,2.2,2.8*3E
  2111. 31.2,M,0.0,0000*40
  2112. $GPGSA,A,3,25,19,23,28,07,17,27,13,08,03,,,1.4,0.8,1.1*36
  2113. $GPRMC,144459.773,A,2831.4770,N,08041.0114,W,0.06,121.02,211108,,*13
  2114. $GPGGA,144459.773,2831.4770,N,08041.0114,W,1,10,0.8,9.7,M,-31.2,M,0.0,0000*45
  2115. $GPGSA,A,3,25,23,28,07,17,27,13,11,08,03,,,1.4,0.8,1.0*3F
  2116. $GPRMC,144501.773,A,2831.4765,N,08041.0112,W,0.01,189.65,211108,,*19
  2117. $GPGGA,144501.773,2831.4765,N,08041.0112,W,1,11,0.8,11.5,M,-31.2,M,0.0,0000*71
  2118. $GPGSA,A,3,25,19,23,28,07,17,27,13,11,08,03,,1.4,0.8,1.0*37
  2119. $GPRMC,144502.773,A,2831.4763,N,08041.0110,W,0.12,104.67,211108,,*1B
  2120. $GPGGA,144502.773,2831.4763,N,08041.0110,W,1,08,1.2,12.3,M,-31.2,M,0.0,0000*70
  2121. $GPGSA,A,3,25,19,23,28,07,17,13,11,,,,,2.1,1.2,1.7*33
  2122. $GPRMC,144503.773,A,2831.4762,N,08041.0107,W,0.05,211.89,211108,,*1C
  2123. $GPGGA,144503.773,2831.4762,N,08041.0107,W,1,08,1.2,13.1,M,-31.2,M,0.0,0000*75
  2124. $GPGSA,A,3,19,28,07,17,27,13,11,08,,,,,2.4,1.2,2.0*39
  2125. $GPRMC,144504.773,A,2831.4761,N,08041.0106,W,0.06,109.15,211108,,*15
  2126. $GPGGA,144504.773,2831.4761,N,08041.0106,W,1,07,1.2,14.0,M,-31.2,M,0.0,0000*79
  2127. $GPGSA,A,3,19,28,07,27,13,11,08,,,,,,2.6,1.2,2.2*3F
  2128. ,-31.2,M,0.0,0000*74
  2129. $GPGSA,A,3,25,19,28,07,17,27,13,11,03,,,,1.6,1.0,1.2*37
  2130. $GPRMC,144507.773,A,2831.4762,N,08041.0097,W,0.09,108.33,211108,,*16
  2131. $GPGGA,144507.773,2831.4762,N,08041.0097,W,1,08,1.2,10.3,M,-31.2,M,0.0,0000*78
  2132. $GPGSA,A,3,25,19,28,17,27,13,11,08,,,,,2.6,1.2,2.2*39
  2133. $GPRMC,144508.773,A,2831.4761,N,08041.0092,W,0.16,83.78,211108,,*2C
  2134. $GPGGA,144508.773,2831.4761,N,08041.0092,W,1,09,1.2,8.0,M,-31.2,M,0.0,0000*4A
  2135. $GPGSA,A,3,25,19,23,28,07,17,27,13,11,,,,2.0,1.2,1.5*35
  2136. 31.2,M,0.0,0000*48
  2137. $GPGSA,A,3,19,23,28,07,17,27,13,11,08,03,,,1.4,0.8,1.1*31
  2138. $GPRMC,144512.772,A,2831.4765,N,08041.0079,W,0.10,111.49,211108,,*19
  2139. $GPGGA,144512.772,2831.4765,N,08041.0079,W,1,11,0.8,0.1,M,-31.2,M,0.0,0000*4A
  2140. $GPGSA,A,3,25,19,23,28,07,17,27,13,11,08,03,,1.4,0.8,1.0*37
  2141. $GPRMC,144513.772,A,2831.4765,N,08041.0076,W,0.33,63.39,211108,,*25
  2142. $GPGGA,144513.772,2831.4765,N,08041.0076,W,1,08,1.2,-1.0,M,-31.2,M,0.0,0000*6A
  2143. $GPGSA,A,3,19,23,28,07,17,27,13,11,,,,,2.1,1.2,1.7*31
  2144. ,-31.2,M,0.0,0000*6E
  2145. $GPGSA,A,3,19,23,28,07,17,27,13,11,08,,,,2.1,1.2,1.7*39
  2146. $GPRMC,144517.772,A,2831.4768,N,08041.0081,W,0.08,77.59,211108,,*2F
  2147. $GPGGA,144517.772,2831.4768,N,08041.0081,W,1,09,1.2,-1.5,M,-31.2,M,0.0,0000*6F
  2148. $GPGSA,A,3,25,19,23,28,07,17,27,13,11,,,,2.0,1.2,1.5*35
  2149. $GPRMC,144518.772,A,2831.4771,N,08041.0083,W,0.11,3.50,211108,,*18
  2150. $GPGGA,144518.772,2831.4771,N,08041.0083,W,1,09,1.2,-2.0,M,-31.2,M,0.0,0000*6C
  2151. $GPGSA,A,3,25,19,23,28,07,17,27,13,11,,,,2.0,1.2,1.5*35
  2152. $GPRMC,144521.772,A,2831.4780,N,08041.0093,W,0.05,247.99,211108,,*1F
  2153. $GPGGA,144521.772,2831.4780,N,08041.0093,W,1,09,1.0,0.3,M,-31.2,M,0.0,0000*47
  2154. $GPGSA,A,3,25,19,28,07,17,27,13,11,03,,,,1.6,1.0,1.2*37
  2155. $GPRMC,144523.772,A,2831.4779,N,08041.0098,W,0.05,50.86,211108,,*2A
  2156. $GPGGA,144523.772,2831.4779,N,08041.0098,W,1,09,0.8,6.5,M,-31.2,M,0.0,0000*41
  2157. $GPGSA,A,3,23,28,07,17,27,13,11,08,03,,,,1.5,0.8,1.1*38
  2158. $GPRMC,144526.772,A,2831.4774,N,08041.0100,W,0.16,155.13,211108,,*18
  2159. $GPGGA,144526.772,2831.4774,N,08041.0100,W,1,10,0.8,8.5,M,-31.2,M,0.0,0000*4F
  2160. $GPGSA,A,3,25,23,28,07,17,27,13,11,08,03,,,1.4,0.8,1.0*3F
  2161. $GPRMC,144527.772,A,2831.4772,N,08041.0099,W,0.07,92.16,211108,,*21
  2162. $GPGGA,144527.772,2831.4772,N,08041.0099,W,1,09,0.8,7.4,M,-31.2,M,0.0,0000*4F
  2163. $GPGSA,A,3,25,28,07,17,27,13,11,08,03,,,,1.5,0.8,1.2*3D
  2164. $GPRMC,144528.771,A,2831.4771,N,08041.0096,W,0.09,89.76,211108,,*23
  2165. $GPGGA,144528.771,2831.4771,N,08041.0096,W,1,11,0.8,6.4,M,-31.2,M,0.0,0000*47
  2166. $GPGSA,A,3,25,19,23,28,07,17,27,13,11,08,03,,1.4,0.8,1.0*37
  2167. $GPRMC,144529.771,A,2831.4771,N,08041.0093,W,0.07,115.08,211108,,*14
  2168. $GPGGA,144529.771,2831.4771,N,08041.0093,W,1,11,0.8,6.1,M,-31.2,M,0.0,0000*46
  2169. $GPGSA,A,3,25,19,23,28,07,17,27,13,11,08,03,,1.4,0.8,1.0*37
  2170. $GPRMC,144531.771,A,2831.4772,N,08041.0089,W,0.21,55.69,211108,,*23
  2171. $GPGGA,144531.771,2831.4772,N,08041.0089,W,1,10,0.8,8.2,M,-31.2,M,0.0,0000*4B
  2172. $GPGSA,A,3,25,23,28,07,17,27,13,11,08,03,,,1.4,0.8,1.0*3F
  2173. $GPRMC,144532.771,A,2831.4773,N,08041.0087,W,0.08,83.50,211108,,*25
  2174. $GPGGA,144532.771,2831.4773,N,08041.0087,W,1,08,0.8,9.1,M,-31.2,M,0.0,0000*4C
  2175. $GPGSA,A,3,25,28,07,17,13,11,08,03,,,,,1.6,0.8,1.3*3A
  2176. $GPRMC,144533.771,A,2831.4772,N,08041.0085,W,0.15,151.48,211108,,*1C
  2177. $GPGGA,144533.771,2831.4772,N,08041.0085,W,1,07,1.0,9.4,M,-31.2,M,0.0,0000*4D
  2178. $GPGSA,A,3,25,23,17,13,11,08,03,,,,,,1.7,1.0,1.3*3E
  2179. $GPRMC,144534.771,A,2831.4770,N,08041.0085,W,0.08,126.08,211108,,*11
  2180. $GPGGA,144534.771,2831.4770,N,08041.0085,W,1,10,1.0,9.1,M,-31.2,M,0.0,0000*4B
  2181. $GPGSA,A,3,25,19,23,07,17,27,13,11,08,03,,,1.5,1.0,1.1*34
  2182. $GPRMC,144536.771,A,2831.4768,N,08041.0083,W,0.11,71.70,211108,,*28
  2183. $GPGGA,144536.771,2831.4768,N,08041.0083,W,1,11,0.8,8.8,M,-31.2,M,0.0,0000*46
  2184. $GPGSA,A,3,25,19,23,28,07,17,27,13,11,08,03,,1.4,0.8,1.0*37
  2185. $GPRMC,144537.771,A,2831.4767,N,08041.0080,W,0.11,113.28,211108,,*1D
  2186. $GPGGA,144537.771,2831.4767,N,08041.0080,W,1,11,0.8,8.8,M,-31.2,M,0.0,0000*4B
  2187. $GPGSA,A,3,25,19,23,28,07,17,27,13,11,08,03,,1.4,0.8,1.0*37
  2188. $GPRMC,144538.771,A,2831.4767,N,08041.0078,W,0.09,84.47,211108,,*2A
  2189. $GPGGA,144538.771,2831.4767,N,08041.0078,W,1,09,0.8,8.3,M,-31.2,M,0.0,0000*41
  2190. $GPGSA,A,3,25,23,28,07,17,27,11,08,03,,,,1.4,0.8,1.0*3D
  2191. $GPRMC,144539.771,A,2831.4768,N,08041.0077,W,0.04,75.82,211108,,*21
  2192. $GPGGA,144539.771,2831.4768,N,08041.0077,W,1,10,0.8,7.2,M,-31.2,M,0.0,0000*46
  2193. $GPGSA,A,3,25,23,28,07,17,27,13,11,08,03,,,1.4,0.8,1.0*3F
  2194. $GPRMC,144541.771,A,2831.4772,N,08041.0078,W,0.05,207.19,211108,,*1E
  2195. $GPGGA,144541.771,2831.4772,N,08041.0078,W,1,09,1.0,4.5,M,-31.2,M,0.0,0000*48
  2196. $GPGSA,A,3,25,23,07,17,27,13,11,08,03,,,,1.5,1.0,1.1*3C
  2197. $GPRMC,144542.771,A,2831.4773,N,08041.0078,W,0.38,346.49,211108,,*13
  2198. $GPGGA,144542.771,2831.4773,N,08041.0078,W,1,10,1.0,2.0,M,-31.2,M,0.0,0000*41
  2199. $GPGSA,A,3,25,19,23,07,17,27,13,11,08,03,,,1.5,1.0,1.1*34
  2200. $GPRMC,144543.771,A,2831.4774,N,08041.0078,W,0.20,116.60,211108,,*10
  2201. $GPGGA,144543.771,2831.4774,N,08041.0078,W,1,09,1.0,-1.1,M,-31.2,M,0.0,0000*60
  2202. $GPGSA,A,3,25,19,23,17,27,13,11,08,03,,,,1.6,1.0,1.2*33
  2203. $GPRMC,144544.771,A,2831.4775,N,08041.0078,W,0.04,15.89,211108,,*25
  2204. $GPGGA,144544.771,2831.4775,N,08041.0078,W,1,09,0.8,-3.4,M,-31.2,M,0.0,0000*68
  2205. $GPGSA,A,3,19,23,28,17,27,13,11,08,03,,,,1.6,0.8,1.3*36
  2206. $GPRMC,144546.770,A,2831.4777,N,08041.0074,W,0.16,124.51,211108,,*1D
  2207. $GPGGA,144546.770,2831.4777,N,08041.0074,W,1,09,0.8,-7.1,M,-31.2,M,0.0,0000*64
  2208. $GPGSA,A,3,19,23,28,17,27,13,11,08,03,,,,1.6,0.8,1.3*36
  2209. $GPRMC,144547.770,A,2831.4777,N,08041.0071,W,0.09,90.98,211108,,*2C
  2210. $GPGGA,144547.770,2831.4777,N,08041.0071,W,1,07,1.2,-8.0,M,-31.2,M,0.0,0000*6B
  2211. $GPGSA,A,3,19,23,28,17,13,11,08,,,,,,3.0,1.2,2.6*39
  2212. $GPRMC,144548.770,A,2831.4776,N,08041.0067,W,0.05,105.69,211108,,*1A
  2213. $GPGGA,144548.770,2831.4776,N,08041.0067,W,1,08,1.2,-8.9,M,-31.2,M,0.0,0000*64
  2214. $GPGSA,A,3,25,19,23,28,17,13,11,08,,,,,2.3,1.2,2.0*3A
  2215. $GPRMC,144549.770,A,2831.4773,N,08041.0063,W,0.27,84.00,211108,,*2D
  2216. $GPGGA,144549.770,2831.4773,N,08041.0063,W,1,10,0.8,-9.1,M,-31.2,M,0.0,0000*6F
  2217. $GPGSA,A,3,25,19,23,28,07,17,13,11,08,03,,,1.4,0.8,1.1*33
  2218. $GPRMC,144551.770,A,2831.4764,N,08041.0057,W,0.08,345.41,211108,,*13
  2219. $GPGGA,144551.770,2831.4764,N,08041.0057,W,1,10,0.8,-8.4,M,-31.2,M,0.0,0000*63
  2220. $GPGSA,A,3,25,19,23,28,07,17,13,11,08,03,,,1.4,0.8,1.1*33
  2221. $GPRMC,144552.770,A,2831.4759,N,08041.0055,W,0.06,96.26,211108,,*2E
  2222. $GPGGA,144552.770,2831.4759,N,08041.0055,W,1,08,1.4,-7.3,M,-31.2,M,0.0,0000*60
  2223. $GPGSA,A,3,25,19,23,07,17,13,11,03,,,,,1.8,1.4,1.1*30
  2224. $GPRMC,144553.770,A,2831.4756,N,08041.0053,W,0.04,82.20,211108,,*27
  2225. $GPGGA,144553.770,2831.4756,N,08041.0053,W,1,08,1.4,-6.8,M,-31.2,M,0.0,0000*62
  2226. $GPGSA,A,3,25,19,23,07,17,13,11,03,,,,,1.8,1.4,1.1*30
  2227. $GPRMC,144554.770,A,2831.4753,N,08041.0051,W,0.04,119.34,211108,,*11
  2228. $GPGGA,144554.770,2831.4753,N,08041.0051,W,1,08,1.4,-6.5,M,-31.2,M,0.0,0000*6F
  2229. $GPGSA,A,3,25,19,23,07,17,13,11,03,,,,,1.8,1.4,1.1*30
  2230. $GPRMC,144556.770,A,2831.4750,N,08041.0048,W,0.02,266.63,211108,,*17
  2231. $GPGGA,144556.770,2831.4750,N,08041.0048,W,1,07,1.4,-5.4,M,-31.2,M,0.0,0000*6B
  2232. $GPGSA,A,3,25,23,07,17,13,11,03,,,,,,1.9,1.4,1.1*39
  2233. $GPRMC,144557.770,A,2831.4749,N,08041.0046,W,0.01,75.35,211108,,*20
  2234. $GPGGA,144557.770,2831.4749,N,08041.0046,W,1,09,0.8,-4.5,M,-31.2,M,0.0,0000*6F
  2235. $GPGSA,A,3,25,23,28,07,17,13,11,08,03,,,,1.4,0.8,1.1*3B
  2236. $GPRMC,144558.770,A,2831.4748,N,08041.0047,W,0.08,46.62,211108,,*24
  2237. $GPGGA,144558.770,2831.4748,N,08041.0047,W,1,08,0.8,-3.7,M,-31.2,M,0.0,0000*64
  2238. $GPGSA,A,3,19,23,28,07,17,13,11,03,,,,,1.6,0.8,1.3*3C
  2239. $GPRMC,144559.770,A,2831.4750,N,08041.0050,W,0.02,31.55,211108,,*24
  2240. $GPGGA,144559.770,2831.4750,N,08041.0050,W,1,10,0.8,-4.1,M,-31.2,M,0.0,0000*62
  2241. $GPGSA,A,3,25,19,23,28,07,17,13,11,08,03,,,1.4,0.8,1.1*33
  2242. $GPRMC,144601.770,A,2831.4754,N,08041.0057,W,0.03,44.95,211108,,*26
  2243. $GPGGA,144601.770,2831.4754,N,08041.0057,W,1,08,1.0,-8.1,M,-31.2,M,0.0,0000*63
  2244. $GPGSA,A,3,25,23,28,07,17,13,11,03,,,,,1.5,1.0,1.1*3B
  2245. $GPRMC,144602.769,A,2831.4756,N,08041.0060,W,0.09,115.83,211108,,*13
  2246. $GPGGA,144602.769,2831.4756,N,08041.0060,W,1,07,1.0,-9.1,M,-31.2,M,0.0,0000*60
  2247. $GPGSA,A,3,23,28,07,17,13,11,03,,,,,,1.6,1.0,1.3*3D
  2248. $GPRMC,144603.769,A,2831.4758,N,08041.0062,W,0.08,76.96,211108,,*2F
  2249. $GPGGA,144603.769,2831.4758,N,08041.0062,W,1,08,1.0,-9.8,M,-31.2,M,0.0,0000*6B
  2250. $GPGSA,A,3,25,23,28,07,17,13,11,03,,,,,1.5,1.0,1.1*3B
  2251. $GPRMC,144604.769,A,2831.4761,N,08041.0066,W,0.07,315.37,211108,,*14
  2252. $GPGGA,144604.769,2831.4761,N,08041.0066,W,1,08,0.8,-10.2,M,-31.2,M,0.0,0000*59
  2253. $GPGSA,A,3,25,23,28,07,17,11,08,03,,,,,1.5,0.8,1.1*38
  2254. $GPRMC,144606.769,A,2831.4768,N,08041.0073,W,0.11,110.85,211108,,*12
  2255. $GPGGA,144606.769,2831.4768,N,08041.0073,W,1,09,0.8,-9.1,M,-31.2,M,0.0,0000*6C
  2256. $GPGSA,A,3,25,23,28,17,27,13,11,08,03,,,,1.5,0.8,1.1*38
  2257. $GPRMC,144607.769,A,2831.4771,N,08041.0075,W,0.05,44.18,211108,,*2C
  2258. $GPGGA,144607.769,2831.4771,N,08041.0075,W,1,09,0.8,-8.3,M,-31.2,M,0.0,0000*60
  2259. $GPGSA,A,3,25,23,28,17,27,13,11,08,03,,,,1.5,0.8,1.1*38
  2260. $GPRMC,144608.769,A,2831.4772,N,08041.0076,W,0.04,108.27,211108,,*17
  2261. $GPGGA,144608.769,2831.4772,N,08041.0076,W,1,09,0.8,-7.8,M,-31.2,M,0.0,0000*6B
  2262. $GPGSA,A,3,25,23,28,17,27,13,11,08,03,,,,1.5,0.8,1.1*38
  2263. $GPRMC,144609.769,A,2831.4773,N,08041.0077,W,0.17,126.66,211108,,*1D
  2264. $GPGGA,144609.769,2831.4773,N,08041.0077,W,1,09,0.8,-6.9,M,-31.2,M,0.0,0000*6A
  2265. $GPGSA,A,3,25,23,28,17,27,13,11,08,03,,,,1.5,0.8,1.1*38
  2266. $GPRMC,144611.769,A,2831.4772,N,08041.0076,W,0.09,81.99,211108,,*27
  2267. $GPGGA,144611.769,2831.4772,N,08041.0076,W,1,08,0.8,-5.1,M,-31.2,M,0.0,0000*69
  2268. $GPGSA,A,3,25,23,28,17,13,11,08,03,,,,,1.6,0.8,1.3*3C
  2269. $GPRMC,144612.769,A,2831.4772,N,08041.0076,W,0.07,136.66,211108,,*17
  2270. $GPGGA,144612.769,2831.4772,N,08041.0076,W,1,09,0.8,-4.4,M,-31.2,M,0.0,0000*6F
  2271. $GPGSA,A,3,25,23,28,17,27,13,11,08,03,,,,1.5,0.8,1.1*38
  2272. $GPRMC,144613.769,A,2831.4772,N,08041.0075,W,0.11,78.88,211108,,*29
  2273. $GPGGA,144613.769,2831.4772,N,08041.0075,W,1,09,0.8,-4.2,M,-31.2,M,0.0,0000*6B
  2274. $GPGSA,A,3,25,23,28,07,17,13,11,08,03,,,,1.4,0.8,1.1*3B
  2275. $GPRMC,144614.769,A,2831.4772,N,08041.0074,W,0.03,164.76,211108,,*11
  2276. $GPGGA,144614.769,2831.4772,N,08041.0074,W,1,09,1.0,-3.9,M,-31.2,M,0.0,0000*68
  2277. $GPGSA,A,3,25,23,07,17,27,13,11,08,03,,,,1.5,1.0,1.1*3C
  2278. $GPRMC,144616.769,A,2831.4770,N,08041.0070,W,0.08,81.49,211108,,*28
  2279. $GPGGA,144616.769,2831.4770,N,08041.0070,W,1,10,1.0,-1.6,M,-31.2,M,0.0,0000*69
  2280. $GPGSA,A,3,25,19,23,07,17,27,13,11,08,03,,,1.5,1.0,1.1*34
  2281. $GPRMC,144617.769,A,2831.4769,N,08041.0069,W,0.06,136.65,211108,,*14
  2282. $GPGGA,144617.769,2831.4769,N,08041.0069,W,1,09,1.0,-1.1,M,-31.2,M,0.0,0000*67
  2283. $GPGSA,A,3,25,23,07,17,27,13,11,08,03,,,,1.5,1.0,1.1*3C
  2284. $GPRMC,144618.769,A,2831.4768,N,08041.0068,W,0.04,120.28,211108,,*17
  2285. $GPGGA,144618.769,2831.4768,N,08041.0068,W,1,08,1.0,-0.5,M,-31.2,M,0.0,0000*6C
  2286. $GPGSA,A,3,23,07,17,27,13,11,08,03,,,,,1.6,1.0,1.2*3B
  2287. $GPRMC,144619.768,A,2831.4768,N,08041.0068,W,0.06,119.44,211108,,*15
  2288. $GPGGA,144619.768,2831.4768,N,08041.0068,W,1,09,1.0,0.3,M,-31.2,M,0.0,0000*46
  2289. $GPGSA,A,3,25,23,07,17,27,13,11,08,03,,,,1.5,1.0,1.1*3C
  2290. $GPRMC,144621.768,A,2831.4770,N,08041.0069,W,0.13,93.58,211108,,*2C
  2291. $GPGGA,144621.768,2831.4770,N,08041.0069,W,1,09,1.0,1.6,M,-31.2,M,0.0,0000*41
  2292. $GPGSA,A,3,25,23,07,17,27,13,11,08,03,,,,1.5,1.0,1.1*3C
  2293. $GPRMC,144622.768,A,2831.4770,N,08041.0070,W,0.09,119.60,211108,,*14
  2294. $GPGGA,144622.768,2831.4770,N,08041.0070,W,1,08,1.0,2.8,M,-31.2,M,0.0,0000*46
  2295. $GPGSA,A,3,23,07,17,27,13,11,08,03,,,,,1.6,1.0,1.2*3B
  2296. $GPRMC,144623.768,A,2831.4769,N,08041.0071,W,0.08,100.48,211108,,*1F
  2297. $GPGGA,144623.768,2831.4769,N,08041.0071,W,1,09,1.0,3.9,M,-31.2,M,0.0,0000*4F
  2298. $GPGSA,A,3,19,23,07,17,27,13,11,08,03,,,,1.6,1.0,1.2*33
  2299. $GPRMC,144624.768,A,2831.4769,N,08041.0073,W,0.02,131.26,211108,,*1A
  2300. $GPGGA,144624.768,2831.4769,N,08041.0073,W,1,08,1.0,4.9,M,-31.2,M,0.0,0000*4C
  2301. $GPGSA,A,3,23,07,17,27,13,11,08,03,,,,,1.6,1.0,1.2*3B
  2302. $GPRMC,144626.768,A,2831.4769,N,08041.0076,W,0.13,259.37,211108,,*10
  2303. $GPGGA,144626.768,2831.4769,N,08041.0076,W,1,10,0.8,6.6,M,-31.2,M,0.0,0000*46
  2304. $GPGSA,A,3,25,19,23,28,07,17,27,11,08,03,,,1.4,0.8,1.0*35
  2305. $GPRMC,144627.768,A,2831.4768,N,08041.0077,W,0.06,114.89,211108,,*1A
  2306. $GPGGA,144627.768,2831.4768,N,08041.0077,W,1,10,0.8,7.6,M,-31.2,M,0.0,0000*46
  2307. $GPGSA,A,3,25,23,28,07,17,27,13,11,08,03,,,1.4,0.8,1.0*3F
  2308. $GPRMC,144628.768,A,2831.4768,N,08041.0077,W,0.09,125.41,211108,,*1C
  2309. $GPGGA,144628.768,2831.4768,N,08041.0077,W,1,10,0.8,8.2,M,-31.2,M,0.0,0000*42
  2310. $GPGSA,A,3,25,23,28,07,17,27,13,11,08,03,,,1.4,0.8,1.0*3F
  2311. $GPRMC,144629.768,A,2831.4768,N,08041.0077,W,0.05,111.32,211108,,*12
  2312. $GPGGA,144629.768,2831.4768,N,08041.0077,W,1,09,1.0,8.3,M,-31.2,M,0.0,0000*43
  2313. $GPGSA,A,3,25,23,07,17,27,13,11,08,03,,,,1.5,1.0,1.1*3C
  2314. $GPRMC,144631.768,A,2831.4771,N,08041.0074,W,0.24,89.89,211108,,*23
  2315. $GPGGA,144631.768,2831.4771,N,08041.0074,W,1,10,1.0,7.9,M,-31.2,M,0.0,0000*4C
  2316. $GPGSA,A,3,25,19,23,07,17,27,13,11,08,03,,,1.5,1.0,1.1*34
  2317. $GPRMC,144632.768,A,2831.4772,N,08041.0073,W,0.10,88.19,211108,,*2B
  2318. $GPGGA,144632.768,2831.4772,N,08041.0073,W,1,09,1.0,7.1,M,-31.2,M,0.0,0000*4B
  2319. $GPGSA,A,3,25,23,07,17,27,13,11,08,03,,,,1.5,1.0,1.1*3C
  2320. $GPRMC,144633.768,A,2831.4774,N,08041.0072,W,0.06,302.88,211108,,*13
  2321. $GPGGA,144633.768,2831.4774,N,08041.0072,W,1,08,1.0,6.5,M,-31.2,M,0.0,0000*49
  2322. $GPGSA,A,3,25,23,17,27,13,11,08,03,,,,,1.6,1.0,1.2*3B
  2323. $GPRMC,144634.768,A,2831.4775,N,08041.0072,W,0.04,3.44,211108,,*15
  2324. $GPGGA,144634.768,2831.4775,N,08041.0072,W,1,10,0.8,5.7,M,-31.2,M,0.0,0000*4E
  2325. $GPGSA,A,3,25,23,28,07,17,27,13,11,08,03,,,1.4,0.8,1.0*3F
  2326. $GPRMC,144636.767,A,2831.4778,N,08041.0071,W,0.02,104.52,211108,,*11
  2327. $GPGGA,144636.767,2831.4778,N,08041.0071,W,1,08,1.0,3.8,M,-31.2,M,0.0,0000*44
  2328. $GPGSA,A,3,25,23,17,27,13,11,08,03,,,,,1.6,1.0,1.2*3B
  2329. $GPRMC,144637.767,A,2831.4779,N,08041.0071,W,0.12,58.05,211108,,*2A
  2330. $GPGGA,144637.767,2831.4779,N,08041.0071,W,1,09,1.0,2.8,M,-31.2,M,0.0,0000*44
  2331. $GPGSA,A,3,25,19,23,17,27,13,11,08,03,,,,1.6,1.0,1.2*33
  2332. $GPRMC,144638.767,A,2831.4780,N,08041.0072,W,0.05,43.23,211108,,*28
  2333. $GPGGA,144638.767,2831.4780,N,08041.0072,W,1,08,2.2,2.0,M,-31.2,M,0.0,0000*46
  2334. $GPGSA,A,3,25,23,07,17,27,13,11,08,,,,,3.3,2.2,2.5*3D
  2335. $GPRMC,144639.767,A,2831.4781,N,08041.0074,W,0.13,50.11,211108,,*2A
  2336. $GPGGA,144639.767,2831.4781,N,08041.0074,W,1,08,1.2,1.4,M,-31.2,M,0.0,0000*44
  2337. $GPGSA,A,3,19,28,07,17,27,13,11,08,,,,,2.4,1.2,2.0*39
  2338. $GPRMC,144641.767,A,2831.4781,N,08041.0077,W,0.11,336.87,211108,,*18
  2339. $GPGGA,144641.767,2831.4781,N,08041.0077,W,1,09,1.0,1.9,M,-31.2,M,0.0,0000*46
  2340. $GPGSA,A,3,25,19,28,07,17,27,11,08,03,,,,1.6,1.0,1.2*3D
  2341. $GPRMC,144642.767,A,2831.4780,N,08041.0079,W,0.09,146.17,211108,,*11
  2342. $GPGGA,144642.767,2831.4780,N,08041.0079,W,1,11,0.8,2.7,M,-31.2,M,0.0,0000*47
  2343. $GPGSA,A,3,25,19,23,28,07,17,27,13,11,08,03,,1.3,0.8,1.0*30
  2344. $GPRMC,144643.767,A,2831.4780,N,08041.0081,W,0.08,112.53,211108,,*17
  2345. $GPGGA,144643.767,2831.4780,N,08041.0081,W,1,07,1.0,3.4,M,-31.2,M,0.0,0000*4D
  2346. $GPGSA,A,3,25,28,17,13,11,08,03,,,,,,1.8,1.0,1.5*3C
  2347. $GPRMC,144644.767,A,2831.4779,N,08041.0082,W,0.11,124.71,211108,,*18
  2348. $GPGGA,144644.767,2831.4779,N,08041.0082,W,1,09,0.8,3.9,M,-31.2,M,0.0,0000*45
  2349. $GPGSA,A,3,25,19,28,17,27,13,11,08,03,,,,1.6,0.8,1.3*30
  2350. $GPRMC,144646.767,A,2831.4775,N,08041.0082,W,0.08,93.10,211108,,*24
  2351. $GPGGA,144646.767,2831.4775,N,08041.0082,W,1,09,0.8,4.7,M,-31.2,M,0.0,0000*42
  2352. $GPGSA,A,3,25,19,23,28,07,17,11,08,03,,,,1.4,0.8,1.1*31
  2353. $GPRMC,144647.767,A,2831.4771,N,08041.0081,W,0.39,127.10,211108,,*1E
  2354. $GPGGA,144647.767,2831.4771,N,08041.0081,W,1,10,0.8,4.9,M,-31.2,M,0.0,0000*42
  2355. $GPGSA,A,3,25,19,23,28,07,17,13,11,08,03,,,1.4,0.8,1.1*33
  2356. $GPRMC,144648.767,A,2831.4769,N,08041.0081,W,0.08,114.30,211108,,*18
  2357. $GPGGA,144648.767,2831.4769,N,08041.0081,W,1,10,0.8,5.2,M,-31.2,M,0.0,0000*4E
  2358. $GPGSA,A,3,25,19,23,28,07,17,13,11,08,03,,,1.4,0.8,1.1*33
  2359. $GPRMC,144649.767,A,2831.4768,N,08041.0080,W,0.10,117.35,211108,,*16
  2360. $GPGGA,144649.767,2831.4768,N,08041.0080,W,1,10,0.8,5.5,M,-31.2,M,0.0,0000*48
  2361. $GPGSA,A,3,25,23,28,07,17,27,13,11,08,03,,,1.4,0.8,1.0*3F
  2362. $GPRMC,144651.767,A,2831.4769,N,08041.0081,W,0.17,182.46,211108,,*10
  2363. $GPGGA,144651.767,2831.4769,N,08041.0081,W,1,10,0.8,5.8,M,-31.2,M,0.0,0000*4C
  2364. $GPGSA,A,3,25,23,28,07,17,27,13,11,08,03,,,1.4,0.8,1.0*3F
  2365. $GPRMC,144652.767,A,2831.4770,N,08041.0082,W,0.01,183.59,211108,,*10
  2366. $GPGGA,144652.767,2831.4770,N,08041.0082,W,1,10,0.8,5.5,M,-31.2,M,0.0,0000*49
  2367. $GPGSA,A,3,25,23,28,07,17,27,13,11,08,03,,,1.4,0.8,1.0*3F
  2368. $GPRMC,144653.766,A,2831.4771,N,08041.0083,W,0.10,71.54,211108,,*21
  2369. $GPGGA,144653.766,2831.4771,N,08041.0083,W,1,09,0.8,5.3,M,-31.2,M,0.0,03,,,,1.5,0.8,1.1*3E
  2370. $GPRMC,144654.766,A,2831.4772,N,08041.0084,W,0.14,198.61,211108,,*16
  2371. $GPGGA,144654.766,2831.4772,N,08041.0084,W,1,09,2.0,4.8,M,-31.2,M,0.0,0000*44
  2372. $GPGSA,A,3,25,23,28,07,17,27,13,11,08,,,,3.2,2.0,2.3*32
  2373. $GPRMC,144656.766,A,2831.4772,N,08041.0086,W,0.55,64.74,211108,,*25
  2374. $GPGGA,144656.766,2831.4772,N,08041.0086,W,1,10,1.0,2.9,M,-31.2,M,0.0,0000*48
  2375. $GPGSA,A,3,25,19,23,28,07,17,27,13,11,08,,,1.9,1.0,1.5*35
  2376. $GPRMC,144657.766,A,2831.4773,N,08041.0086,W,0.02,190.14,211108,,*1B
  2377. $GPGGA,144657.766,2831.4773,N,08041.0086,W,1,09,1.2,1.7,M,-31.2,M,0.0,0000*4F
  2378. $GPGSA,A,3,25,19,28,07,17,27,13,11,08,,,,2.3,1.2,1.9*33
  2379. $GPRMC,144658.766,A,2831.4772,N,08041.0086,W,0.06,193.32,211108,,*16
  2380. $GPGGA,144658.766,2831.4772,N,08041.0086,W,1,09,0.8,0.9,M,-31.2,M,0.0,0000*45
  2381. $GPGSA,A,3,25,28,07,17,27,13,11,08,03,,,,1.5,0.8,1.1*3E
  2382. $GPRMC,144659.766,A,2831.4770,N,08041.0086,W,0.36,98.57,211108,,*2F
  2383. $GPGGA,144659.766,2831.4770,N,08041.0086,W,1,10,0.8,0.6,M,-31.2,M,0.0,0000*41
  2384. $GPGSA,A,3,25,23,28,07,17,27,13,11,08,03,,,1.4,0.8,1.0*3F
  2385. $GPRMC,144701.766,A,2831.4767,N,08041.0086,W,0.22,5.56,211108,,*15
  2386. $GPGGA,144701.766,2831.4767,N,08041.0086,W,1,10,0.8,-0.0,M,-31.2,M,0.0,0000*60
  2387. $GPGSA,A,3,25,23,28,07,17,27,13,11,08,03,,,1.4,0.8,1.0*3F
  2388. $GPRMC,144702.766,A,2831.4767,N,08041.0086,W,0.30,321.88,211108,,*13
  2389. $GPGGA,144702.766,2831.4767,N,08041.0086,W,1,10,0.8,-0.2,M,-31.2,M,0.0,0000*61
  2390. $GPGSA,A,3,25,19,23,28,07,17,27,13,11,03,,,1.4,0.8,1.0*3F
  2391. $GPRMC,144703.766,A,2831.4766,N,08041.0087,W,0.08,16.89,211108,,*2F
  2392. $GPGGA,144703.766,2831.4766,N,08041.0087,W,1,10,0.8,0.3,M,-31.2,M,0.0,0000*4C
  2393. $GPGSA,A,3,25,19,28,07,17,27,13,11,08,03,,,1.5,0.8,1.1*36
  2394. $GPRMC,144704.766,A,2831.4765,N,08041.0087,W,0.10,105.26,211108,,*14
  2395. $GPGGA,144704.766,2831.4765,N,08041.0087,W,1,08,1.0,0.7,M,-31.2,M,0.0,0000*4C
  2396. $GPGSA,A,3,25,19,28,07,13,11,08,03,,,,,1.7,1.0,1.4*3B
  2397. $GPRMC,144706.766,A,2831.4761,N,08041.0087,W,0.31,238.44,211108,,*18
  2398. $GPGGA,144706.766,2831.4761,N,08041.0087,W,1,09,0.8,0.8,M,-31.2,M,0.0,0000*4D
  2399. $GPGSA,A,3,25,28,07,17,27,13,11,08,03,,,,1.5,0.8,1.1*3E
  2400. $GPRMC,144707.766,A,2831.4758,N,08041.0086,W,0.24,157.81,211108,,*15
  2401. $GPGGA,144707.766,2831.4758,N,08041.0086,W,1,09,1.2,1.0,M,-31.2,M,0.0,0000*45
  2402. $GPGSA,A,3,25,19,23,28,07,27,13,11,08,,,,2.0,1.2,1.5*3B
  2403. $GPRMC,144708.766,A,2831.4756,N,08041.0085,W,0.17,129.35,211108,,*11
  2404. $GPGGA,144708.766,2831.4756,N,08041.0085,W,1,11,0.8,1.5,M,-31.2,M,0.0,0000*40
  2405. $GPGSA,A,3,25,19,23,28,07,17,27,13,11,08,03,,1.3,0.8,1.0*30
  2406. $GPRMC,144709.766,A,2831.4756,N,08041.0085,W,0.13,116.05,211108,,*1B
  2407. $GPGGA,144709.766,2831.4756,N,08041.0085,W,1,10,0.8,1.6,M,-31.2,M,0.0,0000*43
  2408. $GPGSA,A,3,25,23,28,07,17,27,13,11,08,03,,,1.4,0.8,1.0*3F
  2409. $GPRMC,144711.765,A,2831.4757,N,08041.0084,W,0.20,316.26,211108,,*12
  2410. $GPGGA,144711.765,2831.4757,N,08041.0084,W,1,10,1.0,1.4,M,-31.2,M,0.0,0000*42
  2411. $GPGSA,A,3,25,19,23,07,17,27,13,11,08,03,,,1.5,1.0,1.1*34
  2412. $GPRMC,144712.765,A,2831.4758,N,08041.0083,W,0.31,334.23,211108,,*1C
  2413. $GPGGA,144712.765,2831.4758,N,08041.0083,W,1,10,0.8,1.8,M,-31.2,M,0.0,0000*4C
  2414. $GPGSA,A,3,25,19,23,28,07,17,13,11,08,03,,,1.4,0.8,1.1*33
  2415. $GPRMC,144713.765,A,2831.4758,N,08041.0084,W,0.33,207.11,211108,,*18
  2416. $GPGGA,144713.765,2831.4758,N,08041.0084,W,1,10,0.8,3.0,M,-31.2,M,0.0,0000*40
  2417. $GPGSA,A,3,25,23,28,07,17,27,13,11,08,03,,,1.4,0.8,1.0*3F
  2418. $GPRMC,144714.765,A,2831.4759,N,08041.0084,W,0.03,2.62,211108,,*1E
  2419. $GPGGA,144714.765,2831.4759,N,08041.0084,W,1,10,0.8,3.7,M,-31.2,M,0.0,0000*41
  2420. $GPGSA,A,3,25,19,28,07,17,27,13,11,08,03,,,1.5,0.8,1.1*36
  2421. $GPRMC,144716.765,A,2831.4760,N,08041.0082,W,0.16,112.63,211108,,*15
  2422. $GPGGA,144716.765,2831.4760,N,08041.0082,W,1,10,1.0,3.4,M,-31.2,M,0.0,0000*45
  2423. $GPGSA,A,3,25,19,23,07,17,27,13,11,08,03,,,1.5,1.0,1.1*34
  2424. $GPRMC,144717.765,A,2831.4760,N,08041.0080,W,0.16,334.09,211108,,*1C
  2425. $GPGGA,144717.765,2831.4760,N,08041.0080,W,1,10,0.8,2.6,M,-31.2,M,0.0,0000*4C
  2426. $GPGSA,A,3,25,19,23,28,17,27,13,11,08,03,,,1.4,0.8,1.1*31
  2427. $GPRMC,144718.765,A,2831.4761,N,08041.0079,W,0.13,109.10,211108,,*15
  2428. $GPGGA,144718.765,2831.4761,N,08041.0079,W,1,10,0.8,1.9,M,-31.2,M,0.0,0000*48
  2429. $GPGSA,A,3,25,19,28,07,17,27,13,11,08,03,,,1.5,0.8,1.1*36
  2430. $GPRMC,144719.765,A,2831.4762,N,08041.0077,W,0.10,58.23,211108,,*2F
  2431. $GPGGA,144719.765,2831.4762,N,08041.0077,W,1,10,0.8,1.9,M,-31.2,M,0.0,0000*44
  2432. $GPGSA,A,3,25,19,23,28,07,17,27,13,11,03,,,1.4,0.8,1.0*3F
  2433. $GPRMC,144721.765,A,2831.4764,N,08041.0075,W,0.05,108.77,211108,,*11
  2434. $GPGGA,144721.765,2831.4764,N,08041.0075,W,1,10,0.8,2.7,M,-31.2,M,0.0,0000*46
  2435. $GPGSA,A,3,25,19,23,28,17,27,13,11,08,03,,,1.4,0.8,1.1*31
  2436. $GPRMC,144722.765,A,2831.4765,N,08041.0075,W,0.15,143.66,211108,,*1D
  2437. $GPGGA,144722.765,2831.4765,N,08041.0075,W,1,10,0.8,3.2,M,-31.2,M,0.0,0000*40
  2438. $GPGSA,A,3,25,19,23,28,17,27,13,11,08,03,,,1.4,0.8,1.1*31
  2439. $GPRMC,144723.765,A,2831.4764,N,08041.0075,W,0.21,102.94,211108,,*12
  2440. $GPGGA,144723.765,2831.4764,N,08041.0075,W,1,11,0.8,3.0,M,-31.2,M,0.0,0000*43
  2441. $GPGSA,A,3,25,19,23,28,07,17,27,13,11,08,03,,1.3,0.8,1.0*30
  2442. $GPRMC,144724.765,A,2831.4764,N,08041.0075,W,0.01,203.30,211108,,*1B
  2443. $GPGGA,144724.765,2831.4764,N,08041.0075,W,1,10,0.8,2.3,M,-31.2,M,0.0,0000*47
  2444. $GPGSA,A,3,25,19,23,28,07,17,27,11,08,03,,,1.4,0.8,1.0*35
  2445. $GPRMC,144726.765,A,2831.4761,N,08041.0074,W,0.06,125.94,211108,,*13
  2446. $GPGGA,144726.765,2831.4761,N,08041.0074,W,1,10,0.8,0.2,M,-31.2,M,0.0,0000*42
  2447. $GPGSA,A,3,25,19,28,07,17,27,13,11,08,03,,,1.5,0.8,1.1*36
  2448. $GPRMC,144727.764,A,2831.4760,N,08041.0073,W,0.09,92.58,211108,,*27
  2449. $GPGGA,144727.764,2831.4760,N,08041.0073,W,1,10,0.8,0.2,M,-31.2,M,0.0,0000*44
  2450. $GPGSA,A,3,25,19,28,07,17,27,13,11,08,03,,,1.5,0.8,1.1*36
  2451. $GPRMC,144728.764,A,2831.4760,N,08041.0072,W,0.04,73.31,211108,,*24
  2452. $GPGGA,144728.764,2831.4760,N,08041.0072,W,1,09,1.0,0.5,M,-31.2,M,0.0,0000*4C
  2453. $GPGSA,A,3,25,19,28,07,17,27,13,11,03,,,,1.5,1.0,1.2*34
  2454. $GPRMC,144729.764,A,2831.4760,N,08041.0071,W,0.04,75.01,211108,,*23
  2455. $GPGGA,144729.764,2831.4760,N,08041.0071,W,1,09,1.0,0.6,M,-31.2,M,0.0,0000*4D
  2456. $GPGSA,A,3,25,19,28,07,17,27,13,11,03,,,,1.5,1.0,1.2*34
  2457. $GPRMC,144731.764,A,2831.4762,N,08041.0071,W,0.08,98.50,211108,,*23
  2458. $GPGGA,144731.764,2831.4762,N,08041.0071,W,1,08,1.2,0.4,M,-31.2,M,0.0,0000*47
  2459. $GPGSA,A,3,25,19,23,17,27,13,11,08,,,,,2.2,1.2,1.7*30
  2460. $GPRMC,144732.764,A,2831.4764,N,08041.0072,W,0.05,76.87,211108,,*22
  2461. $GPGGA,144732.764,2831.4764,N,08041.0072,W,1,07,1.2,0.2,M,-31.2,M,0.0,0000*48
  2462. $GPGSA,A,3,25,19,23,17,27,11,08,,,,,,2.2,1.2,1.7*32
  2463. $GPRMC,144733.764,A,2831.4765,N,08041.0071,W,0.32,113.07,211108,,*1F
  2464. $GPGGA,144733.764,2831.4765,N,08041.0071,W,1,08,1.0,-0.3,M,-31.2,M,0.0,0000*6A
  2465. $GPGSA,A,3,25,19,23,17,27,11,08,03,,,,,1.6,1.0,1.2*31
  2466. $GPRMC,144734.764,A,2831.4767,N,08041.0069,W,0.11,102.62,211108,,*11
  2467. $GPGGA,144734.764,2831.4767,N,08041.0069,W,1,06,1.4,-1.5,M,-31.2,M,0.0,0000*6B
  2468. $GPGSA,A,3,25,19,17,27,11,03,,,,,,,2.1,1.4,1.4*3E
  2469. $GPRMC,144736.764,A,2831.4768,N,08041.0066,W,0.05,18.88,211108,,*28
  2470. $GPGGA,144736.764,2831.4768,N,08041.0066,W,1,08,1.0,-4.0,M,-31.2,M,0.0,0000*63
  2471. $GPGSA,A,3,25,19,28,07,17,27,11,03,,,,,1.7,1.0,1.2*34
  2472. $GPRMC,144737.764,A,2831.4767,N,08041.0064,W,0.04,84.20,211108,,*22
  2473. $GPGGA,144737.764,2831.4767,N,08041.0064,W,1,09,1.2,-5.3,M,-31.2,M,0.0,0000*6E
  2474. $GPGSA,A,3,25,19,23,07,17,27,13,11,03,,,,1.7,1.2,1.1*3C
  2475. $GPRMC,144738.764,A,2831.4767,N,08041.0062,W,0.06,91.94,211108,,*22
  2476. $GPGGA,144738.764,2831.4767,N,08041.0062,W,1,09,1.0,-6.6,M,-31.2,M,0.0,0000*63
  2477. $GPGSA,A,3,25,19,07,17,27,13,11,08,03,,,,1.6,1.0,1.2*35
  2478. $GPRMC,144739.764,A,2831.4766,N,08041.0059,W,0.20,124.10,211108,,*1D
  2479. $GPGGA,144739.764,2831.4766,N,08041.0059,W,1,09,1.0,-7.2,M,-31.2,M,0.0,0000*6E
  2480. $GPGSA,A,3,25,19,07,17,27,13,11,08,03,,,,1.6,1.0,1.2*35
  2481. $GPRMC,144741.764,A,2831.4764,N,08041.0054,W,0.20,118.27,211108,,*16
  2482. $GPGGA,144741.764,2831.4764,N,08041.0054,W,1,10,1.0,-6.9,M,-31.2,M,0.0,0000*6C
  2483. $GPGSA,A,3,25,19,23,28,07,17,27,13,11,08,,,1.9,1.0,1.5*35
  2484. $GPRMC,144742.764,A,2831.4764,N,08041.0051,W,0.08,108.65,211108,,*1D
  2485. $GPGGA,144742.764,2831.4764,N,08041.0051,W,1,10,0.8,-7.2,M,-31.2,M,0.0,0000*69
  2486. $GPGSA,A,3,25,19,28,07,17,27,13,11,08,03,,,1.5,0.8,1.1*36
  2487. $GPRMC,144743.764,A,2831.4764,N,08041.0050,W,0.08,116.44,211108,,*11
  2488. $GPGGA,144743.764,2831.4764,N,08041.0050,W,1,08,1.0,-7.8,M,-31.2,M,0.0,0000*63
  2489. $GPGSA,A,3,25,28,07,17,27,11,08,03,,,,,1.6,1.0,1.2*35
  2490. $GPRMC,144744.763,A,2831.4764,N,08041.0051,W,0.06,111.93,211108,,*13
  2491. $GPGGA,144744.763,2831.4764,N,08041.0051,W,1,09,1.0,-7.4,M,-31.2,M,0.0,0000*6F
  2492. $GPGSA,A,3,25,19,07,17,27,13,11,08,03,,,,1.6,1.0,1.2*35
  2493. $GPRMC,144746.763,A,2831.4766,N,08041.0053,W,0.03,124.27,211108,,*1D
  2494. $GPGGA,144746.763,2831.4766,N,08041.0053,W,1,08,1.0,-8.1,M,-31.2,M,0.0,0000*66
  2495. $GPGSA,A,3,25,19,28,07,17,27,13,03,,,,,1.6,1.0,1.2*37
  2496. $GPRMC,144747.763,A,2831.4768,N,08041.0056,W,0.05,88.72,211108,,*26
  2497. $GPGGA,144747.763,2831.4768,N,08041.0056,W,1,09,1.0,-9.0,M,-31.2,M,0.0,0000*6D
  2498. $GPGSA,A,3,25,19,28,07,17,27,13,11,03,,,,1.5,1.0,1.2*34
  2499. $GPRMC,144748.763,A,2831.4771,N,08041.0059,W,0.03,300.61,211108,,*19
  2500. $GPGGA,144748.763,2831.4771,N,08041.0059,W,1,09,1.0,-9.4,M,-31.2,M,0.0,0000*61
  2501. $GPGSA,A,3,25,19,28,07,17,27,13,11,03,,,,1.5,1.0,1.2*34
  2502. $GPRMC,144749.763,A,2831.4773,N,08041.0063,W,0.15,132.38,211108,,*1B
  2503. $GPGGA,144749.763,2831.4773,N,08041.0063,W,1,10,0.8,-9.0,M,-31.2,M,0.0,0000*6E
  2504. $GPGSA,A,3,25,19,28,07,17,27,13,11,08,03,,,1.5,0.8,1.1*36
  2505. $GPRMC,144751.763,A,2831.4775,N,08041.0070,W,0.10,133.40,211108,,*1D
  2506. $GPGGA,144751.763,2831.4775,N,08041.0070,W,1,09,0.8,-6.7,M,-31.2,M,0.0,0000*63
  2507. $GPGSA,A,3,25,19,28,17,27,13,11,08,03,,,,1.6,0.8,1.3*30
  2508. $GPRMC,144752.763,A,2831.4775,N,08041.0071,W,0.13,137.23,211108,,*1D
  2509. $GPGGA,144752.763,2831.4775,N,08041.0071,W,1,09,0.8,-5.5,M,-31.2,M,0.0,0000*60
  2510. $GPGSA,A,3,25,19,28,17,27,13,11,08,03,,,,1.6,0.8,1.3*30
  2511. $GPRMC,144753.763,A,2831.4774,N,08041.0071,W,0.13,136.77,211108,,*1D
  2512. $GPGGA,144753.763,2831.4774,N,08041.0071,W,1,09,0.8,-4.1,M,-31.2,M,0.0,0000*65
  2513. $GPGSA,A,3,25,19,28,17,27,13,11,08,03,,,,1.6,0.8,1.3*30
  2514. $GPRMC,144754.763,A,2831.4772,N,08041.0071,W,0.14,128.72,211108,,*11
  2515. $GPGGA,144754.763,2831.4772,N,08041.0071,W,1,07,1.8,-2.9,M,-31.2,M,0.0,0000*65
  2516. $GPGSA,A,3,25,19,07,17,27,13,03,,,,,,2.2,1.8,1.2*32
  2517. $GPRMC,144756.763,A,2831.4771,N,08041.0068,W,0.13,124.83,211108,,*1D
  2518. $GPGGA,144756.763,2831.4771,N,08041.0068,W,1,06,1.8,-0.4,M,-31.2,M,0.0,0000*62
  2519. $GPGSA,A,3,25,19,17,27,13,03,,,,,,,2.3,1.8,1.3*35
  2520. $GPRMC,144757.763,A,2831.4770,N,08041.0065,W,0.19,118.87,211108,,*11
  2521. $GPGGA,144757.763,2831.4770,N,08041.0065,W,1,07,1.0,1.2,M,-31.2,M,0.0,0000*4C
  2522. $GPGSA,A,3,25,19,28,17,27,13,03,,,,,,1.7,1.0,1.3*30
  2523. $GPRMC,144758.763,A,2831.4769,N,08041.0063,W,0.04,111.31,211108,,*18
  2524. $GPGGA,144758.763,2831.4769,N,08041.0063,W,1,07,1.0,3.2,M,-31.2,M,0.0,0000*4F
  2525. $GPGSA,A,3,25,19,28,17,27,13,03,,,,,,1.7,1.0,1.3*30
  2526. $GPRMC,144759.763,A,2831.4768,N,08041.0063,W,0.07,110.42,211108,,*1E
  2527. $GPGGA,144759.763,2831.4768,N,08041.0063,W,1,06,1.8,4.6,M,-31.2,M,0.0,0000*45
  2528. $GPGSA,A,3,25,19,17,27,13,03,,,,,,,2.3,1.8,1.3*35
  2529. $GPRMC,144801.762,A,2831.4765,N,08041.0062,W,0.11,126.88,211108,,*15
  2530. $GPGGA,144801.762,2831.4765,N,08041.0062,W,1,05,1.2,6.9,M,-31.2,M,0.0,0000*4E
  2531. $GPGSA,A,3,28,17,27,13,03,,,,,,,,2.1,1.2,1.7*3C
  2532. $GPRMC,144802.762,A,2831.4764,N,08041.0062,W,0.07,88.37,211108,,*21
  2533. $GPGGA,144802.762,2831.4764,N,08041.0062,W,1,08,1.0,7.3,M,-31.2,M,0.0,0000*48
  2534. $GPGSA,A,3,25,19,28,17,27,13,11,03,,,,,1.7,1.0,1.3*30
  2535. $GPRMC,144803.762,A,2831.4763,N,08041.0060,W,0.45,91.56,211108,,*2C
  2536. $GPGGA,144803.762,2831.4763,N,08041.0060,W,1,07,1.4,6.9,M,-31.2,M,0.0,0000*4C
  2537. $GPGSA,A,3,25,19,07,17,27,11,08,,,,,,2.4,1.4,2.0*30
  2538. $GPRMC,144804.762,A,2831.4764,N,08041.0060,W,0.11,3.67,211108,,*14
  2539. $GPGGA,144804.762,2831.4764,N,08041.0060,W,1,08,1.0,6.1,M,-31.2,M,0.0,0000*4F
  2540. $GPGSA,A,3,25,07,17,27,13,11,08,03,,,,,1.6,1.0,1.2*3D
  2541. $GPRMC,144806.762,A,2831.4761,N,08041.0060,W,0.27,185.07,211108,,*1F
  2542. $GPGGA,144806.762,2831.4761,N,08041.0060,W,1,09,1.0,5.3,M,-31.2,M,0.0,0000*48
  2543. $GPGSA,A,3,25,19,28,07,17,27,13,11,03,,,,1.5,1.0,1.2*34
  2544. $GPRMC,144807.762,A,2831.4758,N,08041.0059,W,0.18,123.47,211108,,*1A
  2545. $GPGGA,144807.762,2831.4758,N,08041.0059,W,1,10,0.8,5.9,M,-31.2,M,0.0,0000*42
  2546. $GPGSA,A,3,25,19,28,07,17,27,13,11,08,03,,,1.5,0.8,1.1*36
  2547. $GPRMC,144808.762,A,2831.4755,N,08041.0056,W,0.08,132.74,211108,,*16
  2548. $GPGGA,144808.762,2831.4755,N,08041.0056,W,1,07,1.0,6.3,M,-31.2,M,0.0,0000*49
  2549. $GPGSA,A,3,28,07,17,27,13,11,03,,,,,,1.6,1.0,1.2*38
  2550. $GPRMC,144809.762,A,2831.4752,N,08041.0053,W,0.11,214.15,211108,,*1D
  2551. $GPGGA,144809.762,2831.4752,N,08041.0053,W,1,09,1.0,6.4,M,-31.2,M,0.0,0000*43
  2552. $GPGSA,A,3,25,19,28,07,17,27,13,11,03,,,,1.5,1.0,1.2*34
  2553. $GPRMC,144811.762,A,2831.4750,N,08041.0051,W,0.11,131.95,211108,,*18
  2554. $GPGGA,144811.762,2831.4750,N,08041.0051,W,1,08,1.0,7.6,M,-31.2,M,0.0,0000*48
  2555. $GPGSA,A,3,25,28,07,17,27,13,11,03,,,,,1.6,1.0,1.2*3F
  2556. $GPRMC,144812.762,A,2831.4749,N,08041.0050,W,0.12,59.69,211108,,*2D
  2557. $GPGGA,144812.762,2831.4749,N,08041.0050,W,1,07,1.4,8.1,M,-31.2,M,0.0,0000*41
  2558. $GPGSA,A,3,25,19,07,17,27,11,03,,,,,,2.0,1.4,1.2*3E
  2559. $GPRMC,144813.762,A,2831.4749,N,08041.0050,W,0.08,319.39,211108,,*15
  2560. $GPGGA,144813.762,2831.4749,N,08041.0050,W,1,08,1.4,8.1,M,-31.2,M,0.0,0000*4F
  2561. $GPGSA,A,3,25,19,07,17,27,13,11,03,,,,,1.8,1.4,1.2*37
  2562. $GPRMC,144814.762,A,2831.4751,N,08041.0050,W,0.09,2.53,211108,,*1F
  2563. $GPGGA,144814.762,2831.4751,N,08041.0050,W,1,09,1.2,7.1,M,-31.2,M,0.0,0000*49
  2564. $GPGSA,A,3,25,19,28,07,17,27,13,11,08,,,,2.3,1.2,1.9*33
  2565. $GPRMC,144816.762,A,2831.4753,N,08041.0050,W,0.17,132.45,211108,,*15
  2566. $GPGGA,144816.762,2831.4753,N,08041.0050,W,1,05,2.8,4.6,M,-31.2,M,0.0,0000*48
  2567. $GPGSA,A,3,25,17,13,11,03,,,,,,,,3.7,2.8,2.3*3D
  2568. $GPRMC,144817.762,A,2831.4754,N,08041.0055,W,0.07,16.63,211108,,*24
  2569. $GPGGA,144817.762,2831.4754,N,08041.0055,W,1,08,1.0,4.3,M,-31.2,M,0.0,0000*48
  2570. $GPGSA,A,3,25,19,28,17,27,13,11,03,,,,,1.7,1.0,1.3*30
  2571. $GPRMC,144818.761,A,2831.4755,N,08041.0058,W,0.10,94.34,211108,,*2A
  2572. $GPGGA,144818.761,2831.4755,N,08041.0058,W,1,09,1.0,4.7,M,-31.2,M,0.0,0000*4D
  2573. $GPGSA,A,3,25,19,28,07,17,27,13,11,03,,,,1.5,1.0,1.2*34
  2574. $GPRMC,144819.761,A,2831.4756,N,08041.0060,W,0.03,75.90,211108,,*20
  2575. $GPGGA,144819.761,2831.4756,N,08041.0060,W,1,09,1.0,5.2,M,-31.2,M,0.0,0000*40
  2576. $GPGSA,A,3,25,19,28,07,17,27,13,11,03,,,,1.5,1.0,1.2*34
  2577. $GPRMC,144821.761,A,2831.4753,N,08041.0062,W,0.14,121.99,211108,,*13
  2578. $GPGGA,144821.761,2831.4753,N,08041.0062,W,1,07,1.0,5.9,M,-31.2,M,0.0,0000*49
  2579. $GPGSA,A,3,25,19,28,13,11,08,03,,,,,,1.9,1.0,1.6*30
  2580. $GPRMC,144822.761,A,2831.4752,N,08041.0063,W,0.13,166.23,211108,,*15
  2581. $GPGGA,144822.761,2831.4752,N,08041.0063,W,1,06,4.8,5.9,M,-31.2,M,0.0,0000*46
  2582. $GPGSA,A,3,25,28,17,13,11,08,,,,,,,9.0,4.8,7.5*34
  2583. $GPRMC,144823.761,A,2831.4751,N,08041.0066,W,0.19,83.31,211108,,*21
  2584. $GPGGA,144823.761,2831.4751,N,08041.0066,W,1,06,1.0,5.8,M,-31.2,M,0.0,0000*4D
  2585. $GPGSA,A,3,25,28,17,11,08,03,,,,,,,1.9,1.0,1.6*3C
  2586. $GPRMC,144824.761,A,2831.4752,N,08041.0066,W,0.12,137.80,211108,,*1A
  2587. $GPGGA,144824.761,2831.4752,N,08041.0066,W,1,08,0.8,5.6,M,-31.2,M,0.0,0000*40
  2588. $GPGSA,A,3,25,19,28,17,13,11,08,03,,,,,1.7,0.8,1.5*32
  2589. $GPRMC,144826.761,A,2831.4755,N,08041.0067,W,0.08,117.85,211108,,*12
  2590. $GPGGA,144826.761,2831.4755,N,08041.0067,W,1,08,0.8,5.5,M,-31.2,M,0.0,0000*47
  2591. $GPGSA,A,3,19,28,17,27,13,11,08,03,,,,,1.7,0.8,1.4*31
  2592. $GPRMC,144827.761,A,2831.4756,N,08041.0068,W,0.07,307.02,211108,,*1C
  2593. $GPGGA,144827.761,2831.4756,N,08041.0068,W,1,08,0.8,5.4,M,-31.2,M,0.0,0000*4B
  2594. $GPGSA,A,3,25,19,28,17,13,11,08,03,,,,,1.7,0.8,1.5*32
  2595. $GPRMC,144828.761,A,2831.4757,N,08041.0070,W,0.03,299.59,211108,,*17
  2596. $GPGGA,144828.761,2831.4757,N,08041.0070,W,1,06,2.0,5.1,M,-31.2,M,0.0,0000*4D
  2597. $GPGSA,A,3,25,19,17,13,11,03,,,,,,,2.8,2.0,1.8*3B
  2598. $GPRMC,144829.761,A,2831.4760,N,08041.0071,W,0.05,37.86,211108,,*21
  2599. $GPGGA,144829.761,2831.4760,N,08041.0071,W,1,07,1.0,4.9,M,-31.2,M,0.0,0000*42
  2600. $GPGSA,A,3,25,19,28,17,13,11,03,,,,,,2.0,1.0,1.6*34
  2601. $GPRMC,144831.761,A,2831.4764,N,08041.0073,W,0.12,149.51,211108,,*1A
  2602. $GPGGA,144831.761,2831.4764,N,08041.0073,W,1,07,1.0,4.4,M,-31.2,M,0.0,0000*40
  2603. $GPGSA,A,3,25,19,28,17,13,11,03,,,,,,2.0,1.0,1.6*34
  2604. $GPRMC,144832.761,A,2831.4767,N,08041.0074,W,0.30,321.99,211108,,*15
  2605. $GPGGA,144832.761,2831.4767,N,08041.0074,W,1,08,1.0,3.9,M,-31.2,M,0.0,0000*42
  2606. $GPGSA,A,3,25,19,28,17,27,11,08,03,,,,,1.7,1.0,1.3*3A
  2607. $GPRMC,144833.761,A,2831.4770,N,08041.0076,W,0.02,136.30,211108,,*16
  2608. $GPGGA,144833.761,2831.4770,N,08041.0076,W,1,09,0.8,3.5,M,-31.2,M,0.0,0000*43
  2609. $GPGSA,A,3,25,19,28,07,17,13,11,08,03,,,,1.6,0.8,1.3*32
  2610. $GPRMC,144834.761,A,2831.4772,N,08041.0077,W,0.08,147.51,211108,,*19
  2611. $GPGGA,144834.761,2831.4772,N,08041.0077,W,1,08,0.8,3.4,M,-31.2,M,0.0,0000*47
  2612. $GPGSA,A,3,25,28,07,17,13,11,08,03,,,,,1.6,0.8,1.3*3A
  2613. $GPRMC,144836.760,A,2831.4775,N,08041.0080,W,0.33,259.60,211108,,*13
  2614. $GPGGA,144836.760,2831.4775,N,08041.0080,W,1,08,1.2,3.2,M,-31.2,M,0.0,0000*46
  2615. $GPGSA,A,3,25,19,28,07,27,11,08,03,,,,,2.2,1.2,1.7*3B
  2616. $GPRMC,144837.760,A,2831.4777,N,08041.0082,W,0.05,95.62,211108,,*27
  2617. $GPGGA,144837.760,2831.4777,N,08041.0082,W,1,08,1.2,3.5,M,-31.2,M,0.0,0000*40
  2618. $GPGSA,A,3,25,19,28,07,27,11,08,03,,,,,2.2,1.2,1.7*3B
  2619. $GPRMC,144838.760,A,2831.4779,N,08041.0084,W,0.09,86.24,211108,,*2C
  2620. $GPGGA,144838.760,2831.4779,N,08041.0084,W,1,07,1.2,3.4,M,-31.2,M,0.0,0000*49
  2621. $GPGSA,A,3,25,19,28,27,11,08,03,,,,,,2.4,1.2,1.9*34
  2622. $GPRMC,144839.760,A,2831.4781,N,08041.0085,W,0.10,87.33,211108,,*24
  2623. $GPGGA,144839.760,2831.4781,N,08041.0085,W,1,05,7.4,3.7,M,-31.2,M,0.0,0000*4F
  2624. $GPGSA,A,3,25,19,07,11,03,,,,,,,,10.2,7.4,6.9*06
  2625. $GPRMC,144841.760,A,2831.4783,N,08041.0088,W,0.29,124.54,211108,,*17
  2626. $GPGGA,144841.760,2831.4783,N,08041.0088,W,1,10,0.8,3.2,M,-31.2,M,0.0,0000*45
  2627. $GPGSA,A,3,25,19,28,07,17,27,13,11,08,03,,,1.5,0.8,1.1*36
  2628. $GPRMC,144842.760,A,2831.4782,N,08041.0088,W,0.29,318.22,211108,,*19
  2629. $GPGGA,144842.760,2831.4782,N,08041.0088,W,1,06,1.2,3.3,M,-31.2,M,0.0,0000*4A
  2630. $GPGSA,A,3,25,19,17,11,08,03,,,,,,,2.0,1.2,1.5*35
  2631. $GPRMC,144843.760,A,2831.4782,N,08041.0089,W,0.25,107.74,211108,,*1A
  2632. $GPGGA,144843.760,2831.4782,N,08041.0089,W,1,08,1.0,3.6,M,-31.2,M,0.0,0000*43
  2633. $GPGSA,A,3,25,19,28,17,27,13,11,03,,,,,1.7,1.0,1.3*30
  2634. $GPRMC,144844.760,A,2831.4782,N,08041.0088,W,0.14,20.37,211108,,*2D
  2635. $GPGGA,144844.760,2831.4782,N,08041.0088,W,1,09,0.8,4.2,M,-31.2,M,0.0,0000*4E
  2636. $GPGSA,A,3,25,19,28,17,27,13,11,08,03,,,,1.6,0.8,1.3*30
  2637. $GPRMC,144846.760,A,2831.4779,N,08041.0086,W,0.09,157.15,211108,,*18
  2638. $GPGGA,144846.760,2831.4779,N,08041.0086,W,1,07,1.0,5.0,M,-31.2,M,0.0,0000*42
  2639. $GPGSA,A,3,25,19,28,27,13,11,03,,,,,,1.8,1.0,1.4*3E
  2640. $GPRMC,144847.760,A,2831.4777,N,08041.0084,W,0.05,28.05,211108,,*21
  2641. $GPGGA,144847.760,2831.4777,N,08041.0084,W,1,08,1.0,5.0,M,-31.2,M,0.0,0000*40
  2642. $GPGSA,A,3,25,19,28,17,27,13,11,03,,,,,1.7,1.0,1.3*30
  2643. $GPRMC,144848.760,A,2831.4775,N,08041.0081,W,0.10,93.41,211108,,*2D
  2644. $GPGGA,144848.760,2831.4775,N,08041.0081,W,1,07,1.0,4.6,M,-31.2,M,0.0,0000*40
  2645. $GPGSA,A,3,25,19,28,27,13,11,03,,,,,,1.8,1.0,1.4*3E
  2646. $GPRMC,144849.760,A,2831.4774,N,08041.0077,W,0.12,159.51,211108,,*10
  2647. $GPGGA,144849.760,2831.4774,N,08041.0077,W,1,08,1.0,4.0,M,-31.2,M,0.0,0000*40
  2648. $GPGSA,A,3,25,19,28,17,27,13,11,03,,,,,1.7,1.0,1.3*30
  2649. $GPRMC,144851.760,A,2831.4769,N,08041.0070,W,0.11,115.73,211108,,*19
  2650. $GPGGA,144851.760,2831.4769,N,08041.0070,W,1,07,1.0,2.4,M,-31.2,M,0.0,0000*4F
  2651. $GPGSA,A,3,25,28,17,27,13,11,03,,,,,,1.7,1.0,1.3*38
  2652. $GPRMC,144852.759,A,2831.4767,N,08041.0067,W,0.06,130.88,211108,,*1D
  2653. $GPGGA,144852.759,2831.4767,N,08041.0067,W,1,07,1.0,2.4,M,-31.2,M,0.0,0000*4E
  2654. $GPGSA,A,3,25,28,17,27,13,11,03,,,,,,1.7,1.0,1.3*38
  2655. $GPRMC,144853.759,A,2831.4765,N,08041.0065,W,0.15,135.32,211108,,*1A
  2656. $GPGGA,144853.759,2831.4765,N,08041.0065,W,1,08,1.0,2.6,M,-31.2,M,0.0,0000*42
  2657. $GPGSA,A,3,25,19,28,17,27,13,11,03,,,,,1.7,1.0,1.3*30
  2658. $GPRMC,144854.759,A,2831.4763,N,08041.0063,W,0.07,63.37,211108,,*29
  2659. $GPGGA,144854.759,2831.4763,N,08041.0063,W,1,08,0.8,2.7,M,-31.2,M,0.0,0000*4D
  2660. $GPGSA,A,3,25,28,17,27,13,11,08,03,,,,,1.6,0.8,1.3*38
  2661. $GPRMC,144856.759,A,2831.4757,N,08041.0059,W,0.10,94.26,211108,,*2B
  2662. $GPGGA,144856.759,2831.4757,N,08041.0059,W,1,08,0.8,2.0,M,-31.2,M,0.0,0000*46
  2663. $GPGSA,A,3,25,19,28,17,13,11,08,03,,,,,1.7,0.8,1.5*32
  2664. $GPRMC,144857.759,A,2831.4755,N,08041.0057,W,0.08,66.91,211108,,*2E
  2665. $GPGGA,144857.759,2831.4755,N,08041.0057,W,1,08,0.8,1.6,M,-31.2,M,0.0,0000*4E
  2666. $GPGSA,A,3,25,19,28,17,13,11,08,03,,,,,1.7,0.8,1.5*32
  2667. $GPRMC,144858.759,A,2831.4753,N,08041.0055,W,0.06,99.94,211108,,*2E
  2668. $GPGGA,144858.759,2831.4753,N,08041.0055,W,1,07,1.0,1.6,M,-31.2,M,0.0,0000*43
  2669. $GPGSA,A,3,25,28,17,27,11,08,03,,,,,,1.7,1.0,1.3*32
  2670. $GPRMC,144859.759,A,2831.4751,N,08041.0054,W,0.04,68.54,211108,,*2C
  2671. $GPGGA,144859.759,2831.4751,N,08041.0054,W,1,07,1.0,1.5,M,-31.2,M,0.0,0000*42
  2672. $GPGSA,A,3,25,28,17,27,11,08,03,,,,,,1.7,1.0,1.3*32
  2673. $GPRMC,144901.759,A,2831.4747,N,08041.0055,W,0.08,145.64,211108,,*17
  2674. $GPGGA,144901.759,2831.4747,N,08041.0055,W,1,07,3.2,0.9,M,-31.2,M,0.0,0000*45
  2675. $GPGSA,A,3,25,28,17,27,13,11,08,,,,,,5.5,3.2,4.4*37
  2676. $GPRMC,144902.759,A,2831.4746,N,08041.0056,W,0.04,136.57,211108,,*1E
  2677. $GPGGA,144902.759,2831.4746,N,08041.0056,W,1,07,1.0,-1.1,M,-31.2,M,0.0,0000*60
  2678. $GPGSA,A,3,25,28,17,27,13,11,03,,,,,,1.7,1.0,1.3*38
  2679. $GPRMC,144903.759,A,2831.4745,N,08041.0057,W,0.08,144.74,211108,,*15
  2680. $GPGGA,144903.759,2831.4745,N,08041.0057,W,1,07,1.0,-2.3,M,-31.2,M,0.0,0000*62
  2681. $GPGSA,A,3,25,28,17,27,13,11,03,,,,,,1.7,1.0,1.3*38
  2682. $GPRMC,144904.759,A,2831.4745,N,08041.0057,W,0.15,220.52,211108,,*1B
  2683. $GPGGA,144904.759,2831.4745,N,08041.0057,W,1,08,1.0,-3.5,M,-31.2,M,0.0,0000*6D
  2684. $GPGSA,A,3,25,28,07,17,27,13,11,03,,,,,1.6,1.0,1.2*3F
  2685. $GPRMC,144906.759,A,2831.4747,N,08041.0059,W,0.18,78.76,211108,,*21
  2686. $GPGGA,144906.759,2831.4747,N,08041.0059,W,1,08,0.8,-4.1,M,-31.2,M,0.0,0000*69
  2687. $GPGSA,A,3,25,28,17,27,13,11,08,03,,,,,1.6,0.8,1.3*38
  2688. $GPRMC,144907.759,A,2831.4748,N,08041.0060,W,0.05,108.20,211108,,*1C
  2689. $GPGGA,144907.759,2831.4748,N,08041.0060,W,1,08,1.0,-3.9,M,-31.2,M,0.0,0000*6B
  2690. $GPGSA,A,3,25,28,07,17,27,13,11,03,,,,,1.6,1.0,1.2*3F
  2691. $GPRMC,144908.759,A,2831.4750,N,08041.0061,W,0.18,327.71,211108,,*1C
  2692. $GPGGA,144908.759,2831.4750,N,08041.0061,W,1,07,3.2,-2.8,M,-31.2,M,0.0,0000*63
  2693. $GPGSA,A,3,25,28,17,27,13,11,08,,,,,,5.5,3.2,4.4*37
  2694. $GPRMC,144909.758,A,2831.4752,N,08041.0063,W,0.04,169.62,211108,,*1B
  2695. $GPGGA,144909.758,2831.4752,N,08041.0063,W,1,08,3.0,-1.8,M,-31.2,M,0.0,0000*6D
  2696. $GPGSA,A,3,25,28,07,17,27,13,11,08,,,,,5.1,3.0,4.0*32
  2697. $GPRMC,144911.758,A,2831.4752,N,08041.0065,W,0.19,220.71,211108,,*14
  2698. $GPGGA,144911.758,2831.4752,N,08041.0065,W,1,05,4.8,0.8,M,-31.2,M,0.0,0000*4C
  2699. $GPGSA,A,3,25,28,17,13,11,,,,,,,,9.1,4.8,7.6*3E
  2700. $GPRMC,144912.758,A,2831.4753,N,08041.0066,W,0.05,184.72,211108,,*16
  2701. $GPGGA,144912.758,2831.4753,N,08041.0066,W,1,06,4.8,2.2,M,-31.2,M,0.0,0000*46
  2702. $GPGSA,A,3,25,28,17,13,11,08,,,,,,,9.0,4.8,7.6*37
  2703. $GPRMC,144913.758,A,2831.4755,N,08041.0069,W,0.03,179.41,211108,,*1A
  2704. $GPGGA,144913.758,2831.4755,N,08041.0069,W,1,07,0.8,6.3,M,-31.2,M,0.0,0000*4E
  2705. $GPGSA,A,3,25,28,17,13,11,08,03,,,,,,1.8,0.8,1.5*35
  2706. $GPRMC,144914.758,A,2831.4758,N,08041.0067,W,0.04,86.44,211108,,*2D
  2707. $GPGGA,144914.758,2831.4758,N,08041.0067,W,1,08,0.8,6.9,M,-31.2,M,0.0,0000*4F
  2708. $GPGSA,A,3,25,19,28,17,13,11,08,03,,,,,1.7,0.8,1.5*32
  2709. $GPRMC,144916.758,A,2831.4762,N,08041.0066,W,0.24,332.33,211108,,*19
  2710. $GPGGA,144916.758,2831.4762,N,08041.0066,W,1,05,3.0,6.0,M,-31.2,M,0.0,0000*4A
  2711. $GPGSA,A,3,25,19,17,13,11,,,,,,,,5.0,3.0,3.9*35
  2712. $GPRMC,144917.758,A,2831.4761,N,08041.0063,W,0.06,86.65,211108,,*21
  2713. $GPGGA,144917.758,2831.4761,N,08041.0063,W,1,06,1.6,4.1,M,-31.2,M,0.0,0000*49
  2714. $GPGSA,A,3,25,19,17,13,11,08,,,,,,,3.1,1.6,2.7*31
  2715. $GPRMC,144918.758,A,2831.4759,N,08041.0059,W,0.08,85.96,211108,,*2D
  2716. $GPGGA,144918.758,2831.4759,N,08041.0059,W,1,06,1.6,2.5,M,-31.2,M,0.0,0000*46
  2717. $GPGSA,A,3,25,19,17,13,11,08,,,,,,,3.1,1.6,2.7*31
  2718. $GPRMC,144919.758,A,2831.4758,N,08041.0056,W,0.06,38.57,211108,,*27
  2719. $GPGGA,144919.758,2831.4758,N,08041.0056,W,1,05,3.0,1.2,M,-31.2,M,0.0,0000*4A
  2720. $GPGSA,A,3,25,19,17,13,11,,,,,,,,5.0,3.0,3.9*35
  2721. $GPRMC,144921.758,A,2831.4760,N,08041.0049,W,0.37,321.59,211108,,*1E
  2722. $GPGGA,144921.758,2831.4760,N,08041.0049,W,1,08,0.8,-0.9,M,-31.2,M,0.0,0000*65
  2723. $GPGSA,A,3,25,19,28,17,13,11,08,03,,,,,1.7,0.8,1.5*32
  2724. $GPRMC,144922.758,A,2831.4761,N,08041.0048,W,0.03,31.55,211108,,*24
  2725. $GPGGA,144922.758,2831.4761,N,08041.0048,W,1,07,1.0,-1.0,M,-31.2,M,0.0,0000*68
  2726. $GPGSA,A,3,25,19,28,17,13,11,03,,,,,,2.0,1.0,1.6*34
  2727. $GPRMC,144923.758,A,2831.4762,N,08041.0046,W,0.28,76.17,211108,,*24
  2728. $GPGGA,144923.758,2831.4762,N,08041.0046,W,1,08,0.8,-0.7,M,-31.2,M,0.0,0000*64
  2729. $GPGSA,A,3,25,19,28,17,13,11,08,03,,,,,1.7,0.8,1.5*32
  2730. $GPRMC,144924.758,A,2831.4764,N,08041.0045,W,0.02,109.28,211108,,*1B
  2731. $GPGGA,144924.758,2831.4764,N,08041.0045,W,1,05,4.8,-0.3,M,-31.2,M,0.0,0000*6B
  2732. $GPGSA,A,3,25,28,17,13,11,,,,,,,,9.1,4.8,7.6*3E
  2733. $GPRMC,144926.758,A,2831.4769,N,08041.0047,W,0.34,55.91,211108,,*29
  2734. $GPGGA,144926.758,2831.4769,N,08041.0047,W,1,05,1.2,1.3,M,-31.2,M,0.0,0000*45
  2735. $GPGSA,A,3,25,28,13,11,03,,,,,,,,2.3,1.2,2.0*3E
  2736. $GPRMC,144927.757,A,2831.4770,N,08041.0047,W,0.18,77.27,211108,,*2C
  2737. $GPGGA,144927.757,2831.4770,N,08041.0047,W,1,06,1.0,2.1,M,-31.2,M,0.0,0000*43
  2738. $GPGSA,A,3,25,19,28,13,11,03,,,,,,,2.2,1.0,1.8*3E
  2739. $GPRMC,144928.757,A,2831.4771,N,08041.0047,W,0.14,121.10,211108,,*18
  2740. $GPGGA,144928.757,2831.4771,N,08041.0047,W,1,07,1.2,2.4,M,-31.2,M,0.0,0000*4B
  2741. $GPGSA,A,3,25,19,28,07,13,11,08,,,,,,2.6,1.2,2.2*3D
  2742. $GPRMC,144929.757,A,2831.4771,N,08041.0046,W,0.17,342.36,211108,,*18
  2743. $GPGGA,144929.757,2831.4771,N,08041.0046,W,1,07,1.2,2.2,M,-31.2,M,0.0,0000*4D
  2744. $GPGSA,A,3,25,19,28,07,13,11,08,,,,,,2.6,1.2,2.2*3D
  2745. $GPRMC,144931.757,A,2831.4769,N,08041.0045,W,0.13,133.64,211108,,*1C
  2746. $GPGGA,144931.757,2831.4769,N,08041.0045,W,1,05,1.6,2.9,M,-31.2,M,0.0,0000*43
  2747. $GPGSA,A,3,25,19,28,13,11,,,,,,,,3.8,1.6,3.4*3E
  2748. $GPRMC,144932.757,A,2831.4768,N,08041.0044,W,0.08,126.91,211108,,*1B
  2749. $GPGGA,144932.757,2831.4768,N,08041.0044,W,1,05,1.6,3.7,M,-31.2,M,0.0,0000*4F
  2750. $GPGSA,A,3,25,19,28,11,03,,,,,,,,3.3,1.6,2.8*39
  2751. $GPRMC,144933.757,A,2831.4766,N,08041.0043,W,0.09,90.66,211108,,*26
  2752. $GPGGA,144933.757,2831.4766,N,08041.0043,W,1,06,1.6,4.0,M,-31.2,M,0.0,0000*44
  2753. $GPGSA,A,3,25,19,28,17,13,11,,,,,,,3.6,1.6,3.1*33
  2754. $GPRMC,144934.757,A,2831.4764,N,08041.0042,W,0.06,148.05,211108,,*1C
  2755. $GPGGA,144934.757,2831.4764,N,08041.0042,W,1,06,1.6,4.1,M,-31.2,M,0.0,0000*41
  2756. $GPGSA,A,3,25,19,28,17,13,11,,,,,,,3.6,1.6,3.1*33
  2757. $GPRMC,144936.757,A,2831.4761,N,08041.0038,W,0.10,95.68,211108,,*2B
  2758. $GPGGA,144936.757,2831.4761,N,08041.0038,W,1,05,1.6,4.5,M,-31.2,M,0.0,0000*4C
  2759. $GPGSA,A,3,25,19,28,13,11,,,,,,,,3.8,1.6,3.4*3E
  2760. $GPRMC,144937.757,A,2831.4760,N,08041.0037,W,0.08,331.02,211108,,*1C
  2761. $GPGGA,144937.757,2831.4760,N,08041.0037,W,1,05,3.0,4.6,M,-31.2,M,0.0,0000*44
  2762. $GPGSA,A,3,25,19,17,13,11,,,,,,,,4.9,3.0,3.9*3D
  2763. -31.2,M,0.0,0000*4F
  2764. $GPGSA,A,3,25,19,17,13,11,,,,,,,,4.9,3.0,3.9*3D
  2765. $GPRMC,144939.757,A,2831.4760,N,08041.0037,W,0.33,287.17,211108,,*12
  2766. $GPGGA,144939.757,2831.4760,N,08041.0037,W,1,04,4.6,3.8,M,-31.2,M,0.0,0000*43
  2767. $GPGSA,A,3,25,19,13,11,,,,,,,,,6.2,4.6,4.1*3C
  2768. $GPRMC,144941.757,A,2831.4761,N,08041.0038,W,0.19,125.49,211108,,*1B
  2769. $GPGGA,144941.757,2831.4761,N,08041.0038,W,1,06,1.6,2.1,M,-31.2,M,0.0,0000*4D
  2770. $GPGSA,A,3,25,19,28,17,13,11,,,,,,,3.6,1.6,3.1*33
  2771. $GPRMC,144942.757,A,2831.4761,N,08041.0037,W,0.18,111.36,211108,,*19
  2772. $GPGGA,144942.757,2831.4761,N,08041.0037,W,1,08,1.0,0.6,M,-31.2,M,0.0,0000*4C
  2773. $GPGSA,A,3,25,19,28,07,17,13,11,03,,,,,1.7,1.0,1.3*32
  2774. $GPRMC,144943.757,A,2831.4762,N,08041.0036,W,0.17,63.94,211108,,*29
  2775. $GPGGA,144943.757,2831.4762,N,08041.0036,W,1,07,1.0,-0.5,M,-31.2,M,0.0,0000*6E
  2776. $GPGSA,A,3,25,19,28,17,13,11,03,,,,,,2.0,1.0,1.6*34
  2777. $GPRMC,144944.756,A,2831.4764,N,08041.0036,W,0.20,310.30,211108,,*14
  2778. $GPGGA,144944.756,2831.4764,N,08041.0036,W,1,03,18.8,-1.4,M,-31.2,M,0.0,0000*5A
  2779. $GPGSA,A,2,25,19,11,,,,,,,,,,27.5,18.8,20.0*0F
  2780. $GPRMC,144946.756,A,2831.4767,N,08041.0032,W,0.09,84.21,211108,,*24
  2781. $GPGGA,144946.756,2831.4767,N,08041.0032,W,1,06,1.4,-6.6,M,-31.2,M,0.0,0000*6B
  2782. $GPGSA,A,3,25,19,28,07,13,11,,,,,,,2.8,1.4,2.3*3C
  2783. $GPRMC,144947.756,A,2831.4761,N,08041.0028,W,0.15,90.52,211108,,*24
  2784. $GPGGA,144947.756,2831.4761,N,08041.0028,W,1,06,1.4,-9.3,M,-31.2,M,0.0,0000*6D
  2785. $GPGSA,A,3,25,19,28,07,13,11,,,,,,,2.8,1.4,2.3*3C
  2786. $GPRMC,144948.756,A,2831.4757,N,08041.0027,W,0.00,154.96,211108,,*14
  2787. $GPGGA,144948.756,2831.4757,N,08041.0027,W,1,06,2.4,-10.3,M,-31.2,M,0.0,0000*53
  2788. $GPGSA,A,3,25,19,07,13,11,03,,,,,,,2.9,2.4,1.5*32
  2789. $GPRMC,144949.756,A,2831.4755,N,08041.0030,W,0.05,86.69,211108,,*2A
  2790. $GPGGA,144949.756,2831.4755,N,08041.0030,W,1,07,1.0,-9.9,M,-31.2,M,0.0,0000*62
  2791. $GPGSA,A,3,25,19,28,07,13,11,03,,,,,,1.8,1.0,1.4*3C
  2792. $GPRMC,144951.756,A,2831.4756,N,08041.0035,W,0.10,273.94,211108,,*1B
  2793. $GPGGA,144951.756,2831.4756,N,08041.0035,W,1,04,16.0,-9.1,M,-31.2,M,0.0,0000*50
  2794. $GPGSA,A,3,25,19,11,03,,,,,,,,,19.4,16.0,10.9*0D
  2795. $GPRMC,144952.756,A,2831.4762,N,08041.0042,W,0.11,310.73,211108,,*13
  2796. $GPGGA,144952.756,2831.4762,N,08041.0042,W,1,06,1.0,-7.3,M,-31.2,M,0.0,0000*6C
  2797. $GPGSA,A,3,25,19,28,13,11,03,,,,,,,2.1,1.0,1.8*3D
  2798. $GPRMC,144953.756,A,2831.4767,N,08041.0047,W,0.02,341.10,211108,,*11
  2799. $GPGGA,144953.756,2831.4767,N,08041.0047,W,1,06,1.0,-7.3,M,-31.2,M,0.0,0000*6D
  2800. $GPGSA,A,3,25,19,28,13,11,03,,,,,,,2.1,1.0,1.8*3D
  2801. $GPRMC,144954.756,A,2831.4769,N,08041.0052,W,0.04,109.72,211108,,*10
  2802. $GPGGA,144954.756,2831.4769,N,08041.0052,W,1,07,1.0,-7.1,M,-31.2,M,0.0,0000*63
  2803. $GPGSA,A,3,25,19,28,17,13,11,03,,,,,,2.0,1.0,1.6*34
  2804. $GPRMC,144956.756,A,2831.4773,N,08041.0056,W,0.49,305.78,211108,,*10
  2805. $GPGGA,144956.756,2831.4773,N,08041.0056,W,1,05,3.0,-6.2,M,-31.2,M,0.0,0000*6C
  2806. $GPGSA,A,3,25,19,17,13,11,,,,,,,,4.9,3.0,3.9*3D
  2807. $GPRMC,144957.756,A,2831.4775,N,08041.0059,W,0.21,304.44,211108,,*18
  2808. $GPGGA,144957.756,2831.4775,N,08041.0059,W,1,04,3.6,-5.7,M,-31.2,M,0.0,0000*65
  2809. $GPGSA,A,3,25,19,17,11,,,,,,,,,6.3,3.6,5.0*3E
  2810. $GPRMC,144958.756,A,2831.4778,N,08041.0062,W,0.13,252.52,211108,,*16
  2811. $GPGGA,144958.756,2831.4778,N,08041.0062,W,1,06,1.0,-5.1,M,-31.2,M,0.0,0000*6F
  2812. $GPGSA,A,3,25,19,28,13,11,03,,,,,,,2.1,1.0,1.8*3D
  2813. $GPRMC,144959.756,A,2831.4779,N,08041.0065,W,0.06,287.29,211108,,*11
  2814. $GPGGA,144959.756,2831.4779,N,08041.0065,W,1,06,1.6,-4.8,M,-31.2,M,0.0,0000*66
  2815. $GPGSA,A,3,25,19,28,17,13,11,,,,,,,3.5,1.6,3.1*30
  2816. $GPRMC,145001.755,A,2831.4784,N,08041.0069,W,0.04,274.27,211108,,*19
  2817. $GPGGA,145001.755,2831.4784,N,08041.0069,W,1,05,1.6,-3.7,M,-31.2,M,0.0,0000*65
  2818. $GPGSA,A,3,25,19,28,13,11,,,,,,,,3.7,1.6,3.3*36
  2819. $GPRMC,145002.755,A,2831.4786,N,08041.0072,W,0.17,56.20,211108,,*25
  2820. $GPGGA,145002.755,2831.4786,N,08041.0072,W,1,06,1.0,-2.9,M,-31.2,M,0.0,0000*64
  2821. $GPGSA,A,3,25,19,28,13,11,03,,,,,,,2.1,1.0,1.8*3D
  2822. $GPRMC,145003.755,A,2831.4788,N,08041.0074,W,0.07,49.69,211108,,*2E
  2823. $GPGGA,145003.755,2831.4788,N,08041.0074,W,1,06,1.0,-1.7,M,-31.2,M,0.0,0000*60
  2824. $GPGSA,A,3,25,19,28,13,11,03,,,,,,,2.1,1.0,1.8*3D
  2825. $GPRMC,145004.755,A,2831.4788,N,08041.0077,W,0.05,219.29,211108,,*1B
  2826. $GPGGA,145004.755,2831.4788,N,08041.0077,W,1,07,1.0,-0.7,M,-31.2,M,0.0,0000*64
  2827. $GPGSA,A,3,25,19,28,13,11,08,03,,,,,,1.9,1.0,1.6*30
  2828. $GPRMC,145006.755,A,2831.4785,N,08041.0078,W,0.08,103.08,211108,,*1D
  2829. $GPGGA,145006.755,2831.4785,N,08041.0078,W,1,07,1.0,1.1,M,-31.2,M,0.0,0000*4E
  2830. $GPGSA,A,3,25,19,28,17,11,08,03,,,,,,1.9,1.0,1.5*37
  2831. $GPRMC,145007.755,A,2831.4782,N,08041.0079,W,0.05,88.61,211108,,*2A
  2832. $GPGGA,145007.755,2831.4782,N,08041.0079,W,1,07,1.0,2.2,M,-31.2,M,0.0,0000*49
  2833. $GPGSA,A,3,25,19,28,17,13,11,03,,,,,,2.0,1.0,1.6*34
  2834. $GPRMC,145008.755,A,2831.4779,N,08041.0080,W,0.13,145.22,211108,,*17
  2835. $GPGGA,145008.755,2831.4779,N,08041.0080,W,1,06,1.0,3.4,M,-31.2,M,0.0,0000*42
  2836. $GPGSA,A,3,25,19,28,13,11,03,,,,,,,2.1,1.0,1.8*3D
  2837. $GPRMC,145009.755,A,2831.4775,N,08041.0079,W,0.33,106.89,211108,,*18
  2838. $GPGGA,145009.755,2831.4775,N,08041.0079,W,1,08,0.8,4.2,M,-31.2,M,0.0,0000*4F
  2839. $GPGSA,A,3,25,19,28,17,13,11,08,03,,,,,1.7,0.8,1.5*32
  2840. $GPRMC,145011.755,A,2831.4770,N,08041.0080,W,0.35,313.79,211108,,*1D
  2841. $GPGGA,145011.755,2831.4770,N,08041.0080,W,1,07,1.4,5.7,M,-31.2,M,0.0,0000*43
  2842. $GPGSA,A,3,25,19,28,17,13,11,08,,,,,,3.0,1.4,2.7*38
  2843. $GPRMC,145012.755,A,2831.4766,N,08041.0080,W,0.25,101.41,211108,,*12
  2844. $GPGGA,145012.755,2831.4766,N,08041.0080,W,1,08,1.2,6.0,M,-31.2,M,0.0,0000*4A
  2845. $GPGSA,A,3,25,19,28,07,17,13,11,08,,,,,2.5,1.2,2.1*3B
  2846. $GPRMC,145013.755,A,2831.4760,N,08041.0080,W,0.15,186.59,211108,,*10
  2847. $GPGGA,145013.755,2831.4760,N,08041.0080,W,1,07,1.4,6.0,M,-31.2,M,0.0,0000*44
  2848. $GPGSA,A,3,25,19,28,17,13,11,08,,,,,,3.0,1.4,2.7*38
  2849. $GPRMC,145014.755,A,2831.4755,N,08041.0080,W,0.10,173.38,211108,,*19
  2850. $GPGGA,145014.755,2831.4755,N,08041.0080,W,1,07,1.4,5.9,M,-31.2,M,0.0,0000*4F
  2851. $GPGSA,A,3,25,19,28,17,13,11,08,,,,,,3.0,1.4,2.7*38
  2852. $GPRMC,145016.755,A,2831.4748,N,08041.0083,W,0.02,223.29,211108,,*11
  2853. $GPGGA,145016.755,2831.4748,N,08041.0083,W,1,06,1.6,6.6,M,-31.2,M,0.0,0000*4D
  2854. $GPGSA,A,3,25,19,28,17,13,11,,,,,,,3.5,1.6,3.1*30
  2855. $GPRMC,145017.755,A,2831.4745,N,08041.0084,W,0.16,123.90,211108,,*1E
  2856. $GPGGA,145017.755,2831.4745,N,08041.0084,W,1,08,0.8,7.3,M,-31.2,M,0.0,0000*43
  2857. $GPGSA,A,3,25,19,28,17,13,11,08,03,,,,,1.7,0.8,1.4*33
  2858. $GPRMC,145018.754,A,2831.4743,N,08041.0085,W,0.09,120.27,211108,,*16
  2859. $GPGGA,145018.754,2831.4743,N,08041.0085,W,1,07,0.8,7.9,M,-31.2,M,0.0,0000*4F
  2860. $GPGSA,A,3,25,28,17,13,11,08,03,,,,,,1.8,0.8,1.5*35
  2861. $GPRMC,145019.754,A,2831.4742,N,08041.0086,W,0.07,46.59,211108,,*23
  2862. $GPGGA,145019.754,2831.4742,N,08041.0086,W,1,08,0.8,8.5,M,-31.2,M,0.0,0000*40
  2863. $GPGSA,A,3,25,19,28,17,13,11,08,03,,,,,1.7,0.8,1.4*33
  2864. $GPRMC,145021.754,A,2831.4741,N,08041.0087,W,0.04,138.53,211108,,*1B
  2865. $GPGGA,145021.754,2831.4741,N,08041.0087,W,1,08,1.0,8.5,M,-31.2,M,0.0,0000*40
  2866. $GPGSA,A,3,25,19,07,17,13,11,08,03,,,,,1.7,1.0,1.2*31
  2867. $GPRMC,145022.754,A,2831.4742,N,08041.0087,W,0.08,328.49,211108,,*1F
  2868. $GPGGA,145022.754,2831.4742,N,08041.0087,W,1,09,0.8,7.3,M,-31.2,M,0.0,0000*41
  2869. $GPGSA,A,3,25,19,28,07,17,13,11,08,03,,,,1.6,0.8,1.2*33
  2870. $GPRMC,145023.754,A,2831.4744,N,08041.0086,W,0.03,104.60,211108,,*15
  2871. $GPGGA,145023.754,2831.4744,N,08041.0086,W,1,09,0.8,6.0,M,-31.2,M,0.0,0000*45
  2872. $GPGSA,A,3,25,19,28,07,17,13,11,08,03,,,,1.6,0.8,1.2*33
  2873. $GPRMC,145024.754,A,2831.4745,N,08041.0085,W,0.07,130.70,211108,,*12
  2874. $GPGGA,145024.754,2831.4745,N,08041.0085,W,1,09,0.8,4.5,M,-31.2,M,0.0,0000*47
  2875. $GPGSA,A,3,25,19,28,07,17,13,11,08,03,,,,1.6,0.8,1.2*33
  2876. $GPRMC,145026.754,A,2831.4749,N,08041.0084,W,0.04,143.76,211108,,*1C
  2877. $GPGGA,145026.754,2831.4749,N,08041.0084,W,1,07,1.0,1.6,M,-31.2,M,0.0,0000*49
  2878. $GPGSA,A,3,25,19,28,17,13,11,03,,,,,,2.0,1.0,1.6*34
  2879. $GPRMC,145027.754,A,2831.4750,N,08041.0085,W,0.09,225.84,211108,,*17
  2880. $GPGGA,145027.754,2831.4750,N,08041.0085,W,1,05,4.8,0.8,M,-31.2,M,0.0,0000*41
  2881. $GPGSA,A,3,25,28,17,13,11,,,,,,,,9.1,4.8,7.6*3E
  2882. $GPRMC,145028.754,A,2831.4753,N,08041.0086,W,0.11,334.44,211108,,*1C
  2883. $GPGGA,145028.754,2831.4753,N,08041.0086,W,1,05,2.8,-0.3,M,-31.2,M,0.0,0000*6E
  2884. $GPGSA,A,3,25,17,13,11,03,,,,,,,,3.6,2.8,2.3*3C
  2885. $GPRMC,145029.754,A,2831.4754,N,08041.0086,W,0.16,311.39,211108,,*10
  2886. $GPGGA,145029.754,2831.4754,N,08041.0086,W,1,05,2.8,-1.1,M,-31.2,M,0.0,0000*6B
  2887. $GPGSA,A,3,25,17,13,11,03,,,,,,,,3.6,2.8,2.3*3C
  2888. $GPRMC,145031.754,A,2831.4756,N,08041.0090,W,0.04,264.43,211108,,*11
  2889. $GPGGA,145031.754,2831.4756,N,08041.0090,W,1,07,1.0,-2.4,M,-31.2,M,0.0,0000*68
  2890. $GPGSA,A,3,25,19,17,13,11,08,03,,,,,,1.9,1.0,1.4*3E
  2891. $GPRMC,145032.754,A,2831.4757,N,08041.0092,W,0.11,309.08,211108,,*10
  2892. $GPGGA,145032.754,2831.4757,N,08041.0092,W,1,06,2.0,-2.7,M,-31.2,M,0.0,0000*69
  2893. $GPGSA,A,3,25,19,17,13,11,03,,,,,,,2.7,2.0,1.8*34
  2894. $GPRMC,145033.754,A,2831.4758,N,08041.0094,W,0.38,10.61,211108,,*27
  2895. $GPGGA,145033.754,2831.4758,N,08041.0094,W,1,07,1.0,-2.6,M,-31.2,M,0.0,0000*62
  2896. $GPGSA,A,3,25,19,28,17,13,11,03,,,,,,2.0,1.0,1.6*34
  2897. $GPRMC,145034.754,A,2831.4758,N,08041.0095,W,0.05,57.55,211108,,*2B
  2898. $GPGGA,145034.754,2831.4758,N,08041.0095,W,1,08,1.0,-2.3,M,-31.2,M,0.0,0000*6E
  2899. $GPGSA,A,3,25,19,28,07,17,11,08,03,,,,,1.7,1.0,1.3*38
  2900. $GPRMC,145036.753,A,2831.4756,N,08041.0092,W,0.08,95.91,211108,,*2C
  2901. $GPGGA,145036.753,2831.4756,N,08041.0092,W,1,08,1.0,-4.3,M,-31.2,M,0.0,0000*64
  2902. $GPGSA,A,3,25,19,28,07,17,11,08,03,,,,,1.7,1.0,1.3*38
  2903. $GPRMC,145037.753,A,2831.4755,N,08041.0089,W,0.09,122.84,211108,,*1C
  2904. $GPGGA,145037.753,2831.4755,N,08041.0089,W,1,09,0.8,-6.0,M,-31.2,M,0.0,0000*65
  2905. $GPGSA,A,3,25,19,28,07,17,13,11,08,03,,,,1.6,0.8,1.2*33
  2906. $GPRMC,145038.753,A,2831.4753,N,08041.0086,W,0.10,155.22,211108,,*1E
  2907. $GPGGA,145038.753,2831.4753,N,08041.0086,W,1,09,0.8,-7.6,M,-31.2,M,0.0,0000*64
  2908. $GPGSA,A,3,25,19,28,07,17,13,11,08,03,,,,1.6,0.8,1.2*33
  2909. $GPRMC,145039.753,A,2831.4751,N,08041.0082,W,0.09,123.17,211108,,*16
  2910. $GPGGA,145039.753,2831.4751,N,08041.0082,W,1,07,1.0,-8.2,M,-31.2,M,0.0,0000*6F
  2911. $GPGSA,A,3,25,19,28,17,11,08,03,,,,,,1.9,1.0,1.5*37
  2912. $GPRMC,145041.753,A,2831.4746,N,08041.0076,W,0.06,153.13,211108,,*18
  2913. $GPGGA,145041.753,2831.4746,N,08041.0076,W,1,06,4.8,-8.0,M,-31.2,M,0.0,0000*63
  2914. $GPGSA,A,3,25,28,17,13,11,08,,,,,,,9.0,4.8,7.6*37
  2915. $GPRMC,145042.753,A,2831.4740,N,08041.0068,W,0.20,151.83,211108,,*1D
  2916. $GPGGA,145042.753,2831.4740,N,08041.0068,W,1,08,0.8,-7.6,M,-31.2,M,0.0,0000*6A
  2917. $GPGSA,A,3,25,19,28,17,13,11,08,03,,,,,1.7,0.8,1.4*33
  2918. $GPRMC,145043.753,A,2831.4738,N,08041.0066,W,0.28,210.05,211108,,*1D
  2919. $GPGGA,145043.753,2831.4738,N,08041.0066,W,1,07,1.4,-7.3,M,-31.2,M,0.0,0000*6D
  2920. $GPGSA,A,3,25,19,28,17,13,11,08,,,,,,3.0,1.4,2.6*39
  2921. $GPRMC,145044.753,A,2831.4738,N,08041.0067,W,0.05,245.27,211108,,*14
  2922. $GPGGA,145044.753,2831.4738,N,08041.0067,W,1,08,0.8,-6.5,M,-31.2,M,0.0,0000*6E
  2923. $GPGSA,A,3,25,19,28,17,13,11,08,03,,,,,1.7,0.8,1.4*33
  2924. $GPRMC,145046.753,A,2831.4740,N,08041.0072,W,0.13,211.11,211108,,*1E
  2925. $GPGGA,145046.753,2831.4740,N,08041.0072,W,1,08,0.8,-4.7,M,-31.2,M,0.0,0000*67
  2926. $GPGSA,A,3,25,19,28,17,13,11,08,03,,,,,1.7,0.8,1.4*33
  2927. $GPRMC,145047.753,A,2831.4742,N,08041.0075,W,0.02,180.18,211108,,*18
  2928. $GPGGA,145047.753,2831.4742,N,08041.0075,W,1,07,1.4,-3.6,M,-31.2,M,0.0,0000*67
  2929. $GPGSA,A,3,25,19,28,17,13,11,08,,,,,,3.0,1.4,2.6*39
  2930. $GPRMC,145048.753,A,2831.4744,N,08041.0079,W,0.15,198.46,211108,,*19
  2931. $GPGGA,145048.753,2831.4744,N,08041.0079,W,1,07,1.4,-2.4,M,-31.2,M,0.0,0000*61
  2932. $GPGSA,A,3,25,19,28,17,13,11,08,,,,,,3.0,1.4,2.6*39
  2933. $GPRMC,145049.753,A,2831.4746,N,08041.0081,W,0.04,129.41,211108,,*10
  2934. $GPGGA,145049.753,2831.4746,N,08041.0081,W,1,06,1.6,-0.9,M,-31.2,M,0.0,0000*69
  2935. $GPGSA,A,3,25,19,28,17,13,11,,,,,,,3.5,1.6,3.1*30
  2936. $GPRMC,145051.753,A,2831.4747,N,08041.0085,W,0.19,195.69,211108,,*1D
  2937. $GPGGA,145051.753,2831.4747,N,08041.0085,W,1,07,1.4,2.9,M,-31.2,M,0.0,0000*49
  2938. $GPGSA,A,3,25,19,28,17,13,11,08,,,,,,3.0,1.4,2.6*39
  2939. $GPRMC,145052.752,A,2831.4747,N,08041.0087,W,0.05,71.09,211108,,*2D
  2940. $GPGGA,145052.752,2831.4747,N,08041.0087,W,1,06,1.6,4.7,M,-31.2,M,0.0,0000*42
  2941. $GPGSA,A,3,25,19,28,17,13,11,,,,,,,3.5,1.6,3.1*30
  2942. $GPRMC,145053.752,A,2831.4746,N,08041.0088,W,0.11,239.59,211108,,*1C
  2943. $GPGGA,145053.752,2831.4746,N,08041.0088,W,1,07,1.4,6.4,M,-31.2,M,0.0,0000*4F
  2944. $GPGSA,A,3,25,19,28,17,13,11,08,,,,,,3.0,1.4,2.6*39
  2945. $GPRMC,145054.752,A,2831.4745,N,08041.0089,W,0.04,140.29,211108,,*17
  2946. $GPGGA,145054.752,2831.4745,N,08041.0089,W,1,07,1.4,7.8,M,-31.2,M,0.0,0000*47
  2947. $GPGSA,A,3,25,19,28,17,13,11,08,,,,,,3.0,1.4,2.6*39
  2948. $GPRMC,145056.752,A,2831.4743,N,08041.0090,W,0.08,155.64,211108,,*1A
  2949. $GPGGA,145056.752,2831.4743,N,08041.0090,W,1,08,0.8,10.5,M,-31.2,M,0.0,0000*72
  2950. $GPGSA,A,3,25,19,28,17,13,11,08,03,,,,,1.7,0.8,1.4*33
  2951. $GPRMC,145057.752,A,2831.4742,N,08041.0091,W,0.07,56.47,211108,,*27
  2952. $GPGGA,145057.752,2831.4742,N,08041.0091,W,1,07,1.0,11.5,M,-31.2,M,0.0,0000*74
  2953. $GPGSA,A,3,25,19,28,17,13,11,03,,,,,,2.0,1.0,1.6*34
  2954. $GPRMC,145058.752,A,2831.4741,N,08041.0090,W,0.13,107.79,211108,,*17
  2955. $GPGGA,145058.752,2831.4741,N,08041.0090,W,1,09,0.8,11.3,M,-31.2,M,0.0,0000*78
  2956. $GPGSA,A,3,25,19,28,07,17,13,11,08,03,,,,1.6,0.8,1.2*33
  2957. $GPRMC,145059.752,A,2831.4740,N,08041.0089,W,0.04,3.41,211108,,*17
  2958. $GPGGA,145059.752,2831.4740,N,08041.0089,W,1,06,1.0,11.0,M,-31.2,M,0.0,0000*75
  2959. $GPGSA,A,3,25,19,28,13,11,03,,,,,,,2.1,1.0,1.8*3D
  2960. $GPRMC,145101.752,A,2831.4739,N,08041.0087,W,0.04,162.49,211108,,*15
  2961. $GPGGA,145101.752,2831.4739,N,08041.0087,W,1,07,1.0,8.5,M,-31.2,M,0.0,0000*45
  2962. $GPGSA,A,3,25,19,28,17,13,11,03,,,,,,2.0,1.0,1.6*34
  2963. $GPRMC,145102.752,A,2831.4739,N,08041.0088,W,0.03,358.54,211108,,*19
  2964. $GPGGA,145102.752,2831.4739,N,08041.0088,W,1,05,1.6,7.7,M,-31.2,M,0.0,0000*40
  2965. $GPGSA,A,3,25,19,28,13,11,,,,,,,,3.7,1.6,3.3*36
  2966. $GPRMC,145103.752,A,2831.4740,N,08041.0088,W,0.07,118.27,211108,,*10
  2967. $GPGGA,145103.752,2831.4740,N,08041.0088,W,1,06,1.6,7.1,M,-31.2,M,0.0,0000*4A
  2968. $GPGSA,A,3,25,19,28,17,13,11,,,,,,,3.5,1.6,3.1*30
  2969. $GPRMC,145104.752,A,2831.4741,N,08041.0090,W,0.16,88.25,211108,,*25
  2970. $GPGGA,145104.752,2831.4741,N,08041.0090,W,1,08,0.8,6.6,M,-31.2,M,0.0,0000*42
  2971. $GPGSA,A,3,25,19,28,17,13,11,08,03,,,,,1.7,0.8,1.4*33
  2972. $GPRMC,145106.752,A,2831.4744,N,08041.0095,W,0.11,305.67,211108,,*10
  2973. $GPGGA,145106.752,2831.4744,N,08041.0095,W,1,07,1.4,6.7,M,-31.2,M,0.0,0000*43
  2974. $GPGSA,A,3,25,19,28,17,13,11,08,,,,,,3.0,1.4,2.6*39
  2975. $GPRMC,145107.752,A,2831.4748,N,08041.0100,W,0.12,294.88,211108,,*1B
  2976. $GPGGA,145107.752,2831.4748,N,08041.0100,W,1,08,0.8,7.1,M,-31.2,M,0.0,0000*46
  2977. $GPGSA,A,3,25,19,28,17,13,11,08,03,,,,,1.7,0.8,1.4*33
  2978. $GPRMC,145108.752,A,2831.4750,N,08041.0104,W,0.07,102.68,211108,,*1F
  2979. $GPGGA,145108.752,2831.4750,N,08041.0104,W,1,08,0.8,8.0,M,-31.2,M,0.0,0000*4A
  2980. $GPGSA,A,3,25,19,28,17,13,11,08,03,,,,,1.7,0.8,1.4*33
  2981. $GPRMC,145109.751,A,2831.4752,N,08041.0108,W,0.09,132.30,211108,,*13
  2982. $GPGGA,145109.751,2831.4752,N,08041.0108,W,1,07,1.0,9.3,M,-31.2,M,0.0,0000*42
  2983. $GPGSA,A,3,25,19,28,17,13,11,03,,,,,,2.0,1.0,1.6*34
  2984. $GPRMC,145111.751,A,2831.4754,N,08041.0116,W,0.15,204.77,211108,,*1B
  2985. $GPGGA,145111.751,2831.4754,N,08041.0116,W,1,07,1.0,13.3,M,-31.2,M,0.0,0000*79
  2986. $GPGSA,A,3,25,19,28,17,13,11,03,,,,,,2.0,1.0,1.6*34
  2987. $GPRMC,145112.751,A,2831.4755,N,08041.0120,W,0.01,50.33,211108,,*2A
  2988. $GPGGA,145112.751,2831.4755,N,08041.0120,W,1,07,1.0,15.3,M,-31.2,M,0.0,0000*78
  2989. $GPGSA,A,3,25,19,28,17,13,11,03,,,,,,2.0,1.0,1.6*34
  2990. $GPRMC,145113.751,A,2831.4756,N,08041.0124,W,0.07,110.91,211108,,*17
  2991. $GPGGA,145113.751,2831.4756,N,08041.0124,W,1,07,1.0,16.9,M,-31.2,M,0.0,0000*77
  2992. $GPGSA,A,3,25,19,28,17,13,11,03,,,,,,2.0,1.0,1.6*34
  2993. $GPRMC,145114.751,A,2831.4757,N,08041.0127,W,0.06,111.26,211108,,*1E
  2994. $GPGGA,145114.751,2831.4757,N,08041.0127,W,1,07,1.0,18.2,M,-31.2,M,0.0,0000*77
  2995. $GPGSA,A,3,25,19,28,17,13,11,03,,,,,,2.0,1.0,1.6*34
  2996. $GPRMC,145116.751,A,2831.4760,N,08041.0135,W,0.42,341.43,211108,,*1F
  2997. $GPGGA,145116.751,2831.4760,N,08041.0135,W,1,07,1.0,19.8,M,-31.2,M,0.0,0000*79
  2998. $GPGSA,A,3,25,19,28,17,11,08,03,,,,,,1.9,1.0,1.5*37
  2999. $GPRMC,145117.751,A,2831.4762,N,08041.0138,W,0.39,324.90,211108,,*10
  3000. $GPGGA,145117.751,2831.4762,N,08041.0138,W,1,07,1.4,20.2,M,-31.2,M,0.0,0000*73
  3001. $GPGSA,A,3,25,19,28,17,13,11,08,,,,,,3.0,1.4,2.6*39
  3002. $GPRMC,145118.751,A,2831.4765,N,08041.0140,W,0.22,357.76,211108,,*11
  3003. $GPGGA,145118.751,2831.4765,N,08041.0140,W,1,08,0.8,20.2,M,-31.2,M,0.0,0000*76
  3004. $GPGSA,A,3,25,19,28,17,13,11,08,03,,,,,1.7,0.8,1.4*33
  3005. $GPRMC,145119.751,A,2831.4766,N,08041.0140,W,0.01,166.24,211108,,*15
  3006. $GPGGA,145119.751,2831.4766,N,08041.0140,W,1,07,1.0,19.7,M,-31.2,M,0.0,0000*7D
  3007. $GPGSA,A,3,25,19,28,17,11,08,03,,,,,,1.9,1.0,1.5*37
  3008. $GPRMC,145121.751,A,2831.4768,N,08041.0133,W,0.19,106.41,211108,,*18
  3009. $GPGGA,145121.751,2831.4768,N,08041.0133,W,1,09,0.8,17.9,M,-31.2,M,0.0,0000*7B
  3010. $GPGSA,A,3,25,19,28,07,17,13,11,08,03,,,,1.6,0.8,1.2*33
  3011. $GPRMC,145122.751,A,2831.4769,N,08041.0128,W,0.18,127.00,211108,,*17
  3012. $GPGGA,145122.751,2831.4769,N,08041.0128,W,1,09,0.8,16.2,M,-31.2,M,0.0,0000*79
  3013. $GPGSA,A,3,25,19,28,07,17,13,11,08,03,,,,1.6,0.8,1.2*33
  3014. $GPRMC,145123.751,A,2831.4768,N,08041.0123,W,0.08,188.75,211108,,*1A
  3015. $GPGGA,145123.751,2831.4768,N,08041.0123,W,1,09,0.8,13.6,M,-31.2,M,0.0,0000*73
  3016. $GPGSA,A,3,25,19,28,07,17,13,11,08,03,,,,1.6,0.8,1.2*33
  3017. $GPRMC,145124.751,A,2831.4769,N,08041.0117,W,0.03,67.81,211108,,*2B
  3018. $GPGGA,145124.751,2831.4769,N,08041.0117,W,1,07,1.4,11.9,M,-31.2,M,0.0,0000*7C
  3019. $GPGSA,A,3,25,19,28,17,13,11,08,,,,,,3.0,1.4,2.6*39
  3020. $GPRMC,145126.750,A,2831.4768,N,08041.0109,W,0.04,73.53,211108,,*2B
  3021. $GPGGA,145126.750,2831.4768,N,08041.0109,W,1,06,1.0,10.1,M,-31.2,M,0.0,0000*7D
  3022. $GPGSA,A,3,25,28,17,11,08,03,,,,,,,1.9,1.0,1.5*3F
  3023. $GPRMC,145127.750,A,2831.4767,N,08041.0106,W,0.10,112.04,211108,,*1B
  3024. $GPGGA,145127.750,2831.4767,N,08041.0106,W,1,06,3.6,9.1,M,-31.2,M,0.0,0000*40
  3025. $GPGSA,A,3,25,28,07,17,11,08,,,,,,,6.2,3.6,5.0*32
  3026. $GPRMC,145128.750,A,2831.4766,N,08041.0103,W,0.04,133.62,211108,,*16
  3027. $GPGGA,145128.750,2831.4766,N,08041.0103,W,1,07,3.6,8.3,M,-31.2,M,0.0,0000*49
  3028. $GPGSA,A,3,25,28,07,17,13,11,08,,,,,,6.2,3.6,5.0*30
  3029. $GPRMC,145129.750,A,2831.4764,N,08041.0101,W,0.09,104.28,211108,,*10
  3030. $GPGGA,145129.750,2831.4764,N,08041.0101,W,1,06,4.8,8.2,M,-31.2,M,0.0,0000*41
  3031. $GPGSA,A,3,25,28,17,13,11,08,,,,,,,9.0,4.8,7.5*34
  3032. $GPRMC,145131.750,A,2831.4761,N,08041.0097,W,0.03,191.78,211108,,*11
  3033. $GPGGA,145131.750,2831.4761,N,08041.0097,W,1,06,4.8,10.1,M,-31.2,M,0.0,0000*79
  3034. $GPGSA,A,3,25,28,17,13,11,08,,,,,,,9.0,4.8,7.5*34
  3035. $GPRMC,145132.750,A,2831.4761,N,08041.0096,W,0.09,157.60,211108,,*1A
  3036. $GPGGA,145132.750,2831.4761,N,08041.0096,W,1,06,4.8,11.1,M,-31.2,M,0.0,0000*7A
  3037. $GPGSA,A,3,25,28,17,13,11,08,,,,,,,9.0,4.8,7.5*34
  3038. $GPRMC,145133.750,A,2831.4761,N,08041.0095,W,0.12,181.19,211108,,*17
  3039. $GPGGA,145133.750,2831.4761,N,08041.0095,W,1,07,1.4,12.4,M,-31.2,M,0.0,0000*76
  3040. $GPGSA,A,3,25,19,28,17,13,11,08,,,,,,3.0,1.4,2.6*39
  3041. $GPRMC,145134.750,A,2831.4761,N,08041.0094,W,0.05,159.71,211108,,*1C
  3042. $GPGGA,145134.750,2831.4761,N,08041.0094,W,1,07,1.0,12.7,M,-31.2,M,0.0,0000*77
  3043. $GPGSA,A,3,25,19,28,17,13,11,03,,,,,,2.0,1.0,1.6*34
  3044. $GPRMC,145136.750,A,2831.4761,N,08041.0092,W,0.11,97.58,211108,,*25
  3045. $GPGGA,145136.750,2831.4761,N,08041.0092,W,1,07,1.0,12.6,M,-31.2,M,0.0,0000*72
  3046. $GPGSA,A,3,25,19,28,17,13,11,03,,,,,,2.0,1.0,1.6*34
  3047. $GPRMC,145137.750,A,2831.4762,N,08041.0091,W,0.12,90.31,211108,,*2F
  3048. $GPGGA,145137.750,2831.4762,N,08041.0091,W,1,05,2.8,12.3,M,-31.2,M,0.0,0000*7F
  3049. $GPGSA,A,3,25,19,17,13,11,,,,,,,,4.8,2.8,3.8*34
  3050. $GPRMC,145138.750,A,2831.4764,N,08041.0088,W,0.13,71.45,211108,,*23
  3051. $GPGGA,145138.750,2831.4764,N,08041.0088,W,1,08,0.8,11.3,M,-31.2,M,0.0,0000*72
  3052. $GPGSA,A,3,25,19,28,17,13,11,08,03,,,,,1.7,0.8,1.4*33
  3053. $GPRMC,145139.750,A,2831.4765,N,08041.0086,W,0.13,81.52,211108,,*24
  3054. $GPGGA,145139.750,2831.4765,N,08041.0086,W,1,07,1.0,10.4,M,-31.2,M,0.0,0000*7C
  3055. $GPGSA,A,3,25,19,28,17,13,11,03,,,,,,2.0,1.0,1.6*34
  3056. $GPRMC,145141.750,A,2831.4770,N,08041.0084,W,0.24,344.55,211108,,*14
  3057. $GPGGA,145141.750,2831.4770,N,08041.0084,W,1,09,0.8,8.3,M,-31.2,M,0.0,0000*4C
  3058. $GPGSA,A,3,25,19,28,07,17,13,11,08,03,,,,1.6,0.8,1.2*33
  3059. $GPRMC,145142.750,A,2831.4772,N,08041.0083,W,0.10,271.94,211108,,*1F
  3060. $GPGGA,145142.750,2831.4772,N,08041.0083,W,1,06,2.0,7.0,M,-31.2,M,0.0,0000*43
  3061. $GPGSA,A,3,25,19,17,13,11,03,,,,,,,2.7,2.0,1.8*34
  3062. $GPRMC,145143.750,A,2831.4772,N,08041.0081,W,0.29,80.77,211108,,*27
  3063. $GPGGA,145143.750,2831.4772,N,08041.0081,W,1,08,0.8,5.9,M,-31.2,M,0.0,0000*4F
  3064. $GPGSA,A,3,25,19,28,17,13,11,08,03,,,,,1.7,0.8,1.4*33
  3065. $GPRMC,145144.749,A,2831.4772,N,08041.0080,W,0.14,135.23,211108,,*19
  3066. $GPGGA,145144.749,2831.4772,N,08041.0080,W,1,07,0.8,4.8,M,-31.2,M,0.0,0000*4E
  3067. $GPGSA,A,3,25,28,17,13,11,08,03,,,,,,1.8,0.8,1.5*35
  3068. $GPRMC,145146.749,A,2831.4772,N,08041.0080,W,0.19,327.77,211108,,*16
  3069. $GPGGA,145146.749,2831.4772,N,08041.0080,W,1,06,1.0,3.3,M,-31.2,M,0.0,0000*48
  3070. $GPGSA,A,3,25,17,13,11,08,03,,,,,,,1.9,1.0,1.5*37
  3071. $GPRMC,145147.749,A,2831.4773,N,08041.0080,W,0.20,336.45,211108,,*1D
  3072. $GPGGA,145147.749,2831.4773,N,08041.0080,W,1,07,0.8,2.9,M,-31.2,M,0.0,0000*4B
  3073. $GPGSA,A,3,25,28,17,13,11,08,03,,,,,,1.8,0.8,1.5*35
  3074. $GPRMC,145148.749,A,2831.4773,N,08041.0080,W,0.09,81.79,211108,,*29
  3075. $GPGGA,145148.749,2831.4773,N,08041.0080,W,1,07,0.8,2.9,M,-31.2,M,0.0,0000*44
  3076. $GPGSA,A,3,25,28,17,13,11,08,03,,,,,,1.8,0.8,1.5*35
  3077. $GPRMC,145149.749,A,2831.4774,N,08041.0080,W,0.18,108.17,211108,,*17
  3078. $GPGGA,145149.749,2831.4774,N,08041.0080,W,1,07,0.8,2.8,M,-31.2,M,0.0,0000*43
  3079. $GPGSA,A,3,25,28,17,13,11,08,03,,,,,,1.8,0.8,1.5*35
  3080. $GPRMC,145151.749,A,2831.4774,N,08041.0081,W,0.04,182.90,211108,,*1F
  3081. $GPGGA,145151.749,2831.4774,N,08041.0081,W,1,07,0.8,2.7,M,-31.2,M,0.0,0000*44
  3082. $GPGSA,A,3,25,28,17,13,11,08,03,,,,,,1.8,0.8,1.5*35
  3083. $GPRMC,145152.749,A,2831.4773,N,08041.0082,W,0.09,118.44,211108,,*1F
  3084. $GPGGA,145152.749,2831.4773,N,08041.0082,W,1,07,0.8,3.3,M,-31.2,M,0.0,0000*46
  3085. $GPGSA,A,3,25,28,17,13,11,08,03,,,,,,1.8,0.8,1.5*35
  3086. $GPRMC,145153.749,A,2831.4771,N,08041.0082,W,0.03,133.26,211108,,*1B
  3087. $GPGGA,145153.749,2831.4771,N,08041.0082,W,1,06,1.0,3.7,M,-31.2,M,0.0,0000*49
  3088. $GPGSA,A,3,25,28,17,13,11,03,,,,,,,2.1,1.0,1.7*3C
  3089. $GPRMC,145154.749,A,2831.4769,N,08041.0082,W,0.07,90.77,211108,,*2D
  3090. $GPGGA,145154.749,2831.4769,N,08041.0082,W,1,07,1.0,3.3,M,-31.2,M,0.0,0000*42
  3091. $GPGSA,A,3,25,28,07,17,13,11,03,,,,,,1.7,1.0,1.3*3A
  3092. $GPRMC,145156.749,A,2831.4766,N,08041.0082,W,0.05,226.90,211108,,*14
  3093. $GPGGA,145156.749,2831.4766,N,08041.0082,W,1,07,0.8,2.5,M,-31.2,M,0.0,0000*41
  3094. $GPGSA,A,3,25,28,17,13,11,08,03,,,,,,1.8,0.8,1.5*35
  3095. $GPRMC,145157.749,A,2831.4767,N,08041.0082,W,0.12,105.10,211108,,*18
  3096. $GPGGA,145157.749,2831.4767,N,08041.0082,W,1,07,1.4,2.2,M,-31.2,M,0.0,0000*4B
  3097. $GPGSA,A,3,25,19,28,17,13,11,08,,,,,,3.0,1.4,2.6*39
  3098. $GPRMC,145158.749,A,2831.4767,N,08041.0080,W,0.21,64.46,211108,,*20
  3099. $GPGGA,145158.749,2831.4767,N,08041.0080,W,1,07,1.0,1.6,M,-31.2,M,0.0,0000*45
  3100. $GPGSA,A,3,25,19,28,17,13,11,03,,,,,,2.0,1.0,1.6*34
  3101. $GPRMC,145159.749,A,2831.4766,N,08041.0079,W,0.08,95.56,211108,,*22
  3102. $GPGGA,145159.749,2831.4766,N,08041.0079,W,1,09,0.8,1.9,M,-31.2,M,0.0,0000*4B
  3103. $GPGSA,A,3,25,19,28,07,17,13,11,08,03,,,,1.6,0.8,1.2*33
  3104. $GPRMC,145201.748,A,2831.4761,N,08041.0084,W,0.01,256.90,211108,,*16
  3105. $GPGGA,145201.748,2831.4761,N,08041.0084,W,1,09,0.8,3.7,M,-31.2,M,0.0,0000*4D
  3106. $GPGSA,A,3,25,19,28,07,17,13,11,08,03,,,,1.6,0.8,1.2*33
  3107. $GPRMC,145202.748,A,2831.4758,N,08041.0085,W,0.11,113.29,211108,,*1F
  3108. $GPGGA,145202.748,2831.4758,N,08041.0085,W,1,09,0.8,4.6,M,-31.2,M,0.0,0000*43
  3109. $GPGSA,A,3,25,19,28,07,17,13,11,08,03,,,,1.6,0.8,1.2*33
  3110. $GPRMC,145203.748,A,2831.4755,N,08041.0085,W,0.10,110.44,211108,,*1A
  3111. $GPGGA,145203.748,2831.4755,N,08041.0085,W,1,09,0.8,5.4,M,-31.2,M,0.0,0000*4C
  3112. $GPGSA,A,3,25,19,28,07,17,13,11,08,03,,,,1.6,0.8,1.2*33
  3113. $GPRMC,145204.748,A,2831.4751,N,08041.0084,W,0.13,127.37,211108,,*1B
  3114. $GPGGA,145204.748,2831.4751,N,08041.0084,W,1,08,0.8,6.5,M,-31.2,M,0.0,0000*4D
  3115. $GPGSA,A,3,25,28,07,17,13,11,08,03,,,,,1.6,0.8,1.2*3B
  3116. $GPRMC,145206.748,A,2831.4747,N,08041.0085,W,0.12,64.04,211108,,*28
  3117. $GPGGA,145206.748,2831.4747,N,08041.0085,W,1,06,1.0,7.8,M,-31.2,M,0.0,0000*42
  3118. $GPGSA,A,3,25,28,17,13,11,03,,,,,,,2.1,1.0,1.7*3C
  3119. $GPRMC,145207.748,A,2831.4746,N,08041.0086,W,0.04,176.40,211108,,*1E
  3120. $GPGGA,145207.748,2831.4746,N,08041.0086,W,1,06,1.0,8.1,M,-31.2,M,0.0,0000*47
  3121. $GPGSA,A,3,28,17,13,11,08,03,,,,,,,2.0,1.0,1.8*3D
  3122. $GPRMC,145208.748,A,2831.4744,N,08041.0087,W,0.06,74.40,211108,,*23
  3123. $GPGGA,145208.748,2831.4744,N,08041.0087,W,1,07,0.8,8.8,M,-31.2,M,0.0,0000*4A
  3124. $GPGSA,A,3,25,28,17,13,11,08,03,,,,,,1.8,0.8,1.4*34
  3125. $GPRMC,145209.748,A,2831.4743,N,08041.0087,W,0.06,113.52,211108,,*16
  3126. $GPGGA,145209.748,2831.4743,N,08041.0087,W,1,07,0.8,9.5,M,-31.2,M,0.0,0000*40
  3127. $GPGSA,A,3,25,28,17,13,11,08,03,,,,,,1.8,0.8,1.4*34
  3128. $GPRMC,145211.748,A,2831.4741,N,08041.0088,W,0.08,117.03,211108,,*1C
  3129. $GPGGA,145211.748,2831.4741,N,08041.0088,W,1,07,0.8,11.1,M,-31.2,M,0.0,0000*79
  3130. $GPGSA,A,3,25,28,17,13,11,08,03,,,,,,1.8,0.8,1.4*34
  3131. $GPRMC,145212.748,A,2831.4740,N,08041.0088,W,0.07,100.70,211108,,*13
  3132. $GPGGA,145212.748,2831.4740,N,08041.0088,W,1,08,0.8,12.1,M,-31.2,M,0.0,0000*77
  3133. $GPGSA,A,3,25,28,07,17,13,11,08,03,,,,,1.6,0.8,1.2*3B
  3134. $GPRMC,145213.748,A,2831.4738,N,08041.0088,W,0.12,136.15,211108,,*1F
  3135. $GPGGA,145213.748,2831.4738,N,08041.0088,W,1,08,0.8,13.3,M,-31.2,M,0.0,0000*7A
  3136. $GPGSA,A,3,25,28,07,17,13,11,08,03,,,,,1.6,0.8,1.2*3B
  3137. $GPRMC,145214.748,A,2831.4737,N,08041.0087,W,0.07,101.47,211108,,*1F
  3138. $GPGGA,145214.748,2831.4737,N,08041.0087,W,1,08,0.8,14.5,M,-31.2,M,0.0,0000*7C
  3139. $GPGSA,A,3,25,28,07,17,13,11,08,03,,,,,1.6,0.8,1.2*3B
  3140. $GPRMC,145216.748,A,2831.4734,N,08041.0088,W,0.07,101.03,211108,,*11
  3141. $GPGGA,145216.748,2831.4734,N,08041.0088,W,1,07,0.8,15.3,M,-31.2,M,0.0,0000*7A
  3142. $GPGSA,A,3,25,28,17,13,11,08,03,,,,,,1.8,0.8,1.4*34
  3143. $GPRMC,145217.748,A,2831.4733,N,08041.0088,W,0.11,120.41,211108,,*15
  3144. $GPGGA,145217.748,2831.4733,N,08041.0088,W,1,07,0.8,15.0,M,-31.2,M,0.0,0000*7F
  3145. $GPGSA,A,3,25,28,17,13,11,08,03,,,,,,1.8,0.8,1.4*34
  3146. $GPRMC,145218.747,A,2831.4733,N,08041.0089,W,0.07,69.65,211108,,*29
  3147. $GPGGA,145218.747,2831.4733,N,08041.0089,W,1,08,0.8,14.5,M,-31.2,M,0.0,0000*75
  3148. $GPGSA,A,3,25,28,07,17,13,11,08,03,,,,,1.6,0.8,1.2*3B
  3149. $GPRMC,145219.747,A,2831.4734,N,08041.0091,W,0.11,121.02,211108,,*1D
  3150. $GPGGA,145219.747,2831.4734,N,08041.0091,W,1,08,0.8,13.5,M,-31.2,M,0.0,0000*7D
  3151. $GPGSA,A,3,25,28,07,17,13,11,08,03,,,,,1.6,0.8,1.2*3B
  3152. $GPRMC,145221.747,A,2831.4739,N,08041.0093,W,0.08,116.50,211108,,*12
  3153. $GPGGA,145221.747,2831.4739,N,08041.0093,W,1,08,0.8,10.2,M,-31.2,M,0.0,0000*7D
  3154. $GPGSA,A,3,25,28,07,17,13,11,08,03,,,,,1.6,0.8,1.2*3B
  3155. $GPRMC,145222.747,A,2831.4742,N,08041.0093,W,0.09,99.57,211108,,*2D
  3156. $GPGGA,145222.747,2831.4742,N,08041.0093,W,1,06,1.0,8.4,M,-31.2,M,0.0,0000*4A
  3157. $GPGSA,A,3,25,28,17,13,11,03,,,,,,,2.1,1.0,1.7*3C
  3158. $GPRMC,145223.747,A,2831.4745,N,08041.0093,W,0.16,104.03,211108,,*11
  3159. $GPGGA,145223.747,2831.4745,N,08041.0093,W,1,06,1.0,6.4,M,-31.2,M,0.0,0000*42
  3160. $GPGSA,A,3,25,28,17,13,11,03,,,,,,,2.1,1.0,1.7*3C
  3161. $GPRMC,145224.747,A,2831.4747,N,08041.0093,W,0.13,120.07,211108,,*13
  3162. $GPGGA,145224.747,2831.4747,N,08041.0093,W,1,06,1.0,4.6,M,-31.2,M,0.0,0000*47
  3163. $GPGSA,A,3,25,28,17,13,11,03,,,,,,,2.1,1.0,1.7*3C
  3164. $GPRMC,145226.747,A,2831.4751,N,08041.0093,W,0.08,106.33,211108,,*1F
  3165. $GPGGA,145226.747,2831.4751,N,08041.0093,W,1,07,0.8,1.9,M,-31.2,M,0.0,0000*40
  3166. $GPGSA,A,3,25,28,17,13,11,08,03,,,,,,1.8,0.8,1.4*34
  3167. $GPRMC,145227.747,A,2831.4752,N,08041.0092,W,0.13,145.30,211108,,*12
  3168. $GPGGA,145227.747,2831.4752,N,08041.0092,W,1,07,0.8,0.9,M,-31.2,M,0.0,0000*42
  3169. $GPGSA,A,3,25,28,17,13,11,08,03,,,,,,1.8,0.8,1.4*34
  3170. $GPRMC,145228.747,A,2831.4753,N,08041.0092,W,0.12,121.69,211108,,*13
  3171. $GPGGA,145228.747,2831.4753,N,08041.0092,W,1,07,1.0,0.0,M,-31.2,M,0.0,0000*4C
  3172. $GPGSA,A,3,25,28,07,17,13,11,03,,,,,,1.7,1.0,1.3*3A
  3173. $GPRMC,145229.747,A,2831.4754,N,08041.0090,W,0.07,92.70,211108,,*22
  3174. $GPGGA,145229.747,2831.4754,N,08041.0090,W,1,08,0.8,-0.9,M,-31.2,M,0.0,0000*6A
  3175. $GPGSA,A,3,25,28,07,17,13,11,08,03,,,,,1.6,0.8,1.2*3B
  3176. $GPRMC,145231.747,A,2831.4753,N,08041.0086,W,0.10,115.94,211108,,*19
  3177. $GPGGA,145231.747,2831.4753,N,08041.0086,W,1,07,0.8,-2.7,M,-31.2,M,0.0,0000*60
  3178. $GPGSA,A,3,25,28,17,13,11,08,03,,,,,,1.8,0.8,1.4*34
  3179. $GPRMC,145232.747,A,2831.4752,N,08041.0084,W,0.08,117.58,211108,,*12
  3180. $GPGGA,145232.747,2831.4752,N,08041.0084,W,1,07,0.8,-3.5,M,-31.2,M,0.0,0000*63
  3181. $GPGSA,A,3,25,28,17,13,11,08,03,,,,,,1.8,0.8,1.4*34
  3182. $GPRMC,145233.747,A,2831.4752,N,08041.0081,W,0.09,110.34,211108,,*1A
  3183. $GPGGA,145233.747,2831.4752,N,08041.0081,W,1,07,0.8,-4.2,M,-31.2,M,0.0,0000*67
  3184. $GPGSA,A,3,25,28,17,13,11,08,03,,,,,,1.8,0.8,1.4*34
  3185. $GPRMC,145234.747,A,2831.4751,N,08041.0079,W,0.08,135.48,211108,,*14
  3186. $GPGGA,145234.747,2831.4751,N,08041.0079,W,1,08,0.8,-4.7,M,-31.2,M,0.0,0000*6E
  3187. $GPGSA,A,3,25,28,07,17,13,11,08,03,,,,,1.6,0.8,1.2*3B
  3188. $GPRMC,145236.746,A,2831.4750,N,08041.0072,W,0.09,119.58,211108,,*13
  3189. $GPGGA,145236.746,2831.4750,N,08041.0072,W,1,07,0.8,-6.3,M,-31.2,M,0.0,0000*6E
  3190. $GPGSA,A,3,25,28,17,13,11,08,03,,,,,,1.8,0.8,1.4*34
  3191. $GPRMC,145237.746,A,2831.4751,N,08041.0068,W,0.05,89.40,211108,,*25
  3192. $GPGGA,145237.746,2831.4751,N,08041.0068,W,1,06,1.0,-7.1,M,-31.2,M,0.0,0000*6E
  3193. $GPGSA,A,3,25,28,17,13,11,03,,,,,,,2.1,1.0,1.7*3C
  3194. $GPRMC,145238.746,A,2831.4752,N,08041.0064,W,0.06,10.50,211108,,*27
  3195. $GPGGA,145238.746,2831.4752,N,08041.0064,W,1,07,0.8,-8.2,M,-31.2,M,0.0,0000*6A
  3196. $GPGSA,A,3,25,28,17,13,11,08,03,,,,,,1.8,0.8,1.4*34
  3197. $GPRMC,145239.746,A,2831.4754,N,08041.0060,W,0.10,154.15,211108,,*13
  3198. $GPGGA,145239.746,2831.4754,N,08041.0060,W,1,07,0.8,-8.9,M,-31.2,M,0.0,0000*62
  3199. $GPGSA,A,3,25,28,17,13,11,08,03,,,,,,1.8,0.8,1.4*34
  3200. $GPRMC,145241.746,A,2831.4757,N,08041.0053,W,0.06,176.08,211108,,*14
  3201. $GPGGA,145241.746,2831.4757,N,08041.0053,W,1,08,0.8,-9.8,M,-31.2,M,0.0,0000*61
  3202. $GPGSA,A,3,25,28,07,17,13,11,08,03,,,,,1.6,0.8,1.2*3B
  3203. $GPRMC,145242.746,A,2831.4758,N,08041.0051,W,0.08,135.95,211108,,*17
  3204. $GPGGA,145242.746,2831.4758,N,08041.0051,W,1,08,0.8,-9.6,M,-31.2,M,0.0,0000*61
  3205. $GPGSA,A,3,25,28,07,17,13,11,08,03,,,,,1.6,0.8,1.2*3B
  3206. $GPRMC,145243.746,A,2831.4758,N,08041.0050,W,0.05,115.24,211108,,*12
  3207. $GPGGA,145243.746,2831.4758,N,08041.0050,W,1,08,0.8,-8.9,M,-31.2,M,0.0,0000*6F
  3208. $GPGSA,A,3,25,28,07,17,13,11,08,03,,,,,1.6,0.8,1.2*3B
  3209. $GPRMC,145244.746,A,2831.4759,N,08041.0050,W,0.10,104.00,211108,,*16
  3210. $GPGGA,145244.746,2831.4759,N,08041.0050,W,1,08,0.8,-8.3,M,-31.2,M,0.0,0000*63
  3211. $GPGSA,A,3,25,28,07,17,13,11,08,03,,,,,1.6,0.8,1.2*3B
  3212. $GPRMC,145246.746,A,2831.4759,N,08041.0049,W,0.06,101.49,211108,,*13
  3213. $GPGGA,145246.746,2831.4759,N,08041.0049,W,1,06,1.0,-7.3,M,-31.2,M,0.0,0000*61
  3214. $GPGSA,A,3,25,28,17,13,11,03,,,,,,,2.1,1.0,1.7*3C
  3215. $GPRMC,145247.746,A,2831.4759,N,08041.0048,W,0.13,95.20,211108,,*24
  3216. $GPGGA,145247.746,2831.4759,N,08041.0048,W,1,08,1.0,-6.7,M,-31.2,M,0.0,0000*6A
  3217. $GPGSA,A,3,25,19,28,07,17,13,11,03,,,,,1.7,1.0,1.3*32
  3218. $GPRMC,145248.746,A,2831.4759,N,08041.0049,W,0.03,64.16,211108,,*20
  3219. $GPGGA,145248.746,2831.4759,N,08041.0049,W,1,06,1.0,-5.9,M,-31.2,M,0.0,0000*67
  3220. $GPGSA,A,3,25,17,13,11,08,03,,,,,,,1.9,1.0,1.4*36
  3221. $GPRMC,145249.746,A,2831.4757,N,08041.0049,W,0.12,144.09,211108,,*12
  3222. $GPGGA,145249.746,2831.4757,N,08041.0049,W,1,07,0.8,-4.9,M,-31.2,M,0.0,0000*61
  3223. $GPGSA,A,3,25,28,17,13,11,08,03,,,,,,1.8,0.8,1.4*34
  3224. $GPRMC,145251.746,A,2831.4754,N,08041.0051,W,0.07,131.04,211108,,*1A
  3225. $GPGGA,145251.746,2831.4754,N,08041.0051,W,1,06,1.0,-3.0,M,-31.2,M,0.0,0000*64
  3226. $GPGSA,A,3,25,28,17,13,11,03,,,,,,,2.1,1.0,1.7*3C
  3227. $GPRMC,145252.745,A,2831.4752,N,08041.0054,W,0.06,187.22,211108,,*11
  3228. $GPGGA,145252.745,2831.4752,N,08041.0054,W,1,07,1.0,-2.1,M,-31.2,M,0.0,0000*66
  3229. $GPGSA,A,3,25,28,07,17,13,11,03,,,,,,1.7,1.0,1.3*3A
  3230. $GPRMC,145253.745,A,2831.4751,N,08041.0056,W,0.12,116.23,211108,,*1D
  3231. $GPGGA,145253.745,2831.4751,N,08041.0056,W,1,08,1.0,-1.2,M,-31.2,M,0.0,0000*69
  3232. $GPGSA,A,3,25,19,28,07,17,13,11,03,,,,,1.7,1.0,1.3*32
  3233. $GPRMC,145254.745,A,2831.4749,N,08041.0059,W,0.08,119.01,211108,,*18
  3234. $GPGGA,145254.745,2831.4749,N,08041.0059,W,1,07,1.0,-0.4,M,-31.2,M,0.0,0000*60
  3235. $GPGSA,A,3,25,28,07,17,13,11,03,,,,,,1.7,1.0,1.3*3A
  3236. $GPRMC,145256.745,A,2831.4748,N,08041.0061,W,0.06,103.48,211108,,*18
  3237. $GPGGA,145256.745,2831.4748,N,08041.0061,W,1,08,1.0,-0.1,M,-31.2,M,0.0,0000*62
  3238. $GPGSA,A,3,25,19,28,07,17,13,11,03,,,,,1.7,1.0,1.3*32
  3239. $GPRMC,145257.745,A,2831.4750,N,08041.0062,W,0.05,104.07,211108,,*1C
  3240. $GPGGA,145257.745,2831.4750,N,08041.0062,W,1,08,1.0,-0.5,M,-31.2,M,0.0,0000*6D
  3241. $GPGSA,A,3,25,19,28,07,17,13,11,03,,,,,1.7,1.0,1.3*32
  3242. $GPRMC,145258.745,A,2831.4751,N,08041.0063,W,0.07,112.17,211108,,*17
  3243. $GPGGA,145258.745,2831.4751,N,08041.0063,W,1,07,1.0,-1.0,M,-31.2,M,0.0,0000*69
  3244. $GPGSA,A,3,25,28,07,17,13,11,03,,,,,,1.7,1.0,1.3*3A
  3245. $GPRMC,145259.745,A,2831.4753,N,08041.0064,W,0.12,130.94,211108,,*1C
  3246. $GPGGA,145259.745,2831.4753,N,08041.0064,W,1,05,4.8,-1.3,M,-31.2,M,0.0,0000*61
  3247. $GPGSA,A,3,25,28,17,13,11,,,,,,,,8.9,4.8,7.5*34
  3248. $GPRMC,145301.745,A,2831.4757,N,08041.0068,W,0.08,179.03,211108,,*10
  3249. $GPGGA,145301.745,2831.4757,N,08041.0068,W,1,05,4.8,-2.6,M,-31.2,M,0.0,0000*63
  3250. $GPGSA,A,3,25,28,17,13,11,,,,,,,,8.9,4.8,7.5*34
  3251. $GPRMC,145302.745,A,2831.4761,N,08041.0070,W,0.08,123.18,211108,,*1A
  3252. $GPGGA,145302.745,2831.4761,N,08041.0070,W,1,06,1.0,-2.6,M,-31.2,M,0.0,0000*62
  3253. $GPGSA,A,3,25,28,17,13,11,03,,,,,,,2.1,1.0,1.7*3C
  3254. $GPRMC,145303.745,A,2831.4763,N,08041.0070,W,0.09,96.01,211108,,*2F
  3255. $GPGGA,145303.745,2831.4763,N,08041.0070,W,1,05,4.8,-2.4,M,-31.2,M,0.0,0000*6D
  3256. $GPGSA,A,3,25,28,17,13,11,,,,,,,,8.9,4.8,7.5*34
  3257. $GPRMC,145304.745,A,2831.4764,N,08041.0070,W,0.07,175.42,211108,,*1A
  3258. $GPGGA,145304.745,2831.4764,N,08041.0070,W,1,05,4.8,-2.1,M,-31.2,M,0.0,0000*68
  3259. $GPGSA,A,3,25,28,17,13,11,,,,,,,,8.9,4.8,7.5*34
  3260. $GPRMC,145306.745,A,2831.4768,N,08041.0072,W,0.03,165.88,211108,,*15
  3261. $GPGGA,145306.745,2831.4768,N,08041.0072,W,1,06,1.0,-1.2,M,-31.2,M,0.0,0000*6A
  3262. $GPGSA,A,3,25,28,17,13,11,03,,,,,,,2.0,1.0,1.7*3D
  3263. $GPRMC,145307.745,A,2831.4768,N,08041.0073,W,0.08,126.31,211108,,*1B
  3264. $GPGGA,145307.745,2831.4768,N,08041.0073,W,1,06,1.0,-0.9,M,-31.2,M,0.0,0000*60
  3265. $GPGSA,A,3,25,28,17,13,11,03,,,,,,,2.0,1.0,1.7*3D
  3266. $GPRMC,145308.745,A,2831.4767,N,08041.0074,W,0.08,139.35,211108,,*16
  3267. $GPGGA,145308.745,2831.4767,N,08041.0074,W,1,06,1.0,-0.4,M,-31.2,M,0.0,0000*6A
  3268. $GPGSA,A,3,25,28,17,13,11,03,,,,,,,2.0,1.0,1.7*3D
  3269. $GPRMC,145309.745,A,2831.4765,N,08041.0075,W,0.04,162.89,211108,,*11
  3270. $GPGGA,145309.745,2831.4765,N,08041.0075,W,1,06,1.0,-0.0,M,-31.2,M,0.0,0000*6C
  3271. $GPGSA,A,3,25,28,17,13,11,03,,,,,,,2.0,1.0,1.7*3D
  3272. $GPRMC,145311.744,A,2831.4761,N,08041.0077,W,0.09,185.06,211108,,*1C
  3273. $GPGGA,145311.744,2831.4761,N,08041.0077,W,1,05,4.8,0.8,M,-31.2,M,0.0,0000*49
  3274. $GPGSA,A,3,25,28,17,13,11,,,,,,,,8.9,4.8,7.5*34
  3275. $GPRMC,145312.744,A,2831.4757,N,08041.0079,W,0.07,154.63,211108,,*15
  3276. $GPGGA,145312.744,2831.4757,N,08041.0079,W,1,08,0.8,2.4,M,-31.2,M,0.0,0000*46
  3277. $GPGSA,A,3,25,28,07,17,13,11,08,03,,,,,1.6,0.8,1.2*3B
  3278. $GPRMC,145313.744,A,2831.4757,N,08041.0080,W,0.07,131.32,211108,,*15
  3279. $GPGGA,145313.744,2831.4757,N,08041.0080,W,1,07,3.4,2.6,M,-31.2,M,0.0,0000*43
  3280. $GPGSA,A,3,25,28,07,17,13,11,08,,,,,,6.1,3.4,4.9*39
  3281. $GPRMC,145314.744,A,2831.4755,N,08041.0080,W,0.12,147.38,211108,,*1F
  3282. $GPGGA,145314.744,2831.4755,N,08041.0080,W,1,08,0.8,3.4,M,-31.2,M,0.0,0000*45
  3283. $GPGSA,A,3,25,28,07,17,13,11,08,03,,,,,1.6,0.8,1.2*3B
  3284. $GPRMC,145316.744,A,2831.4752,N,08041.0079,W,0.20,182.10,211108,,*1E
  3285. $GPGGA,145316.744,2831.4752,N,08041.0079,W,1,07,1.0,5.1,M,-31.2,M,0.0,0000*43
  3286. $GPGSA,A,3,25,28,07,17,13,11,03,,,,,,1.7,1.0,1.3*3A
  3287. $GPRMC,145317.744,A,2831.4750,N,08041.0080,W,0.12,200.96,211108,,*1D
  3288. $GPGGA,145317.744,2831.4750,N,08041.0080,W,1,07,1.0,6.6,M,-31.2,M,0.0,0000*42
  3289. $GPGSA,A,3,25,28,07,17,13,11,03,,,,,,1.7,1.0,1.3*3A
  3290. $GPRMC,145318.744,A,2831.4749,N,08041.0080,W,0.19,210.68,211108,,*11
  3291. $GPGGA,145318.744,2831.4749,N,08041.0080,W,1,06,3.6,8.1,M,-31.2,M,0.0,0000*49
  3292. $GPGSA,A,3,25,28,07,17,13,11,,,,,,,6.2,3.6,5.0*38
  3293. $GPRMC,145319.744,A,2831.4749,N,08041.0081,W,0.17,199.51,211108,,*17
  3294. $GPGGA,145319.744,2831.4749,N,08041.0081,W,1,06,3.6,9.5,M,-31.2,M,0.0,0000*4C
  3295. $GPGSA,A,3,25,28,07,17,13,11,,,,,,,6.2,3.6,5.0*38
  3296. $GPRMC,145321.744,A,2831.4748,N,08041.0083,W,0.22,201.56,211108,,*1C
  3297. $GPGGA,145321.744,2831.4748,N,08041.0083,W,1,05,4.8,10.8,M,-31.2,M,0.0,0000*7B
  3298. $GPGSA,A,3,25,28,17,13,11,,,,,,,,8.9,4.8,7.5*34
  3299. $GPRMC,145322.744,A,2831.4748,N,08041.0084,W,0.23,233.08,211108,,*13
  3300. $GPGGA,145322.744,2831.4748,N,08041.0084,W,1,05,4.8,10.8,M,-31.2,M,0.0,0000*7F
  3301. $GPGSA,A,3,25,28,17,13,11,,,,,,,,8.9,4.8,7.5*34
  3302. $GPRMC,145323.744,A,2831.4749,N,08041.0086,W,0.24,217.74,211108,,*1B
  3303. $GPGGA,145323.744,2831.4749,N,08041.0086,W,1,05,4.8,10.5,M,-31.2,M,0.0,0000*70
  3304. $GPGSA,A,3,25,28,17,13,11,,,,,,,,8.9,4.8,7.5*34
  3305. $GPRMC,145324.744,A,2831.4750,N,08041.0087,W,0.10,50.37,211108,,*24
  3306. $GPGGA,145324.744,2831.4750,N,08041.0087,W,1,06,1.0,9.8,M,-31.2,M,0.0,0000*45
  3307. $GPGSA,A,3,25,28,17,13,11,03,,,,,,,2.0,1.0,1.7*3D
  3308. $GPRMC,145326.744,A,2831.4752,N,08041.0086,W,0.09,153.08,211108,,*13
  3309. $GPGGA,145326.744,2831.4752,N,08041.0086,W,1,07,1.0,7.2,M,-31.2,M,0.0,0000*41
  3310. $GPGSA,A,3,25,28,07,17,13,11,03,,,,,,1.7,1.0,1.3*3A
  3311. $GPRMC,145327.743,A,2831.4752,N,08041.0085,W,0.08,139.23,211108,,*12
  3312. $GPGGA,145327.743,2831.4752,N,08041.0085,W,1,06,1.0,6.3,M,-31.2,M,0.0,0000*45
  3313. $GPGSA,A,3,25,28,17,13,11,03,,,,,,,2.0,1.0,1.7*3D
  3314. $GPRMC,145328.743,A,2831.4753,N,08041.0085,W,0.09,125.55,211108,,*11
  3315. $GPGGA,145328.743,2831.4753,N,08041.0085,W,1,06,1.0,5.7,M,-31.2,M,0.0,0000*4C
  3316. $GPGSA,A,3,25,28,17,13,11,03,,,,,,,2.0,1.0,1.7*3D
  3317. $GPRMC,145329.743,A,2831.4753,N,08041.0085,W,0.05,135.32,211108,,*1C
  3318. $GPGGA,145329.743,2831.4753,N,08041.0085,W,1,06,1.0,5.0,M,-31.2,M,0.0,0000*4A
  3319. $GPGSA,A,3,25,28,17,13,11,03,,,,,,,2.0,1.0,1.7*3D
  3320. $GPRMC,145331.743,A,2831.4754,N,08041.0085,W,0.08,131.27,211108,,*1F
  3321. $GPGGA,145331.743,2831.4754,N,08041.0085,W,1,06,1.0,3.9,M,-31.2,M,0.0,0000*4B
  3322. $GPGSA,A,3,25,28,17,13,11,03,,,,,,,2.0,1.0,1.7*3D
  3323. $GPRMC,145332.743,A,2831.4754,N,08041.0086,W,0.09,121.72,211108,,*1F
  3324. $GPGGA,145332.743,2831.4754,N,08041.0086,W,1,06,1.0,3.5,M,-31.2,M,0.0,0000*47
  3325. $GPGSA,A,3,25,28,17,13,11,03,,,,,,,2.0,1.0,1.7*3D
  3326. $GPRMC,145333.743,A,2831.4754,N,08041.0086,W,0.10,95.16,211108,,*2A
  3327. $GPGGA,145333.743,2831.4754,N,08041.0086,W,1,06,1.0,3.0,M,-31.2,M,0.0,0000*43
  3328. $GPGSA,A,3,25,28,17,13,11,03,,,,,,,2.0,1.0,1.7*3D
  3329. $GPRMC,145334.743,A,2831.4754,N,08041.0085,W,0.08,149.12,211108,,*13
  3330. $GPGGA,145334.743,2831.4754,N,08041.0085,W,1,06,1.0,2.7,M,-31.2,M,0.0,0000*41
  3331. $GPGSA,A,3,25,28,17,13,11,03,,,,,,,2.0,1.0,1.7*3D
  3332. $GPRMC,145336.743,A,2831.4755,N,08041.0084,W,0.14,85.65,211108,,*2D
  3333. $GPGGA,145336.743,2831.4755,N,08041.0084,W,1,05,4.8,2.2,M,-31.2,M,0.0,0000*48
  3334. $GPGSA,A,3,25,28,17,13,11,,,,,,,,8.9,4.8,7.4*35
  3335. $GPRMC,145337.743,A,2831.4756,N,08041.0084,W,0.05,32.74,211108,,*23
  3336. $GPGGA,145337.743,2831.4756,N,08041.0084,W,1,06,3.6,1.0,M,-31.2,M,0.0,0000*41
  3337. $GPGSA,A,3,25,28,07,17,13,11,,,,,,,6.2,3.6,4.9*30
  3338. $GPRMC,145338.743,A,2831.4756,N,08041.0082,W,0.09,105.91,211108,,*18
  3339. $GPGGA,145338.743,2831.4756,N,08041.0082,W,1,07,1.4,-1.5,M,-31.2,M,0.0,0000*61
  3340. $GPGSA,A,3,25,19,28,07,17,13,11,,,,,,2.6,1.4,2.2*35
  3341. $GPRMC,145339.743,A,2831.4757,N,08041.0081,W,0.17,96.32,211108,,*26
  3342. $GPGGA,145339.743,2831.4757,N,08041.0081,W,1,05,4.8,-1.6,M,-31.2,M,0.0,0000*6A
  3343. $GPGSA,A,3,25,28,17,13,11,,,,,,,,8.9,4.8,7.4*35
  3344. $GPRMC,145341.743,A,2831.4757,N,08041.0080,W,0.15,101.47,211108,,*17
  3345. $GPGGA,145341.743,2831.4757,N,08041.0080,W,1,06,1.0,0.2,M,-31.2,M,0.0,0000*42
  3346. $GPGSA,A,3,25,28,17,13,11,03,,,,,,,2.0,1.0,1.7*3D
  3347. $GPRMC,145342.743,A,2831.4757,N,08041.0079,W,0.11,101.83,211108,,*1E
  3348. $GPGGA,145342.743,2831.4757,N,08041.0079,W,1,06,1.0,1.0,M,-31.2,M,0.0,0000*44
  3349. $GPGSA,A,3,25,28,17,13,11,03,,,,,,,2.0,1.0,1.7*3D
  3350. $GPRMC,145343.743,A,2831.4757,N,08041.0078,W,0.07,159.33,211108,,*1F
  3351. $GPGGA,145343.743,2831.4757,N,08041.0078,W,1,06,1.0,1.7,M,-31.2,M,0.0,0000*43
  3352. $GPGSA,A,3,25,28,17,13,11,03,,,,,,,2.0,1.0,1.7*3D
  3353. $GPRMC,145344.742,A,2831.4758,N,08041.0077,W,0.12,144.61,211108,,*16
  3354. $GPGGA,145344.742,2831.4758,N,08041.0077,W,1,06,1.0,2.2,M,-31.2,M,0.0,0000*43
  3355. $GPGSA,A,3,25,28,17,13,11,03,,,,,,,2.0,1.0,1.7*3D
  3356. $GPRMC,145346.742,A,2831.4760,N,08041.0072,W,0.31,102.15,211108,,*1A
  3357. $GPGGA,145346.742,2831.4760,N,08041.0072,W,1,09,0.8,2.8,M,-31.2,M,0.0,0000*43
  3358. $GPGSA,A,3,25,19,28,07,17,13,11,08,03,,,,1.5,0.8,1.2*30
  3359. $GPRMC,145347.742,A,2831.4761,N,08041.0070,W,0.17,107.63,211108,,*18
  3360. $GPGGA,145347.742,2831.4761,N,08041.0070,W,1,08,0.8,2.5,M,-31.2,M,0.0,0000*4D
  3361. $GPGSA,A,3,25,19,28,17,13,11,08,03,,,,,1.7,0.8,1.4*33
  3362. $GPRMC,145348.742,A,2831.4763,N,08041.0068,W,0.08,106.28,211108,,*1C
  3363. $GPGGA,145348.742,2831.4763,N,08041.0068,W,1,08,0.8,2.0,M,-31.2,M,0.0,0000*4C
  3364. $GPGSA,A,3,25,19,28,17,13,11,08,03,,,,,1.7,0.8,1.4*33
  3365. $GPRMC,145349.742,A,2831.4765,N,08041.0067,W,0.11,121.02,211108,,*11
  3366. $GPGGA,145349.742,2831.4765,N,08041.0067,W,1,08,0.8,1.6,M,-31.2,M,0.0,0000*41
  3367. $GPGSA,A,3,25,19,28,17,13,11,08,03,,,,,1.7,0.8,1.4*33
  3368. $GPRMC,145351.742,A,2831.4767,N,08041.0067,W,0.15,113.76,211108,,*1C
  3369. $GPGGA,145351.742,2831.4767,N,08041.0067,W,1,07,1.2,1.3,M,-31.2,M,0.0,0000*4B
  3370. $GPGSA,A,3,25,19,28,17,13,11,08,,,,,,2.9,1.2,2.5*34
  3371. $GPRMC,145352.742,A,2831.4768,N,08041.0067,W,0.05,151.51,211108,,*12
  3372. $GPGGA,145352.742,2831.4768,N,08041.0067,W,1,08,0.8,1.2,M,-31.2,M,0.0,0000*42
  3373. $GPGSA,A,3,25,19,28,17,13,11,08,03,,,,,1.7,0.8,1.4*33
  3374. $GPRMC,145353.742,A,2831.4768,N,08041.0068,W,0.09,167.68,211108,,*1F
  3375. $GPGGA,145353.742,2831.4768,N,08041.0068,W,1,06,4.6,1.0,M,-31.2,M,0.0,0000*4A
  3376. $GPGSA,A,3,25,28,17,13,11,08,,,,,,,8.7,4.6,7.3*3A
  3377. $GPRMC,145354.742,A,2831.4765,N,08041.0066,W,0.10,74.92,211108,,*25
  3378. $GPGGA,145354.742,2831.4765,N,08041.0066,W,1,08,0.8,0.8,M,-31.2,M,0.0,0000*43
  3379. $GPGSA,A,3,25,28,07,17,13,11,08,03,,,,,1.6,0.8,1.2*3B
  3380. $GPRMC,145356.742,A,2831.4761,N,08041.0064,W,0.08,143.28,211108,,*1C
  3381. $GPGGA,145356.742,2831.4761,N,08041.0064,W,1,08,0.8,0.9,M,-31.2,M,0.0,0000*46
  3382. $GPGSA,A,3,25,19,28,17,13,11,08,03,,,,,1.7,0.8,1.4*33
  3383. $GPRMC,145357.742,A,2831.4758,N,08041.0065,W,0.12,135.17,211108,,*10
  3384. $GPGGA,145357.742,2831.4758,N,08041.0065,W,1,08,0.8,1.8,M,-31.2,M,0.0,0000*4C
  3385. $GPGSA,A,3,25,19,28,17,13,11,08,03,,,,,1.7,0.8,1.4*33
  3386. $GPRMC,145358.742,A,2831.4755,N,08041.0068,W,0.04,141.61,211108,,*1A
  3387. $GPGGA,145358.742,2831.4755,N,08041.0068,W,1,08,0.8,3.0,M,-31.2,M,0.0,0000*49
  3388. $GPGSA,A,3,25,19,28,17,13,11,08,03,,,,,1.7,0.8,1.4*33
  3389. $GPRMC,145359.742,A,2831.4753,N,08041.0070,W,0.04,80.83,211108,,*24
  3390. $GPGGA,145359.742,2831.4753,N,08041.0070,W,1,08,0.8,4.0,M,-31.2,M,0.0,0000*40
  3391. $GPGSA,A,3,25,19,28,17,13,11,08,03,,,,,1.7,0.8,1.4*33
  3392. $GPRMC,145401.741,A,2831.4751,N,08041.0075,W,0.04,336.95,211108,,*13
  3393. $GPGGA,145401.741,2831.4751,N,08041.0075,W,1,07,1.0,4.1,M,-31.2,M,0.0,0000*49
  3394. $GPGSA,A,3,25,19,17,13,11,08,03,,,,,,1.8,1.0,1.4*3F
  3395. $GPRMC,145402.741,A,2831.4751,N,08041.0076,W,0.08,350.75,211108,,*11
  3396. $GPGGA,145402.741,2831.4751,N,08041.0076,W,1,08,0.8,3.7,M,-31.2,M,0.0,0000*4E
  3397. $GPGSA,A,3,25,19,28,17,13,11,08,03,,,,,1.7,0.8,1.4*33
  3398. $GPRMC,145403.741,A,2831.4750,N,08041.0075,W,0.06,130.78,211108,,*15
  3399. $GPGGA,145403.741,2831.4750,N,08041.0075,W,1,08,0.8,3.2,M,-31.2,M,0.0,0000*48
  3400. $GPGSA,A,3,25,19,28,17,13,11,08,03,,,,,1.7,0.8,1.4*33
  3401. $GPRMC,145404.741,A,2831.4750,N,08041.0074,W,0.09,63.65,211108,,*27
  3402. $GPGGA,145404.741,2831.4750,N,08041.0074,W,1,08,0.8,2.8,M,-31.2,M,0.0,0000*45
  3403. $GPGSA,A,3,25,19,28,17,13,11,08,03,,,,,1.7,0.8,1.4*33
  3404. $GPRMC,145406.741,A,2831.4751,N,08041.0072,W,0.11,308.53,211108,,*10
  3405. $GPGGA,145406.741,2831.4751,N,08041.0072,W,1,08,0.8,1.9,M,-31.2,M,0.0,0000*42
  3406. $GPGSA,A,3,25,19,28,17,13,11,08,03,,,,,1.7,0.8,1.4*33
  3407. $GPRMC,145407.741,A,2831.4754,N,08041.0072,W,0.11,95.36,211108,,*20
  3408. $GPGGA,145407.741,2831.4754,N,08041.0072,W,1,08,0.8,2.0,M,-31.2,M,0.0,0000*4C
  3409. $GPGSA,A,3,25,19,28,17,13,11,08,03,,,,,1.7,0.8,1.4*33
  3410. $GPRMC,145408.741,A,2831.4756,N,08041.0072,W,0.04,338.07,211108,,*1F
  3411. $GPGGA,145408.741,2831.4756,N,08041.0072,W,1,07,1.0,2.4,M,-31.2,M,0.0,0000*43
  3412. $GPGSA,A,3,25,19,17,13,11,08,03,,,,,,1.8,1.0,1.4*3F
  3413. $GPRMC,145409.741,A,2831.4759,N,08041.0073,W,0.07,165.87,211108,,*11
  3414. $GPGGA,145409.741,2831.4759,N,08041.0073,W,1,07,1.0,3.0,M,-31.2,M,0.0,0000*49
  3415. $GPGSA,A,3,25,19,28,17,13,11,03,,,,,,1.9,1.0,1.6*3E
  3416. $GPRMC,145411.741,A,2831.4764,N,08041.0075,W,0.04,358.83,211108,,*1B
  3417. $GPGGA,145411.741,2831.4764,N,08041.0075,W,1,08,0.8,3.7,M,-31.2,M,0.0,0000*49
  3418. $GPGSA,A,3,25,19,28,17,13,11,08,03,,,,,1.7,0.8,1.4*33
  3419. 31.2,M,0.0,0000*43
  3420. $GPGSA,A,3,25,19,28,17,13,11,03,,,,,,1.9,1.0,1.6*3E
  3421. $GPRMC,145413.741,A,2831.4769,N,08041.0079,W,0.04,55.80,211108,,*25
  3422. $GPGGA,145413.741,2831.4769,N,08041.0079,W,1,07,1.0,4.0,M,-31.2,M,0.0,0000*4C
  3423. $GPGSA,A,3,25,19,28,17,13,11,03,,,,,,1.9,1.0,1.6*3E
  3424. $GPRMC,145414.741,A,2831.4771,N,08041.0081,W,0.04,357.90,211108,,*1C
  3425. $GPGGA,145414.741,2831.4771,N,08041.0081,W,1,07,1.0,4.5,M,-31.2,M,0.0,0000*40
  3426. $GPGSA,A,3,25,19,28,17,13,11,03,,,,,,1.9,1.0,1.6*3E
  3427. $GPRMC,145416.741,A,2831.4774,N,08041.0085,W,0.04,39.93,211108,,*27
  3428. $GPGGA,145416.741,2831.4774,N,08041.0085,W,1,07,1.0,5.3,M,-31.2,M,0.0,0000*44
  3429. $GPGSA,A,3,25,19,17,13,11,08,03,,,,,,1.8,1.0,1.4*3F
  3430. $GPRMC,145417.741,A,2831.4776,N,08041.0089,W,0.07,103.31,211108,,*1B
  3431. $GPGGA,145417.741,2831.4776,N,08041.0089,W,1,08,0.8,5.5,M,-31.2,M,0.0,0000*4B
  3432. $GPGSA,A,3,25,19,28,17,13,11,08,03,,,,,1.7,0.8,1.4*33
  3433. $GPRMC,145418.741,A,2831.4776,N,08041.0092,W,0.04,80.06,211108,,*23
  3434. $GPGGA,145418.741,2831.4776,N,08041.0092,W,1,08,0.8,4.9,M,-31.2,M,0.0,0000*43
  3435. $GPGSA,A,3,25,19,28,17,13,11,08,03,,,,,1.7,0.8,1.4*33
  3436. $GPRMC,145419.740,A,2831.4775,N,08041.0095,W,0.11,129.61,211108,,*10
  3437. $GPGGA,145419.740,2831.4775,N,08041.0095,W,1,08,0.8,4.2,M,-31.2,M,0.0,0000*4C
  3438. $GPGSA,A,3,25,19,28,17,13,11,08,03,,,,,1.7,0.8,1.4*33
  3439. $GPRMC,145421.740,A,2831.4775,N,08041.0097,W,0.06,3.14,211108,,*14
  3440. $GPGGA,145421.740,2831.4775,N,08041.0097,W,1,07,1.0,1.8,M,-31.2,M,0.0,0000*4C
  3441. $GPGSA,A,3,25,19,17,13,11,08,03,,,,,,1.8,1.0,1.4*3F
  3442. $GPRMC,145422.740,A,2831.4775,N,08041.0095,W,0.19,121.49,211108,,*12
  3443. $GPGGA,145422.740,2831.4775,N,08041.0095,W,1,07,1.0,1.2,M,-31.2,M,0.0,0000*47
  3444. $GPGSA,A,3,25,19,28,17,13,11,03,,,,,,1.9,1.0,1.6*3E
  3445. $GPRMC,145423.740,A,2831.4774,N,08041.0094,W,0.12,132.08,211108,,*1F
  3446. $GPGGA,145423.740,2831.4774,N,08041.0094,W,1,07,1.0,0.8,M,-31.2,M,0.0,0000*4D
  3447. $GPGSA,A,3,25,19,28,17,13,11,03,,,,,,1.9,1.0,1.6*3E
  3448. $GPRMC,145424.740,A,2831.4773,N,08041.0093,W,0.01,230.23,211108,,*12
  3449. $GPGGA,145424.740,2831.4773,N,08041.0093,W,1,06,2.0,0.8,M,-31.2,M,0.0,0000*48
  3450. $GPGSA,A,3,25,19,17,13,11,03,,,,,,,2.7,2.0,1.8*34
  3451. $GPRMC,145426.740,A,2831.4772,N,08041.0090,W,0.12,119.79,211108,,*17
  3452. $GPGGA,145426.740,2831.4772,N,08041.0090,W,1,06,1.4,2.4,M,-31.2,M,0.0,0000*41
  3453. $GPGSA,A,3,25,19,28,17,13,11,,,,,,,3.4,1.4,3.0*32
  3454. $GPRMC,145427.740,A,2831.4772,N,08041.0089,W,0.04,101.25,211108,,*19
  3455. $GPGGA,145427.740,2831.4772,N,08041.0089,W,1,07,1.2,3.4,M,-31.2,M,0.0,0000*4E
  3456. $GPGSA,A,3,25,19,28,17,13,11,08,,,,,,2.9,1.2,2.5*34
  3457. $GPRMC,145428.740,A,2831.4773,N,08041.0086,W,0.02,74.84,211108,,*26
  3458. $GPGGA,145428.740,2831.4773,N,08041.0086,W,1,08,0.8,4.3,M,-31.2,M,0.0,0000*4B
  3459. $GPGSA,A,3,25,19,28,17,13,11,08,03,,,,,1.7,0.8,1.4*33
  3460. $GPRMC,145429.740,A,2831.4773,N,08041.0084,W,0.04,150.43,211108,,*1F
  3461. $GPGGA,145429.740,2831.4773,N,08041.0084,W,1,08,0.8,5.2,M,-31.2,M,0.0,0000*48
  3462. $GPGSA,A,3,25,19,28,17,13,11,08,03,,,,,1.7,0.8,1.4*33
  3463.  
  3464. $GPRMC,145431.740,A,2831.4775,N,08041.0078,W,0.14,79.50,211108,,*2A
  3465. $GPGGA,145431.740,2831.4775,N,08041.0078,W,1,07,1.2,6.6,M,-31.2,M,0.0,0000*47
  3466. $GPGSA,A,3,25,19,28,17,13,11,08,,,,,,2.9,1.2,2.5*34
  3467. $GPRMC,145432.740,A,2831.4775,N,08041.0073,W,0.08,78.73,211108,,*2F
  3468. $GPGGA,145432.740,2831.4775,N,08041.0073,W,1,06,1.4,6.6,M,-31.2,M,0.0,0000*48
  3469. $GPGSA,A,3,25,19,28,17,13,11,,,,,,,3.4,1.4,3.0*32
  3470. $GPRMC,145433.740,A,2831.4777,N,08041.0069,W,0.10,126.64,211108,,*12
  3471. $GPGGA,145433.740,2831.4777,N,08041.0069,W,1,07,1.0,6.3,M,-31.2,M,0.0,0000*40
  3472. $GPGSA,A,3,25,19,28,17,13,11,03,,,,,,1.9,1.0,1.6*3E
  3473. $GPRMC,145434.740,A,2831.4778,N,08041.0066,W,0.06,4.52,211108,,*16
  3474. $GPGGA,145434.740,2831.4778,N,08041.0066,W,1,08,0.8,6.3,M,-31.2,M,0.0,0000*41
  3475. $GPGSA,A,3,25,19,28,17,13,11,08,03,,,,,1.7,0.8,1.4*33
  3476. $GPRMC,145436.739,A,2831.4780,N,08041.0062,W,0.16,68.33,211108,,*25
  3477. $GPGGA,145436.739,2831.4780,N,08041.0062,W,1,07,1.0,6.2,M,-31.2,M,0.0,0000*49
  3478. $GPGSA,A,3,25,19,28,17,13,11,03,,,,,,1.9,1.0,1.6*3E
  3479. $GPRMC,145437.739,A,2831.4780,N,08041.0060,W,0.09,116.20,211108,,*12
  3480. $GPGGA,145437.739,2831.4780,N,08041.0060,W,1,08,0.8,5.7,M,-31.2,M,0.0,0000*4A
  3481. $GPGSA,A,3,25,19,28,17,13,11,08,03,,,,,1.7,0.8,1.4*33
  3482. $GPRMC,145438.739,A,2831.4779,N,08041.0057,W,0.03,109.40,211108,,*1D
  3483. $GPGGA,145438.739,2831.4779,N,08041.0057,W,1,08,0.8,4.7,M,-31.2,M,0.0,0000*46
  3484. $GPGSA,A,3,25,19,28,17,13,11,08,03,,,,,1.7,0.8,1.4*33
  3485. $GPRMC,145439.739,A,2831.4778,N,08041.0055,W,0.07,96.99,211108,,*28
  3486. $GPGGA,145439.739,2831.4778,N,08041.0055,W,1,07,1.0,3.9,M,-31.2,M,0.0,0000*4B
  3487. $GPGSA,A,3,25,19,28,17,13,11,03,,,,,,1.9,1.0,1.6*3E
  3488. -31.2,M,0.0,0000*4F
  3489. $GPGSA,A,3,25,19,28,17,13,11,08,03,,,,,1.7,0.8,1.4*33
  3490. $GPRMC,145442.739,A,2831.4770,N,08041.0047,W,0.30,135.44,211108,,*13
  3491. $GPGGA,145442.739,2831.4770,N,08041.0047,W,1,08,0.8,1.8,M,-31.2,M,0.0,0000*49
  3492. $GPGSA,A,3,25,19,28,17,13,11,08,03,,,,,1.7,0.8,1.4*33
  3493. $GPRMC,145443.739,A,2831.4767,N,08041.0044,W,0.15,125.16,211108,,*16
  3494. $GPGGA,145443.739,2831.4767,N,08041.0044,W,1,08,0.8,1.5,M,-31.2,M,0.0,0000*40
  3495. $GPGSA,A,3,25,19,28,17,13,11,08,03,,,,,1.7,0.8,1.4*33
  3496. $GPRMC,145444.739,A,2831.4764,N,08041.0043,W,0.09,114.26,211108,,*19
  3497. $GPGGA,145444.739,2831.4764,N,08041.0043,W,1,08,0.8,0.9,M,-31.2,M,0.0,0000*4E
  3498. $GPGSA,A,3,25,19,28,17,13,11,08,03,,,,,1.7,0.8,1.4*33
  3499. $GPRMC,145446.739,A,2831.4759,N,08041.0044,W,0.04,149.05,211108,,*16
  3500. $GPGGA,145446.739,2831.4759,N,08041.0044,W,1,07,1.0,-1.2,M,-31.2,M,0.0,0000*64
  3501. $GPGSA,A,3,25,19,28,17,13,11,03,,,,,,1.9,1.0,1.6*3E
  3502. $GPRMC,145447.739,A,2831.4758,N,08041.0046,W,0.04,21.39,211108,,*24
  3503. $GPGGA,145447.739,2831.4758,N,08041.0046,W,1,08,0.8,-2.2,M,-31.2,M,0.0,0000*63
  3504. $GPGSA,A,3,25,19,28,17,13,11,08,03,,,,,1.7,0.8,1.4*33
  3505. $GPRMC,145448.739,A,2831.4757,N,08041.0048,W,0.10,120.77,211108,,*15
  3506. $GPGGA,145448.739,2831.4757,N,08041.0048,W,1,08,0.8,-2.6,M,-31.2,M,0.0,0000*69
  3507. $GPGSA,A,3,25,19,28,17,13,11,08,03,,,,,1.7,0.8,1.4*33
  3508. $GPRMC,145449.739,A,2831.4756,N,08041.0051,W,0.08,121.98,211108,,*14
  3509. $GPGGA,145449.739,2831.4756,N,08041.0051,W,1,08,0.8,-2.5,M,-31.2,M,0.0,0000*62
  3510. $GPGSA,A,3,25,19,28,17,13,11,08,03,,,,,1.7,0.8,1.4*33
  3511. $GPRMC,145451.739,A,2831.4756,N,08041.0056,W,0.06,103.12,211108,,*16
  3512. $GPGGA,145451.739,2831.4756,N,08041.0056,W,1,07,1.0,-1.1,M,-31.2,M,0.0,0000*6D
  3513. $GPGSA,A,3,25,19,28,17,13,11,03,,,,,,1.9,1.0,1.6*3E
  3514. $GPRMC,145452.739,A,2831.4758,N,08041.0059,W,0.04,16.55,211108,,*20
  3515. $GPGGA,145452.739,2831.4758,N,08041.0059,W,1,06,1.2,-0.3,M,-31.2,M,0.0,0000*6F
  3516. $GPGSA,A,3,25,19,28,17,11,03,,,,,,,2.2,1.2,1.8*38
  3517. $GPRMC,145453.738,A,2831.4759,N,08041.0061,W,0.08,289.83,211108,,*19
  3518. $GPGGA,145453.738,2831.4759,N,08041.0061,W,1,08,1.0,-0.8,M,-31.2,M,0.0,0000*62
  3519. $GPGSA,A,3,25,19,28,07,17,13,11,03,,,,,1.7,1.0,1.3*32
  3520. $GPRMC,145454.738,A,2831.4762,N,08041.0063,W,0.06,140.18,211108,,*1E
  3521. $GPGGA,145454.738,2831.4762,N,08041.0063,W,1,08,1.0,-1.3,M,-31.2,M,0.0,0000*65
  3522. $GPGSA,A,3,25,19,28,07,17,13,11,03,,,,,1.7,1.0,1.3*32
  3523. $GPRMC,145456.738,A,2831.4768,N,08041.0066,W,0.10,349.05,211108,,*13
  3524. $GPGGA,145456.738,2831.4768,N,08041.0066,W,1,08,0.8,-3.7,M,-31.2,M,0.0,0000*67
  3525. $GPGSA,A,3,25,19,28,17,13,11,08,03,,,,,1.7,0.8,1.4*33
  3526. $GPRMC,145457.738,A,2831.4771,N,08041.0067,W,0.08,179.30,211108,,*15
  3527. $GPGGA,145457.738,2831.4771,N,08041.0067,W,1,08,0.8,-3.9,M,-31.2,M,0.0,0000*61
  3528. $GPGSA,A,3,25,19,28,17,13,11,08,03,,,,,1.7,0.8,1.4*33
  3529. $GPRMC,145458.738,A,2831.4775,N,08041.0067,W,0.12,162.15,211108,,*18
  3530. $GPGGA,145458.738,2831.4775,N,08041.0067,W,1,08,0.8,-3.7,M,-31.2,M,0.0,0000*64
  3531. $GPGSA,A,3,25,19,28,17,13,11,08,03,,,,,1.7,0.8,1.4*33
  3532. $GPRMC,145459.738,A,2831.4778,N,08041.0066,W,0.19,252.84,211108,,*16
  3533. $GPGGA,145459.738,2831.4778,N,08041.0066,W,1,08,1.0,-3.7,M,-31.2,M,0.0,0000*60
  3534. $GPGSA,A,3,25,19,28,07,17,13,11,03,,,,,1.7,1.0,1.3*32
  3535. $GPRMC,145501.738,A,2831.4785,N,08041.0063,W,0.04,151.10,211108,,*1C
  3536. $GPGGA,145501.738,2831.4785,N,08041.0063,W,1,08,0.8,-2.8,M,-31.2,M,0.0,0000*6C
  3537. $GPGSA,A,3,25,19,28,17,13,11,08,03,,,,,1.7,0.8,1.4*33
  3538. $GPRMC,145502.738,A,2831.4787,N,08041.0061,W,0.08,22.37,211108,,*23
  3539. $GPGGA,145502.738,2831.4787,N,08041.0061,W,1,08,0.8,-2.6,M,-31.2,M,0.0,0000*61
  3540. $GPGSA,A,3,25,19,28,17,13,11,08,03,,,,,1.7,0.8,1.4*33
  3541. $GPRMC,145503.738,A,2831.4788,N,08041.0060,W,0.13,140.99,211108,,*17
  3542. $GPGGA,145503.738,2831.4788,N,08041.0060,W,1,07,1.2,-2.5,M,-31.2,M,0.0,0000*69
  3543. $GPGSA,A,3,25,19,28,17,13,11,08,,,,,,2.8,1.2,2.5*35
  3544. $GPRMC,145504.738,A,2831.4787,N,08041.0059,W,0.05,120.18,211108,,*1D
  3545. $GPGGA,145504.738,2831.4787,N,08041.0059,W,1,08,0.8,-2.4,M,-31.2,M,0.0,0000*6E
  3546. $GPGSA,A,3,25,19,28,17,13,11,08,03,,,,,1.7,0.8,1.4*33
  3547. $GPRMC,145506.738,A,2831.4783,N,08041.0056,W,0.03,52.09,211108,,*26
  3548. $GPGGA,145506.738,2831.4783,N,08041.0056,W,1,08,0.8,-2.0,M,-31.2,M,0.0,0000*63
  3549. $GPGSA,A,3,25,19,28,17,13,11,08,03,,,,,1.7,0.8,1.4*33
  3550. $GPRMC,145507.738,A,2831.4782,N,08041.0055,W,0.07,157.53,211108,,*1A
  3551. $GPGGA,145507.738,2831.4782,N,08041.0055,W,1,08,0.8,-1.5,M,-31.2,M,0.0,0000*66
  3552. $GPGSA,A,3,25,19,28,17,13,11,08,03,,,,,1.7,0.8,1.4*33
  3553. $GPRMC,145508.738,A,2831.4780,N,08041.0055,W,0.20,207.13,211108,,*10
  3554. $GPGGA,145508.738,2831.4780,N,08041.0055,W,1,05,4.6,-1.1,M,-31.2,M,0.0,0000*68
  3555. $GPGSA,A,3,25,28,17,13,11,,,,,,,,8.6,4.6,7.3*33
  3556. $GPRMC,145509.738,A,2831.4775,N,08041.0057,W,0.06,140.10,211108,,*1E
  3557. $GPGGA,145509.738,2831.4775,N,08041.0057,W,1,08,0.8,1.0,M,-31.2,M,0.0,0000*4A
  3558. $GPGSA,A,3,25,19,28,17,13,11,08,03,,,,,1.7,0.8,1.4*33
  3559. $GPRMC,145511.737,A,2831.4772,N,08041.0064,W,0.08,103.55,211108,,*17
  3560. $GPGGA,145511.737,2831.4772,N,08041.0064,W,1,08,0.8,3.2,M,-31.2,M,0.0,0000*4B
  3561. $GPGSA,A,3,25,19,28,17,13,11,08,03,,,,,1.7,0.8,1.4*33
  3562. $GPRMC,145512.737,A,2831.4770,N,08041.0067,W,0.08,131.49,211108,,*19
  3563. $GPGGA,145512.737,2831.4770,N,08041.0067,W,1,08,0.8,4.0,M,-31.2,M,0.0,0000*4C
  3564. $GPGSA,A,3,25,19,28,17,13,11,08,03,,,,,1.7,0.8,1.4*33
  3565. $GPRMC,145513.737,A,2831.4768,N,08041.0069,W,0.03,120.38,211108,,*12
  3566. $GPGGA,145513.737,2831.4768,N,08041.0069,W,1,07,0.8,4.5,M,-31.2,M,0.0,0000*40
  3567. $GPGSA,A,3,25,28,17,13,11,08,03,,,,,,1.7,0.8,1.4*3B
  3568. $GPRMC,145514.737,A,2831.4767,N,08041.0071,W,0.04,101.10,211108,,*1D
  3569. $GPGGA,145514.737,2831.4767,N,08041.0071,W,1,08,0.8,4.8,M,-31.2,M,0.0,0000*43
  3570. $GPGSA,A,3,25,19,28,17,13,11,08,03,,,,,1.7,0.8,1.4*33
  3571. $GPRMC,145516.737,A,2831.4766,N,08041.0069,W,0.04,72.90,211108,,*2A
  3572. $GPGGA,145516.737,2831.4766,N,08041.0069,W,1,07,1.0,4.1,M,-31.2,M,0.0,0000*46
  3573. $GPGSA,A,3,25,19,28,17,13,11,03,,,,,,1.9,1.0,1.6*3E
  3574. $GPRMC,145517.737,A,2831.4765,N,08041.0068,W,0.08,125.97,211108,,*11
  3575. $GPGGA,145517.737,2831.4765,N,08041.0068,W,1,06,1.0,3.5,M,-31.2,M,0.0,0000*47
  3576. $GPGSA,A,3,19,28,17,13,11,03,,,,,,,2.2,1.0,1.9*3E
  3577. $GPRMC,145518.737,A,2831.4766,N,08041.0065,W,0.08,86.30,211108,,*25
  3578. $GPGGA,145518.737,2831.4766,N,08041.0065,W,1,06,1.0,2.7,M,-31.2,M,0.0,0000*45
  3579. $GPGSA,A,3,19,28,17,13,11,03,,,,,,,2.2,1.0,1.9*3E
  3580. $GPRMC,145519.737,A,2831.4768,N,08041.0063,W,0.05,63.50,211108,,*2C
  3581. $GPGGA,145519.737,2831.4768,N,08041.0063,W,1,06,1.0,2.0,M,-31.2,M,0.0,0000*4B
  3582. $GPGSA,A,3,19,28,17,13,11,03,,,,,,,2.2,1.0,1.9*3E
  3583. $GPRMC,145521.737,A,2831.4772,N,08041.0059,W,0.05,96.80,211108,,*22
  3584. $GPGGA,145521.737,2831.4772,N,08041.0059,W,1,05,1.2,0.4,M,-31.2,M,0.0,0000*45
  3585. $GPGSA,A,3,19,28,17,11,03,,,,,,,,2.4,1.2,2.1*33
  3586. $GPRMC,145522.737,A,2831.4774,N,08041.0057,W,0.09,92.05,211108,,*2C
  3587. $GPGGA,145522.737,2831.4774,N,08041.0057,W,1,05,1.2,-0.4,M,-31.2,M,0.0,0000*63
  3588. $GPGSA,A,3,19,28,17,11,03,,,,,,,,2.4,1.2,2.1*33
  3589. $GPRMC,145523.737,A,2831.4776,N,08041.0056,W,0.09,105.09,211108,,*1D
  3590. $GPGGA,145523.737,2831.4776,N,08041.0056,W,1,04,2.0,-1.3,M,-31.2,M,0.0,0000*67
  3591. $GPGSA,A,3,19,28,17,11,,,,,,,,,5.6,2.0,5.2*30
  3592. $GPRMC,145524.737,A,2831.4780,N,08041.0055,W,0.10,94.55,211108,,*28
  3593. $GPGGA,145524.737,2831.4780,N,08041.0055,W,1,07,1.0,-2.7,M,-31.2,M,0.0,0000*6D
  3594. $GPGSA,A,3,19,28,07,17,11,08,03,,,,,,1.8,1.0,1.4*37
  3595. $GPRMC,145526.737,A,2831.4785,N,08041.0052,W,0.12,90.33,211108,,*2E
  3596. $GPGGA,145526.737,2831.4785,N,08041.0052,W,1,06,1.0,-4.2,M,-31.2,M,0.0,0000*6F
  3597. $GPGSA,A,3,19,28,17,13,11,03,,,,,,,2.2,1.0,1.9*3E
  3598. $GPRMC,145527.737,A,2831.4787,N,08041.0050,W,0.33,45.60,211108,,*22
  3599. $GPGGA,145527.737,2831.4787,N,08041.0050,W,1,07,1.2,-4.7,M,-31.2,M,0.0,0000*68
  3600. $GPGSA,A,3,25,19,28,17,13,11,08,,,,,,2.8,1.2,2.5*35
  3601. $GPRMC,145528.736,A,2831.4789,N,08041.0048,W,0.16,62.60,211108,,*29
  3602. $GPGGA,145528.736,2831.4789,N,08041.0048,W,1,07,1.2,-4.9,M,-31.2,M,0.0,0000*6F
  3603. $GPGSA,A,3,25,19,28,17,13,11,08,,,,,,2.8,1.2,2.5*35
  3604. $GPRMC,145529.736,A,2831.4790,N,08041.0048,W,0.19,114.78,211108,,*16
  3605. $GPGGA,145529.736,2831.4790,N,08041.0048,W,1,07,1.0,-5.1,M,-31.2,M,0.0,0000*6D
  3606. $GPGSA,A,3,25,19,28,13,11,08,03,,,,,,1.8,1.0,1.5*32
  3607. $GPRMC,145531.736,A,2831.4789,N,08041.0048,W,0.21,137.57,211108,,*10
  3608. $GPGGA,145531.736,2831.4789,N,08041.0048,W,1,08,0.8,-4.9,M,-31.2,M,0.0,0000*63
  3609. $GPGSA,A,3,25,19,28,17,13,11,08,03,,,,,1.7,0.8,1.4*33
  3610. $GPRMC,145532.736,A,2831.4789,N,08041.0051,W,0.11,168.03,211108,,*13
  3611. $GPGGA,145532.736,2831.4789,N,08041.0051,W,1,08,0.8,-3.6,M,-31.2,M,0.0,0000*60
  3612. $GPGSA,A,3,25,19,28,17,13,11,08,03,,,,,1.7,0.8,1.4*33
  3613. $GPRMC,145533.736,A,2831.4788,N,08041.0055,W,0.05,123.95,211108,,*12
  3614. $GPGGA,145533.736,2831.4788,N,08041.0055,W,1,07,1.0,-2.3,M,-31.2,M,0.0,0000*66
  3615. $GPGSA,A,3,25,19,28,17,13,11,03,,,,,,1.9,1.0,1.6*3E
  3616. $GPRMC,145534.736,A,2831.4789,N,08041.0057,W,0.13,116.95,211108,,*17
  3617. $GPGGA,145534.736,2831.4789,N,08041.0057,W,1,06,1.0,-1.3,M,-31.2,M,0.0,0000*60
  3618. $GPGSA,A,3,19,28,17,13,11,03,,,,,,,2.2,1.0,1.9*3E
  3619. $GPRMC,145536.736,A,2831.4791,N,08041.0063,W,0.02,292.44,211108,,*18
  3620. $GPGGA,145536.736,2831.4791,N,08041.0063,W,1,06,1.0,0.1,M,-31.2,M,0.0,0000*42
  3621. $GPGSA,A,3,19,28,17,13,11,03,,,,,,,2.2,1.0,1.9*3E
  3622. $GPRMC,145537.736,A,2831.4791,N,08041.0065,W,0.10,103.25,211108,,*10
  3623. $GPGGA,145537.736,2831.4791,N,08041.0065,W,1,06,1.0,0.7,M,-31.2,M,0.0,0000*43
  3624. $GPGSA,A,3,19,28,17,13,11,03,,,,,,,2.2,1.0,1.9*3E
  3625. $GPRMC,145538.736,A,2831.4790,N,08041.0066,W,0.08,108.46,211108,,*1A
  3626. $GPGGA,145538.736,2831.4790,N,08041.0066,W,1,07,1.0,1.4,M,-31.2,M,0.0,0000*4D
  3627. $GPGSA,A,3,25,19,28,17,13,11,03,,,,,,1.9,1.0,1.6*3E
  3628. $GPRMC,145539.736,A,2831.4788,N,08041.0066,W,0.05,85.76,211108,,*28
  3629. $GPGGA,145539.736,2831.4788,N,08041.0066,W,1,07,1.0,2.3,M,-31.2,M,0.0,0000*41
  3630. $GPGSA,A,3,25,19,28,17,13,11,03,,,,,,1.9,1.0,1.6*3E
  3631. $GPRMC,145541.736,A,2831.4784,N,08041.0066,W,0.08,43.79,211108,,*23
  3632. $GPGGA,145541.736,2831.4784,N,08041.0066,W,1,06,1.0,4.9,M,-31.2,M,0.0,0000*4F
  3633. $GPGSA,A,3,19,28,17,11,08,03,,,,,,,2.0,1.0,1.7*38
  3634. $GPRMC,145542.736,A,2831.4781,N,08041.0066,W,0.09,125.49,211108,,*16
  3635. $GPGGA,145542.736,2831.4781,N,08041.0066,W,1,06,1.0,6.2,M,-31.2,M,0.0,0000*40
  3636. $GPGSA,A,3,19,28,17,13,11,03,,,,,,,2.2,1.0,1.9*3E
  3637. $GPRMC,145543.736,A,2831.4778,N,08041.0065,W,0.07,105.44,211108,,*13
  3638. $GPGGA,145543.736,2831.4778,N,08041.0065,W,1,07,1.0,7.3,M,-31.2,M,0.0,0000*45
  3639. $GPGSA,A,3,25,19,28,17,13,11,03,,,,,,1.9,1.0,1.6*3E
  3640. $GPRMC,145544.736,A,2831.4775,N,08041.0063,W,0.07,132.78,211108,,*14
  3641. $GPGGA,145544.736,2831.4775,N,08041.0063,W,1,07,1.2,8.0,M,-31.2,M,0.0,0000*47
  3642. $GPGSA,A,3,25,19,28,07,17,11,03,,,,,,1.9,1.2,1.5*3A
  3643. $GPRMC,145546.735,A,2831.4768,N,08041.0058,W,0.13,3.86,211108,,*16
  3644. $GPGGA,145546.735,2831.4768,N,08041.0058,W,1,08,0.8,9.0,M,-31.2,M,0.0,0000*47
  3645. $GPGSA,A,3,25,19,28,17,13,11,08,03,,,,,1.7,0.8,1.4*33
  3646. $GPRMC,145547.735,A,2831.4765,N,08041.0054,W,0.10,114.88,211108,,*1C
  3647. $GPGGA,145547.735,2831.4765,N,08041.0054,W,1,07,1.0,8.9,M,-31.2,M,0.0,0000*49
  3648. $GPGSA,A,3,25,19,28,17,11,08,03,,,,,,1.9,1.0,1.5*37
  3649. $GPRMC,145548.735,A,2831.4760,N,08041.0050,W,0.08,104.79,211108,,*14
  3650. $GPGGA,145548.735,2831.4760,N,08041.0050,W,1,07,1.0,8.4,M,-31.2,M,0.0,0000*4A
  3651. $GPGSA,A,3,25,19,28,17,11,08,03,,,,,,1.9,1.0,1.5*37
  3652. $GPRMC,145549.735,A,2831.4756,N,08041.0046,W,0.10,119.86,211108,,*12
  3653. $GPGGA,145549.735,2831.4756,N,08041.0046,W,1,07,1.0,8.0,M,-31.2,M,0.0,0000*4D
  3654. $GPGSA,A,3,25,19,28,17,11,08,03,,,,,,1.9,1.0,1.5*37
  3655. $GPRMC,145551.735,A,2831.4751,N,08041.0043,W,0.10,116.73,211108,,*1C
  3656. $GPGGA,145551.735,2831.4751,N,08041.0043,W,1,07,1.0,7.4,M,-31.2,M,0.0,0000*4D
  3657. $GPGSA,A,3,25,19,28,17,11,08,03,,,,,,1.9,1.0,1.5*37
  3658. $GPRMC,145552.735,A,2831.4749,N,08041.0043,W,0.03,58.40,211108,,*2F
  3659. $GPGGA,145552.735,2831.4749,N,08041.0043,W,1,07,1.0,7.1,M,-31.2,M,0.0,0000*42
  3660. $GPGSA,A,3,25,19,28,17,13,11,03,,,,,,1.9,1.0,1.6*3E
  3661. $GPRMC,145553.735,A,2831.4750,N,08041.0045,W,0.06,74.93,211108,,*25
  3662. $GPGGA,145553.735,2831.4750,N,08041.0045,W,1,07,1.0,7.1,M,-31.2,M,0.0,0000*4D
  3663. $GPGSA,A,3,25,19,28,17,13,11,03,,,,,,1.9,1.0,1.6*3E
  3664. $GPRMC,145554.735,A,2831.4750,N,08041.0046,W,0.03,110.20,211108,,*1F
  3665. $GPGGA,145554.735,2831.4750,N,08041.0046,W,1,08,1.0,6.8,M,-31.2,M,0.0,0000*4E
  3666. $GPGSA,A,3,25,19,28,07,17,13,11,03,,,,,1.7,1.0,1.3*32
  3667. $GPRMC,145556.735,A,2831.4749,N,08041.0047,W,0.04,70.94,211108,,*2B
  3668. $GPGGA,145556.735,2831.4749,N,08041.0047,W,1,07,1.2,3.6,M,-31.2,M,0.0,0000*43
  3669. $GPGSA,A,3,25,19,28,07,17,11,03,,,,,,1.9,1.2,1.5*3A
  3670. $GPRMC,145557.735,A,2831.4749,N,08041.0049,W,0.14,128.55,211108,,*14
  3671. $GPGGA,145557.735,2831.4749,N,08041.0049,W,1,08,0.8,2.5,M,-31.2,M,0.0,0000*4A
  3672. $GPGSA,A,3,25,19,28,17,13,11,08,03,,,,,1.7,0.8,1.4*33
  3673. $GPRMC,145558.735,A,2831.4749,N,08041.0051,W,0.06,25.54,211108,,*2C
  3674. $GPGGA,145558.735,2831.4749,N,08041.0051,W,1,08,0.8,1.9,M,-31.2,M,0.0,0000*43
  3675. $GPGSA,A,3,25,19,28,17,13,11,08,03,,,,,1.7,0.8,1.4*33
  3676. $GPRMC,145559.735,A,2831.4748,N,08041.0052,W,0.08,101.37,211108,,*13
  3677. $GPGGA,145559.735,2831.4748,N,08041.0052,W,1,08,1.0,1.0,M,-31.2,M,0.0,0000*40
  3678. $GPGSA,A,3,25,19,28,07,17,13,11,03,,,,,1.7,1.0,1.3*32
  3679. $GPRMC,145601.735,A,2831.4747,N,08041.0054,W,0.06,108.16,211108,,*10
  3680. $GPGGA,145601.735,2831.4747,N,08041.0054,W,1,07,1.0,-0.2,M,-31.2,M,0.0,0000*66
  3681. $GPGSA,A,3,25,19,28,17,11,08,03,,,,,,1.9,1.0,1.5*37
  3682. $GPRMC,145602.735,A,2831.4746,N,08041.0054,W,0.08,94.23,211108,,*2E
  3683. $GPGGA,145602.735,2831.4746,N,08041.0054,W,1,06,1.2,-0.3,M,-31.2,M,0.0,0000*66
  3684. $GPGSA,A,3,25,19,28,17,11,03,,,,,,,2.2,1.2,1.8*38
  3685. $GPRMC,145603.734,A,2831.4745,N,08041.0054,W,0.07,136.48,211108,,*16
  3686. $GPGGA,145603.734,2831.4745,N,08041.0054,W,1,07,1.0,-0.3,M,-31.2,M,0.0,0000*66
  3687. $GPGSA,A,3,25,19,28,17,13,11,03,,,,,,1.9,1.0,1.6*3E
  3688. $GPRMC,145604.734,A,2831.4745,N,08041.0054,W,0.08,81.28,211108,,*25
  3689. $GPGGA,145604.734,2831.4745,N,08041.0054,W,1,07,1.0,-0.8,M,-31.2,M,0.0,0000*6A
  3690. $GPGSA,A,3,25,19,28,17,13,11,03,,,,,,1.9,1.0,1.6*3E
  3691. $GPRMC,145606.734,A,2831.4747,N,08041.0054,W,0.09,318.75,211108,,*1F
  3692. $GPGGA,145606.734,2831.4747,N,08041.0054,W,1,07,1.0,-2.4,M,-31.2,M,0.0,0000*64
  3693. $GPGSA,A,3,25,19,28,17,13,11,03,,,,,,1.9,1.0,1.6*3E
  3694. $GPRMC,145607.734,A,2831.4749,N,08041.0055,W,0.06,59.51,211108,,*2E
  3695. $GPGGA,145607.734,2831.4749,N,08041.0055,W,1,06,1.2,-3.1,M,-31.2,M,0.0,0000*6D
  3696. $GPGSA,A,3,25,19,28,17,11,03,,,,,,,2.2,1.2,1.8*38
  3697. $GPRMC,145608.734,A,2831.4751,N,08041.0056,W,0.05,126.31,211108,,*17
  3698. $GPGGA,145608.734,2831.4751,N,08041.0056,W,1,07,1.0,-3.6,M,-31.2,M,0.0,0000*6C
  3699. $GPGSA,A,3,25,19,28,17,11,08,03,,,,,,1.9,1.0,1.5*37
  3700. $GPRMC,145609.734,A,2831.4753,N,08041.0057,W,0.05,80.41,211108,,*2F
  3701. $GPGGA,145609.734,2831.4753,N,08041.0057,W,1,06,1.2,-3.9,M,-31.2,M,0.0,0000*62
  3702. $GPGSA,A,3,25,19,28,17,11,03,,,,,,,2.2,1.2,1.8*38
  3703. $GPRMC,145611.734,A,2831.4757,N,08041.0059,W,0.07,130.58,211108,,*1C
  3704. $GPGGA,145611.734,2831.4757,N,08041.0059,W,1,06,1.2,-4.4,M,-31.2,M,0.0,0000*6B
  3705. $GPGSA,A,3,25,19,28,17,11,03,,,,,,,2.2,1.2,1.8*38
  3706. $GPRMC,145612.734,A,2831.4758,N,08041.0060,W,0.09,150.70,211108,,*18
  3707. $GPGGA,145612.734,2831.4758,N,08041.0060,W,1,07,1.0,-4.7,M,-31.2,M,0.0,0000*6D
  3708. $GPGSA,A,3,25,19,28,17,13,11,03,,,,,,1.9,1.0,1.6*3E
  3709. $GPRMC,145613.734,A,2831.4760,N,08041.0060,W,0.14,111.86,211108,,*12
  3710. $GPGGA,145613.734,2831.4760,N,08041.0060,W,1,06,1.2,-5.1,M,-31.2,M,0.0,0000*63
  3711. $GPGSA,A,3,25,19,28,17,11,03,,,,,,,2.2,1.2,1.8*38
  3712. $GPRMC,145614.734,A,2831.4762,N,08041.0061,W,0.07,126.35,211108,,*18
  3713. $GPGGA,145614.734,2831.4762,N,08041.0061,W,1,07,1.0,-5.6,M,-31.2,M,0.0,0000*63
  3714. $GPGSA,A,3,25,19,28,17,13,11,03,,,,,,1.9,1.0,1.6*3E
  3715. $GPRMC,145616.734,A,2831.4768,N,08041.0063,W,0.06,99.62,211108,,*24
  3716. $GPGGA,145616.734,2831.4768,N,08041.0063,W,1,07,1.0,-6.0,M,-31.2,M,0.0,0000*6C
  3717. $GPGSA,A,3,25,19,28,17,13,11,03,,,,,,1.9,1.0,1.6*3E
  3718. $GPRMC,145617.734,A,2831.4771,N,08041.0064,W,0.05,85.54,211108,,*21
  3719. $GPGGA,145617.734,2831.4771,N,08041.0064,W,1,07,1.0,-6.0,M,-31.2,M,0.0,0000*62
  3720. $GPGSA,A,3,25,19,28,17,13,11,03,,,,,,1.9,1.0,1.6*3E
  3721. $GPRMC,145618.733,A,2831.4773,N,08041.0065,W,0.11,120.72,211108,,*15
  3722. $GPGGA,145618.733,2831.4773,N,08041.0065,W,1,06,1.2,-6.0,M,-31.2,M,0.0,0000*6A
  3723. $GPGSA,A,3,25,19,28,17,11,03,,,,,,,2.2,1.2,1.8*38
  3724. $GPRMC,145619.733,A,2831.4775,N,08041.0065,W,0.35,140.48,211108,,*1B
  3725. $GPGGA,145619.733,2831.4775,N,08041.0065,W,1,07,1.0,-5.8,M,-31.2,M,0.0,0000*65
  3726. $GPGSA,A,3,25,19,28,17,11,08,03,,,,,,1.9,1.0,1.5*37
  3727. $GPRMC,145621.733,A,2831.4779,N,08041.0062,W,0.07,111.59,211108,,*1E
  3728. $GPGGA,145621.733,2831.4779,N,08041.0062,W,1,08,0.8,-4.4,M,-31.2,M,0.0,0000*6E
  3729. $GPGSA,A,3,25,19,28,17,13,11,08,03,,,,,1.7,0.8,1.4*33
  3730. $GPRMC,145622.733,A,2831.4780,N,08041.0059,W,0.06,110.16,211108,,*18
  3731. $GPGGA,145622.733,2831.4780,N,08041.0059,W,1,08,0.8,-3.5,M,-31.2,M,0.0,0000*65
  3732. $GPGSA,A,3,25,19,28,17,13,11,08,03,,,,,1.7,0.8,1.4*33
  3733. $GPRMC,145623.733,A,2831.4780,N,08041.0056,W,0.08,133.26,211108,,*1A
  3734. $GPGGA,145623.733,2831.4780,N,08041.0056,W,1,07,1.0,-2.5,M,-31.2,M,0.0,0000*6C
  3735. $GPGSA,A,3,25,19,28,17,11,08,03,,,,,,1.9,1.0,1.5*37
  3736. $GPRMC,145624.733,A,2831.4780,N,08041.0053,W,0.09,71.20,211108,,*28
  3737. $GPGGA,145624.733,2831.4780,N,08041.0053,W,1,08,0.8,-1.2,M,-31.2,M,0.0,0000*6C
  3738. $GPGSA,A,3,25,19,28,17,13,11,08,03,,,,,1.7,0.8,1.4*33
  3739. $GPRMC,145626.733,A,2831.4779,N,08041.0046,W,0.06,73.52,211108,,*20
  3740. $GPGGA,145626.733,2831.4779,N,08041.0046,W,1,07,1.0,0.8,M,-31.2,M,0.0,0000*4C
  3741. $GPGSA,A,3,25,19,28,17,13,11,03,,,,,,1.9,1.0,1.6*3E
  3742. $GPRMC,145627.733,A,2831.4779,N,08041.0043,W,0.15,129.64,211108,,*1D
  3743. $GPGGA,145627.733,2831.4779,N,08041.0043,W,1,09,0.8,1.3,M,-31.2,M,0.0,0000*45
  3744. $GPGSA,A,3,25,19,28,07,17,13,11,08,03,,,,1.5,0.8,1.2*30
  3745. $GPRMC,145628.733,A,2831.4778,N,08041.0041,W,0.11,142.14,211108,,*1F
  3746. $GPGGA,145628.733,2831.4778,N,08041.0041,W,1,08,0.8,1.5,M,-31.2,M,0.0,0000*4E
  3747. $GPGSA,A,3,25,19,28,17,13,11,08,03,,,,,1.7,0.8,1.4*33
  3748. $GPRMC,145629.733,A,2831.4777,N,08041.0039,W,0.06,172.51,211108,,*1A
  3749. $GPGGA,145629.733,2831.4777,N,08041.0039,W,1,08,0.8,1.8,M,-31.2,M,0.0,0000*42
  3750. $GPGSA,A,3,25,19,28,17,13,11,08,03,,,,,1.7,0.8,1.4*33
  3751. $GPRMC,145631.733,A,2831.4775,N,08041.0039,W,0.06,105.99,211108,,*15
  3752. $GPGGA,145631.733,2831.4775,N,08041.0039,W,1,08,0.8,2.2,M,-31.2,M,0.0,0000*40
  3753. $GPGSA,A,3,25,19,28,17,13,11,08,03,,,,,1.7,0.8,1.4*33
  3754. $GPRMC,145632.733,A,2831.4775,N,08041.0040,W,0.07,89.13,211108,,*2E
  3755. $GPGGA,145632.733,2831.4775,N,08041.0040,W,1,07,1.0,2.3,M,-31.2,M,0.0,0000*4A
  3756. $GPGSA,A,3,25,19,28,17,13,11,03,,,,,,1.9,1.0,1.6*3E
  3757. $GPRMC,145633.733,A,2831.4774,N,08041.0043,W,0.08,128.30,211108,,*19
  3758. $GPGGA,145633.733,2831.4774,N,08041.0043,W,1,07,1.0,2.5,M,-31.2,M,0.0,0000*4F
  3759. $GPGSA,A,3,25,19,28,17,13,11,03,,,,,,1.9,1.0,1.6*3E
  3760. $GPRMC,145634.733,A,2831.4773,N,08041.0045,W,0.06,107.55,211108,,*1F
  3761. $GPGGA,145634.733,2831.4773,N,08041.0045,W,1,07,1.0,2.7,M,-31.2,M,0.0,0000*4B
  3762. $GPGSA,A,3,25,19,28,17,13,11,03,,,,,,1.9,1.0,1.6*3E
  3763. $GPRMC,145636.732,A,2831.4771,N,08041.0045,W,0.12,123.16,211108,,*1A
  3764. $GPGGA,145636.732,2831.4771,N,08041.0045,W,1,07,1.0,2.1,M,-31.2,M,0.0,0000*4C
  3765. $GPGSA,A,3,25,19,28,17,11,08,03,,,,,,1.9,1.0,1.5*37
  3766. $GPRMC,145637.732,A,2831.4770,N,08041.0045,W,0.12,129.24,211108,,*11
  3767. $GPGGA,145637.732,2831.4770,N,08041.0045,W,1,08,0.8,1.5,M,-31.2,M,0.0,0000*4D
  3768. $GPGSA,A,3,25,19,28,17,13,11,08,03,,,,,1.7,0.8,1.4*33
  3769. $GPRMC,145638.732,A,2831.4768,N,08041.0045,W,0.04,119.29,211108,,*1E
  3770. $GPGGA,145638.732,2831.4768,N,08041.0045,W,1,07,1.0,1.0,M,-31.2,M,0.0,0000*48
  3771. $GPGSA,A,3,25,19,28,17,11,08,03,,,,,,1.9,1.0,1.5*37
  3772. $GPRMC,145639.732,A,2831.4768,N,08041.0045,W,0.05,104.46,211108,,*1B
  3773. $GPGGA,145639.732,2831.4768,N,08041.0045,W,1,07,1.0,0.9,M,-31.2,M,0.0,0000*41
  3774. $GPGSA,A,3,25,19,28,17,13,11,03,,,,,,1.9,1.0,1.6*3E
  3775. $GPRMC,145641.732,A,2831.4769,N,08041.0047,W,0.06,355.22,211108,,*10
  3776. $GPGGA,145641.732,2831.4769,N,08041.0047,W,1,08,0.8,1.8,M,-31.2,M,0.0,0000*4B
  3777. $GPGSA,A,3,25,19,28,17,13,11,08,03,,,,,1.7,0.8,1.4*33
  3778. $GPRMC,145642.732,A,2831.4769,N,08041.0049,W,0.05,110.93,211108,,*17
  3779. $GPGGA,145642.732,2831.4769,N,08041.0049,W,1,06,1.2,2.3,M,-31.2,M,0.0,0000*4B
  3780. $GPGSA,A,3,25,19,28,17,11,03,,,,,,,2.2,1.2,1.8*38
  3781. $GPRMC,145643.732,A,2831.4768,N,08041.0051,W,0.10,123.90,211108,,*19
  3782. $GPGGA,145643.732,2831.4768,N,08041.0051,W,1,07,1.0,2.5,M,-31.2,M,0.0,0000*47
  3783. $GPGSA,A,3,25,19,28,17,13,11,03,,,,,,1.9,1.0,1.6*3E
  3784. $GPRMC,145644.732,A,2831.4767,N,08041.0053,W,0.06,65.59,211108,,*22
  3785. $GPGGA,145644.732,2831.4767,N,08041.0053,W,1,07,1.0,2.8,M,-31.2,M,0.0,0000*40
  3786. $GPGSA,A,3,25,19,28,17,11,08,03,,,,,,1.9,1.0,1.5*37
  3787. $GPRMC,145646.732,A,2831.4764,N,08041.0058,W,0.08,116.35,211108,,*19
  3788. $GPGGA,145646.732,2831.4764,N,08041.0058,W,1,06,1.2,2.8,M,-31.2,M,0.0,0000*49
  3789. $GPGSA,A,3,25,19,28,17,11,03,,,,,,,2.2,1.2,1.8*38
  3790. $GPRMC,145647.732,A,2831.4763,N,08041.0060,W,0.05,99.82,211108,,*23
  3791. $GPGGA,145647.732,2831.4763,N,08041.0060,W,1,06,1.2,2.9,M,-31.2,M,0.0,0000*45
  3792. $GPGSA,A,3,25,19,28,17,11,03,,,,,,,2.2,1.2,1.8*38
  3793. $GPRMC,145648.732,A,2831.4763,N,08041.0063,W,0.05,86.57,211108,,*29
  3794. $GPGGA,145648.732,2831.4763,N,08041.0063,W,1,06,1.2,2.9,M,-31.2,M,0.0,0000*49
  3795. $GPGSA,A,3,25,19,28,17,11,03,,,,,,,2.2,1.2,1.8*38
  3796. $GPRMC,145649.732,A,2831.4764,N,08041.0066,W,0.05,70.61,211108,,*26
  3797. $GPGGA,145649.732,2831.4764,N,08041.0066,W,1,07,1.0,2.9,M,-31.2,M,0.0,0000*49
  3798. $GPGSA,A,3,25,19,28,17,13,11,03,,,,,,1.9,1.0,1.6*3E
  3799. $GPRMC,145651.732,A,2831.4766,N,08041.0071,W,0.07,177.90,211108,,*11
  3800. $GPGGA,145651.732,2831.4766,N,08041.0071,W,1,07,1.0,3.2,M,-31.2,M,0.0,0000*4E
  3801. $GPGSA,A,3,25,19,28,17,13,11,03,,,,,,1.9,1.0,1.6*3E
  3802. $GPRMC,145652.732,A,2831.4768,N,08041.0074,W,0.06,108.10,211108,,*18
  3803. $GPGGA,145652.732,2831.4768,N,08041.0074,W,1,07,1.0,3.2,M,-31.2,M,0.0,0000*46
  3804. $GPGSA,A,3,25,19,28,17,13,11,03,,,,,,1.9,1.0,1.6*3E
  3805. $GPRMC,145653.731,A,2831.4770,N,08041.0076,W,0.09,110.80,211108,,*1E
  3806. $GPGGA,145653.731,2831.4770,N,08041.0076,W,1,07,0.8,3.1,M,-31.2,M,0.0,0000*45
  3807. $GPGSA,A,3,19,28,17,13,11,08,03,,,,,,1.9,0.8,1.6*38
  3808. $GPRMC,145654.731,A,2831.4772,N,08041.0079,W,0.02,153.37,211108,,*14
  3809. $GPGGA,145654.731,2831.4772,N,08041.0079,W,1,08,0.8,2.9,M,-31.2,M,0.0,0000*49
  3810. $GPGSA,A,3,19,28,07,17,13,11,08,03,,,,,1.6,0.8,1.3*35
  3811. $GPRMC,145656.731,A,2831.4774,N,08041.0080,W,0.17,22.58,211108,,*2C
  3812. $GPGGA,145656.731,2831.4774,N,08041.0080,W,1,07,0.8,2.5,M,-31.2,M,0.0,0000*48
  3813. $GPGSA,A,3,19,28,17,13,11,08,03,,,,,,1.9,0.8,1.6*38
  3814. $GPRMC,145657.731,A,2831.4774,N,08041.0080,W,0.05,151.73,211108,,*12
  3815. $GPGGA,145657.731,2831.4774,N,08041.0080,W,1,06,1.2,2.1,M,-31.2,M,0.0,0000*47
  3816. $GPGSA,A,3,25,19,17,11,08,03,,,,,,,2.0,1.2,1.5*35
  3817. $GPRMC,145658.731,A,2831.4774,N,08041.0079,W,0.33,145.45,211108,,*1E
  3818. $GPGGA,145658.731,2831.4774,N,08041.0079,W,1,08,0.8,2.4,M,-31.2,M,0.0,0000*4E
  3819. $GPGSA,A,3,25,19,28,17,13,11,08,03,,,,,1.7,0.8,1.4*33
  3820. $GPRMC,145659.731,A,2831.4774,N,08041.0077,W,0.16,26.10,211108,,*22
  3821. $GPGGA,145659.731,2831.4774,N,08041.0077,W,1,07,1.0,3.0,M,-31.2,M,0.0,0000*42
  3822. $GPGSA,A,3,25,19,28,17,11,08,03,,,,,,1.9,1.0,1.5*37
  3823. $GPRMC,145701.731,A,2831.4774,N,08041.0073,W,0.12,112.37,211108,,*1D
  3824. $GPGGA,145701.731,2831.4774,N,08041.0073,W,1,07,1.0,2.1,M,-31.2,M,0.0,0000*4A
  3825. $GPGSA,A,3,25,19,28,17,11,08,03,,,,,,1.9,1.0,1.5*37
  3826. $GPRMC,145702.731,A,2831.4774,N,08041.0073,W,0.09,210.04,211108,,*15
  3827. $GPGGA,145702.731,2831.4774,N,08041.0073,W,1,08,0.8,1.4,M,-31.2,M,0.0,0000*49
  3828. $GPGSA,A,3,25,19,28,17,13,11,08,03,,,,,1.7,0.8,1.4*33
  3829. $GPRMC,145703.731,A,2831.4776,N,08041.0074,W,0.11,110.08,211108,,*17
  3830. $GPGGA,145703.731,2831.4776,N,08041.0074,W,1,07,0.8,1.2,M,-31.2,M,0.0,0000*44
  3831. $GPGSA,A,3,25,28,17,13,11,08,03,,,,,,1.7,0.8,1.4*3B
  3832. $GPRMC,145704.731,A,2831.4777,N,08041.0076,W,0.03,145.28,211108,,*12
  3833. $GPGGA,145704.731,2831.4777,N,08041.0076,W,1,09,0.8,1.5,M,-31.2,M,0.0,0000*49
  3834. $GPGSA,A,3,25,19,28,07,17,13,11,08,03,,,,1.5,0.8,1.2*30
  3835. $GPRMC,145706.731,A,2831.4777,N,08041.0078,W,0.07,92.54,211108,,*2A
  3836. $GPGGA,145706.731,2831.4777,N,08041.0078,W,1,09,0.8,1.1,M,-31.2,M,0.0,0000*41
  3837. $GPGSA,A,3,25,19,28,07,17,13,11,08,03,,,,1.5,0.8,1.2*30
  3838. $GPRMC,145707.731,A,2831.4775,N,08041.0078,W,0.06,158.82,211108,,*14
  3839. $GPGGA,145707.731,2831.4775,N,08041.0078,W,1,09,0.8,1.0,M,-31.2,M,0.0,0000*43
  3840. $GPGSA,A,3,25,19,28,07,17,13,11,08,03,,,,1.5,0.8,1.2*30
  3841. $GPRMC,145708.731,A,2831.4774,N,08041.0078,W,0.24,156.00,211108,,*1E
  3842. $GPGGA,145708.731,2831.4774,N,08041.0078,W,1,08,1.0,0.2,M,-31.2,M,0.0,0000*46
  3843. $GPGSA,A,3,25,19,28,07,17,13,11,03,,,,,1.7,1.0,1.3*32
  3844. $GPRMC,145709.731,A,2831.4772,N,08041.0077,W,0.09,154.85,211108,,*16
  3845. $GPGGA,145709.731,2831.4772,N,08041.0077,W,1,09,0.8,-1.3,M,-31.2,M,0.0,0000*6B
  3846. $GPGSA,A,3,25,19,28,07,17,13,11,08,03,,,,1.5,0.8,1.2*30
  3847. $GPRMC,145711.730,A,2831.4768,N,08041.0071N,08041.0071,W,1,07,1.2,-4.0,M,-31.2,M,0.0,0000*6D
  3848. $GPGSA,A,3,25,19,07,17,11,08,03,,,,,,1.8,1.2,1.3*3F
  3849. $GPRMC,145712.730,A,2831.4765,N,08041.0069,W,0.13,127.28,211108,,*1C
  3850. $GPGGA,145712.730,2831.4765,N,08041.0069,W,1,09,0.8,-4.3,M,-31.2,M,0.0,0000*6C
  3851. $GPGSA,A,3,25,19,28,07,17,13,11,08,03,,,,1.5,0.8,1.2*30
  3852. $GPRMC,145713.730,A,2831.4763,N,08041.0067,W,0.18,131.34,211108,,*14
  3853. $GPGGA,145713.730,2831.4763,N,08041.0067,W,1,09,0.8,-4.3,M,-31.2,M,0.0,0000*65
  3854. $GPGSA,A,3,25,19,28,07,17,13,11,08,03,,,,1.5,0.8,1.2*30
  3855. $GPRMC,145714.730,A,2831.4760,N,08041.0067,W,0.06,82.26,211108,,*25
  3856. $GPGGA,145714.730,2831.4760,N,08041.0067,W,1,09,0.8,-4.6,M,-31.2,M,0.0,0000*64
  3857. $GPGSA,A,3,25,19,28,07,17,13,11,08,03,,,,1.5,0.8,1.2*30
  3858. $GPRMC,145716.730,A,2831.4756,N,08041.0069,W,0.06,155.88,211108,,*13
  3859. $GPGGA,145716.730,2831.4756,N,08041.0069,W,1,08,0.8,-5.2,M,-31.2,M,0.0,0000*69
  3860. $GPGSA,A,3,19,28,07,17,13,11,08,03,,,,,1.6,0.8,1.3*35
  3861. $GPRMC,145717.730,A,2831.4754,N,08041.0069,W,0.17,96.76,211108,,*2F
  3862. $GPGGA,145717.730,2831.4754,N,08041.0069,W,1,09,0.8,-6.1,M,-31.2,M,0.0,0000*6B
  3863. $GPGSA,A,3,25,19,28,07,17,13,11,08,03,,,,1.5,0.8,1.2*30
  3864. $GPRMC,145718.730,A,2831.4752,N,08041.0069,W,0.05,119.85,211108,,*1F
  3865. $GPGGA,145718.730,2831.4752,N,08041.0069,W,1,09,0.8,-6.0,M,-31.2,M,0.0,0000*63
  3866. $GPGSA,A,3,25,19,28,07,17,13,11,08,03,,,,1.5,0.8,1.2*30
  3867. $GPRMC,145719.730,A,2831.4750,N,08041.0068,W,0.07,205.49,211108,,*11
  3868. $GPGGA,145719.730,2831.4750,N,08041.0068,W,1,09,0.8,-5.9,M,-31.2,M,0.0,0000*6B
  3869. $GPGSA,A,3,25,19,28,07,17,13,11,08,03,,,,1.5,0.8,1.2*30
  3870. ,-31.2,M,0.0,0000*6F
  3871. $GPGSA,A,3,25,19,07,17,13,11,08,03,,,,,1.7,1.0,1.2*31
  3872. $GPRMC,145722.730,A,2831.4746,N,08041.0065,W,0.20,53.63,211108,,*2F
  3873. $GPGGA,145722.730,2831.4746,N,08041.0065,W,1,09,0.8,-4.9,M,-31.2,M,0.0,0000*68
  3874. $GPGSA,A,3,25,19,28,07,17,13,11,08,03,,,,1.5,0.8,1.2*30
  3875. $GPRMC,145723.730,A,2831.4748,N,08041.0064,W,0.12,95.95,211108,,*23
  3876. $GPGGA,145723.730,2831.4748,N,08041.0064,W,1,08,1.0,-4.4,M,-31.2,M,0.0,0000*63
  3877. $GPGSA,A,3,25,19,28,07,17,11,08,03,,,,,1.7,1.0,1.3*38
  3878. -31.2,M,0.0,0000*6E
  3879. $GPGSA,A,3,25,19,28,07,17,13,11,08,03,,,,1.5,0.8,1.2*30
  3880. $GPRMC,145726.730,A,2831.4757,N,08041.0066,W,0.04,65.45,211108,,*2F
  3881. $GPGGA,145726.730,2831.4757,N,08041.0066,W,1,08,0.8,-3.8,M,-31.2,M,0.0,0000*68
  3882. $GPGSA,A,3,25,19,28,17,13,11,08,03,,,,,1.7,0.8,1.4*33
  3883. $GPRMC,145727.730,A,2831.4759,N,08041.0067,W,0.17,155.06,211108,,*16
  3884. $GPGGA,145727.730,2831.4759,N,08041.0067,W,1,07,0.8,-3.5,M,-31.2,M,0.0,0000*64
  3885. $GPGSA,A,3,19,28,17,13,11,08,03,,,,,,1.9,0.8,1.6*38
  3886. $GPRMC,145728.729,A,2831.4761,N,08041.0068,W,0.07,130.97,211108,,*1F
  3887. $GPGGA,145728.729,2831.4761,N,08041.0068,W,1,08,0.8,-3.7,M,-31.2,M,0.0,0000*6A
  3888. $GPGSA,A,3,25,28,07,17,13,11,08,03,,,,,1.6,0.8,1.2*3B
  3889. $GPRMC,145729.729,A,2831.4763,N,08041.0070,W,0.02,123.43,211108,,*1B
  3890. $GPGGA,145729.729,2831.4763,N,08041.0070,W,1,07,1.0,-3.4,M,-31.2,M,0.0,0000*65
  3891. $GPGSA,A,3,25,07,17,13,11,08,03,,,,,,1.7,1.0,1.2*39
  3892. $GPRMC,145731.729,A,2831.4763,N,08041.0073,W,0.10,29.20,211108,,*2C
  3893. $GPGGA,145731.729,2831.4763,N,08041.0073,W,1,09,0.8,-2.4,M,-31.2,M,0.0,0000*69
  3894. $GPGSA,A,3,25,19,28,07,17,13,11,08,03,,,,1.5,0.8,1.2*30
  3895. $GPRMC,145732.729,A,2831.4762,N,08041.0073,W,0.08,133.93,211108,,*15
  3896. $GPGGA,145732.729,2831.4762,N,08041.0073,W,1,09,0.8,-1.5,M,-31.2,M,0.0,0000*69
  3897. $GPGSA,A,3,25,19,28,07,17,13,11,08,03,,,,1.5,0.8,1.2*30
  3898. $GPRMC,145733.729,A,2831.4762,N,08041.0072,W,0.10,100.20,211108,,*14
  3899. $GPGGA,145733.729,2831.4762,N,08041.0072,W,1,09,0.8,-0.8,M,-31.2,M,0.0,0000*65
  3900. $GPGSA,A,3,25,19,28,07,17,13,11,08,03,,,,1.5,0.8,1.2*30
  3901. $GPRMC,145734.729,A,2831.4760,N,08041.0073,W,1.15,221.43,211108,,*11
  3902. $GPGGA,145734.729,2831.4760,N,08041.0073,W,1,09,0.8,-0.4,M,-31.2,M,0.0,0000*6D
  3903. $GPGSA,A,3,25,19,28,07,17,13,11,08,03,,,,1.5,0.8,1.2*30
  3904. $GPRMC,145736.729,A,2831.4755,N,08041.0074,W,0.58,71.40,211108,,*2E
  3905. $GPGGA,145736.729,2831.4755,N,08041.0074,W,1,08,0.8,0.3,M,-31.2,M,0.0,0000*45
  3906. $GPGSA,A,3,25,28,07,17,13,11,08,03,,,,,1.6,0.8,1.2*3B
  3907. $GPRMC,145737.729,A,2831.4755,N,08041.0074,W,0.22,83.60,211108,,*2D
  3908. $GPGGA,145737.729,2831.4755,N,08041.0074,W,1,09,0.8,0.5,M,-31.2,M,0.0,0000*43
  3909. $GPGSA,A,3,25,19,28,07,17,13,11,08,03,,,,1.5,0.8,1.2*30
  3910. $GPRMC,145738.729,A,2831.4755,N,08041.0074,W,0.09,77.99,211108,,*26
  3911. $GPGGA,145738.729,2831.4755,N,08041.0074,W,1,09,0.8,1.0,M,-31.2,M,0.0,0000*48
  3912. $GPGSA,A,3,25,19,28,07,17,13,11,08,03,,,,1.5,0.8,1.2*30
  3913. $GPRMC,145739.729,A,2831.4756,N,08041.0074,W,0.05,91.19,211108,,*28
  3914. $GPGGA,145739.729,2831.4756,N,08041.0074,W,1,08,1.0,1.5,M,-31.2,M,0.0,0000*47
  3915. $GPGSA,A,3,25,19,28,07,17,11,08,03,,,,,1.7,1.0,1.3*38
  3916. $GPRMC,145741.729,A,2831.4760,N,08041.0074,W,0.09,141.38,211108,,*11
  3917. $GPGGA,145741.729,2831.4760,N,08041.0074,W,1,09,0.8,1.7,M,-31.2,M,0.0,0000*47
  3918. $GPGSA,A,3,25,19,28,07,17,13,11,08,03,,,,1.5,0.8,1.2*30
  3919. $GPRMC,145742.729,A,2831.4762,N,08041.0074,W,0.04,126.93,211108,,*1D
  3920. $GPGGA,145742.729,2831.4762,N,08041.0074,W,1,09,0.8,1.4,M,-31.2,M,0.0,0000*45
  3921. $GPGSA,A,3,25,19,28,07,17,13,11,08,03,,,,1.5,0.8,1.2*30
  3922. $GPRMC,145743.729,A,2831.4764,N,08041.0074,W,0.10,37.40,211108,,*20
  3923. $GPGGA,145743.729,2831.4764,N,08041.0074,W,1,07,1.0,1.0,M,-31.2,M,0.0,0000*41
  3924. $GPGSA,A,3,19,28,07,17,11,08,03,,,,,,1.8,1.0,1.4*37
  3925. $GPRMC,145744.729,A,2831.4767,N,08041.0074,W,0.42,59.43,211108,,*28
  3926. $GPGGA,145744.729,2831.4767,N,08041.0074,W,1,08,1.0,0.6,M,-31.2,M,0.0,0000*4D
  3927. $GPGSA,A,3,25,19,28,07,17,11,08,03,,,,,1.7,1.0,1.3*38
  3928. $GPRMC,145746.728,A,2831.4773,N,08041.0069,W,0.55,61.14,211108,,*2D
  3929. $GPGGA,145746.728,2831.4773,N,08041.0069,W,1,07,1.2,0.4,M,-31.2,M,0.0,0000*48
  3930. $GPGSA,A,3,25,19,28,07,17,11,03,,,,,,1.9,1.2,1.5*3A
  3931. $GPRMC,145747.728,A,2831.4774,N,08041.0068,W,0.16,76.47,211108,,*2D
  3932. $GPGGA,145747.728,2831.4774,N,08041.0068,W,1,08,1.0,0.5,M,-31.2,M,0.0,0000*43
  3933. $GPGSA,A,3,25,19,28,07,17,11,08,03,,,,,1.7,1.0,1.3*38
  3934. $GPRMC,145748.728,A,2831.4774,N,08041.0066,W,0.15,100.04,211108,,*18
  3935. $GPGGA,145748.728,2831.4774,N,08041.0066,W,1,09,0.8,0.8,M,-31.2,M,0.0,0000*47
  3936. $GPGSA,A,3,25,19,28,07,17,13,11,08,03,,,,1.5,0.8,1.2*30
  3937. $GPRMC,145749.728,A,2831.4776,N,08041.0065,W,0.12,112.47,211108,,*1B
  3938. $GPGGA,145749.728,2831.4776,N,08041.0065,W,1,07,1.0,1.3,M,-31.2,M,0.0,0000*4A
  3939. $GPGSA,A,3,25,28,07,13,11,08,03,,,,,,1.7,1.0,1.3*34
  3940. $GPRMC,145751.728,A,2831.4781,N,08041.0064,W,0.02,131.54,211108,,*19
  3941. $GPGGA,145751.728,2831.4781,N,08041.0064,W,1,08,1.0,1.3,M,-31.2,M,0.0,0000*45
  3942. $GPGSA,A,3,25,19,07,17,13,11,08,03,,,,,1.7,1.0,1.2*31
  3943. $GPRMC,145752.728,A,2831.4784,N,08041.0063,W,0.07,252.03,211108,,*19
  3944. $GPGGA,145752.728,2831.4784,N,08041.0063,W,1,09,0.8,0.2,M,-31.2,M,0.0,0000*4C
  3945. $GPGSA,A,3,25,19,28,07,17,13,11,08,03,,,,1.5,0.8,1.2*30
  3946. $GPRMC,145753.728,A,2831.4784,N,08041.0061,W,0.04,101.50,211108,,*1A
  3947. $GPGGA,145753.728,2831.4784,N,08041.0061,W,1,09,0.8,-1.7,M,-31.2,M,0.0,0000*66
  3948. $GPGSA,A,3,25,19,28,07,17,13,11,08,03,,,,1.5,0.8,1.2*30
  3949. $GPRMC,145754.728,A,2831.4785,N,08041.0057,W,0.06,54.22,211108,,*2F
  3950. $GPGGA,145754.728,2831.4785,N,08041.0057,W,1,09,0.8,-3.4,M,-31.2,M,0.0,0000*64
  3951. $GPGSA,A,3,25,19,28,07,17,13,11,08,03,,,,1.5,0.8,1.2*30
  3952. $GPRMC,145756.728,A,2831.4787,N,08041.0047,W,0.10,146.44,211108,,*1B
  3953. $GPGGA,145756.728,2831.4787,N,08041.0047,W,1,07,1.2,-6.0,M,-31.2,M,0.0,0000*61
  3954. $GPGSA,A,3,25,19,07,17,11,08,03,,,,,,1.8,1.2,1.3*3F
  3955. $GPRMC,145757.728,A,2831.4787,N,08041.0044,W,0.18,144.13,211108,,*11
  3956. $GPGGA,145757.728,2831.4787,N,08041.0044,W,1,07,0.8,-6.9,M,-31.2,M,0.0,0000*61
  3957. $GPGSA,A,3,19,28,17,13,11,08,03,,,,,,1.9,0.8,1.6*38
  3958. $GPRMC,145758.728,A,2831.4786,N,08041.0043,W,0.05,94.92,211108,,*21
  3959. $GPGGA,145758.728,2831.4786,N,08041.0043,W,1,08,0.8,-7.4,M,-31.2,M,0.0,0000*6B
  3960. $GPGSA,A,3,19,28,07,17,13,11,08,03,,,,,1.6,0.8,1.3*35
  3961. $GPRMC,145759.728,A,2831.4784,N,08041.0043,W,0.05,162.46,211108,,*13
  3962. $GPGGA,145759.728,2831.4784,N,08041.0043,W,1,07,1.2,-7.2,M,-31.2,M,0.0,0000*6A
  3963. $GPGSA,A,3,25,19,07,17,11,08,03,,,,,,1.8,1.2,1.3*3F
  3964. $GPRMC,145801.728,A,2831.4780,N,08041.0043,W,0.06,114.42,211108,,*13
  3965. $GPGGA,145801.728,2831.4780,N,08041.0043,W,1,07,1.0,-5.7,M,-31.2,M,0.0,0000*69
  3966. $GPGSA,A,3,19,28,07,17,11,08,03,,,,,,1.8,1.0,1.4*37
  3967. $GPRMC,145802.728,A,2831.4779,N,08041.0043,W,0.04,107.70,211108,,*17
  3968. $GPGGA,145802.728,2831.4779,N,08041.0043,W,1,06,1.2,-5.7,M,-31.2,M,0.0,0000*6F
  3969. $GPGSA,A,3,19,07,17,11,08,03,,,,,,,1.9,1.2,1.4*3E
  3970. $GPRMC,145803.727,A,2831.4778,N,08041.0043,W,0.05,99.70,211108,,*2F
  3971. $GPGGA,145803.727,2831.4778,N,08041.0043,W,1,06,1.2,-5.7,M,-31.2,M,0.0,0000*60
  3972. $GPGSA,A,3,19,17,13,11,08,03,,,,,,,2.0,1.2,1.6*33
  3973. $GPRMC,145804.727,A,2831.4777,N,08041.0043,W,0.08,95.31,211108,,*23
  3974. $GPGGA,145804.727,2831.4777,N,08041.0043,W,1,06,1.2,-5.9,M,-31.2,M,0.0,0000*66
  3975. $GPGSA,A,3,19,17,13,11,08,03,,,,,,,2.0,1.2,1.6*33
  3976. $GPRMC,145806.727,A,2831.4776,N,08041.0045,W,0.05,35.95,211108,,*2F
  3977. $GPGGA,145806.727,2831.4776,N,08041.0045,W,1,05,1.2,-6.3,M,-31.2,M,0.0,0000*69
  3978. $GPGSA,A,3,19,17,11,08,03,,,,,,,,2.2,1.2,1.7*32
  3979. $GPRMC,145807.727,A,2831.4776,N,08041.0046,W,0.08,60.19,211108,,*24
  3980. $GPGGA,145807.727,2831.4776,N,08041.0046,W,1,07,1.0,-6.1,M,-31.2,M,0.0,0000*69
  3981. $GPGSA,A,3,25,19,28,17,11,08,03,,,,,,1.9,1.0,1.5*37
  3982. $GPRMC,145808.727,A,2831.4775,N,08041.0049,W,0.06,358.46,211108,,*1B
  3983. $GPGGA,145808.727,2831.4775,N,08041.0049,W,1,08,1.0,-5.6,M,-31.2,M,0.0,0000*61
  3984. $GPGSA,A,3,25,19,28,07,17,11,08,03,,,,,1.7,1.0,1.3*38
  3985. $GPRMC,145809.727,A,2831.4774,N,08041.0052,W,0.07,141.42,211108,,*1E
  3986. $GPGGA,145809.727,2831.4774,N,08041.0052,W,1,08,1.0,-4.8,M,-31.2,M,0.0,0000*64
  3987. $GPGSA,A,3,25,19,28,07,17,11,08,03,,,,,1.7,1.0,1.3*38
  3988. $GPRMC,145811.727,A,2831.4772,N,08041.0057,W,0.18,81.69,211108,,*2E
  3989. $GPGGA,145811.727,2831.4772,N,08041.0057,W,1,08,1.0,-4.4,M,-31.2,M,0.0,0000*62
  3990. $GPGSA,A,3,25,19,07,17,13,11,08,03,,,,,1.7,1.0,1.2*31
  3991. $GPRMC,145812.727,A,2831.4771,N,08041.0058,W,0.26,84.44,211108,,*26
  3992. $GPGGA,145812.727,2831.4771,N,08041.0058,W,1,07,1.0,-3.8,M,-31.2,M,0.0,0000*69
  3993. $GPGSA,A,3,25,19,17,13,11,08,03,,,,,,1.8,1.0,1.4*3F
  3994. $GPRMC,145813.727,A,2831.4770,N,08041.0059,W,0.19,80.79,211108,,*21
  3995. $GPGGA,145813.727,2831.4770,N,08041.0059,W,1,08,0.8,-3.1,M,-31.2,M,0.0,0000*67
  3996. $GPGSA,A,3,25,19,28,17,13,11,08,03,,,,,1.7,0.8,1.4*33
  3997. $GPRMC,145814.727,A,2831.4770,N,08041.0058,W,0.32,43.40,211108,,*2B
  3998. $GPGGA,145814.727,2831.4770,N,08041.0058,W,1,07,1.4,-3.3,M,-31.2,M,0.0,0000*61
  3999. $GPGSA,A,3,25,19,28,07,11,08,03,,,,,,2.6,1.4,2.1*39
  4000. $GPRMC,145816.727,A,2831.4770,N,08041.0060,W,0.08,326.15,211108,,*1B
  4001. $GPGGA,145816.727,2831.4770,N,08041.0060,W,1,06,1.6,-4.1,M,-31.2,M,0.0,0000*6E
  4002. $GPGSA,A,3,19,28,07,11,08,03,,,,,,,2.7,1.6,2.1*3D
  4003. $GPRMC,145817.727,A,2831.4770,N,08041.0062,W,0.02,122.43,211108,,*17
  4004. $GPGGA,145817.727,2831.4770,N,08041.0062,W,1,09,0.8,-4.0,M,-31.2,M,0.0,0000*6C
  4005. $GPGSA,A,3,25,19,28,07,17,13,11,08,03,,,,1.5,0.8,1.2*30
  4006. $GPRMC,145818.727,A,2831.4767,N,08041.0063,W,0.23,158.65,211108,,*15
  4007. $GPGGA,145818.727,2831.4767,N,08041.0063,W,1,08,1.0,-2.6,M,-31.2,M,0.0,0000*6C
  4008. $GPGSA,A,3,25,19,28,07,17,11,08,03,,,,,1.7,1.0,1.3*38
  4009. $GPRMC,145819.727,A,2831.4764,N,08041.0062,W,0.07,90.14,211108,,*23
  4010. $GPGGA,145819.727,2831.4764,N,08041.0062,W,1,08,0.8,-1.2,M,-31.2,M,0.0,0000*61
  4011. $GPGSA,A,3,19,28,07,17,13,11,08,03,,,,,1.6,0.8,1.3*35
  4012. $GPRMC,145821.726,A,2831.4760,N,08041.0061,W,0.05,158.14,211108,,*19
  4013. $GPGGA,145821.726,2831.4760,N,08041.0061,W,1,07,1.2,1.0,M,-31.2,M,0.0,0000*47
  4014. $GPGSA,A,3,25,19,07,17,11,08,03,,,,,,1.8,1.2,1.3*3F
  4015. $GPRMC,145822.726,A,2831.4759,N,08041.0061,W,0.06,133.50,211108,,*1E
  4016. $GPGGA,145822.726,2831.4759,N,08041.0061,W,1,06,1.2,1.5,M,-31.2,M,0.0,0000*4A
  4017. $GPGSA,A,3,19,07,17,11,08,03,,,,,,,1.9,1.2,1.4*3E
  4018. $GPRMC,145823.726,A,2831.4758,N,08041.0061,W,0.03,102.97,211108,,*12
  4019. $GPGGA,145823.726,2831.4758,N,08041.0061,W,1,07,1.2,1.8,M,-31.2,M,0.0,0000*46
  4020. $GPGSA,A,3,25,19,28,07,17,11,08,,,,,,2.6,1.2,2.2*39
  4021. $GPRMC,145824.726,A,2831.4757,N,08041.0060,W,0.02,331.51,211108,,*12
  4022. $GPGGA,145824.726,2831.4757,N,08041.0060,W,1,06,1.0,2.2,M,-31.2,M,0.0,0000*45
  4023. $GPGSA,A,3,19,28,17,11,08,03,,,,,,,2.0,1.0,1.7*38
  4024. $GPRMC,145826.726,A,2831.4755,N,08041.0056,W,0.10,150.14,211108,,*10
  4025. $GPGGA,145826.726,2831.4755,N,08041.0056,W,1,08,1.0,4.1,M,-31.2,M,0.0,0000*4B
  4026. $GPGSA,A,3,25,19,28,07,17,11,08,03,,,,,1.7,1.0,1.3*38
  4027. $GPRMC,145827.726,A,2831.4753,N,08041.0053,W,0.20,131.52,211108,,*14
  4028. $GPGGA,145827.726,2831.4753,N,08041.0053,W,1,07,1.0,5.8,M,-31.2,M,0.0,0000*4E
  4029. $GPGSA,A,3,19,28,07,17,11,08,03,,,,,,1.8,1.0,1.4*37
  4030. $GPRMC,145828.726,A,2831.4751,N,08041.0049,W,0.10,110.20,211108,,*17
  4031. $GPGGA,145828.726,2831.4751,N,08041.0049,W,1,07,1.0,7.4,M,-31.2,M,0.0,0000*46
  4032. $GPGSA,A,3,19,28,07,17,11,08,03,,,,,,1.8,1.0,1.4*37
  4033. $GPRMC,145829.726,A,2831.4750,N,08041.0046,W,0.13,118.05,211108,,*14
  4034. $GPGGA,145829.726,2831.4750,N,08041.0046,W,1,07,1.0,8.5,M,-31.2,M,0.0,0000*47
  4035. $GPGSA,A,3,19,28,07,17,11,08,03,,,,,,1.8,1.0,1.4*37
  4036. $GPRMC,145831.726,A,2831.4747,N,08041.0039,W,0.23,87.99,211108,,*22
  4037. $GPGGA,145831.726,2831.4747,N,08041.0039,W,1,07,1.2,8.8,M,-31.2,M,0.0,0000*4F
  4038. $GPGSA,A,3,25,19,07,17,11,08,03,,,,,,1.8,1.2,1.3*3F
  4039. $GPRMC,145832.726,A,2831.4746,N,08041.0036,W,0.08,275.21,211108,,*1A
  4040. $GPGGA,145832.726,2831.4746,N,08041.0036,W,1,08,1.0,8.3,M,-31.2,M,0.0,0000*44
  4041. $GPGSA,A,3,25,19,07,17,13,11,08,03,,,,,1.7,1.0,1.2*31
  4042. $GPRMC,145833.726,A,2831.4747,N,08041.0035,W,0.12,12.29,211108,,*29
  4043. $GPGGA,145833.726,2831.4747,N,08041.0035,W,1,07,1.0,7.5,M,-31.2,M,0.0,0000*41
  4044. $GPGSA,A,3,25,19,17,13,11,08,03,,,,,,1.8,1.0,1.4*3F
  4045. $GPRMC,145834.726,A,2831.4748,N,08041.0033,W,0.23,121.08,211108,,*17
  4046. $GPGGA,145834.726,2831.4748,N,08041.0033,W,1,07,1.4,6.9,M,-31.2,M,0.0,0000*46
  4047. $GPGSA,A,3,25,19,28,07,11,08,03,,,,,,2.6,1.4,2.1*39
  4048. $GPRMC,145836.726,A,2831.4750,N,08041.0032,W,0.08,106.01,211108,,*18
  4049. $GPGGA,145836.726,2831.4750,N,08041.0032,W,1,06,1.0,6.2,M,-31.2,M,0.0,0000*42
  4050. $GPGSA,A,3,25,28,17,11,08,03,,,,,,,1.9,1.0,1.5*3F
  4051. $GPRMC,145837.725,A,2831.4752,N,08041.0034,W,0.20,57.07,211108,,*27
  4052. $GPGGA,145837.725,2831.4752,N,08041.0034,W,1,08,1.0,5.5,M,-31.2,M,0.0,0000*4E
  4053. $GPGSA,A,3,25,19,28,07,13,11,08,03,,,,,1.7,1.0,1.3*3C
  4054. $GPRMC,145838.725,A,2831.4754,N,08041.0037,W,0.13,3.66,211108,,*1B
  4055. $GPGGA,145838.725,2831.4754,N,08041.0037,W,1,06,2.4,5.3,M,-31.2,M,0.0,0000*4B
  4056. $GPGSA,A,3,25,19,07,11,08,03,,,,,,,4.3,2.4,3.5*36
  4057. $GPRMC,145839.725,A,2831.4757,N,08041.0041,W,0.09,339.23,211108,,*18
  4058. $GPGGA,145839.725,2831.4757,N,08041.0041,W,1,06,2.4,5.3,M,-31.2,M,0.0,0000*48
  4059. $GPGSA,A,3,25,19,07,11,08,03,,,,,,,4.3,2.4,3.5*36
  4060. $GPRMC,145841.725,A,2831.4763,N,08041.0056,W,0.12,267.21,211108,,*14
  4061. $GPGGA,145841.725,2831.4763,N,08041.0056,W,1,07,1.2,5.0,M,-31.2,M,0.0,0000*41
  4062. $GPGSA,A,3,25,19,07,13,11,08,03,,,,,,1.9,1.2,1.4*3D
  4063. $GPRMC,145842.725,A,2831.4765,N,08041.0061,W,0.12,191.75,211108,,*1E
  4064. $GPGGA,145842.725,2831.4765,N,08041.0061,W,1,07,1.4,4.6,M,-31.2,M,0.0,0000*41
  4065. $GPGSA,A,3,25,19,28,07,11,08,03,,,,,,2.6,1.4,2.1*39
  4066. $GPRMC,145843.725,A,2831.4766,N,08041.0065,W,0.22,243.16,211108,,*12
  4067. $GPGGA,145843.725,2831.4766,N,08041.0065,W,1,07,1.2,4.1,M,-31.2,M,0.0,0000*46
  4068. $GPGSA,A,3,25,19,07,17,11,08,03,,,,,,1.8,1.2,1.3*3F
  4069. $GPRMC,145844.725,A,2831.4765,N,08041.0068,W,0.08,158.53,211108,,*1B
  4070. $GPGGA,145844.725,2831.4765,N,08041.0068,W,1,07,1.2,3.7,M,-31.2,M,0.0,0000*4E
  4071. $GPGSA,A,3,25,19,07,17,11,08,03,,,,,,1.8,1.2,1.3*3F
  4072. $GPRMC,145846.725,A,2831.4764,N,08041.0069,W,0.43,133.08,211108,,*15
  4073. $GPGGA,145846.725,2831.4764,N,08041.0069,W,1,06,1.2,2.7,M,-31.2,M,0.0,0000*4C
  4074. $GPGSA,A,3,25,28,07,17,11,03,,,,,,,2.0,1.2,1.5*38
  4075. $GPRMC,145847.725,A,2831.4762,N,08041.0068,W,0.23,191.36,211108,,*10
  4076. $GPGGA,145847.725,2831.4762,N,08041.0068,W,1,08,1.0,2.6,M,-31.2,M,0.0,0000*47
  4077. $GPGSA,A,3,25,19,28,07,17,11,08,03,,,,,1.7,1.0,1.3*38
  4078. $GPRMC,145848.725,A,2831.4758,N,08041.0066,W,0.20,122.16,211108,,*11
  4079. $GPGGA,145848.725,2831.4758,N,08041.0066,W,1,07,1.2,3.0,M,-31.2,M,0.0,0000*45
  4080. $GPGSA,A,3,25,19,28,07,17,11,08,,,,,,2.6,1.2,2.2*39
  4081. $GPRMC,145849.725,A,2831.4754,N,08041.0063,W,0.23,92.31,211108,,*25
  4082. $GPGGA,145849.725,2831.4754,N,08041.0063,W,1,08,1.2,3.7,M,-31.2,M,0.0,0000*45
  4083. $GPGSA,A,3,25,19,28,07,17,13,11,08,,,,,2.3,1.2,1.9*36
  4084. $GPRMC,145851.725,A,2831.4748,N,08041.0062,W,0.06,192.96,211108,,*1B
  4085. $GPGGA,145851.725,2831.4748,N,08041.0062,W,1,06,2.4,4.4,M,-31.2,M,0.0,0000*4F
  4086. $GPGSA,A,3,25,19,07,11,08,03,,,,,,,4.3,2.4,3.5*36
  4087. $GPRMC,145852.725,A,2831.4748,N,08041.0064,W,0.22,27.34,211108,,*2F
  4088. $GPGGA,145852.725,2831.4748,N,08041.0064,W,1,06,1.2,5.3,M,-31.2,M,0.0,0000*49
  4089. $GPGSA,A,3,25,19,17,11,08,03,,,,,,,2.0,1.2,1.5*35
  4090. $GPRMC,145853.725,A,2831.4748,N,08041.0066,W,0.16,284.56,211108,,*14
  4091. $GPGGA,145853.725,2831.4748,N,08041.0066,W,1,07,1.4,5.9,M,-31.2,M,0.0,0000*47
  4092. $GPGSA,A,3,25,19,28,07,11,08,03,,,,,,2.6,1.4,2.1*39
  4093. $GPRMC,145854.725,A,2831.4748,N,08041.0068,W,0.29,3.09,211108,,*16
  4094. $GPGGA,145854.725,2831.4748,N,08041.0068,W,1,08,1.0,5.5,M,-31.2,M,0.0,0000*49
  4095. $GPGSA,A,3,25,19,28,07,17,11,08,03,,,,,1.7,1.0,1.3*38
  4096. $GPRMC,145856.724,A,2831.4748,N,08041.0069,W,0.08,211.63,211108,,*1A
  4097. $GPGGA,145856.724,2831.4748,N,08041.0069,W,1,08,1.0,2.7,M,-31.2,M,0.0,0000*4E
  4098. $GPGSA,A,3,25,19,28,07,17,13,11,03,,,,,1.7,1.0,1.3*32
  4099. $GPRMC,145857.724,A,2831.4746,N,08041.0067,W,0.23,71.51,211108,,*27
  4100. $GPGGA,145857.724,2831.4746,N,08041.0067,W,1,07,1.0,0.9,M,-31.2,M,0.0,0000*4C
  4101. $GPGSA,A,3,25,28,07,17,11,08,03,,,,,,1.8,1.0,1.3*3F
  4102. $GPRMC,145858.724,A,2831.4744,N,08041.0066,W,0.06,159.44,211108,,*13
  4103. $GPGGA,145858.724,2831.4744,N,08041.0066,W,1,06,1.4,-0.7,M,-31.2,M,0.0,0000*66
  4104. $GPGSA,A,3,19,07,13,11,08,03,,,,,,,2.1,1.4,1.5*36
  4105. $GPRMC,145859.724,A,2831.4744,N,08041.0063,W,0.06,133.66,211108,,*1B
  4106. $GPGGA,145859.724,2831.4744,N,08041.0063,W,1,08,1.0,-1.7,M,-31.2,M,0.0,0000*69
  4107. $GPGSA,A,3,25,19,07,17,13,11,08,03,,,,,1.7,1.0,1.2*31
  4108. $GPRMC,145901.724,A,2831.4745,N,08041.0057,W,0.09,76.02,211108,,*2C
  4109. $GPGGA,145901.724,2831.4745,N,08041.0057,W,1,07,1.2,-3.2,M,-31.2,M,0.0,0000*69
  4110. $GPGSA,A,3,25,19,07,13,11,08,03,,,,,,1.9,1.2,1.4*3D
  4111. $GPRMC,145902.724,A,2831.4746,N,08041.0056,W,0.55,246.53,211108,,*11
  4112. $GPGGA,145902.724,2831.4746,N,08041.0056,W,1,09,0.8,-4.0,M,-31.2,M,0.0,0000*68
  4113. $GPGSA,A,3,25,19,28,07,17,13,11,08,03,,,,1.5,0.8,1.2*30
  4114. $GPRMC,145903.724,A,2831.4745,N,08041.0056,W,0.55,232.84,211108,,*1A
  4115. $GPGGA,145903.724,2831.4745,N,08041.0056,W,1,09,0.8,-4.4,M,-31.2,M,0.0,0000*6E
  4116. $GPGSA,A,3,25,19,28,07,17,13,11,08,03,,,,1.5,0.8,1.2*30
  4117. $GPRMC,145904.724,A,2831.4745,N,08041.0055,W,0.45,220.38,211108,,*1B
  4118. $GPGGA,145904.724,2831.4745,N,08041.0055,W,1,09,0.8,-4.3,M,-31.2,M,0.0,0000*6D
  4119. $GPGSA,A,3,25,19,28,07,17,13,11,08,03,,,,1.5,0.8,1.2*30
  4120. $GPRMC,145906.724,A,2831.4745,N,08041.0057,W,0.31,227.26,211108,,*10
  4121. $GPGGA,145906.724,2831.4745,N,08041.0057,W,1,08,1.0,-4.3,M,-31.2,M,0.0,0000*65
  4122. $GPGSA,A,3,25,19,28,07,17,13,11,03,,,,,1.7,1.0,1.3*32
  4123. $GPRMC,145907.724,A,2831.4744,N,08041.0059,W,0.08,170.44,211108,,*11
  4124. $GPGGA,145907.724,2831.4744,N,08041.0059,W,1,07,1.2,-4.5,M,-31.2,M,0.0,0000*60
  4125. $GPGSA,A,3,25,19,28,07,17,11,03,,,,,,1.9,1.2,1.5*3A
  4126. $GPRMC,145908.724,A,2831.4745,N,08041.0062,W,0.05,184.50,211108,,*14
  4127. $GPGGA,145908.724,2831.4745,N,08041.0062,W,1,08,1.0,-4.7,M,-31.2,M,0.0,0000*69
  4128. $GPGSA,A,3,25,19,28,07,17,11,08,03,,,,,1.7,1.0,1.3*38
  4129. $GPRMC,145909.724,A,2831.4745,N,08041.0064,W,0.02,285.66,211108,,*13
  4130. $GPGGA,145909.724,2831.4745,N,08041.0064,W,1,07,1.2,-4.6,M,-31.2,M,0.0,0000*62
  4131. $GPGSA,A,3,25,19,28,07,17,11,03,,,,,,1.9,1.2,1.5*3A
  4132. $GPRMC,145911.724,A,2831.4747,N,08041.0069,W,0.05,288.74,211108,,*1C
  4133. $GPGGA,145911.724,2831.4747,N,08041.0069,W,1,08,1.0,-3.9,M,-31.2,M,0.0,0000*61
  4134. $GPGSA,A,3,25,19,28,07,17,11,08,03,,,,,1.7,1.0,1.3*38
  4135. $GPRMC,145912.723,A,2831.4746,N,08041.0070,W,0.21,112.29,211108,,*1F
  4136. $GPGGA,145912.723,2831.4746,N,08041.0070,W,1,09,0.8,-2.8,M,-31.2,M,0.0,0000*64
  4137. $GPGSA,A,3,25,19,28,07,17,13,11,08,03,,,,1.5,0.8,1.2*30
  4138. $GPRMC,145913.723,A,2831.4745,N,08041.0071,W,0.24,146.99,211108,,*13
  4139. $GPGGA,145913.723,2831.4745,N,08041.0071,W,1,08,1.0,-1.0,M,-31.2,M,0.0,0000*64
  4140. $GPGSA,A,3,25,19,28,07,13,11,08,03,,,,,1.6,1.0,1.3*3D
  4141. $GPRMC,145914.723,A,2831.4745,N,08041.0072,W,0.10,81.05,211108,,*2F
  4142. $GPGGA,145914.723,2831.4745,N,08041.0072,W,1,08,1.0,0.6,M,-31.2,M,0.0,0000*4A
  4143. $GPGSA,A,3,25,19,28,07,13,11,08,03,,,,,1.6,1.0,1.3*3D
  4144. $GPRMC,145916.723,A,2831.4743,N,08041.0067,W,0.10,124.39,211108,,*1E
  4145. $GPGGA,145916.723,2831.4743,N,08041.0067,W,1,08,0.8,3.8,M,-31.2,M,0.0,0000*4E
  4146. $GPGSA,A,3,25,28,07,17,13,11,08,03,,,,,1.5,0.8,1.2*38
  4147. $GPRMC,145917.723,A,2831.4742,N,08041.0064,W,0.10,130.10,211108,,*13
  4148. $GPGGA,145917.723,2831.4742,N,08041.0064,W,1,08,0.8,4.9,M,-31.2,M,0.0,0000*4B
  4149. $GPGSA,A,3,25,28,07,17,13,11,08,03,,,,,1.5,0.8,1.2*38
  4150. $GPRMC,145918.723,A,2831.4741,N,08041.0060,W,0.09,131.53,211108,,*15
  4151. $GPGGA,145918.723,2831.4741,N,08041.0060,W,1,08,0.8,5.4,M,-31.2,M,0.0,0000*4F
  4152. $GPGSA,A,3,25,28,07,17,13,11,08,03,,,,,1.5,0.8,1.2*38
  4153. $GPRMC,145919.723,A,2831.4741,N,08041.0057,W,0.07,143.04,211108,,*19
  4154. $GPGGA,145919.723,2831.4741,N,08041.0057,W,1,08,0.8,5.5,M,-31.2,M,0.0,0000*4B
  4155. $GPGSA,A,3,25,28,07,17,13,11,08,03,,,,,1.5,0.8,1.2*38
  4156. $GPRMC,145921.723,A,2831.4742,N,08041.0059,W,0.02,95.43,211108,,*23
  4157. $GPGGA,145921.723,2831.4742,N,08041.0059,W,1,08,1.0,6.3,M,-31.2,M,0.0,0000*41
  4158. $GPGSA,A,3,25,19,28,07,17,11,08,03,,,,,1.7,1.0,1.3*38
  4159. $GPRMC,145922.723,A,2831.4744,N,08041.0062,W,0.03,244.46,211108,,*14
  4160. $GPGGA,145922.723,2831.4744,N,08041.0062,W,1,08,1.0,7.3,M,-31.2,M,0.0,0000*4D
  4161. $GPGSA,A,3,25,19,28,07,17,11,08,03,,,,,1.7,1.0,1.3*38
  4162. $GPRMC,145923.723,A,2831.4748,N,08041.0067,W,0.07,58.82,211108,,*2F
  4163. $GPGGA,145923.723,2831.4748,N,08041.0067,W,1,09,0.8,8.3,M,-31.2,M,0.0,0000*42
  4164. $GPGSA,A,3,25,19,28,07,17,13,11,08,03,,,,1.5,0.8,1.2*30
  4165. $GPRMC,145924.723,A,2831.4753,N,08041.0072,W,0.06,42.75,211108,,*24
  4166. $GPGGA,145924.723,2831.4753,N,08041.0072,W,1,09,0.8,9.4,M,-31.2,M,0.0,0000*4D
  4167. $GPGSA,A,3,25,19,28,07,17,13,11,08,03,,,,1.5,0.8,1.2*30
  4168. $GPRMC,145926.723,A,2831.4764,N,08041.0078,W,0.24,132.27,211108,,*19
  4169. $GPGGA,145926.723,2831.4764,N,08041.0078,W,1,09,0.8,13.0,M,-31.2,M,0.0,0000*7E
  4170. $GPGSA,A,3,25,19,28,07,17,13,11,08,03,,,,1.5,0.8,1.2*30
  4171. $GPRMC,145927.723,A,2831.4767,N,08041.0079,W,0.32,127.39,211108,,*16
  4172. $GPGGA,145927.723,2831.4767,N,08041.0079,W,1,09,0.8,14.7,M,-31.2,M,0.0,0000*7D
  4173. $GPGSA,A,3,25,19,28,07,17,13,11,08,03,,,,1.5,0.8,1.2*30
  4174. $GPRMC,145928.723,A,2831.4769,N,08041.0080,W,0.66,66.81,211108,,*27
  4175. $GPGGA,145928.723,2831.4769,N,08041.0080,W,1,09,0.8,15.3,M,-31.2,M,0.0,0000*7F
  4176. $GPGSA,A,3,25,19,28,07,17,13,11,08,03,,,,1.5,0.8,1.2*30
  4177. $GPRMC,145929.723,A,2831.4771,N,08041.0080,W,0.63,39.65,211108,,*2A
  4178. $GPGGA,145929.723,2831.4771,N,08041.0080,W,1,07,1.2,15.2,M,-31.2,M,0.0,0000*73
  4179. $GPGSA,A,3,25,19,28,07,17,13,11,,,,,,2.5,1.2,2.0*32
  4180. $GPRMC,145931.722,A,2831.4770,N,08041.0080,W,1.08,137.80,211108,,*1B
  4181. $GPGGA,145931.722,2831.4770,N,08041.0080,W,1,09,0.8,14.5,M,-31.2,M,0.0,0000*79
  4182. $GPGSA,A,3,25,19,28,07,17,13,11,08,03,,,,1.5,0.8,1.2*30
  4183. $GPRMC,145932.722,A,2831.4767,N,08041.0079,W,0.81,143.10,211108,,*12
  4184. $GPGGA,145932.722,2831.4767,N,08041.0079,W,1,09,0.8,14.0,M,-31.2,M,0.0,0000*7F
  4185. $GPGSA,A,3,25,19,28,07,17,13,11,08,03,,,,1.5,0.8,1.2*30
  4186. $GPRMC,145933.722,A,2831.4765,N,08041.0080,W,0.72,143.82,211108,,*10
  4187. $GPGGA,145933.722,2831.4765,N,08041.0080,W,1,08,1.0,13.5,M,-31.2,M,0.0,0000*70
  4188. $GPGSA,A,3,25,19,28,07,13,11,08,03,,,,,1.6,1.0,1.3*3D
  4189. $GPRMC,145934.722,A,2831.4762,N,08041.0081,W,1.41,136.10,211108,,*19
  4190. $GPGGA,145934.722,2831.4762,N,08041.0081,W,1,09,0.8,13.4,M,-31.2,M,0.0,0000*78
  4191. $GPGSA,A,3,25,19,28,07,17,13,11,08,03,,,,1.5,0.8,1.2*30
  4192. $GPRMC,145936.722,A,2831.4754,N,08041.0081,W,1.28,165.69,211108,,*19
  4193. $GPGGA,145936.722,2831.4754,N,08041.0081,W,1,08,1.2,12.7,M,-31.2,M,0.0,0000*77
  4194. $GPGSA,A,3,25,19,28,07,17,13,11,08,,,,,2.3,1.2,1.9*36
  4195. $GPRMC,145937.722,A,2831.4751,N,08041.0082,W,0.21,119.55,211108,,*12
  4196. $GPGGA,145937.722,2831.4751,N,08041.0082,W,1,08,0.8,12.3,M,-31.2,M,0.0,0000*7F
  4197. $GPGSA,A,3,25,19,28,07,17,13,08,03,,,,,1.6,0.8,1.2*33
  4198. $GPRMC,145938.722,A,2831.4748,N,08041.0082,W,0.97,180.64,211108,,*1A
  4199. $GPGGA,145938.722,2831.4748,N,08041.0082,W,1,09,0.8,11.6,M,-31.2,M,0.0,0000*7F
  4200. $GPGSA,A,3,25,19,28,07,17,13,11,08,03,,,,1.5,0.8,1.2*30
  4201. $GPRMC,145939.722,A,2831.4746,N,08041.0083,W,0.66,208.90,211108,,*12
  4202. $GPGGA,145939.722,2831.4746,N,08041.0083,W,1,07,1.0,11.2,M,-31.2,M,0.0,0000*72
  4203. $GPGSA,A,3,25,19,28,07,13,08,03,,,,,,1.7,1.0,1.3*3C
  4204. $GPRMC,145941.722,A,2831.4745,N,08041.0085,W,1.04,348.22,211108,,*11
  4205. $GPGGA,145941.722,2831.4745,N,08041.0085,W,1,09,0.8,10.7,M,-31.2,M,0.0,0000*7B
  4206. $GPGSA,A,3,25,19,28,07,17,13,11,08,03,,,,1.5,0.8,1.2*30
  4207. ,-31.2,M,0.0,0000*78
  4208. $GPGSA,A,3,25,19,28,07,17,13,11,08,03,,,,1.5,0.8,1.2*30
  4209. š’j
  4210. $GPRMC,145944.722,A,2831.4740,N,08041.0092,W,0.95,229.73,211108,,*1C
  4211. $GPGGA,145944.722,2831.4740,N,08041.0092,W,1,07,1.2,10.9,M,-31.2,M,0.0,0000*76
  4212. $GPGSA,A,3,25,19,28,07,17,13,11,,,,,,2.5,1.2,2.0*32
  4213. $GPRMC,145946.722,A,2831.4731,N,08041.0100,W,4.21,234.31,211108,,*13
  4214. $GPGGA,145946.722,2831.4731,N,08041.0100,W,1,06,1.6,11.4,M,-31.2,M,0.0,0000*71
  4215. $GPGSA,A,3,25,19,28,07,11,03,,,,,,,3.0,1.6,2.4*31
  4216. $GPRMC,145947.721,A,2831.4727,N,08041.0106,W,1.16,191.00,211108,,*1F
  4217. $GPGGA,145947.721,2831.4727,N,08041.0106,W,1,08,1.0,12.0,M,-31.2,M,0.0,0000*7D
  4218. $GPGSA,A,3,25,19,28,07,17,13,11,03,,,,,1.7,1.0,1.3*32
  4219. ,-31.2,M,0.0,0000*73
  4220. $GPGSA,A,3,25,19,28,07,17,13,11,03,,,,,1.7,1.0,1.3*32
  4221. $GPRMC,145949.721,A,2831.4730,N,08041.0086,W,5.23,63.09,211108,,*29
  4222. $GPGGA,145949.721,2831.4730,N,08041.0086,W,1,08,1.0,12.9,M,-31.2,M,0.0,0000*75
  4223. $GPGSA,A,3,25,19,28,07,17,13,11,03,,,,,1.7,1.0,1.3*32
  4224. $GPRMC,145952.721,A,2831.4716,N,08041.0054,W,4.90,180.68,211108,,*1A
  4225. $GPGGA,145952.721,2831.4716,N,08041.0054,W,1,08,1.0,11.8,M,-31.2,M,0.0,0000*76
  4226. $GPGSA,A,3,25,19,28,07,17,13,11,03,,,,,1.7,1.0,1.3*32
  4227. $GPRMC,145953.721,A,2831.4702,N,08041.0052,W,3.82,185.06,211108,,*11
  4228. $GPGGA,145953.721,2831.4702,N,08041.0052,W,1,08,1.0,11.3,M,-31.2,M,0.0,0000*7F
  4229. $GPGSA,A,3,25,19,28,07,17,13,11,03,,,,,1.7,1.0,1.3*32
  4230. $GPRMC,145954.721,A,2831.4684,N,08041.0049,W,7.11,168.96,211108,,*17
  4231. $GPGGA,145954.721,2831.4684,N,08041.0049,W,1,07,1.2,10.6,M,-31.2,M,0.0,0000*74
  4232. $GPGSA,A,3,25,19,28,07,17,13,11,,,,,,2.4,1.2,2.0*33
  4233. $GPRMC,145956.721,A,2831.4650,N,08041.0000,W,12.19,117.10,211108,,*2B
  4234. $GPGGA,145956.721,2831.4650,N,08041.0000,W,1,08,1.0,12.4,M,-31.2,M,0.0,0000*7F
  4235. $GPGSA,A,3,25,19,28,07,17,13,11,03,,,,,1.7,1.0,1.3*32
  4236. $GPRMC,145957.721,A,2831.4632,N,08040.9967,W,11.20,127.18,211108,,*2C
  4237. $GPGGA,145957.721,2831.4632,N,08040.9967,W,1,07,1.2,15.2,M,-31.2,M,0.0,0000*76
  4238. $GPGSA,A,3,25,19,28,07,17,11,03,,,,,,1.9,1.2,1.5*3A
  4239. $GPRMC,145958.721,A,2831.4610,N,08040.9938,W,12.34,139.59,211108,,*25
  4240. $GPGGA,145958.721,2831.4610,N,08040.9938,W,1,07,1.2,18.0,M,-31.2,M,0.0,0000*7C
  4241. $GPGSA,A,3,25,19,28,07,17,11,03,,,,,,1.9,1.2,1.5*3A
  4242. $GPRMC,145959.721,A,2831.4583,N,08040.9911,W,13.13,136.20,211108,,*23
  4243. $GPGGA,145959.721,2831.4583,N,08040.9911,W,1,07,1.0,21.0,M,-31.2,M,0.0,0000*77
  4244. $GPGSA,A,3,25,19,28,07,13,11,03,,,,,,1.8,1.0,1.4*3C
  4245. Š       r‚b‚‚‚‚Rº²j
  4246. $GPGSA,A,3,25,19,28,07,17,13,11,03,,,,,1.7,1.0,1.3*32
  4247. $GPRMC,150002.721,A,2831.4530,N,08040.9867,W,7.34,149.41,211108,,*17
  4248. $GPGGA,150002.721,2831.4530,N,08040.9867,W,1,06,1.2,29.4,M,-31.2,M,0.0,0000*73
  4249. $GPGSA,A,3,19,28,07,17,13,11,,,,,,,2.6,1.2,2.2*34
  4250. $GPRMC,150003.721,A,2831.4512,N,08040.9855,W,9.81,139.22,211108,,*15
  4251. $GPGGA,150003.721,2831.4512,N,08040.9855,W,1,07,1.2,32.9,M,-31.2,M,0.0,0000*75
  4252. $GPGSA,A,3,25,19,28,07,17,13,11,,,,,,2.4,1.2,2.0*33
  4253. $GPRMC,150004.720,A,2831.4499,N,08040.9827,W,12.89,108.31,211108,,*26
  4254. $GPGGA,150004.720,2831.4499,N,08040.9827,W,1,08,1.0,37.5,M,-31.2,M,0.0,0000*70
  4255. $GPGSA,A,3,25,19,28,07,17,13,11,03,,,,,1.7,1.0,1.3*32
  4256. $GPRMC,150006.720,A,2831.4472,N,08040.9748,W,13.72,125.27,211108,,*2A
  4257. $GPGGA,150006.720,2831.4472,N,08040.9748,W,1,07,1.0,49.9,M,-31.2,M,0.0,0000*7B
  4258. $GPGSA,A,3,25,19,28,07,13,11,03,,,,,,1.8,1.0,1.4*3C
  4259. Š       r‚b‚‚‚‚Rº*5
  4260. $GPGSA,A,3,25,19,07,17,13,11,03,,,,,,2.2,1.6,1.3*38
  4261. $GPRMC,150008.720,A,2831.4466,N,08040.9693,W,10.19,118.65,211108,,*20
  4262. $GPGGA,150008.720,2831.4466,N,08040.9693,W,1,08,1.0,66.3,M,-31.2,M,0.0,0000*7F
  4263. $GPGSA,A,3,25,19,28,07,17,13,11,03,,,,,1.7,1.0,1.3*32
  4264. M,0.0,0000*71
  4265. $GPGSA,A,3,25,19,07,17,13,11,08,03,,,,,1.7,1.0,1.2*31
  4266. $GPRMC,150012.720,A,2831.4453,N,08040.9554,W,10.76,124.82,211108,,*2A
  4267. $GPGGA,150012.720,2831.4453,N,08040.9554,W,1,09,0.8,76.2,M,-31.2,M,0.0,0000*72
  4268. $GPGSA,A,3,25,19,28,07,17,13,11,08,03,,,,1.5,0.8,1.2*30
  4269. $GPRMC,150013.720,A,2831.4448,N,08040.9526,W,8.09,135.45,211108,,*1E
  4270. $GPGGA,150013.720,2831.4448,N,08040.9526,W,1,08,1.0,77.3,M,-31.2,M,0.0,0000*74
  4271. $GPGSA,A,3,25,19,28,07,13,11,08,03,,,,,1.6,1.0,1.3*3D
  4272. $GPRMC,150014.720,A,2831.4444,N,08040.9503,W,6.11,123.23,211108,,*12
  4273. $GPGGA,150014.720,2831.4444,N,08040.9503,W,1,08,1.0,77.4,M,-31.2,M,0.0,0000*7F
  4274. $GPGSA,A,3,25,19,28,07,13,11,08,03,,,,,1.6,1.0,1.3*3D
  4275. ,0.0,0000*78
  4276. $GPGSA,A,3,25,19,28,07,17,13,11,08,03,,,,1.5,0.8,1.2*30
  4277. ,-31.2,M,0.0,0000*49
  4278. $GPGSA,A,3,25,28,07,17,13,11,08,03,,,,,1.5,0.8,1.2*38
  4279. &©Š     r‚b‚‚‚‚R¢25
  4280. $GPGSA,A,3,25,19,28,07,17,13,11,08,03,,,,1.5,0.8,1.2*30
  4281. $GPRMC,150023.719,A,2831.4375,N,08040.9313,W,9.00,154.95,211108,,*1C
  4282. $GPGGA,150023.719,2831.4375,N,08040.9313,W,1,08,1.0,153.9,M,-31.2,M,0.0,0000*49
  4283. $GPGSA,A,3,25,19,07,17,13,11,08,03,,,,,1.7,1.0,1.2*31
  4284. ©Š      r‚b‚‚‚‚R¢25
  4285. $GPGSA,A,3,25,19,28,07,17,13,11,08,03,,,,1.5,0.8,1.2*30
  4286. $GPRMC,150027.719,A,2831.4252,N,08040.9161,W,18.20,111.87,211108,,*2B
  4287. $GPGGA,150027.719,2831.4252,N,08040.9161,W,1,08,1.0,200.4,M,-31.2,M,0.0,0000*46
  4288. $GPGSA,A,3,25,19,28,07,13,11,08,03,,,,,1.6,1.0,1.3*3D
  4289. $GPRMC,150028.719,A,2831.4229,N,08040.9113,W,15.30,113.00,211108,,*2C
  4290. $GPGGA,150028.719,2831.4229,N,08040.9113,W,1,09,0.8,210.6,M,-31.2,M,0.0,0000*4B
  4291. $GPGSA,A,3,25,19,28,07,17,13,11,08,03,,,,1.5,0.8,1.2*30
  4292. $GPRMC,150029.719,A,2831.4214,N,08040.9072,W,12.65,105.46,211108,,*27
  4293. $GPGGA,150029.719,2831.4214,N,08040.9072,W,1,06,4.4,219.7,M,-31.2,M,0.0,0000*4D
  4294. $GPGSA,A,3,25,28,07,17,13,08,,,,,,,7.1,4.4,5.6*31
  4295. $GPRMC,150031.719,A,2831.4189,N,08040.9001,W,11.60,112.98,211108,,*2E
  4296. $GPGGA,150031.719,2831.4189,N,08040.9001,W,1,08,0.8,237.0,M,-31.2,M,0.0,0000*4A
  4297. $GPGSA,A,3,25,19,28,07,17,13,08,03,,,,,1.6,0.8,1.2*33
  4298. $GPRMC,150033.719,A,2831.416PGGA,150033.719,2831.4160,N,08040.8929,W,1,07,3.2,252.0,M,-31.2,M,0.0,0000*48
  4299. $GPGSA,A,3,25,28,07,17,13,11,08,,,,,,5.5,3.2,4.4*35
  4300. $GPRMC,150034.719,A,2831.4146,N,08040.8896,W,12.23,119.00,211108,,*21
  4301. $GPGGA,150034.719,2831.4146,N,08040.8896,W,1,08,0.8,259.4,M,-31.2,M,0.0,0000*47
  4302. $GPGSA,A,3,25,28,07,17,13,11,08,03,,,,,1.5,0.8,1.2*38
  4303. $GPRMC,150037.719,A,2831.4129,N,08040.8789,W,12.65,97.97,211108,,*11
  4304. $GPGGA,150037.719,2831.4129,N,08040.8789,W,1,09,0.8,277.2,M,-31.2,M,0.0,0000*47
  4305. $GPGSA,A,3,25,19,28,07,17,13,11,08,03,,,,1.5,0.8,1.2*30
  4306. $GPRMC,150038.719,A,2831.4131,N,08040.8754,W,10.81,94.13,211108,,*10
  4307. $GPGGA,150038.719,2831.4131,N,08040.8754,W,1,09,0.8,281.7,M,-31.2,M,0.0,0000*4D
  4308. $GPGSA,A,3,25,19,28,07,17,13,11,08,03,,,,1.5,0.8,1.2*30
  4309. 2,M,0.0,0000*44
  4310. $GPGSA,A,3,25,19,28,07,17,13,11,08,03,,,,1.5,0.8,1.2*30
  4311. $GPRMC,150041.718,A,2831.4144,N,08040.8642,W,14.01,81.44,211108,,*11
  4312. $GPGGA,150041.718,2831.4144,N,08040.8642,W,1,08,1.2,296.4,M,-31.2,M,0.0,0000*49
  4313. $GPGSA,A,3,25,19,28,07,17,13,11,08,,,,,2.2,1.2,1.9*37
  4314. $GPRMC,150042.718,A,2831.4148,N,08040.8608,W,10.13,104.20,211108,,*29
  4315. $GPGGA,150042.718,2831.4148,N,08040.8608,W,1,08,1.2,301.5,M,-31.2,M,0.0,0000*46
  4316. $GPGSA,A,3,25,19,28,07,17,13,11,08,,,,,2.2,1.2,1.9*37
  4317. $GPRMC,150043.718,A,2831.4129,N,08040.8582,W,14.50,147.14,211108,,*2D
  4318. $GPGGA,150043.718,2831.4129,N,08040.8582,W,1,07,1.2,306.1,M,-31.2,M,0.0,0000*4D
  4319. $GPGSA,A,3,25,19,28,07,17,13,08,,,,,,2.3,1.2,1.9*36
  4320. 2,M,0.0,0000*47
  4321. $GPGSA,A,3,25,28,07,11,08,03,,,,,,,3.2,2.0,2.5*37
  4322. $GPRMC,150047.718,A,2831.3958,N,08040.8446,W,17.77,126.62,211108,,*29
  4323. $GPGGA,150047.718,2831.3958,N,08040.8446,W,1,08,1.2,321.8,M,-31.2,M,0.0,0000*4A
  4324. $GPGSA,A,3,25,19,28,07,17,13,11,08,,,,,2.2,1.2,1.9*37
  4325. $GPRMC,150048.718,A,2831.3928,N,08040.8396,W,19.08,119.01,211108,,*24
  4326. $GPGGA,150048.718,2831.3928,N,08040.8396,W,1,08,1.0,325.3,M,-31.2,M,0.0,0000*45
  4327. $GPGSA,A,3,25,19,07,17,13,11,08,03,,,,,1.7,1.0,1.2*31
  4328. ,0.0,0000*4C
  4329. $GPGSA,A,3,25,19,28,07,17,13,11,08,03,,,,1.5,0.8,1.2*30
  4330. $GPRMC,150051.718,A,2831.3874,N,08040.8216,W,23.18,111.57,211108,,*2E
  4331. $GPGGA,150051.718,2831.3874,N,08040.8216,W,1,09,0.8,335.1,M,-31.2,M,0.0,0000*47
  4332. $GPGSA,A,3,25,19,28,07,17,13,11,08,03,,,,1.5,0.8,1.2*30
  4333. $GPRMC,150052.718,A,2831.3840,N,08040.8149,W,25.30,125.38,211108,,*21
  4334. $GPGGA,150052.718,2831.3840,N,08040.8149,W,1,08,1.0,338.8,M,-31.2,M,0.0,0000*46
  4335. $GPGSA,A,3,25,19,28,07,13,11,08,03,,,,,1.6,1.0,1.3*3D
  4336. $GPRMC,150053.718,A,2831.3781,N,08040.8081,W,26.79,128.25,211108,,*28
  4337. $GPGGA,150053.718,2831.3781,N,08040.8081,W,1,09,0.8,329.3,M,-31.2,M,0.0,0000*43
  4338. $GPGSA,A,3,25,19,28,07,17,13,11,08,03,,,,1.5,0.8,1.2*30
  4339. $GPRMC,150054.718,A,2831.3726,N,08040.8015,W,25.06,125.96,211108,,*21
  4340. $GPGGA,150054.718,2831.3726,N,08040.8015,W,1,09,0.8,321.6,M,-31.2,M,0.0,0000*49
  4341. $GPGSA,A,3,25,19,28,07,17,13,11,08,03,,,,1.5,0.8,1.2*30
  4342. $GPRMC,150056.718,A,2831.3623,N,08040.7886,W,26.93,130.37,211108,,*2A
  4343. $GPGGA,150056.718,2831.3623,N,08040.7886,W,1,08,1.0,317.6,M,-31.2,M,0.0,0000*4F
  4344. $GPGSA,A,3,25,19,07,17,13,11,08,03,,,,,1.7,1.0,1.2*31
  4345. M,0.0,0000*42
  4346. $GPGSA,A,3,25,19,07,17,13,11,08,03,,,,,1.7,1.0,1.2*31
  4347. $GPRMC,150058.717,A,2831.3522,N,08040.7771,W,24.74,134.53,211108,,*23
  4348. $GPGGA,150058.717,2831.3522,N,08040.7771,W,1,07,1.2,322.7,M,-31.2,M,0.0,0000*41
  4349. $GPGSA,A,3,25,19,07,13,11,08,03,,,,,,1.9,1.2,1.4*3D
  4350. bbbbbbŠrÊbŠr’bŠr¢Rš"5
  4351. $GPRMC,150101.717,A,2831.3372,N,08040.7603,W,27.37,131.64,211108,,*2C
  4352. $GPGGA,150101.717,2831.3372,N,08040.7603,W,1,08,1.0,339.9,M,-31.2,M,0.0,0000*42
  4353. $GPGSA,A,3,25,19,07,17,13,11,08,03,,,,,1.7,1.0,1.2*31
  4354. $GPRMC,150102.717,A,2831.3319,N,08040.7542,W,27.39,133.66,211108,,*2A
  4355. $GPGGA,150102.717,2831.3319,N,08040.7542,W,1,08,1.0,347.1,M,-31.2,M,0.0,0000*4B
  4356. $GPGSA,A,3,25,19,07,17,13,11,08,03,,,,,1.7,1.0,1.2*31
  4357. $GPRMC,150103.717,A,2831.3265,N,08040.7482,W,27.86,135.45,211108,,*2F
  4358. $GPGGA,150103.717,2831.3265,N,08040.7482,W,1,08,1.0,353.7,M,-31.2,M,0.0,0000*4E
  4359. $GPGSA,A,3,25,19,28,07,13,11,08,03,,,,,1.6,1.0,1.3*3D
  4360. ™©Š     r‚b‚‚‚‚R¢’j
  4361. $GPGSA,A,3,25,19,28,07,13,11,08,03,,,,,1.6,1.0,1.3*3D
  4362. $GPRMC,150107.717,A,2831.3045,N,08040.7246,W,29.45,133.77,211108,,*23
  4363. $GPGGA,150107.717,2831.3045,N,08040.7246,W,1,07,1.6,377.2,M,-31.2,M,0.0,0000*4E
  4364. $GPGSA,A,3,25,19,07,17,13,11,03,,,,,,2.1,1.6,1.3*3B
  4365. $GPRMC,150108.717,A,2831.2989,N,08040.7178,W,29.69,130.30,211108,,*24
  4366. $GPGGA,150108.717,2831.2989,N,08040.7178,W,1,08,1.0,383.6,M,-31.2,M,0.0,0000*41
  4367. $GPGSA,A,3,25,19,28,07,13,11,08,03,,,,,1.6,1.0,1.3*3D
  4368.  ©Š     r‚b‚‚‚‚R¢ºj
  4369. $GPGSA,A,3,19,28,07,13,11,08,03,,,,,,1.7,1.0,1.4*3C
  4370. $GPRMC,150111.717,A,2831.2861,N,08040.6954,W,26.16,118.09,211108,,*2B
  4371. $GPGGA,150111.717,2831.2861,N,08040.6954,W,1,08,0.8,401.6,M,-31.2,M,0.0,0000*4D
  4372. $GPGSA,A,3,19,28,07,17,13,11,08,03,,,,,1.6,0.8,1.3*35
  4373. $GPRMC,150112.717,A,2831.2832,N,08040.6884,W,23.49,114.85,211108,,*25
  4374. $GPGGA,150112.717,2831.2832,N,08040.6884,W,1,06,1.6,407.2,M,-31.2,M,0.0,0000*47
  4375. $GPGSA,A,3,19,28,07,11,08,03,,,,,,,2.8,1.6,2.1*32
  4376. $GPRMC,150113.717,A,2831.2806,N,08040.6822,W,20.70,119.75,211108,,*24
  4377. $GPGGA,150113.717,2831.2806,N,08040.6822,W,1,07,1.0,412.4,M,-31.2,M,0.0,0000*48
  4378. $GPGSA,A,3,19,28,07,17,11,08,03,,,,,,1.8,1.0,1.4*37
  4379.         b‚‚‚‚R¢"5
  4380. $GPGSA,A,3,07,17,13,11,08,03,,,,,,,1.8,1.2,1.3*32
  4381. $GPRMC,150116.716,A,2831.2716,N,08040.6669,W,21.36,124.54,211108,,*21
  4382. $GPGGA,150116.716,2831.2716,N,08040.6669,W,1,06,1.2,427.7,M,-31.2,M,0.0,0000*45
  4383. $GPGSA,A,3,19,28,07,13,11,08,,,,,,,2.4,1.2,2.0*3A
  4384. 2,M,0.0,0000*41
  4385. $GPGSA,A,3,19,28,07,13,11,08,03,,,,,,1.7,1.0,1.3*3B
  4386. $GPRMC,150118.716,A,2831.2632,N,08040.6554,W,27.70,131.17,211108,,*22
  4387. $GPGGA,150118.716,2831.2632,N,08040.6554,W,1,07,1.2,437.8,M,-31.2,M,0.0,0000*4E
  4388. $GPGSA,A,3,19,28,07,17,13,11,08,,,,,,2.3,1.2,2.0*3B
  4389. ,M,0.0,0000*41
  4390. $GPGSA,A,3,19,07,17,13,11,08,,,,,,,2.5,1.4,2.0*31
  4391. $GPRMC,150122.716,A,2831.2483,N,08040.6264,W,23.55,114.61,211108,,*22
  4392. $GPGGA,150122.716,2831.2483,N,08040.6264,W,1,07,1.0,459.6,M,-31.2,M,0.0,0000*4F
  4393. $GPGSA,A,3,28,07,17,13,11,08,03,,,,,,1.6,1.0,1.3*34
  4394. 2,M,0.0,0000*47
  4395. $GPGSA,A,3,19,28,07,17,13,11,08,03,,,,,1.6,0.8,1.3*35
  4396. $GPRMC,150124.716,A,2831.2436,N,08040.6139,W,19.69,114.75,211108,,*22
  4397. $GPGGA,150124.716,2831.2436,N,08040.6139,W,1,06,1.6,470.3,M,-31.2,M,0.0,0000*45
  4398. $GPGSA,A,3,19,28,07,11,08,03,,,,,,,2.8,1.6,2.1*32
  4399. ,M,-31.2,M,0.0,0000*42
  4400. $GPGSA,A,3,19,28,07,13,11,08,03,,,,,,1.7,1.0,1.3*3B
  4401. ©Š      r‚b‚‚‚‚R¢25
  4402. $GPGSA,A,3,19,28,07,17,13,11,08,03,,,,,1.6,0.8,1.3*35
  4403. $GPRMC,150128.716,A,2831.2305,N,08040.5943,W,23.81,137.20,211108,,*21
  4404. $GPGGA,150128.716,2831.2305,N,08040.5943,W,1,06,1.6,487.7,M,-31.2,M,0.0,0000*44
  4405. $GPGSA,A,3,19,07,17,13,11,03,,,,,,,2.2,1.6,1.4*38
  4406. $GPRMC,150129.716,A,2831.2255,N,08040.5891,W,25.42,137.14,211108,,*24
  4407. $GPGGA,150129.716,2831.2255,N,08040.5891,W,1,07,1.0,492.3,M,-31.2,M,0.0,0000*48
  4408. $GPGSA,A,3,19,28,07,13,11,08,03,,,,,,1.7,1.0,1.3*3B
  4409. $GPRMC,150131.716,A,2831.2148,N,08040.5770,W,29.28,133.85,211108,,*2E
  4410. $GPGGA,150131.716,2831.2148,N,08040.5770,W,1,07,1.0,501.8,M,-31.2,M,0.0,0000*4E
  4411. $GPGSA,A,3,19,28,07,17,11,08,03,,,,,,1.8,1.0,1.4*37
  4412. ©Š      r‚b‚‚‚‚R¢¢j
  4413. $GPGSA,A,3,19,28,07,17,13,11,08,03,,,,,1.6,0.8,1.3*35
  4414. $GPRMC,150134.715,A,2831.1978,N,08040.5559,W,30.75,130.40,211108,,*23
  4415. $GPGGA,150134.715,2831.1978,N,08040.5559,W,1,08,0.8,515.1,M,-31.2,M,0.0,0000*43
  4416. $GPGSA,A,3,19,28,07,17,13,11,08,03,,,,,1.6,0.8,1.3*35
  4417. $GPRMC,150136.715,A,2831.1866,N,08040.5411,W,31.01,131.22,211108,,*25
  4418. $GPGGA,150136.715,2831.1866,N,08040.5411,W,1,07,1.0,523.5,M,-31.2,M,0.0,0000*45
  4419. $GPGSA,A,3,19,28,07,17,11,08,03,,,,,,1.8,1.0,1.4*37
  4420. $GPRMC,150137.715,A,2831.1809,N,08040.5337,W,30.71,130.88,211108,,*29
  4421. $GPGGA,150137.715,2831.1809,N,08040.5337,W,1,08,0.8,527.8,M,-31.2,M,0.0,0000*41
  4422. $GPGSA,A,3,19,28,07,17,13,11,08,03,,,,,1.6,0.8,1.3*35
  4423. $GPRMC,150138.715,A,2831.1754,N,08040.5263,W,30.83,129.88,211108,,*24
  4424. $GPGGA,150138.715,2831.1754,N,08040.5263,W,1,08,0.8,531.9,M,-31.2,M,0.0,0000*4F
  4425. $GPGSA,A,3,19,28,07,17,13,11,08,03,,,,,1.6,0.8,1.3*35
  4426. $GPRMC,150139.715,A,2831.1698,N,08040.5187,W,31.52,129.38,211108,,*2B
  4427. $GPGGA,150139.715,2831.1698,N,08040.5187,W,1,07,1.0,535.9,M,-31.2,M,0.0,0000*44
  4428. $GPGSA,A,3,19,28,07,17,11,08,03,,,,,,1.8,1.0,1.4*37
  4429. $GPRMC,150141.715,A,2831.1588,N,08040.5033,W,30.68,129.15,211108,,*2F
  4430. $GPGGA,150141.715,2831.1588,N,08040.5033,W,1,08,1.0,543.6,M,-31.2,M,0.0,0000*46
  4431. $GPGSA,A,3,25,19,07,17,13,11,08,03,,,,,1.7,1.0,1.2*31
  4432. &bj±0.0,0000*4C
  4433. $GPGSA,A,3,25,19,07,17,13,11,08,03,,,,,1.7,1.0,1.2*31
  4434. $GPRMC,150148.715,A,2831.1243,N,08040.4464,W,32.19,120.39,211108,,*22
  4435. $GPGGA,150148.715,2831.1243,N,08040.4464,W,1,09,0.8,577.1,M,-31.2,M,0.0,0000*40
  4436. $GPGSA,A,3,25,19,28,07,17,13,11,08,03,,,,1.5,0.8,1.2*30
  4437. –M,0.0,0000*48
  4438. $GPGSA,A,3,25,19,28,07,17,11,08,03,,,,,1.7,1.0,1.3*38
  4439. $GPRMC,150154.714,A,2831.0998,N,08040.4025,W,25.44,133.56,211108,,*26
  4440. $GPGGA,150154.714,2831.0998,N,08040.4025,W,1,09,0.8,604.2,M,-31.2,M,0.0,0000*45
  4441. $GPGSA,A,3,25,19,28,07,17,13,11,08,03,,,,1.5,0.8,1.2*30
  4442. $GPRMC,150156.714,A,2831.0879,N,08040.3905,W,30.78,137.73,211108,,*2E
  4443. $GPGGA,150156.714,2831.0879,N,08040.3905,W,1,07,1.6,613.9,M,-31.2,M,0.0,0000*49
  4444. $GPGSA,A,3,25,19,07,17,13,11,03,,,,,,2.1,1.6,1.3*3B
  4445. ©Š      r‚b‚‚‚‚R¢‚j
  4446. $GPGSA,A,3,25,19,07,17,13,11,03,,,,,,2.1,1.6,1.3*3B
  4447. $GPRMC,150158.714,A,2831.0749,N,08040.3761,W,34.14,130.84,211108,,*21
  4448. $GPGGA,150158.714,2831.0749,N,08040.3761,W,1,07,1.2,624.0,M,-31.2,M,0.0,0000*4E
  4449. $GPGSA,A,3,25,19,07,13,11,08,03,,,,,,1.9,1.2,1.3*3A
  4450. $GPRMC,150159.714,A,2831.0689,N,08040.3677,W,34.10,126.96,211108,,*2B
  4451. $GPGGA,150159.714,2831.0689,N,08040.3677,W,1,07,1.2,628.8,M,-31.2,M,0.0,0000*40
  4452. $GPGSA,A,3,25,19,07,13,11,08,03,,,,,,1.9,1.2,1.3*3A
  4453. $GPRMC,150201.714,A,2831.0579,N,08040.3503,W,33.83,124.95,211108,,*25
  4454. $GPGGA,150201.714,2831.0579,N,08040.3503,W,1,07,1.0,638.3,M,-31.2,M,0.0,0000*4A
  4455. $GPGSA,A,3,25,19,28,07,17,08,03,,,,,,1.8,1.0,1.4*30
  4456. $GPRMC,150202.714,A,2831.0526,N,08040.3413,W,33.60,123.32,211108,,*2B
  4457. $GPGGA,150202.714,2831.0526,N,08040.3413,W,1,08,1.0,643.3,M,-31.2,M,0.0,0000*40
  4458. $GPGSA,A,3,25,19,28,07,17,11,08,03,,,,,1.7,1.0,1.3*38
  4459. $GPRMC,150203.714,A,2831.0478,N,08040.3325,W,32.11,121.57,211108,,*24
  4460. $GPGGA,150203.714,2831.0478,N,08040.3325,W,1,08,1.0,648.3,M,-31.2,M,0.0,0000*42
  4461. $GPGSA,A,3,25,19,28,07,17,11,08,03,,,,,1.7,1.0,1.3*38
  4462. $GPRMC,150204.714,A,2831.0437,N,08040.3240,W,29.09,117.14,211108,,*2B
  4463. $GPGGA,150204.714,2831.0437,N,08040.3240,W,1,07,1.4,653.3,M,-31.2,M,0.0,0000*4D
  4464. $GPGSA,A,3,25,19,28,07,11,08,03,,,,,,2.7,1.4,2.1*38
  4465. $GPRMC,150206.714,A,2831.0365,N,08040.3087,W,27.44,119.31,211108,,*2E
  4466. $GPGGA,150206.714,2831.0365,N,08040.3087,W,1,08,0.8,662.7,M,-31.2,M,0.0,0000*42
  4467. $GPGSA,A,3,25,28,07,17,13,11,08,03,,,,,1.5,0.8,1.2*38
  4468. $GPRMC,150207.713,A,2831.0327,N,08040.3009,W,28.69,119.39,211108,,*20
  4469. $GPGGA,150207.713,2831.0327,N,08040.3009,W,1,08,0.8,667.3,M,-31.2,M,0.0,0000*45
  4470. $GPGSA,A,3,25,28,07,17,13,11,08,03,,,,,1.5,0.8,1.2*38
  4471. bj±0.0,0000*47
  4472. $GPGSA,A,3,25,28,07,17,13,11,08,,,,,,5.3,3.0,4.3*36
  4473. $GPRMC,150209.713,A,2831.0257,N,08040.2854,W,26.19,117.49,211108,,*29
  4474. $GPGGA,150209.713,2831.0257,N,08040.2854,W,1,09,0.8,677.2,M,-31.2,M,0.0,0000*4D
  4475. $GPGSA,A,3,25,19,28,07,17,13,11,08,03,,,,1.5,0.8,1.2*30
  4476. ©Š      r‚b‚‚‚‚R¢¢j
  4477. $GPGSA,A,3,25,28,07,17,13,11,08,03,,,,,1.5,0.8,1.2*38
  4478. $GPRMC,150214.713,A,2831.0059,N,08040.2564,W,26.84,136.17,211108,,*2B
  4479. $GPGGA,150214.713,2831.0059,N,08040.2564,W,1,06,3.0,701.4,M,-31.2,M,0.0,0000*41
  4480. $GPGSA,A,3,25,28,07,17,13,11,,,,,,,5.3,3.0,4.3*3E
  4481. 2,M,0.0,0000*42
  4482. $GPGSA,A,3,25,28,07,17,13,11,08,,,,,,5.3,3.0,4.3*36
  4483. $GPRMC,150217.713,A,2830.9870,N,08040.2363,W,33.57,134.86,211108,,*22
  4484. $GPGGA,150217.713,2830.9870,N,08040.2363,W,1,08,1.2,715.3,M,-31.2,M,0.0,0000*44
  4485. $GPGSA,A,3,25,19,28,07,17,13,11,08,,,,,2.2,1.2,1.8*36
  4486. “bj±0.0,0000*48
  4487. $GPGSA,A,3,19,07,17,11,,,,,,,,,4.0,2.6,2.9*30
  4488. $GPRMC,150219.713,A,2830.9736,N,08040.2209,W,33.41,135.05,211108,,*21
  4489. $GPGGA,150219.713,2830.9736,N,08040.2209,W,1,08,1.2,724.3,M,-31.2,M,0.0,0000*48
  4490. $GPGSA,A,3,25,19,28,07,17,13,11,08,,,,,2.2,1.2,1.8*36
  4491. &©Š     r‚b‚‚‚‚R¢Êj
  4492. $GPGSA,A,3,25,19,28,07,17,13,11,08,,,,,2.2,1.2,1.8*36
  4493. $GPRMC,150222.713,A,2830.9533,N,08040.1990,W,32.88,137.59,211108,,*29
  4494. $GPGGA,150222.713,2830.9533,N,08040.1990,W,1,08,1.2,736.9,M,-31.2,M,0.0,0000*46
  4495. $GPGSA,A,3,25,19,28,07,17,13,11,08,,,,,2.2,1.2,1.8*36
  4496. –S      r‚b‚‚‚‚R¢¢j
  4497. $GPGSA,A,3,25,19,28,07,17,13,11,08,,,,,2.2,1.2,1.8*36
  4498. $GPRMC,150224.712,A,2830.9401,N,08040.1855,W,32.23,137.63,211108,,*2E
  4499. $GPGGA,150224.712,2830.9401,N,08040.1855,W,1,07,1.2,745.8,M,-31.2,M,0.0,0000*43
  4500. $GPGSA,A,3,25,19,07,17,13,11,08,,,,,,2.3,1.2,1.9*3C
  4501. $GPRMC,150226.712,A,2830.9267,N,08040.1716,W,33.56,136.63,211108,,*20
  4502. $GPGGA,150226.712,2830.9267,N,08040.1716,W,1,07,1.2,755.8,M,-31.2,M,0.0,0000*4E
  4503. $GPGSA,A,3,25,19,28,07,17,11,08,,,,,,2.6,1.2,2.2*39
  4504. ©Š      r‚b‚‚‚‚R¢šj
  4505. $GPGSA,A,3,25,19,28,07,13,11,08,,,,,,2.3,1.2,1.9*30
  4506. $GPRMC,150228.712,A,2830.9131,N,08040.1579,W,31.86,140.25,211108,,*29
  4507. $GPGGA,150228.712,2830.9131,N,08040.1579,W,1,08,1.2,765.6,M,-31.2,M,0.0,0000*49
  4508. $GPGSA,A,3,25,19,28,07,17,13,11,08,,,,,2.2,1.2,1.8*36
  4509. $GPRMC,150231.712,A,2830.8931,N,08040.1364,W,34.52,133.24,211108,,*2B
  4510. $GPGGA,150231.712,2830.8931,N,08040.1364,W,1,08,1.2,780.2,M,-31.2,M,0.0,0000*4D
  4511. $GPGSA,A,3,25,19,28,07,17,13,11,08,,,,,2.2,1.2,1.8*36
  4512. $GPRMC,150232.712,A,2830.8865,N,08040.1284,W,34.99,132.49,211108,,*2A
  4513. $GPGGA,150232.712,2830.8865,N,08040.1284,W,1,07,1.2,785.2,M,-31.2,M,0.0,0000*4B
  4514. $GPGSA,A,3,25,19,28,07,17,11,08,,,,,,2.6,1.2,2.2*39
  4515. ±M,0.0,0000*48
  4516. $GPGSA,A,3,19,28,07,17,13,11,08,,,,,,2.3,1.2,1.9*31
  4517. $GPRMC,150237.712,A,2830.8535,N,08040.0896,W,34.98,127.78,211108,,*28
  4518. $GPGGA,150237.712,2830.8535,N,08040.0896,W,1,08,1.2,810.8,M,-31.2,M,0.0,0000*48
  4519. $GPGSA,A,3,25,19,28,07,17,13,11,08,,,,,2.2,1.2,1.8*36
  4520. $GPRMC,150238.712,A,2830.8481,N,08040.0809,W,32.99,122.34,211108,,*25
  4521. $GPGGA,150238.712,2830.8481,N,08040.0809,W,1,08,1.2,816.1,M,-31.2,M,0.0,0000*40
  4522. $GPGSA,A,3,25,19,28,07,17,13,11,08,,,,,2.2,1.2,1.8*36
  4523. $GPRMC,150239.712,A,2830.8434,N,08040.0727,W,29.40,123.60,211108,,*27
  4524. $GPGGA,150239.712,2830.8434,N,08040.0727,W,1,06,1.6,821.5,M,-31.2,M,0.0,0000*46
  4525. $GPGSA,A,3,25,19,28,07,11,08,,,,,,,3.7,1.6,3.3*3B
  4526. $GPRMC,150241.712,A,2830.8350,N,08040.0599,W,24.59,130.21,211108,,*28
  4527. $GPGGA,150241.712,2830.8350,N,08040.0599,W,1,08,1.2,833.1,M,-31.2,M,0.0,0000*46
  4528. $GPGSA,A,3,25,19,28,07,17,13,11,08,,,,,2.2,1.2,1.8*36
  4529. $GPRMC,150242.711,A,2830.8305,N,08040.0544,W,24.36,134.75,211108,,*24
  4530. $GPGGA,150242.711,2830.8305,N,08040.0544,W,1,06,1.6,838.9,M,-31.2,M,0.0,0000*4F
  4531. $GPGSA,A,3,25,19,28,07,11,08,,,,,,,3.7,1.6,3.3*3B
  4532. ™©Š     r‚b‚‚‚‚R¢’j
  4533. $GPGSA,A,3,25,19,28,07,17,13,11,08,,,,,2.2,1.2,1.8*36
  4534. $GPRMC,150244.711,A,2830.8208,N,08040.0449,W,22.58,143.43,211108,,*29
  4535. $GPGGA,150244.711,2830.8208,N,08040.0449,W,1,08,1.2,850.4,M,-31.2,M,0.0,0000*40
  4536. $GPGSA,A,3,25,19,28,07,17,13,11,08,,,,,2.2,1.2,1.8*36
  4537. $GPRMC,150246.711,A,2830.8100,N,08040.0360,W,25.33,141.53,211108,,*25
  4538. $GPGGA,150246.711,2830.8100,N,08040.0360,W,1,08,1.0,859.6,M,-31.2,M,0.0,0000*4C
  4539. $GPGSA,A,3,25,19,28,07,17,13,11,08,,,,,2.2,1.0,1.8*34
  4540. ,M,-31.2,M,0.0,0000*4C
  4541. $GPGSA,A,3,25,19,28,07,17,13,11,08,,,,,2.2,1.0,1.8*34
  4542. $GPRMC,150248.711,A,2830.7993,N,08040.0261,W,24.06,140.46,211108,,*24
  4543. $GPGGA,150248.711,2830.7993,N,08040.0261,W,1,07,1.2,868.0,M,-31.2,M,0.0,0000*46
  4544. $GPGSA,A,3,25,19,07,17,13,11,08,,,,,,2.3,1.2,1.8*3D
  4545. $GPRMC,150249.711,A,2830.7942,N,08040.0214,W,23.19,141.45,211108,,*20
  4546. $GPGGA,150249.711,2830.7942,N,08040.0214,W,1,07,1.2,872.2,M,-31.2,M,0.0,0000*40
  4547. $GPGSA,A,3,25,19,28,07,17,11,08,,,,,,2.5,1.2,2.2*3A
  4548. $GPRMC,150251.711,A,2830.7850,N,08040.0115,W,22.30,134.62,211108,,*24
  4549. $GPGGA,150251.711,2830.7850,N,08040.0115,W,1,07,3.0,880.6,M,-31.2,M,0.0,0000*40
  4550. $GPGSA,A,3,25,28,07,17,13,11,08,,,,,,5.2,3.0,4.2*36
  4551. $GPRMC,150252.711,A,2830.7807,N,08040.0066,W,22.33,136.03,211108,,*26
  4552. $GPGGA,150252.711,2830.7807,N,08040.0066,W,1,08,1.0,884.6,M,-31.2,M,0.0,0000*4D
  4553. $GPGSA,A,3,25,19,28,07,17,13,11,08,,,,,2.2,1.0,1.8*34
  4554. &©Š     r‚b‚‚‚‚R¢’j
  4555. $GPGSA,A,3,25,19,28,07,17,13,11,08,,,,,2.2,1.0,1.8*34
  4556. $GPRMC,150256.711,A,2830.7600,N,08039.9836,W,29.72,130.80,211108,,*22
  4557. $GPGGA,150256.711,2830.7600,N,08039.9836,W,1,06,1.4,901.5,M,-31.2,M,0.0,0000*4F
  4558. $GPGSA,A,3,25,19,07,13,11,08,,,,,,,2.5,1.4,1.9*3A
  4559. bj±0.0,0000*4C
  4560. $GPGSA,A,3,25,19,07,17,13,11,,,,,,,2.8,1.8,2.0*3F
  4561. $GPRMC,150259.710,A,2830.7431,N,08039.9591,W,34.76,124.37,211108,,*2D
  4562. $GPGGA,150259.710,2830.7431,N,08039.9591,W,1,07,1.2,916.4,M,-31.2,M,0.0,0000*41
  4563. $GPGSA,A,3,25,19,07,17,13,11,08,,,,,,2.3,1.2,1.8*3D
  4564. ©Š      r‚b‚‚‚‚R¢¢j
  4565. $GPGSA,A,3,25,28,07,17,13,11,08,,,,,,5.2,3.0,4.2*36
  4566. $GPRMC,150302.710,A,2830.7262,N,08039.9320,W,35.84,126.31,211108,,*26
  4567. $GPGGA,150302.710,2830.7262,N,08039.9320,W,1,08,1.0,929.8,M,-31.2,M,0.0,0000*4F
  4568. $GPGSA,A,3,25,19,28,07,17,13,11,08,,,,,2.2,1.0,1.8*34
  4569. &©Š     r‚b‚‚‚‚R¢"5
  4570. $GPGSA,A,3,25,19,28,07,13,11,08,,,,,,2.3,1.2,1.9*30
  4571. $GPRMC,150307.710,A,2830.6938,N,08039.8873,W,35.89,133.56,211108,,*22
  4572. $GPGGA,150307.710,2830.6938,N,08039.8873,W,1,06,1.6,952.4,M,-31.2,M,0.0,0000*4B
  4573. $GPGSA,A,3,25,19,28,07,11,08,,,,,,,3.8,1.6,3.3*34
  4574. ,M,-31.2,M,0.0,0000*4D
  4575. $GPGSA,A,3,25,19,28,07,17,11,08,,,,,,2.5,1.2,2.2*3A
  4576. $GPRMC,150312.710,A,2830.6587,N,08039.8469,W,36.54,133.08,211108,,*21
  4577. $GPGGA,150312.710,2830.6587,N,08039.8469,W,1,08,1.0,972.3,M,-31.2,M,0.0,0000*4D
  4578. $GPGSA,A,3,25,19,28,07,17,13,11,08,,,,,2.2,1.0,1.8*34
  4579. $GPRMC,150313.710,A,2830.6517,N,08039.8384,W,37.37,132.58,211108,,*2D
  4580. $GPGGA,150313.710,2830.6517,N,08039.8384,W,1,07,1.2,976.2,M,-31.2,M,0.0,0000*49
  4581. $GPGSA,A,3,25,19,28,07,17,13,11,,,,,,2.4,1.2,2.0*33
  4582. 3,M,-31.2,M,0.0,0000*76
  4583. $GPGSA,A,3,25,28,07,17,13,11,08,,,,,,5.2,3.0,4.2*36
  4584. $GPRMC,150327.709,A,2830.5583,N,08039.7104,W,38.78,122.08,211108,,*29
  4585. $GPGGA,150327.709,2830.5583,N,08039.7104,W,1,07,1.2,1043.2,M,-31.2,M,0.0,0000*73
  4586. $GPGSA,A,3,25,19,28,07,17,11,08,,,,,,2.5,1.2,2.2*3A
  4587. $GPRMC,150328.709,A,2830.5528,N,08039.7000,W,37.77,121.62,211108,,*2D
  4588. $GPGGA,150328.709,2830.5528,N,08039.7000,W,1,06,1.4,1046.6,M,-31.2,M,0.0,0000*7E
  4589. $GPGSA,A,3,25,19,07,13,11,08,,,,,,,2.5,1.4,1.9*3A
  4590. $GPRMC,150329.709,A,2830.5477,N,08039.6897,W,36.49,120.64,211108,,*2B
  4591. $GPGGA,150329.709,2830.5477,N,08039.6897,W,1,07,1.2,1049.5,M,-31.2,M,0.0,0000*78
  4592. $GPGSA,A,3,25,19,28,07,13,11,08,,,,,,2.3,1.2,1.9*30
  4593. 8,M,-31.2,M,0.0,0000*75
  4594. $GPGSA,A,3,25,28,07,17,13,11,08,,,,,,5.2,3.0,4.1*35
  4595. $GPRMC,150332.709,A,2830.5329,N,08039.6591,W,37.47,118.73,211108,,*24
  4596. $GPGGA,150332.709,2830.5329,N,08039.6591,W,1,07,3.0,1059.3,M,-31.2,M,0.0,0000*72
  4597. $GPGSA,A,3,25,28,07,17,13,11,08,,,,,,5.2,3.0,4.1*35
  4598. $GPRMC,150333.709,A,2830.5281,N,08039.6486,W,37.26,117.48,211108,,*21
  4599. $GPGGA,150333.709,2830.5281,N,08039.6486,W,1,07,3.0,1062.9,M,-31.2,M,0.0,0000*75
  4600. $GPGSA,A,3,25,28,07,17,13,11,08,,,,,,5.1,3.0,4.1*36
  4601. $GPRMC,150334.708,A,2830.5236,N,08039.6386,W,33.94,117.59,211108,,*21
  4602. $GPGGA,150334.708,2830.5236,N,08039.6386,W,1,08,1.0,1066.5,M,-31.2,M,0.0,0000*7D
  4603. $GPGSA,A,3,25,19,28,07,17,13,11,08,,,,,2.2,1.0,1.8*34
  4604. 08,,,,,,2.3,1.2,1.9*30
  4605. 8,M,-31.2,M,0.0,0000*7A
  4606. $GPGSA,A,3,25,19,28,07,17,13,11,08,,,,,2.2,1.0,1.8*34
  4607. $GPRMC,150338.708,A,2830.5065,N,08039.6049,W,31.34,123.70,211108,,*2D
  4608. $GPGGA,150338.708,2830.5065,N,08039.6049,W,1,07,3.0,1080.2,M,0.0,0000*7F
  4609. $GPGSA,A,3,25,19,28,07,17,13,11,08,,,,,2.2,1.0,1.8*34
  4610. $GPRMC,150341.708,A,2830.4904,N,08039.5840,W,30.17,135.53,211108,,*28
  4611. $GPGGA,150341.708,2830.4904,N,08039.5840,W,1,07,3.0,1093.2,M,-31.2,M,0.0,0000*76
  4612. $GPGSA,A,3,25,28,07,17,13,11,08,,,,,,5.1,3.0,4.1*36
  4613. 2,M,0.0,0000*79
  4614. $GPGSA,A,3,28,07,17,13,11,08,,,,,,,5.2,3.0,4.2*31
  4615. 7,M,-31.2,M,0.0,0000*79
  4616. $GPGSA,A,3,25,19,28,07,17,11,08,,,,,,2.5,1.2,2.2*3A
  4617. $GPRMC,150352.707,A,2830.4202,N,08039.4846,W,37.61,123.08,211108,,*20
  4618. $GPGGA,150352.707,2830.4202,N,08039.4846,W,1,07,1.2,1146.3,M,-31.2,M,0.0,0000*79
  4619. $GPGSA,A,3,25,19,28,07,17,11,08,,,,,,2.5,1.2,2.2*3A
  4620. $GPRMC,150353.707,A,2830.4144,N,08039.4746,W,38.62,123.22,211108,,*2B
  4621. $GPGGA,150353.707,2830.4144,N,08039.4746,W,1,07,1.2,1150.$GPRMC,150354.707,A,2830.4085,N,08039.4643,W,39.36,123.98,211108,,*25
  4622. $GPGGA,150354.707,2830.4085,N,08039.4643,W,1,08,1.0,1155.1,M,-31.2,M,0.0,0000*74
  4623. $GPGSA,A,3,25,19,28,07,17,13,11,08,,,,,2.2,1.0,1.8*34
  4624. Ibj±0.0,0000*78
  4625. $GPGSA,A,3,25,19,28,07,17,11,08,,,,,,2.5,1.2,2.2*3A
  4626. $GPRMC,150357.707,A,2830.3907,N,08039.4341,W,38.20,123.84,211108,,*2E
  4627. $GPGGA,150357.707,2830.3907,N,08039.4341,W,1,07,1.2,1167.7,M,-31.2,M,0.0,0000*7E
  4628. $GPGSA,A,3,25,19,28,07,17,11,08,,,,,,2.5,1.2,2.2*3A
  4629. $GPRMC,150358.707,A,2830.3848,N,08039.4241,W,38.96,124.68,211108,,*22
  4630. $GPGGA,150358.707,2830.3848,N,08039.4241,W,1,08,1.0,1171..2,M,0.0,0000*73
  4631. $GPGSA,A,3,25,19,28,07,17,11,08,,,,,,2.5,1.2,2.2*3A
  4632. $GPRMC,150401.707,A,2830.3666,N,08039.3939,W,38.16,123.58,211108,,*24
  4633. $GPGGA,150401.707,2830.3666,N,08039.3939,W,1,07,1.2,1184.$GPRMC,150402.707,A,2830.3606,N,08039.3838,W,38.57,124.43,211108,,*29
  4634. $GPGGA,150402.707,2830.3606,N,08039.3838,W,1,06,1.4,1188.2,M,-31.2,M,0.0,0000*76
  4635. $GPGSA,A,3,25,19,28,07,17,08,,,,,,,2.6,1.4,2.2*3F
  4636. .2,M,0.0,0000*7A
  4637. $GPGSA,A,3,25,19,28,07,17,13,11,08,,,,,2.2,1.0,1.8*34
  4638. $GPRMC,150406.707,A,2830.3367,N,08039.3435,W,37.74,122.61,211108,,*26
  4639. $GPGGA,150406.707,2830.3367,N,08039.3435,W,1,07,1.2,1204.4,M,-31.2,M,0.0,0000*77
  4640. $GPGSA,A,3,25,19,28,07,17,11,08,,,,,,2.5,1.2,2.2*3A
  4641. $GPRMC,150407.707,A,2830.3309,N,08039.3334,W,38.41,123.66,211108,,*26
  4642. $GPGGA,150407.707,2830.3309,N,08039.3334,W,1,07,1.2,1208.4,M,-31.2,M,0.0,0000*74
  4643. $GPGSA,A,3,25,19,28,07,17,11,08,,,,,,2.5,1.2,2.2*3A
  4644. bj±0.0,0000*78
  4645. $GPGSA,A,3,25,19,28,07,17,11,08,,,,,,2.5,1.2,2.2*3A
  4646. $GPRMC,150409.706,A,2830.3180,N,08039.3133,W,40.46,127.86,211108,,*2D
  4647. $GPGGA,150409.706,2830.3180,N,08039.3133,W,1,06,1.6,1216.8,M,-31.2,M,0.0,0000*7B
  4648. $GPGSA,A,3,25,19,28,07,11,08,,,,,,,3.8,1.6,3.4*33
  4649. 7,M,-31.2,M,0.0,0000*72
  4650. $GPGSA,A,3,25,19,28,07,13,08,,,,,,,2.3,1.2,1.9*30
  4651. $GPRMC,150412.706,A,2830.2960,N,08039.2845,W,39.33,130.88,211108,,*2D
  4652. $GPGGA,150412.706,2830.2960,N,08039.2845,W,1,07,1.2,1230.7,M,-31.2,M,0.0,0000*71
  4653. $GPGSA,A,3,25,19,07,17,13,11,08,,,,,,2.3,1.2,1.8*3D
  4654. ’bj±0.0,0000*7A
  4655. $GPGSA,A,3,25,19,28,07,17,13,11,08,,,,,2.2,1.0,1.8*34
  4656. 9,M,-31.2,M,0.0,0000*7B
  4657. $GPGSA,A,3,25,19,28,07,17,13,11,08,,,,,2.2,1.0,1.8*34
  4658. 4,M,-31.2,M,0.0,0000*78
  4659. $GPGSA,A,3,25,19,07,13,11,08,,,,,,,2.5,1.4,1.9*3A
  4660. 2,M,0.0,0000*77
  4661. $GPGSA,A,3,25,19,28,07,17,11,08,,,,,,2.5,1.2,2.2*3A
  4662. $GPRMC,150419.706,A,2830.2544,N,08039.2159,W,31.34,120.99,211108,,*26
  4663. $GPGGA,150419.706,2830.2544,N,08039.2159,W,1,08,1.0,1268.8,M,-31.2,M,0.0,0000*7B
  4664. $GPGSA,A,3,25,19,28,07,17,13,11,08,,,,,2.2,1.0,1.8*34
  4665. ™©Š     r‚b‚‚‚‚RºŠj
  4666. $GPGSA,A,3,25,19,28,07,17,13,11,08,,,,,2.2,1.0,1.8*34
  4667. $GPRMC,150422.706,A,2830.2407,N,08039.1920,W,29.73,125.20,211108,,*20
  4668. $GPGGA,150422.706,2830.2407,N,08039.1920,W,1,08,1.0,1285.8,M,-31.2,M,0.0,0000*73
  4669. $GPGSA,A,3,25,19,28,07,17,13,11,08,,,,,2.2,1.0,1.8*34
  4670. $GPRMC,150423.706,A,2830.2357,N,08039.1845,W,30.76,127.40,211108,,*28
  4671. $GPGGA,150423.706,2830.2357,N,08039.1845,W,1,07,3.0,1291.7,M,-31.2,M,0.0,0000*75
  4672. $GPGSA,A,3,25,28,07,17,13,11,08,,,,,,5.1,3.0,4.1*36
  4673. $GPRMC,150424.706,A,2830.2300,N,08039.1765,W,34.99,129.93,211108,,*25
  4674. $GPGGA,150424.706,2830.2300,N,08039.1765,W,1,07,3.0,1297.3,M,-31.2,M,0.0,0000*7F
  4675. $GPGSA,A,3,25,28,07,17,13,11,08,,,,,,5.1,3.0,4.1*36
  4676. 3©Š     r‚b‚‚‚‚Rº 5
  4677. $GPGSA,A,3,25,19,28,07,17,13,11,08,,,,,2.2,1.0,1.8*34
  4678. $GPRMC,150427.705,A,2830.2130,N,08039.1474,W,36.32,116.95,211108,,*2E
  4679. $GPGGA,150427.705,2830.2130,N,08039.1474,W,1,08,1.0,1314.$GPRMC,150428.705,A,2830.2088,N,08039.1377,W,33.28,115.30,211108,,*25
  4680. $GPGGA,150428.705,2830.2088,N,08039.1377,W,1,08,1.0,1320.4,M,-31.2,M,0.0,0000*73
  4681. $GPGSA,A,3,25,19,28,07,17,13,11,08,,,,,2.2,1.0,1.8*34
  4682. $GPRMC,150429.705,A,2830.2050,N,08039.1287,W,30.86,115.06,211108,,*2D
  4683. $GPGGA,150429.705,2830.2050,N,08039.1287,W,1,08,1.0,1326.1,M,-31.2,M,0.0,0000*7A
  4684. $GPGSA,A,3,25,19,28,07,17,13,11,08,,,,,2.2,1.0,1.8*34
  4685. 08,,,,,,5.0,3.0,4.1*37
  4686. 5,M,-31.2,M,0.0,0000*7D
  4687. $GPGSA,A,3,25,19,28,07,17,11,08,,,,,,2.5,1.2,2.2*3A
  4688. $GPRMC,150434.705,A,2830.1871,N,08039.0915,W,25.54,125.10,211108,,*27
  4689. $GPGGA,150434.705,2830.1871,N,08039.0915,W,1,08,1.0,1348.4,M,-31.2,M,0.0,0000*72
  4690. $GPGSA,A,3,25,19,28,07,17,13,11,08,,,,,2.2,1.0,1.8*34
  4691. Ibj±0.0,0000*7D
  4692. $GPGSA,A,3,25,19,28,07,17,13,11,08,,,,,2.2,1.0,1.8*34
  4693. $GPRMC,150437.705,A,2830.1741,N,08039.0719,W,26.10,126.75,211108,,*29
  4694. $GPGGA,150437.705,2830.1741,N,08039.0719,W,1,07,1.2,1360.6,M,-31.2,M,0.0,0000*7A
  4695. $GPGSA,A,3,25,19,28,07,17,11,08,,,,,,2.5,1.2,2.2*3A
  4696. $GPRMC,150438.705,A,2830.1698,N,08039.0655,W,25.96,126.50,211108,,*20
  4697. $GPGGA,150438.705,2830.1698,N,08039.0655,W,1,06,1.6,1364.7,M,-31.2,M,0.0,0000*79
  4698. $GPGSA,A,3,25,19,28,07,11,08,,,,,,,3.8,1.6,3.4*33
  4699. $GPRMC,150439.705,A,2830.1655,N,08039.0590,W,26.46,125.84,211108,,*2E
  4700. $GPGGA,150439.705,2830.1655,N,08039.0590,W,1,07,1.2,1368.4,M,-31.2,M,0.0,0000*7A
  4701. $GPGSA,A,3,25,19,28,07,17,13,11,08,,,,,2.2,1.0,1.8*34
  4702. $GPRMC,150443.705,A,2830.1505,N,08039.0314,W,25.74,115.28,211108,,*28
  4703. $GPGGA,150443.705,2830.1505,N,08039.0314,W,1,08,1.0,1385.8,M,-31.2,M,0.0,0000*7E
  4704. $GPGSA,A,3,25,19,28,07,17,13,11,08,,,,,2.1,1.0,1.8*37
  4705. 2,M,0.0,0000*7D
  4706. $GPGSA,A,3,25,28,07,17,13,11,08,,,,,,5.0,2.8,4.0*3F
  4707. $GPRMC,150448.704,A,2830.1362,N,08038.9927,W,29.40,108.50,211108,,*2F
  4708. $GPGGA,150448.704,2830.1362,N,08038.9927,W,1,08,1.0,1407.8,M,-31.2,M,0.0,0000*78
  4709. $GPGSA,A,3,25,19,28,07,17,13,11,08,,,,,2.1,1.0,1.8*37
  4710. ,,,,,,3.8,1.6,3.4*33
  4711. $GPRMC,150454.704,A,2830.1232,N,08038.9406,W,29.15,104.32,211108,,*20
  4712. $GPGGA,150454.704,2830.1232,N,08038.9406,W,1,08,1.0,1435.1,M,-31.2,M,0.0,0000*77
  4713. $GPGSA,A,3,25,19,28,07,17,13,11,08,,,,,2.1,1.0,1.8*37
  4714. $GPRMC,150456.704,A,2830.1194,N,08038.9225,W,30.05,104.10,211108,,*23
  4715. $GPGGA,150456.704,2830.1194,N,08038.9225,W,1,07,1.2,1443.4,M,-31.2,M,0.0,0000*74
  4716. $GPGSA,A,3,25,19,28,07,17,11,08,,,,,,2.5,1.2,2.2*3A
  4717. $GPRMC,150457.704,A,2830.1175,N,08038.9134,W,29.68,104.42,211108,,*2A
  4718. $GPGGA,150457.704,2830.1175,N,08038.9134,W,1,06,1.6,1447.3,M,-31.2,M,0.0,0000*7F
  4719. $GPGSA,A,3,25,19,28,07,11,08,,,,,,,3.8,1.6,3.4*33
  4720. —2,M,0.0,0000*73
  4721. $GPGSA,A,3,25,19,28,07,17,11,08,,,,,,2.5,1.2,2.2*3A
  4722. 0,M,-31.2,M,0.0,0000*72
  4723. $GPGSA,A,3,25,28,07,17,13,11,08,,,,,,5.0,2.8,4.0*3F
  4724. $GPRMC,150501.704,A,2830.1099,N,08038.8768,W,29.51,102.53,211108,,*29
  4725. $GPGGA,150501.704,2830.1099,N,08038.8768,W,1,06,3.4,1462.5,M,-31.2,M,0.0,0000*71
  4726. $GPGSA,A,3,25,28,17,13,11,08,,,,,,,6.3,3.4,5.3*37
  4727. $GPRMC,150502.703,A,2830.1082,N,08038.8679,W,28.56,102.10,211108,,*27
  4728. $GPGGA,150502.703,2830.1082,N,08038.8679,W,1,07,2.8,1466.3,M,-31.2,M,0.0,0000*70
  4729. $GPGSA,A,3,25,28,07,17,13,11,08,,,,,,5.0,2.8,4.0*3F
  4730. É,M,0.0,0000*78
  4731. $GPGSA,A,3,25,19,28,07,17,13,11,08,,,,,2.1,1.0,1.8*37
  4732. $GPRMC,150507.703,A,2830.0987,N,08038.8282,W,24.36,110.01,211108,,*26
  4733. $GPGGA,150507.703,2830.0987,N,08038.8282,W,1,07,1.2,1487.9,M,-31.2,M,0.0,0000*74
  4734. $GPGSA,A,3,25,19,28,17,13,11,08,,,,,,2.5,1.2,2.1*3C
  4735. ’bj±0.0,0000*73
  4736. $GPGSA,A,3,25,19,17,13,11,08,,,,,,,2.5,1.2,2.1*36
  4737. $GPRMC,150509.703,A,2830.0940,N,08038.8139,W,23.99,109.22,211108,,*2B
  4738. $GPGGA,150509.703,2830.0940,N,08038.8139,W,1,08,1.0,1496.8,M,-31.2,M,0.0,0000*7E
  4739. $GPGSA,A,3,25,19,28,07,17,13,11,08,,,,,2.1,1.0,1.8*37
  4740. $GPRMC,150511.703,A,2830.0895,N,08038.7998,W,24.09,110.39,211108,,*2B
  4741. $GPGGA,150511.703,2830.0895,N,08038.7998,W,1,08,1.0,1505.0,M,-31.2,M,0.0,0000*71
  4742. $GPGSA,A,3,25,19,28,07,17,13,11,08,,,,,2.1,1.0,1.8*37
  4743. $GPRMC,150512.703,A,2830.0869,N,08038.7928,W,23.82,114.31,211108,,*28
  4744. $GPGGA,150512.703,2830.0869,N,08038.7928,W,1,08,1.0,1509.0,M,-31.2,M,0.0,0000*76
  4745. $GPGSA,A,3,25,19,28,07,17,13,11,08,,,,,2.1,1.0,1.8*37
  4746. $GPRMC,150513.703,A,2830.0841,N,08038.7859,W,24.65,113.28,211108,,*25
  4747. $GPGGA,150513.703,2830.0841,N,08038.7859,W,1,07,2.8,1513.0,M,-31.2,M,0.0,0000*75
  4748. $GPGSA,A,3,25,28,07,17,13,11,08,,,,,,5.0,2.8,4.0*3F
  4749. $GPRMC,150514.703,A,2830.0813,N,08038.7788,W,24.41,114.10,211108,,*2C
  4750. $GPGGA,150514.703,2830.0813,N,08038.7788,W,1,08,1.0,1517.3,M,-31.2,M,0.0,0000*75
  4751. $GPGSA,A,3,25,19,28,07,17,13,11,08,,,,,2.1,1.0,1.8*37
  4752. $GPRMC,150516.703,A,2830.0756,N,08038.7649,W,24.34,114.73,211108,,*2B
  4753. $GPGGA,150516.703,2830.0756,N,08038.7649,W,1,06,1.2,1525.4,M,-31.2,M,0.0,0000*7F
  4754. $GPGSA,A,3,25,19,17,13,11,08,,,,,,,2.5,1.2,2.1*36
  4755. $GPRMC,150517.703,A,2830.0727,N,08038.7579,W,24.72,114.72,211108,,*2F
  4756. $GPGGA,150517.703,2830.0727,N,08038.7579,W,1,07,1.2,1529.4,M,-31.2,M,0.0,0000*75
  4757. $GPGSA,A,3,25,19,07,17,13,11,08,,,,,,2.2,1.2,1.8*3C
  4758. $GPRMC,150518.703,A,2830.0698,N,08038.7509,W,24.99,114.70,211108,,*25
  4759. $GPGGA,150518.703,2830.0698,N,08038.7509,W,1,08,1.0,1533.“bj±0.0,0000*72
  4760. $GPGSA,A,3,25,28,07,17,13,11,08,,,,,,5.0,2.8,4.0*3F
  4761. $GPRMC,150522.702,A,2830.0579,N,08038.7220,W,24.66,111.66,211108,,*2F
  4762. $GPGGA,150522.702,2830.0579,N,08038.7220,W,1,08,1.0,1548.7,M,-31.2,M,0.0,0000*79
  4763. $GPGSA,A,3,25,19,28,07,17,13,11,08,,,,,2.1,1.0,1.8*37
  4764. $GPRMC,150524.702,A,2830.0534,N,08038.7074,W,24.79,108.23,211108,,*24
  4765. $GPGGA,150524.702,2830.0534,N,08038.7074,W,1,07,2.8,1556.9,M,-31.2,M,0.0,0000*70
  4766. $GPGSA,A,3,25,28,07,17,13,11,08,,,,,,5.0,2.8,4.0*3F
  4767. $GPRMC,150526.702,A,2830.0491,N,08038.6928,W,24.74,108.11,211108,,*25
  4768. $GPGGA,150526.702,2830.0491,N,08038.6928,W,1,08,1.0,1565.3,M,-31.2,M,0.0,0000*73
  4769. $GPGSA,A,3,25,19,28,07,17,13,11,08,,,,,2.1,1.0,1.8*37
  4770. bj±0.0,0000*78
  4771. $GPGSA,A,3,25,28,07,17,13,11,08,,,,,,5.0,2.8,4.0*3F
  4772. $GPRMC,150528.702,A,2830.0452,N,08038.6778,W,25.65,103.81,211108,,*2C
  4773. $GPGGA,150528.702,2830.0452,N,08038.6778,W,1,07,2.8,1573.6,M,-31.2,M,0.0,0000*7F
  4774. $GPGSA,A,3,25,28,07,17,13,11,08,,,,,,5.0,2.8,4.0*3F
  4775. Ibj±0.0,0000*77
  4776. $GPGSA,A,3,25,28,07,17,13,11,08,,,,,,5.0,2.8,4.0*3F
  4777. $GPRMC,150533.702,A,2830.0375,N,08038.6374,W,27.68,100.32,211108,,*28
  4778. $GPGGA,150533.702,2830.0375,N,08038.6374,W,1,07,2.8,1594.$GPRMC,150534.702,A,2830.0361,N,08038.6288,W,28.10,99.12,211108,,*1B
  4779. $GPGGA,150534.702,2830.0361,N,08038.6288,W,1,07,2.8,1599.1,M,-31.2,M,0.0,0000*7C
  4780. $GPGSA,A,3,25,28,07,17,13,11,08,,,,,,4.9,2.8,4.0*37
  4781. $GPRMC,150536.701,A,2830.0336,N,08038.6106,W,30.30,98.65,211108,,*17
  4782. $GPGGA,150536.701,2830.0336,N,08038.6106,W,1,08,1.0,1607.3,M,-31.2,M,0.0,0000*78
  4783. $GPGSA,A,3,25,19,28,07,17,13,11,08,,,,,2.1,1.0,1.8*37
  4784. .2,M,0.0,0000*72
  4785. $GPGSA,A,3,25,19,28,07,17,11,08,,,,,,2.5,1.2,2.2*3A
  4786. $GPRMC,150538.701,A,2830.0307,N,08038.5915,W,30.68,100.07,211108,,*2B
  4787. $GPGGA,150538.701,2830.0307,N,08038.5915,W,1,06,1.2,1615.0,M,-31.2,M,0.0,0000*71
  4788. $GPGSA,A,3,25,19,28,13,11,08,,,,,,,2.5,1.2,2.2*39
  4789. ™©Š     r‚b‚‚‚‚RºŠj
  4790. $GPGSA,A,3,25,19,28,07,17,13,11,08,,,,,2.1,1.0,1.8*37
  4791. $GPRMC,150541.701,A,2830.0263,N,08038.5622,W,32.44,100.97,211108,,*28
  4792. $GPGGA,150541.701,2830.0263,N,08038.5622,W,1,07,1.2,1627.r’bj±0.0,0000*74
  4793. $GPGSA,A,3,25,19,28,07,17,13,08,,,,,,2.2,1.2,1.8*36
  4794. $GPRMC,150543.701,A,2830.0406,N,08038.5439,W,39.45,46.11,211108,,*10
  4795. $GPGGA,150543.701,2830.0406,N,08038.5439,W,1,06,1.6,1524.5,M,-31.2,M,0.0,0000*78
  4796. $GPGSA,A,3,25,19,28,07,11,08,,,,,,,3.8,1.6,3.4*33
  4797. $GPRMC,150544.701,A,2830.0546,N,08038.5365,W,25.60,86.64,211108,,*18
  4798. $GPGGA,150544.701,2830.0546,N,08038.5365,W,1,07,1.2,1440.4,M,-31.2,M,0.0,0000*73
  4799. $GPGSA,A,3,25,19,28,07,17,11,08,,,,,,2.5,1.2,2.2*3A
  4800. $GPRMC,150546.701,A,2830.0970,N,08038.5042,W,34.92,78.54,211108,,*1A
  4801. $GPGGA,150546.701,2830.0970,N,08038.5042,W,1,06,1.2,1150.2,M,-31.2,M,0.0,0000*7D
  4802. $GPGSA,A,3,25,19,28,17,11,08,,,,,,,2.9,1.2,2.6*35
  4803. bj±0.0,0000*70
  4804. $GPGSA,A,3,25,19,28,07,17,13,11,08,,,,,2.1,1.0,1.8*37
  4805. M,-31.2,M,0.0,0000*43
  4806. $GPGSA,A,3,25,19,28,07,11,08,,,,,,,3.8,1.6,3.4*33
  4807. ,M,0.0,0000*46
  4808. $GPGSA,A,3,25,19,28,07,17,11,,,,,,,3.1,1.4,2.6*35
  4809. $GPRMC,150552.701,A,2830.1265,N,08038.4369,W,32.53,101.12,211108,,*2C
  4810. $GPGGA,150552.701,2830.1265,N,08038.4369,W,1,08,1.0,908.3,M,-31.2,M,0.0,0000*44
  4811. $GPGSA,A,3,25,19,28,07,17,13,11,08,,,,,2.1,1.0,1.8*37
  4812. $GPRMC,150553.701,A,2830.1257,N,08038.4274,W,32.37,99.02,211108,,*12
  4813. $GPGGA,150553.701,2830.1257,N,08038.4274,W,1,06,1.6,906.8,M,-31.2,M,0.0,0000*44
  4814. $GPGSA,A,3,25,19,28,07,11,08,,,,,,,3.8,1.6,3.4*33
  4815. $GPRMC,150554.700,A,2830.1245,N,08038.4181,W,31.81,100.16,211108,,*24
  4816. $GPGGA,150554.700,2830.1245,N,08038.4181,W,1,07,1.2,909.2,M,-31.2,M,0.0,0000*48
  4817. $GPGSA,A,3,25,19,28,07,17,11,08,,,,,,2.5,1.2,2.2*3A
  4818. $GPRMC,150556.700,A,2830.1217,N,08038.3999,W,31.60,100.30,211108,,*2C
  4819. $GPGGA,150556.700,2830.1217,N,08038.3999,W,1,06,1.4,920.4,M,-31.2,M,0.0,0000*41
  4820. $GPGSA,A,3,25,19,28,07,17,11,,,,,,,3.1,1.4,2.6*35
  4821. M,0.0,0000*48
  4822. $GPGSA,A,3,25,19,28,07,17,13,11,08,,,,,2.1,1.0,1.8*37
  4823. $GPRMC,150558.700,A,2830.1167,N,08038.3839,W,29.79,97.15,211108,,*14
  4824. $GPGGA,150558.700,2830.1167,N,08038.3839,W,1,07,1.2,946.1,M,-31.2,M,0.0,0000*42
  4825. $GPGSA,A,3,25,19,28,07,13,11,08,,,,,,2.2,1.2,1.8*30
  4826. ©Š      r‚b‚‚‚‚R¢²j
  4827. $GPGSA,A,3,25,19,28,07,17,13,11,08,,,,,2.1,1.0,1.8*37
  4828. $GPRMC,150601.700,A,2830.1119,N,08038.3613,W,25.44,99.55,211108,,*1C
  4829. $GPGGA,150601.700,2830.1119,N,08038.3613,W,1,07,2.8,985.8,M,-31.2,M,0.0,0000*4D
  4830. $GPGSA,A,3,25,28,07,17,13,11,08,,,,,,4.9,2.8,3.9*39
  4831. $GPRMC,150602.700,A,2830.1106,N,08038.3543,W,24.45,99.72,211108,,*12
  4832. $GPGGA,150602.700,2830.1106,N,08038.3543,W,1,08,1.0,999.6,M,-31.2,M,0.0,0000*41
  4833. $GPGSA,A,3,25,19,28,07,17,13,11,08,,,,,2.1,1.0,1.8*37
  4834. $GPRMC,150604.700,A,2830.1080,N,08038.3410,W,20.81,103.64,211108,,*25
  4835. $GPGGA,150604.700,2830.1080,N,08038.3410,W,1,08,1.0,1029.7,M,-31.2,M,0.0,0000*7D
  4836. $GPGSA,A,3,25,19,28,07,17,13,11,08,,,,,2.1,1.0,1.8*37
  4837. ™©Š     r‚b‚‚‚‚Rº
  4838. 5
  4839. $GPGSA,A,3,25,19,28,07,17,13,11,08,,,,,2.1,1.0,1.8*37
  4840. $GPRMC,150608.700,A,2830.1014,N,08038.3160,W,20.40,111.46,211108,,*28
  4841. $GPGGA,150608.700,2830.1014,N,08038.3160,W,1,08,1.0,1096.0,M,-31.2,M,0.0,0000*7D
  4842. $GPGSA,A,3,25,19,28,07,17,13,11,08,,,,,2.1,1.0,1.8*37
  4843. 1,M,-31.2,M,0.0,0000*74
  4844. $GPGSA,A,3,25,19,28,07,17,13,11,08,,,,,2.1,1.0,1.8*37
  4845. &©Š     r‚b‚‚‚‚Rºªj
  4846. $GPGSA,A,3,25,19,28,07,17,13,11,08,,,,,2.1,1.0,1.8*37
  4847. $GPRMC,150612.699,A,2830.0932,N,08038.2915,W,21.59,119.95,211108,,*2A
  4848. $GPGGA,150612.699,2830.0932,N,08038.2915,W,1,08,1.0,1156.2,M,-31.2,M,0.0,0000*7F
  4849. $GPGSA,A,3,25,19,28,07,17,13,11,08,,,,,2.1,1.0,1.8*37
  4850. 3©Š     r‚b‚‚‚‚Rºšj
  4851. $GPGSA,A,3,25,19,28,17,13,11,08,,,,,,2.4,1.0,2.1*3F
  4852. 6,M,-31.2,M,0.0,0000*76
  4853. $GPGSA,A,3,25,19,28,07,17,13,11,08,,,,,2.1,1.0,1.8*37
  4854. $GPRMC,150617.699,A,2830.0813,N,08038.2634,W,18.82,120.03,211108,,*28
  4855. $GPGGA,150617.699,2830.0813,N,08038.2634,W,1,08,1.0,1236.9,M,-31.2,M,0.0,0000*7A
  4856. $GPGSA,A,3,25,19,28,07,17,13,11,08,,,,,2.1,1.0,1.8*37
  4857. ™,M,0.0,0000*7F
  4858. $GPGSA,A,3,25,19,07,17,13,11,08,,,,,,2.2,1.2,1.8*3C
  4859. $GPRMC,150622.699,A,2830.0640,N,08038.2383,W,22.00,138.33,211108,,*26
  4860. $GPGGA,150622.699,2830.0640,N,08038.2383,W,1,08,1.0,1325.1,M,-31.2,M,0.0,0000*76
  4861. $GPGSA,A,3,25,19,28,07,17,13,11,08,,,,,2.1,1.0,1.8*37
  4862. ’bj±0.0,0000*79
  4863. $GPGSA,A,3,25,19,07,17,13,11,08,,,,,,2.2,1.2,1.8*3C
  4864. 8,M,-31.2,M,0.0,0000*79
  4865. $GPGSA,A,3,25,19,28,07,17,13,11,08,,,,,2.1,1.0,1.8*37
  4866. $GPRMC,150626.699,A,2830.0468,N,08038.2192,W,22.51,140.73,211108,,*27
  4867. $GPGGA,150626.699,2830.0468,N,08038.2192,W,1,08,1.0,1398.9,M,-31.2,M,0.0,0000*76
  4868. $GPGSA,A,3,25,19,28,07,17,13,11,08,,,,,2.1,1.0,1.8*37
  4869. $GPRMC,150627.699,A,2830.0420,N,08038.2138,W,23.53,135.85,211108,,*22
  4870. $GPGGA,150627.699,2830.0420,N,08038.2138,W,1,08,1.0,1414.7,M,-31.2,M,0.0,0000*76
  4871. $GPGSA,A,3,25,19,28,07,17,13,11,08,,,,,2.1,1.0,1.8*37
  4872. Ibj±0.0,0000*7F
  4873. $GPGSA,A,3,25,19,07,17,13,11,08,,,,,,2.2,1.2,1.8*3C
  4874. $GPRMC,150631.698,A,2830.0227,N,08038.1917,W,22.72,143.33,211108,,*2D
  4875. $GPGGA,150631.698,2830.0227,N,08038.1917,W,1,08,1.0,1475.7,M,-31.2,M,0.0,0000*70
  4876. $GPGSA,A,3,25,19,28,07,17,13,11,08,,,,,2.1,1.0,1.8*37
  4877. Ibj±0.0,0000*79
  4878. $GPGSA,A,3,25,19,28,07,17,13,11,08,,,,,2.1,1.0,1.8*37
  4879. $GPRMC,150633.698,A,2829.9995,N,08038.1745,W,27.48,155.82,211108,,*24
  4880. $GPGGA,150633.698,2829.9995,N,08038.1745,W,1,08,1.0,1528.5,M,-31.2,M,0.0,0000*73
  4881. $GPGSA,A,3,25,19,28,07,17,13,11,08,,,,,2.1,1.0,1.8*37
  4882. 3,M,-31.2,M,0.0,0000*77
  4883. $GPGSA,A,3,25,19,28,07,17,13,08,,,,,,2.2,1.2,1.8*36
  4884. $GPRMC,150636.698,A,2826.7528,N,08041.6673,W,0.00,,211108,,*0B
  4885. $GPGGA,150636.698,2826.7528,N,08041.6673,W,1,04,4.2,12754.3,M,-31.2,M,0.0,0000*46
  4886. $GPGSA,A,3,07,17,13,08,,,,,,,,,7.0,4.2,5.5*38
  4887. $GPRMC,150638.698,A,2829.3684,N,08042.5281,W,0.00,,211108,,*02
  4888. $GPGGA,150638.698,2829.3684,N,08042.5281,W,1,04,3.2,11831.3,M,-31.2,M,0.0,0000*47
  4889. $GPGSA,A,3,28,07,17,11,,,,,,,,,6.3,3.2,5.3*3B
  4890. $GPRMC,150639.698,V,2829.3684,N,08042.5281,W,,,211108,,*0A
  4891. $GPGGA,150639.698,2829.3684,N,08042.5281,W,0,00,50.0,28.4,M,-28.4,M,0.0,0000*4E
  4892. $GPGSA,A,1,,,,,,,,,,,,,50.0,50.0,50.0*05
  4893. 0.0,0000*49
  4894. $GPGSA,A,1,,,,,,,,,,,,,50.0,50.0,50.0*05
  4895. $GPRMC,150644.698,V,2834.3936,N,08040.7803,W,,,211108,,*0A
  4896. $GPGGA,150644.698,2834.3936,N,08040.7803,W,0,00,50.0,-9.5,M,9.5,M,0.0,0000*4E
  4897. $GPGSA,A,1,,,,,,,,,,,,,50.0,50.0,50.0*05
  4898. $GPRMC,150645.698,V,2834.3936,N,08040.7803,W,,,211108,,*0B
  4899. $GPGGA,150645.698,2834.3936,N,08040.7803,W,0,00,50.0,8.5,M,-8.5,M,0.0,0000*4F
  4900. $GPGSA,A,1,,,,,,,,,,,,,50.0,50.0,50.0*05
  4901. $GPRMC,150647.697,A,2832.6395,N,08037.6074,W,0.00,,211108,,*06
  4902. $GPGGA,150647.697,2832.6395,N,08037.6074,W,1,04,3.4,17621.8,M,-31.2,M,0.0,0000*47
  4903. $GPGSA,A,3,25,19,07,08,,,,,,,,,8.8,3.4,8.1*3C
  4904. $GPRMC,150648.697,V,2832.6395,N,08037.6074,W,,,211108,,*00
  4905. $GPGGA,150648.697,2832.6395,N,08037.6074,W,0,00,50.0,30.2,M,-30.2,M,0.0,0000*44
  4906. $GPGSA,A,1,,,,,,,,,,,,,50.0,50.0,50.0*05
  4907. ,M,-31.2,M,0.0,0000*7B
  4908. $GPGSA,A,3,19,28,11,08,,,,,,,,,4.7,2.0,4.2*3F
  4909. .2,M,0.0,0000*7C
  4910. $GPGSA,A,3,25,19,28,08,,,,,,,,,4.6,1.8,4.2*32
  4911. ,0000*70
  4912. $GPGSA,A,3,19,28,11,08,,,,,,,,,4.7,2.0,4.2*3F
  4913. .2,M,0.0,0000*77
  4914. $GPGSA,A,3,25,19,17,08,,,,,,,,,3.1,1.6,2.7*33
  4915. b‚‚‚‚Rºšj
  4916. $GPGSA,A,3,19,28,11,08,,,,,,,,,4.7,2.0,4.2*3F
  4917. 0.0,0000*43
  4918. $GPGSA,A,1,,,,,,,,,,,,,50.0,50.0,50.0*05
  4919. $GPRMC,150659.697,A,2834.7001,N,08033.4489,W,0.00,,211108,,*00
  4920. $GPGGA,150659.697,2834.7001,N,08033.4489,W,1,04,5.6,15668.8,M,-31.3,M,0.0,0000*4B
  4921. $GPGSA,A,3,25,07,08,03,,,,,,,,,9.2,5.6,7.3*35
  4922. $GPRMC,150700.697,A,2829.7533,N,08039.1132,W,0.00,,211108,,*0F
  4923. $GPGGA,150700.697,2829.7533,N,08039.1132,W,1,06,1.2,4200.0,M,-31.3,M,0.0,0000*74
  4924. $GPGSA,A,3,19,27,28,17,13,08,,,,,,,2.4,1.2,2.0*3E
  4925. b‚‚‚‚Rº’j
  4926. $GPGSA,A,3,25,19,28,08,,,,,,,,,4.6,1.8,4.2*32
  4927. .2,M,0.0,0000*74
  4928. $GPGSA,A,3,19,17,11,08,,,,,,,,,3.2,1.6,2.8*38
  4929. .2,M,0.0,0000*71
  4930. $GPGSA,A,3,25,19,28,08,,,,,,,,,4.6,1.8,4.2*32
  4931. b‚‚‚‚Rº 5
  4932. $GPGSA,A,3,25,19,27,28,,,,,,,,,4.3,2.0,3.7*33
  4933. $GPRMC,150708.696,V,2831.7668,N,08039.5595,W,,,211108,,*06
  4934. $GPGGA,150708.696,2831.7668,N,08039.5595,W,0,00,50.0,27.2,M,-27.2,M,0.0,0000*42
  4935. $GPGSA,A,1,,,,,,,,,,,,,50.0,50.0,50.0*05
  4936. $GPRMC,150709.696,V,2831.7668,N,08039.5595,W,,,211108,,*07
  4937. $GPGGA,150709.696,2831.7668,N,08039.5595,W,0,00,50.0,-1.9,M,1.9,M,0.0,0000*43
  4938. $GPGSA,A,1,,,,,,,,,,,,,50.0,50.0,50.0*05
  4939. $GPRMC,150711.696,V,2831.7668,N,08039.5595,W,,,211108,,*0E
  4940. $GPGGA,150711.696,2831.7668,N,08039.5595,W,0,00,50.0,9.4,M,-9.4,M,0.0,0000*4A
  4941. $GPGSA,A,1,,,,,,,,,,,,,50.0,50.0,50.0*05
  4942. $GPRMC,150713.696,A,2831.6337,N,08039.4927,W,24.86,54.26,211108,,*1C
  4943. $GPGGA,150713.696,2831.6337,N,08039.4927,W,1,04,2.2,8155.3,M,-31.2,M,0.0,0000*78
  4944. $GPGSA,A,3,19,27,28,11,,,,,,,,,4.5,2.2,3.9*3E
  4945. $GPRMC,150714.696,A,2829.6203,N,08039.0335,W,0.00,,211108,,*0A
  4946. $GPGGA,150714.696,2829.6203,N,08039.0335,W,1,04,1.8,5010.9,M,-31.2,M,0.0,0000*73
  4947. $GPGSA,A,3,19,28,07,17,,,,,,,,,3.3,1.8,2.7*3D
  4948.         ‚‚‚RºŠj
  4949. $GPGSA,A,3,19,27,28,13,,,,,,,,,2.6,1.4,2.1*35
  4950. $GPRMC,150717.696,A,2829.2792,N,08038.9343,W,25.15,117.62,211108,,*27
  4951. $GPGGA,150717.696,2829.2792,N,08038.9343,W,1,05,1.2,4126.9,M,-31.2,M,0.0,0000*7E
  4952. $GPGSA,A,3,19,28,07,13,08,,,,,,,,2.4,1.2,2.0*3A
  4953. $GPRMC,150718.696,A,2830.8058,N,08039.7820,W,0.00,,211108,,*04
  4954. $GPGGA,150718.696,2830.8058,N,08039.7820,W,1,04,1.6,1305.5,M,-31.2,M,0.0,0000*7C
  4955. $GPGSA,A,3,25,19,17,08,,,,,,,,,3.1,1.6,2.7*33
  4956. .2,M,0.0,0000*75
  4957. $GPGSA,A,3,25,19,27,28,,,,,,,,,4.3,2.0,3.7*33
  4958. $GPRMC,150721.695,V,2831.7890,N,08039.4902,W,,,211108,,*04
  4959. $GPGGA,150721.695,2831.7890,N,08039.4902,W,0,00,50.0,-3.9,M,3.9,M,0.0,0000*40
  4960. $GPGSA,A,1,,,,,,,,,,,,,50.0,50.0,50.0*05
  4961. $GPRMC,150722.695,A,2831.5002,N,08040.8889,W,0.00,,211108,,*0F
  4962. $GPGGA,150722.695,2831.5002,N,08040.8889,W,1,03,11.0,4126.9,M,-31.2,M,0.0,0000*4D
  4963. $GPGSA,A,2,25,19,27,,,,,,,,,,22.8,11.0,20.0*03
  4964. $GPRMC,150724.695,V,2831.5002,N,08040.8889,W,,,211108,,*00
  4965. $GPGGA,150724.695,2831.5002,N,08040.8889,W,0,00,50.0,15.0,M,-15.0,M,0.0,0000*44
  4966. $GPGSA,A,1,,,,,,,,,,,,,50.0,50.0,50.0*05
  4967. $GPRMC,150725.695,V,2831.5002,N,08040.8889,W,,,211108,,*01
  4968. $GPGGA,150725.695,2831.5002,N,08040.8889,W,0,00,50.0,13.1,M,-13.1,M,0.0,0000*45
  4969. $GPGSA,A,1,,,,,,,,,,,,,50.0,50.0,50.0*05
  4970. $GPRMC,150729.695,A,2829.2376,N,08038.8586,W,0.00,,211108,,*07
  4971. $GPGGA,150729.695,2829.2376,N,08038.8586,W,1,05,1.2,4240.8,M,-31$GPRMC,150732.695,V,2831.2330,N,08042.3615,W,,,211108,,*00
  4972. $GPGGA,150732.695,2831.2330,N,08042.3615,W,0,00,50.0,50.1,M,-50.1,M,0.0,0000*44
  4973. $GPGSA,A,1,,,,,,,,,,,,,50.0,50.0,50.0*05
  4974. 0,0000*45
  4975. $GPGSA,A,1,,,,,,,,,,,,,50.0,50.0,50.0*05
  4976. $GPRMC,150734.695,V,2831.2330,N,08042.3615,W,,,211108,,*06
  4977. $GPGGA,150734.695,2831.2330,N,08042.3615,W,0,00,50.0,-3.1,M,3.0,M,0.0,0000*43
  4978. $GPGSA,A,1,,,,,,,,,,,,,50.0,50.0,50.0*05
  4979. $GPRMC,150735.695,A,2831.5466,N,08040.7979,W,4.62,33.09,211108,,*29
  4980. $GPGGA,150735.695,2831.5466,N,08040.7979,W,1,04,2.2,4566.7,M,-31.2,M,0.0,0000*75
  4981. $GPGSA,A,3,25,19,27,17,,,,,,,,,3.2,2.2,2.3*3E
  4982. b‚‚‚‚Rº‚j
  4983. $GPGSA,A,3,19,27,17,11,,,,,,,,,3.1,2.0,2.3*38
  4984. $GPRMC,150737.695,A,2830.7996,N,08039.7097,W,0.00,,211108,,*0A
  4985. $GPGGA,150737.695,2830.7996,N,08039.7097,W,1,04,1.6,1405.3,M,-31.2,M,0.0,0000*73
  4986. $GPGSA,A,3,25,19,17,08,,,,,,,,,3.1,1.6,2.7*33
  4987. 2,M,0.0,0000*42
  4988. $GPGSA,A,3,19,27,13,11,,,,,,,,,3.1,2.4,2.0*3B
  4989. $GPRMC,150739.694,A,2831.7923,N,08039.3674,W,0.00,,211108,,*05
  4990. $GPGGA,150739.694,2831.7923,N,08039.3674,W,1,05,1.8,8948.8,M,-31.2,M,0.0,0000*75
  4991. $GPGSA,A,3,25,19,27,28,11,,,,,,,,4.1,1.8,3.6*3B
  4992. R¢*5
  4993. $GPGSA,A,1,,,,,,,,,,,,,50.0,50.0,50.0*05
  4994. 0.0,0000*4D
  4995. $GPGSA,A,1,,,,,,,,,,,,,50.0,50.0,50.0*05
  4996. .2,M,0.0,0000*7E
  4997. $GPGSA,A,3,25,19,27,28,11,,,,,,,,4.2,1.8,3.7*39
  4998. $GPRMC,150834.691,A,2830.7102,N,08041.4104,W,0.00,,211108,,*00
  4999. $GPGGA,150834.691,2830.7102,N,08041.4104,W,1,04,2.4,756.5,M,-31.$GPRMC,150835.691,V,2830.7102,N,08041.4104,W,,,211108,,*08
  5000. $GPGGA,150835.691,2830.7102,N,08041.4104,W,0,00,50.0,28.5,M,-28.5,M,$GPRMC,150836.691,A,2831.6163,N,08040.5987,W,0.00,,211108,,*06
  5001. $GPGGA,150836.691,2831.6163,N,08040.5987,W,1,04,2.2,5218.9,M,-310.0,0000*4E
  5002. $GPGSA,A,1,,,,,,,,,,,,,50.0,50.0,50.0*05
  5003. $GPRMC,150903.690,V,2831.7890,N,08037.0991,W,,,211108,,*0F
  5004. $GPGGA,150903.690,2831.7890,N,08037.0991,W,0,00,50.0,8.8,M,-8.8,M,0.1.2,M,0.0,0000*4B
  5005. $GPGSA,A,3,25,27,28,11,,,,,,,,,7.8,6.6,4.0*31
  5006. .2,M,0.0,0000*78
  5007. $GPGSA,A,3,25,19,28,08,,,,,,,,,4.6,1.8,4.2*32
  5008. .1,M,0.0,0000*7A
  5009. $GPGSA,A,3,27,13,11,08,,,,,,,,,6.5,4.0,5.0*3F
  5010. $GPRMC,151005.686,A,2829.4176,N,08036.0691,W,32.38,104.70,211108,,*2C
  5011. $GPGGA,151005.686,2829.4176,N,08036.0691,W,1,08,1.0,2914.7,M,-31.2,M,0.0,0000*73
  5012. $GPGSA,A,3,19,27,28,07,17,13,11,08,,,,,1.9,1.0,1.5*33
  5013. $GPRMC,151006.686,A,2829.4182,N,08036.0546,W,0.00,,211108,,*0B
  5014. $GPGGA,151006.686,2829.4182,N,08036.0546,W,1,07,2.4,2907.6,M,-31.2,M,0.0,0000*7A
  5015. $GPGSA,A,3,19,27,28,07,17,13,11,08,,,,,1.9,1.0,1.5*33
  5016. b’r‚bšršRš’j
  5017. $GPRMC,151027.685,A,2829.3465,N,08035.7945,W,44.20,103.45,211108,,*24
  5018. $GPGGA,151027.685,2829.3465,N,08035.7945,W,1,08,1.2,3012.¹2,M,0.0,0000*7F
  5019. $GPGSA,A,3,25,19,27,28,07,13,11,08,,,,,1.9,1.2,1.5*30
  5020. ,M,-31.2,M,0.0,0000*73
  5021. $GPGSA,A,3,25,19,27,28,07,17,11,08,,,,,2.2,1.2,1.9*30
  5022. $GPRMC,151521.668,A,2829.2771,N,08031.7319,W,47.55,95.70,211108,,*1D
  5023. $GPGGA,151521.668,2829.2771,N,08031.7319,W,1,07,1.6,4450.8,M,-31.2,M,0.0,0000*7F
  5024. $GPGSA,A,3,25,19,27,28,07,11,08,,,,,,3.4,1.6,2.9*36
  5025. $GPRMC,151522.668,A,2829.2758,N,08031.7174,W,45.16,93.22,211108,,*18
  5026. $GPGGA,151522.668,2829.2758,N,08031.7174,W,1,09,1.0,4458.2,M,-31.2,M,0.0,0000*74
  5027. $GPGSA,A,3,25,19,27,28,07,17,13,11,08,,,,1.8,1.0,1.4*34
  5028. $GPRMC,151523.668,A,2829.2751,N,08031.7035,W,43.54,92.41,211108,,*10
  5029. $GPGGA,151523.668,2829.2751,N,08031.7035,W,1,09,1.0,4465.1$GPRMC,151524.668,A,2829.2746,N,08031.6906,W,38.82,91.55,211108,,*18
  5030. $GPGGA,151524.668,2829.2746,N,08031.6906,W,1,08,2.2,4471.9,M,-31.2,M,0.0,0000*71
  5031. $GPGSA,A,3,25,27,28,07,17,13,11,08,,,,,3.5,2.2,2.7*32
  5032. Š       r‚b‚‚‚‚Rº¢j
  5033. $GPGSA,A,3,25,19,27,28,07,17,13,11,08,,,,1.8,1.0,1.4*34
  5034. ,M,-31.2,M,0.0,0000*70
  5035. $GPGSA,A,3,25,27,28,07,17,13,11,08,,,,,3.5,2.2,2.7*32
  5036. ,M,-31.2,M,0.0,0000*75
  5037. $GPGSA,A,3,25,19,27,07,17,13,11,08,,,,,1.9,1.2,1.4*3D
  5038. ,M,-31.2,M,0.0,0000*7B
  5039. $GPGSA,A,3,25,19,27,28,07,17,13,11,08,,,,1.8,1.0,1.4*34
  5040. 3©Š     r‚b‚‚‚‚Rº‚j
  5041. $GPGSA,A,3,25,19,27,28,07,17,13,11,08,,,,1.8,1.0,1.4*34
  5042. $GPRMC,151544.666,A,2829.3099,N,08031.4080,W,49.40,82.04,211108,,*1F
  5043. $GPGGA,151544.666,2829.3099,N,08031.4080,W,1,08,1.0,4569.5,M,-31.2,M,0.0,0000*7D
  5044. $GPGSA,A,3,25,19,27,28,07,13,11,08,,,,,1.9,1.0,1.4*33
  5045. ©Š      r‚b‚‚‚‚Rº’j
  5046. $GPGSA,A,3,25,27,28,07,17,13,11,08,,,,,3.5,2.2,2.7*32
  5047. ,M,-31.2,M,0.0,0000*7D
  5048. $GPGSA,A,3,25,19,27,28,07,17,13,11,08,,,,1.8,1.0,1.4*34
  5049. ©Š      r‚b‚‚‚‚Rº25
  5050. $GPGSA,A,3,25,27,28,07,17,13,11,08,,,,,3.5,2.2,2.7*32
  5051. ,M,-31.2,M,0.0,0000*79
  5052. $GPGSA,A,3,25,19,27,28,07,17,13,11,08,,,,1.8,1.0,1.4*34
  5053. $GPRMC,151606.665,A,2829.3124,N,08031.0484,W,49.56,95.99,211108,,*1F
  5054. $GPGGA,151606.665,2829.3124,N,08031.0484,W,1,09,1.0,4665.1,M,-31.2,M,0.0,0000*72
  5055. $GPGSA,A,3,25,19,27,28,07,17,13,11,08,,,,1.8,1.0,1.4*34
  5056. ,M,-31.2,M,0.0,0000*7E
  5057. $GPGSA,A,3,25,19,27,28,07,17,11,08,,,,,2.2,1.2,1.9*30
  5058. bj±0.0,0000*7A
  5059. $GPGSA,A,3,25,19,27,28,07,17,13,11,08,,,,1.8,1.0,1.4*34
  5060. $GPRMC,151612.665,A,2829.3008,N,08030.9631,W,42.42,98.08,211108,,*1A
  5061. $GPGGA,151612.665,2829.3008,N,08030.9631,W,1,08,2.2,4690.8,M,-31.2,M,0.0,0000*7F
  5062. $GPGSA,A,3,25,27,28,07,17,13,11,08,,,,,3.5,2.2,2.7*32
  5063. $GPRMC,151639.663,A,2829.2938,N,08030.6295,W,43.80,85.54,211108,,*11
  5064. $GPGGA,151639.663,2829.2938,N,08030.6295,W,1,09,1.0,4805.3,M,-31.2,M,0.0,0000*77
  5065. $GPGSA,A,3,25,19,27,28,07,17,13,11,08,,,,1.8,1.0,1.4*34
  5066. É,M,0.0,0000*71
  5067. $GPGSA,A,3,25,19,27,28,07,17,13,11,08,,,,1.8,1.0,1.4*34